<?xml version='1.0' encoding='UTF-8'?><gpx version="1.1" creator="JPX - https://github.com/jenetics/jpx" xmlns="http://www.topografix.com/GPX/1/1"><trk><trkseg><trkpt lat="43.5594167" lon="11.8789441"><ele>495.0</ele><time>2026-04-19T08:43:32.624Z</time></trkpt><trkpt lat="43.5593084" lon="11.8791719"><ele>495.0</ele><time>2026-04-19T08:43:39.567Z</time></trkpt><trkpt lat="43.5592349" lon="11.8791952"><ele>495.0</ele><time>2026-04-19T08:43:42.562Z</time></trkpt><trkpt lat="43.5591981" lon="11.8792765"><ele>495.0</ele><time>2026-04-19T08:46:46.564Z</time></trkpt><trkpt lat="43.5592442" lon="11.8793704"><ele>495.0</ele><time>2026-04-19T08:46:49.551Z</time></trkpt><trkpt lat="43.5592986" lon="11.8794483"><ele>494.8</ele><time>2026-04-19T08:46:52.537Z</time></trkpt><trkpt lat="43.5593735" lon="11.8795221"><ele>494.6</ele><time>2026-04-19T08:46:54.541Z</time></trkpt><trkpt lat="43.5594616" lon="11.8796133"><ele>494.4</ele><time>2026-04-19T08:46:56.558Z</time></trkpt><trkpt lat="43.5595555" lon="11.8796839"><ele>494.2</ele><time>2026-04-19T08:46:58.564Z</time></trkpt><trkpt lat="43.559648" lon="11.8797465"><ele>494.0</ele><time>2026-04-19T08:47:00.55Z</time></trkpt><trkpt lat="43.5597066" lon="11.8797807"><ele>494.0</ele><time>2026-04-19T08:47:01.554Z</time></trkpt><trkpt lat="43.5598101" lon="11.8798659"><ele>494.0</ele><time>2026-04-19T08:47:03.546Z</time></trkpt><trkpt lat="43.559907" lon="11.8799539"><ele>494.0</ele><time>2026-04-19T08:47:05.56Z</time></trkpt><trkpt lat="43.5600093" lon="11.8800329"><ele>494.0</ele><time>2026-04-19T08:47:07.553Z</time></trkpt><trkpt lat="43.5601083" lon="11.8801187"><ele>493.6</ele><time>2026-04-19T08:47:09.545Z</time></trkpt><trkpt lat="43.5601973" lon="11.8801982"><ele>493.2</ele><time>2026-04-19T08:47:11.551Z</time></trkpt><trkpt lat="43.5602749" lon="11.8803029"><ele>492.80000000000007</ele><time>2026-04-19T08:47:13.546Z</time></trkpt><trkpt lat="43.5603234" lon="11.8803718"><ele>492.40000000000003</ele><time>2026-04-19T08:47:14.541Z</time></trkpt><trkpt lat="43.5603892" lon="11.8804963"><ele>492.0</ele><time>2026-04-19T08:47:16.547Z</time></trkpt><trkpt lat="43.5604095" lon="11.8805866"><ele>491.8333333333333</ele><time>2026-04-19T08:47:17.532Z</time></trkpt><trkpt lat="43.5604293" lon="11.8806846"><ele>491.66666666666663</ele><time>2026-04-19T08:47:18.553Z</time></trkpt><trkpt lat="43.5604514" lon="11.8807869"><ele>491.5</ele><time>2026-04-19T08:47:19.551Z</time></trkpt><trkpt lat="43.560473" lon="11.8808788"><ele>491.3333333333333</ele><time>2026-04-19T08:47:20.562Z</time></trkpt><trkpt lat="43.5605021" lon="11.8809866"><ele>491.16666666666663</ele><time>2026-04-19T08:47:21.552Z</time></trkpt><trkpt lat="43.5605307" lon="11.8810896"><ele>491.0</ele><time>2026-04-19T08:47:22.552Z</time></trkpt><trkpt lat="43.560559" lon="11.8811886"><ele>490.49999999999994</ele><time>2026-04-19T08:47:23.539Z</time></trkpt><trkpt lat="43.5605891" lon="11.8812799"><ele>490.0</ele><time>2026-04-19T08:47:24.548Z</time></trkpt><trkpt lat="43.5606148" lon="11.8813643"><ele>489.5</ele><time>2026-04-19T08:47:25.542Z</time></trkpt><trkpt lat="43.5606385" lon="11.8814452"><ele>489.0</ele><time>2026-04-19T08:47:26.54Z</time></trkpt><trkpt lat="43.5606941" lon="11.8815655"><ele>488.49999999999994</ele><time>2026-04-19T08:47:28.531Z</time></trkpt><trkpt lat="43.5607501" lon="11.8816395"><ele>488.0</ele><time>2026-04-19T08:47:30.557Z</time></trkpt><trkpt lat="43.5608263" lon="11.8817106"><ele>487.1428571428571</ele><time>2026-04-19T08:47:33.543Z</time></trkpt><trkpt lat="43.5608935" lon="11.8817746"><ele>486.2857142857143</ele><time>2026-04-19T08:47:36.563Z</time></trkpt><trkpt lat="43.5609587" lon="11.8818242"><ele>485.42857142857144</ele><time>2026-04-19T08:47:39.553Z</time></trkpt><trkpt lat="43.5610279" lon="11.8818851"><ele>484.57142857142856</ele><time>2026-04-19T08:47:43.533Z</time></trkpt><trkpt lat="43.5610904" lon="11.8819236"><ele>483.7142857142858</ele><time>2026-04-19T08:47:48.55Z</time></trkpt><trkpt lat="43.5611459" lon="11.8819715"><ele>482.8571428571429</ele><time>2026-04-19T08:47:51.562Z</time></trkpt><trkpt lat="43.5612106" lon="11.8820191"><ele>482.0</ele><time>2026-04-19T08:47:53.553Z</time></trkpt><trkpt lat="43.561273" lon="11.8820769"><ele>481.99999999999994</ele><time>2026-04-19T08:47:54.561Z</time></trkpt><trkpt lat="43.5613716" lon="11.8821706"><ele>482.0</ele><time>2026-04-19T08:47:56.564Z</time></trkpt><trkpt lat="43.5614276" lon="11.8822285"><ele>482.0</ele><time>2026-04-19T08:47:57.557Z</time></trkpt><trkpt lat="43.5614832" lon="11.8822775"><ele>482.0</ele><time>2026-04-19T08:47:58.543Z</time></trkpt><trkpt lat="43.5615728" lon="11.8823392"><ele>481.99999999999994</ele><time>2026-04-19T08:48:00.564Z</time></trkpt><trkpt lat="43.5616389" lon="11.8823704"><ele>482.0</ele><time>2026-04-19T08:48:01.557Z</time></trkpt><trkpt lat="43.5617034" lon="11.8823983"><ele>482.0</ele><time>2026-04-19T08:48:02.567Z</time></trkpt><trkpt lat="43.5618236" lon="11.8824339"><ele>482.0</ele><time>2026-04-19T08:48:04.553Z</time></trkpt><trkpt lat="43.5619429" lon="11.8824739"><ele>482.0</ele><time>2026-04-19T08:48:06.555Z</time></trkpt><trkpt lat="43.5620563" lon="11.8825228"><ele>482.0</ele><time>2026-04-19T08:48:08.568Z</time></trkpt><trkpt lat="43.5621622" lon="11.8825845"><ele>482.75</ele><time>2026-04-19T08:48:10.557Z</time></trkpt><trkpt lat="43.5622661" lon="11.8826432"><ele>483.5</ele><time>2026-04-19T08:48:12.544Z</time></trkpt><trkpt lat="43.5623703" lon="11.8827071"><ele>484.25</ele><time>2026-04-19T08:48:14.56Z</time></trkpt><trkpt lat="43.5624749" lon="11.8827745"><ele>485.0</ele><time>2026-04-19T08:48:16.557Z</time></trkpt><trkpt lat="43.5625735" lon="11.8828405"><ele>485.0</ele><time>2026-04-19T08:48:18.555Z</time></trkpt><trkpt lat="43.5626824" lon="11.8829073"><ele>485.0</ele><time>2026-04-19T08:48:20.546Z</time></trkpt><trkpt lat="43.562763" lon="11.8829585"><ele>485.0</ele><time>2026-04-19T08:48:22.558Z</time></trkpt><trkpt lat="43.5628565" lon="11.8830206"><ele>485.0</ele><time>2026-04-19T08:48:24.541Z</time></trkpt><trkpt lat="43.5629179" lon="11.8830558"><ele>485.0</ele><time>2026-04-19T08:48:25.545Z</time></trkpt><trkpt lat="43.5630229" lon="11.8831322"><ele>485.4</ele><time>2026-04-19T08:48:27.536Z</time></trkpt><trkpt lat="43.5631166" lon="11.8832237"><ele>485.8</ele><time>2026-04-19T08:48:29.557Z</time></trkpt><trkpt lat="43.5632123" lon="11.8832915"><ele>486.20000000000005</ele><time>2026-04-19T08:48:31.55Z</time></trkpt><trkpt lat="43.5633167" lon="11.883316"><ele>486.6</ele><time>2026-04-19T08:48:33.551Z</time></trkpt><trkpt lat="43.5634175" lon="11.8833198"><ele>487.0</ele><time>2026-04-19T08:48:35.532Z</time></trkpt><trkpt lat="43.5635174" lon="11.8833247"><ele>487.00000000000006</ele><time>2026-04-19T08:48:37.542Z</time></trkpt><trkpt lat="43.563618" lon="11.8833363"><ele>487.0</ele><time>2026-04-19T08:48:39.562Z</time></trkpt><trkpt lat="43.5637132" lon="11.8833572"><ele>487.0</ele><time>2026-04-19T08:48:41.547Z</time></trkpt><trkpt lat="43.5638051" lon="11.8833846"><ele>487.0</ele><time>2026-04-19T08:48:43.555Z</time></trkpt><trkpt lat="43.5638856" lon="11.8834196"><ele>487.00000000000006</ele><time>2026-04-19T08:48:45.556Z</time></trkpt><trkpt lat="43.5639439" lon="11.8834564"><ele>487.0</ele><time>2026-04-19T08:48:47.544Z</time></trkpt><trkpt lat="43.5639948" lon="11.8835172"><ele>486.8571428571429</ele><time>2026-04-19T08:48:50.551Z</time></trkpt><trkpt lat="43.5639631" lon="11.8835973"><ele>486.71428571428567</ele><time>2026-04-19T08:49:00.541Z</time></trkpt><trkpt lat="43.5639438" lon="11.8836875"><ele>486.57142857142856</ele><time>2026-04-19T08:53:26.548Z</time></trkpt><trkpt lat="43.5640054" lon="11.8836592"><ele>486.42857142857144</ele><time>2026-04-19T08:53:30.558Z</time></trkpt><trkpt lat="43.564092" lon="11.883707"><ele>486.28571428571433</ele><time>2026-04-19T08:53:33.544Z</time></trkpt><trkpt lat="43.5641538" lon="11.8837447"><ele>486.1428571428571</ele><time>2026-04-19T08:53:35.572Z</time></trkpt><trkpt lat="43.5642241" lon="11.8837694"><ele>486.0</ele><time>2026-04-19T08:53:37.533Z</time></trkpt><trkpt lat="43.5642998" lon="11.8837972"><ele>486.0</ele><time>2026-04-19T08:53:39.548Z</time></trkpt><trkpt lat="43.5643835" lon="11.8838496"><ele>486.0</ele><time>2026-04-19T08:53:41.562Z</time></trkpt><trkpt lat="43.5644523" lon="11.8839261"><ele>486.0</ele><time>2026-04-19T08:53:43.541Z</time></trkpt><trkpt lat="43.5645695" lon="11.8840496"><ele>486.0</ele><time>2026-04-19T08:53:46.557Z</time></trkpt><trkpt lat="43.5646582" lon="11.8841324"><ele>486.0</ele><time>2026-04-19T08:53:48.552Z</time></trkpt><trkpt lat="43.5647461" lon="11.8842143"><ele>487.8333333333333</ele><time>2026-04-19T08:53:50.554Z</time></trkpt><trkpt lat="43.5647991" lon="11.884298"><ele>489.66666666666663</ele><time>2026-04-19T08:53:52.551Z</time></trkpt><trkpt lat="43.5647933" lon="11.8844026"><ele>491.5</ele><time>2026-04-19T08:53:54.561Z</time></trkpt><trkpt lat="43.5647246" lon="11.884533"><ele>493.3333333333333</ele><time>2026-04-19T08:53:56.565Z</time></trkpt><trkpt lat="43.5646977" lon="11.8846148"><ele>495.16666666666663</ele><time>2026-04-19T08:53:57.557Z</time></trkpt><trkpt lat="43.5646745" lon="11.8847053"><ele>497.0</ele><time>2026-04-19T08:53:58.536Z</time></trkpt><trkpt lat="43.564658" lon="11.8847926"><ele>497.0</ele><time>2026-04-19T08:53:59.554Z</time></trkpt><trkpt lat="43.5646435" lon="11.8848885"><ele>497.0</ele><time>2026-04-19T08:54:00.568Z</time></trkpt><trkpt lat="43.5646291" lon="11.8849861"><ele>497.0</ele><time>2026-04-19T08:54:01.546Z</time></trkpt><trkpt lat="43.564614" lon="11.8850848"><ele>497.0</ele><time>2026-04-19T08:54:02.549Z</time></trkpt><trkpt lat="43.564603" lon="11.885185"><ele>497.0</ele><time>2026-04-19T08:54:03.552Z</time></trkpt><trkpt lat="43.5645934" lon="11.8852854"><ele>497.0</ele><time>2026-04-19T08:54:04.549Z</time></trkpt><trkpt lat="43.5645795" lon="11.8853878"><ele>497.0</ele><time>2026-04-19T08:54:05.556Z</time></trkpt><trkpt lat="43.5645694" lon="11.8854912"><ele>498.57142857142856</ele><time>2026-04-19T08:54:06.555Z</time></trkpt><trkpt lat="43.5645594" lon="11.8855947"><ele>500.1428571428571</ele><time>2026-04-19T08:54:07.528Z</time></trkpt><trkpt lat="43.5645469" lon="11.8856972"><ele>501.7142857142857</ele><time>2026-04-19T08:54:08.552Z</time></trkpt><trkpt lat="43.5645341" lon="11.8857984"><ele>503.2857142857143</ele><time>2026-04-19T08:54:09.563Z</time></trkpt><trkpt lat="43.5645227" lon="11.8859015"><ele>504.85714285714283</ele><time>2026-04-19T08:54:10.568Z</time></trkpt><trkpt lat="43.5645174" lon="11.8860031"><ele>506.42857142857144</ele><time>2026-04-19T08:54:11.546Z</time></trkpt><trkpt lat="43.5645178" lon="11.8861056"><ele>508.0</ele><time>2026-04-19T08:54:12.554Z</time></trkpt><trkpt lat="43.5645275" lon="11.8862077"><ele>508.33333333333337</ele><time>2026-04-19T08:54:13.557Z</time></trkpt><trkpt lat="43.5645402" lon="11.8863111"><ele>508.6666666666667</ele><time>2026-04-19T08:54:14.547Z</time></trkpt><trkpt lat="43.5645519" lon="11.8864206"><ele>509.0</ele><time>2026-04-19T08:54:15.551Z</time></trkpt><trkpt lat="43.5645601" lon="11.8865332"><ele>509.33333333333337</ele><time>2026-04-19T08:54:16.55Z</time></trkpt><trkpt lat="43.564569" lon="11.8866422"><ele>509.6666666666667</ele><time>2026-04-19T08:54:17.526Z</time></trkpt><trkpt lat="43.5645827" lon="11.8867499"><ele>510.0</ele><time>2026-04-19T08:54:18.535Z</time></trkpt><trkpt lat="43.564603" lon="11.8868548"><ele>508.5</ele><time>2026-04-19T08:54:19.545Z</time></trkpt><trkpt lat="43.5646312" lon="11.8869624"><ele>507.0</ele><time>2026-04-19T08:54:20.538Z</time></trkpt><trkpt lat="43.5646638" lon="11.8870717"><ele>505.5</ele><time>2026-04-19T08:54:21.536Z</time></trkpt><trkpt lat="43.564697" lon="11.8871824"><ele>504.0</ele><time>2026-04-19T08:54:22.543Z</time></trkpt><trkpt lat="43.5647301" lon="11.8872924"><ele>502.5</ele><time>2026-04-19T08:54:23.533Z</time></trkpt><trkpt lat="43.5647617" lon="11.8874031"><ele>501.0</ele><time>2026-04-19T08:54:24.527Z</time></trkpt><trkpt lat="43.5647944" lon="11.8875166"><ele>499.5</ele><time>2026-04-19T08:54:25.544Z</time></trkpt><trkpt lat="43.5648258" lon="11.8876342"><ele>498.0</ele><time>2026-04-19T08:54:26.551Z</time></trkpt><trkpt lat="43.5648568" lon="11.8877499"><ele>496.5</ele><time>2026-04-19T08:54:27.543Z</time></trkpt><trkpt lat="43.5648906" lon="11.8878579"><ele>495.0</ele><time>2026-04-19T08:54:28.544Z</time></trkpt><trkpt lat="43.5649336" lon="11.8879656"><ele>493.5</ele><time>2026-04-19T08:54:29.554Z</time></trkpt><trkpt lat="43.5649674" lon="11.8880609"><ele>492.0</ele><time>2026-04-19T08:54:30.54Z</time></trkpt><trkpt lat="43.5649679" lon="11.8882061"><ele>492.0</ele><time>2026-04-19T08:54:32.537Z</time></trkpt><trkpt lat="43.5649083" lon="11.8883161"><ele>492.00000000000006</ele><time>2026-04-19T08:54:34.531Z</time></trkpt><trkpt lat="43.5648101" lon="11.8883491"><ele>492.00000000000006</ele><time>2026-04-19T08:54:36.536Z</time></trkpt><trkpt lat="43.5647164" lon="11.8882949"><ele>492.0</ele><time>2026-04-19T08:54:38.54Z</time></trkpt><trkpt lat="43.5646495" lon="11.8882309"><ele>492.0</ele><time>2026-04-19T08:54:40.532Z</time></trkpt><trkpt lat="43.5645893" lon="11.8881894"><ele>492.00000000000006</ele><time>2026-04-19T08:54:42.553Z</time></trkpt><trkpt lat="43.5645353" lon="11.8881391"><ele>492.0</ele><time>2026-04-19T08:54:44.548Z</time></trkpt><trkpt lat="43.5644804" lon="11.8880914"><ele>492.00000000000006</ele><time>2026-04-19T08:54:46.527Z</time></trkpt><trkpt lat="43.564417" lon="11.888055"><ele>492.00000000000006</ele><time>2026-04-19T08:54:48.545Z</time></trkpt><trkpt lat="43.5643503" lon="11.8880024"><ele>492.0</ele><time>2026-04-19T08:54:50.55Z</time></trkpt><trkpt lat="43.5642775" lon="11.8879442"><ele>492.00000000000006</ele><time>2026-04-19T09:00:47.551Z</time></trkpt><trkpt lat="43.5642034" lon="11.8879307"><ele>492.00000000000006</ele><time>2026-04-19T09:00:49.548Z</time></trkpt><trkpt lat="43.5641263" lon="11.8879092"><ele>492.8333333333333</ele><time>2026-04-19T09:00:51.537Z</time></trkpt><trkpt lat="43.5640487" lon="11.8878914"><ele>493.66666666666663</ele><time>2026-04-19T09:00:53.546Z</time></trkpt><trkpt lat="43.5639661" lon="11.8878703"><ele>494.5</ele><time>2026-04-19T09:00:55.55Z</time></trkpt><trkpt lat="43.5638824" lon="11.8878537"><ele>495.3333333333333</ele><time>2026-04-19T09:00:57.548Z</time></trkpt><trkpt lat="43.5638046" lon="11.8878417"><ele>496.16666666666663</ele><time>2026-04-19T09:00:59.552Z</time></trkpt><trkpt lat="43.5637219" lon="11.8878434"><ele>497.0</ele><time>2026-04-19T09:01:01.544Z</time></trkpt><trkpt lat="43.5636405" lon="11.8878468"><ele>497.0</ele><time>2026-04-19T09:01:03.54Z</time></trkpt><trkpt lat="43.5635683" lon="11.8878623"><ele>497.0</ele><time>2026-04-19T09:01:05.549Z</time></trkpt><trkpt lat="43.5635076" lon="11.887903"><ele>497.0</ele><time>2026-04-19T09:01:07.535Z</time></trkpt><trkpt lat="43.5634463" lon="11.8879501"><ele>497.0</ele><time>2026-04-19T09:01:09.527Z</time></trkpt><trkpt lat="43.5633905" lon="11.8880128"><ele>497.0</ele><time>2026-04-19T09:01:11.552Z</time></trkpt><trkpt lat="43.5633345" lon="11.8880756"><ele>497.0</ele><time>2026-04-19T09:01:13.538Z</time></trkpt><trkpt lat="43.5632772" lon="11.8881463"><ele>497.0</ele><time>2026-04-19T09:01:15.547Z</time></trkpt><trkpt lat="43.5632173" lon="11.8882186"><ele>496.99999999999994</ele><time>2026-04-19T09:01:17.553Z</time></trkpt><trkpt lat="43.5631523" lon="11.8882874"><ele>497.0</ele><time>2026-04-19T09:01:19.56Z</time></trkpt><trkpt lat="43.5630844" lon="11.888356"><ele>497.0</ele><time>2026-04-19T09:01:21.565Z</time></trkpt><trkpt lat="43.5630155" lon="11.8884185"><ele>497.0</ele><time>2026-04-19T09:01:23.55Z</time></trkpt><trkpt lat="43.5629513" lon="11.8884827"><ele>496.99999999999994</ele><time>2026-04-19T09:01:25.544Z</time></trkpt><trkpt lat="43.5628886" lon="11.8885479"><ele>497.0</ele><time>2026-04-19T09:01:27.553Z</time></trkpt><trkpt lat="43.5628278" lon="11.8886124"><ele>498.8333333333333</ele><time>2026-04-19T09:01:29.559Z</time></trkpt><trkpt lat="43.5627664" lon="11.8886791"><ele>500.66666666666663</ele><time>2026-04-19T09:01:31.545Z</time></trkpt><trkpt lat="43.5627048" lon="11.8887529"><ele>502.5</ele><time>2026-04-19T09:01:33.552Z</time></trkpt><trkpt lat="43.5626382" lon="11.8888135"><ele>504.33333333333337</ele><time>2026-04-19T09:01:35.551Z</time></trkpt><trkpt lat="43.5625689" lon="11.8888666"><ele>506.1666666666667</ele><time>2026-04-19T09:01:37.551Z</time></trkpt><trkpt lat="43.5624951" lon="11.8889077"><ele>508.0</ele><time>2026-04-19T09:01:39.553Z</time></trkpt><trkpt lat="43.5624165" lon="11.8889353"><ele>508.00000000000006</ele><time>2026-04-19T09:01:41.545Z</time></trkpt><trkpt lat="43.5623349" lon="11.8889541"><ele>508.0</ele><time>2026-04-19T09:01:43.558Z</time></trkpt><trkpt lat="43.5622523" lon="11.8889758"><ele>508.0</ele><time>2026-04-19T09:01:45.561Z</time></trkpt><trkpt lat="43.562169" lon="11.8889824"><ele>508.0</ele><time>2026-04-19T09:01:47.555Z</time></trkpt><trkpt lat="43.5620954" lon="11.889004"><ele>508.00000000000006</ele><time>2026-04-19T09:01:49.546Z</time></trkpt><trkpt lat="43.5620184" lon="11.8890461"><ele>508.0</ele><time>2026-04-19T09:01:51.548Z</time></trkpt><trkpt lat="43.5619535" lon="11.8891059"><ele>508.50000000000006</ele><time>2026-04-19T09:01:53.527Z</time></trkpt><trkpt lat="43.561903" lon="11.8891738"><ele>509.0</ele><time>2026-04-19T09:01:55.538Z</time></trkpt><trkpt lat="43.5618676" lon="11.8892627"><ele>509.5</ele><time>2026-04-19T09:01:57.563Z</time></trkpt><trkpt lat="43.5618343" lon="11.8893539"><ele>510.0</ele><time>2026-04-19T09:01:59.552Z</time></trkpt><trkpt lat="43.5617923" lon="11.8894455"><ele>510.50000000000006</ele><time>2026-04-19T09:02:01.542Z</time></trkpt><trkpt lat="43.5617307" lon="11.8895211"><ele>511.0</ele><time>2026-04-19T09:02:03.557Z</time></trkpt><trkpt lat="43.5616627" lon="11.8895722"><ele>511.0</ele><time>2026-04-19T09:02:05.536Z</time></trkpt><trkpt lat="43.5615988" lon="11.8896118"><ele>511.0</ele><time>2026-04-19T09:02:07.53Z</time></trkpt><trkpt lat="43.5615188" lon="11.8896385"><ele>511.0</ele><time>2026-04-19T09:02:09.558Z</time></trkpt><trkpt lat="43.5614533" lon="11.8896927"><ele>511.0</ele><time>2026-04-19T09:02:11.541Z</time></trkpt><trkpt lat="43.5613993" lon="11.8897557"><ele>511.0</ele><time>2026-04-19T09:02:13.56Z</time></trkpt><trkpt lat="43.5613723" lon="11.8898358"><ele>511.0</ele><time>2026-04-19T09:02:15.534Z</time></trkpt><trkpt lat="43.5613571" lon="11.8899506"><ele>511.0</ele><time>2026-04-19T09:02:18.549Z</time></trkpt><trkpt lat="43.5613695" lon="11.8900572"><ele>511.1666666666667</ele><time>2026-04-19T09:02:21.563Z</time></trkpt><trkpt lat="43.5613986" lon="11.8901476"><ele>511.33333333333337</ele><time>2026-04-19T09:02:23.535Z</time></trkpt><trkpt lat="43.5614226" lon="11.890253"><ele>511.5</ele><time>2026-04-19T09:02:25.543Z</time></trkpt><trkpt lat="43.5614353" lon="11.8903692"><ele>511.66666666666663</ele><time>2026-04-19T09:02:27.55Z</time></trkpt><trkpt lat="43.5614366" lon="11.8904889"><ele>511.8333333333333</ele><time>2026-04-19T09:02:29.562Z</time></trkpt><trkpt lat="43.5614261" lon="11.8906048"><ele>512.0</ele><time>2026-04-19T09:02:31.542Z</time></trkpt><trkpt lat="43.5614248" lon="11.8907214"><ele>512.0</ele><time>2026-04-19T09:02:33.542Z</time></trkpt><trkpt lat="43.5614225" lon="11.8908562"><ele>512.0</ele><time>2026-04-19T09:02:35.535Z</time></trkpt><trkpt lat="43.5613984" lon="11.8909951"><ele>512.0</ele><time>2026-04-19T09:02:37.543Z</time></trkpt><trkpt lat="43.5613552" lon="11.8911222"><ele>512.0</ele><time>2026-04-19T09:02:39.537Z</time></trkpt><trkpt lat="43.5613121" lon="11.8912631"><ele>512.0</ele><time>2026-04-19T09:02:41.55Z</time></trkpt><trkpt lat="43.5613124" lon="11.8914225"><ele>511.99999999999994</ele><time>2026-04-19T09:02:43.543Z</time></trkpt><trkpt lat="43.5613858" lon="11.8915637"><ele>512.0</ele><time>2026-04-19T09:02:45.55Z</time></trkpt><trkpt lat="43.5614304" lon="11.8916345"><ele>512.0</ele><time>2026-04-19T09:02:46.554Z</time></trkpt><trkpt lat="43.5614702" lon="11.8917144"><ele>512.0</ele><time>2026-04-19T09:02:47.556Z</time></trkpt><trkpt lat="43.5615008" lon="11.8918025"><ele>511.99999999999994</ele><time>2026-04-19T09:02:48.546Z</time></trkpt><trkpt lat="43.5615172" lon="11.8918968"><ele>512.0</ele><time>2026-04-19T09:02:49.547Z</time></trkpt><trkpt lat="43.5615246" lon="11.8919929"><ele>512.0</ele><time>2026-04-19T09:02:50.553Z</time></trkpt><trkpt lat="43.5615303" lon="11.8920842"><ele>511.99999999999994</ele><time>2026-04-19T09:02:51.562Z</time></trkpt><trkpt lat="43.5615178" lon="11.8921772"><ele>512.0</ele><time>2026-04-19T09:02:52.547Z</time></trkpt><trkpt lat="43.5614998" lon="11.8922666"><ele>512.0</ele><time>2026-04-19T09:02:53.548Z</time></trkpt><trkpt lat="43.5614765" lon="11.8923544"><ele>511.99999999999994</ele><time>2026-04-19T09:02:54.545Z</time></trkpt><trkpt lat="43.561453" lon="11.89244"><ele>512.0</ele><time>2026-04-19T09:02:55.536Z</time></trkpt><trkpt lat="43.5614295" lon="11.8925243"><ele>512.0</ele><time>2026-04-19T09:02:56.549Z</time></trkpt><trkpt lat="43.5614054" lon="11.8926102"><ele>512.0</ele><time>2026-04-19T09:02:57.542Z</time></trkpt><trkpt lat="43.5613785" lon="11.892695"><ele>511.99999999999994</ele><time>2026-04-19T09:02:58.54Z</time></trkpt><trkpt lat="43.5613534" lon="11.8927803"><ele>512.0</ele><time>2026-04-19T09:02:59.536Z</time></trkpt><trkpt lat="43.5613237" lon="11.8928707"><ele>512.0</ele><time>2026-04-19T09:03:00.552Z</time></trkpt><trkpt lat="43.5612897" lon="11.8929625"><ele>511.99999999999994</ele><time>2026-04-19T09:03:01.546Z</time></trkpt><trkpt lat="43.5612569" lon="11.8930598"><ele>512.0</ele><time>2026-04-19T09:03:02.543Z</time></trkpt><trkpt lat="43.5612245" lon="11.893156"><ele>512.0</ele><time>2026-04-19T09:03:03.541Z</time></trkpt><trkpt lat="43.5611796" lon="11.8932561"><ele>508.99999999999994</ele><time>2026-04-19T09:03:04.545Z</time></trkpt><trkpt lat="43.5611321" lon="11.8933598"><ele>506.0</ele><time>2026-04-19T09:03:05.542Z</time></trkpt><trkpt lat="43.5610863" lon="11.8934652"><ele>503.0</ele><time>2026-04-19T09:03:06.54Z</time></trkpt><trkpt lat="43.5610412" lon="11.893573"><ele>500.0</ele><time>2026-04-19T09:03:07.533Z</time></trkpt><trkpt lat="43.5609955" lon="11.8936756"><ele>496.99999999999994</ele><time>2026-04-19T09:03:08.542Z</time></trkpt><trkpt lat="43.5609397" lon="11.8937627"><ele>494.0</ele><time>2026-04-19T09:03:09.542Z</time></trkpt><trkpt lat="43.5608698" lon="11.893827"><ele>493.99999999999994</ele><time>2026-04-19T09:03:10.54Z</time></trkpt><trkpt lat="43.560792" lon="11.8938714"><ele>494.0</ele><time>2026-04-19T09:03:11.545Z</time></trkpt><trkpt lat="43.5607084" lon="11.893903"><ele>494.0</ele><time>2026-04-19T09:03:12.554Z</time></trkpt><trkpt lat="43.5606195" lon="11.8939238"><ele>494.0</ele><time>2026-04-19T09:03:13.54Z</time></trkpt><trkpt lat="43.5605324" lon="11.8939399"><ele>493.99999999999994</ele><time>2026-04-19T09:03:14.534Z</time></trkpt><trkpt lat="43.5604441" lon="11.8939278"><ele>494.0</ele><time>2026-04-19T09:03:15.535Z</time></trkpt><trkpt lat="43.5603628" lon="11.8939167"><ele>492.16666666666663</ele><time>2026-04-19T09:03:16.54Z</time></trkpt><trkpt lat="43.5602767" lon="11.8939061"><ele>490.3333333333333</ele><time>2026-04-19T09:03:17.523Z</time></trkpt><trkpt lat="43.5601911" lon="11.8938801"><ele>488.5</ele><time>2026-04-19T09:03:18.54Z</time></trkpt><trkpt lat="43.560105" lon="11.8938679"><ele>486.66666666666663</ele><time>2026-04-19T09:03:19.543Z</time></trkpt><trkpt lat="43.5600121" lon="11.8938578"><ele>484.8333333333333</ele><time>2026-04-19T09:03:20.543Z</time></trkpt><trkpt lat="43.5599177" lon="11.8938624"><ele>483.0</ele><time>2026-04-19T09:03:21.534Z</time></trkpt><trkpt lat="43.5598221" lon="11.8938708"><ele>483.0</ele><time>2026-04-19T09:03:22.541Z</time></trkpt><trkpt lat="43.5597207" lon="11.8938781"><ele>482.99999999999994</ele><time>2026-04-19T09:03:23.555Z</time></trkpt><trkpt lat="43.5596223" lon="11.893887"><ele>482.99999999999994</ele><time>2026-04-19T09:03:24.56Z</time></trkpt><trkpt lat="43.5595334" lon="11.8939047"><ele>483.0</ele><time>2026-04-19T09:03:25.548Z</time></trkpt><trkpt lat="43.5594533" lon="11.8939327"><ele>483.0</ele><time>2026-04-19T09:03:26.555Z</time></trkpt><trkpt lat="43.5593816" lon="11.8939872"><ele>482.0</ele><time>2026-04-19T09:03:27.549Z</time></trkpt><trkpt lat="43.5593229" lon="11.8940611"><ele>481.0</ele><time>2026-04-19T09:03:28.543Z</time></trkpt><trkpt lat="43.5592734" lon="11.8941428"><ele>480.0</ele><time>2026-04-19T09:03:29.549Z</time></trkpt><trkpt lat="43.559225" lon="11.8942231"><ele>479.0</ele><time>2026-04-19T09:03:30.538Z</time></trkpt><trkpt lat="43.5591768" lon="11.8943039"><ele>478.0</ele><time>2026-04-19T09:03:31.539Z</time></trkpt><trkpt lat="43.559127" lon="11.8943822"><ele>477.0</ele><time>2026-04-19T09:03:32.545Z</time></trkpt><trkpt lat="43.5590706" lon="11.8944503"><ele>477.0</ele><time>2026-04-19T09:03:33.544Z</time></trkpt><trkpt lat="43.5590052" lon="11.8944982"><ele>476.99999999999994</ele><time>2026-04-19T09:03:34.542Z</time></trkpt><trkpt lat="43.558934" lon="11.8945205"><ele>477.0</ele><time>2026-04-19T09:03:35.527Z</time></trkpt><trkpt lat="43.5588628" lon="11.8945211"><ele>477.0</ele><time>2026-04-19T09:03:36.537Z</time></trkpt><trkpt lat="43.5587903" lon="11.8945168"><ele>476.99999999999994</ele><time>2026-04-19T09:03:37.537Z</time></trkpt><trkpt lat="43.5587175" lon="11.8945112"><ele>477.0</ele><time>2026-04-19T09:03:38.536Z</time></trkpt><trkpt lat="43.5586442" lon="11.8945051"><ele>477.0</ele><time>2026-04-19T09:03:39.534Z</time></trkpt><trkpt lat="43.5585711" lon="11.8945031"><ele>475.71428571428567</ele><time>2026-04-19T09:03:40.537Z</time></trkpt><trkpt lat="43.5584978" lon="11.8945108"><ele>474.4285714285714</ele><time>2026-04-19T09:03:41.547Z</time></trkpt><trkpt lat="43.5584252" lon="11.8945281"><ele>473.1428571428571</ele><time>2026-04-19T09:03:42.527Z</time></trkpt><trkpt lat="43.558353" lon="11.8945507"><ele>471.8571428571429</ele><time>2026-04-19T09:03:43.54Z</time></trkpt><trkpt lat="43.5582811" lon="11.8945791"><ele>470.5714285714286</ele><time>2026-04-19T09:03:44.53Z</time></trkpt><trkpt lat="43.5582086" lon="11.8946043"><ele>469.28571428571433</ele><time>2026-04-19T09:03:45.528Z</time></trkpt><trkpt lat="43.5581357" lon="11.8946238"><ele>468.0</ele><time>2026-04-19T09:03:46.548Z</time></trkpt><trkpt lat="43.5580637" lon="11.8946378"><ele>468.0</ele><time>2026-04-19T09:03:47.56Z</time></trkpt><trkpt lat="43.5579934" lon="11.8946487"><ele>468.00000000000006</ele><time>2026-04-19T09:03:48.55Z</time></trkpt><trkpt lat="43.5579237" lon="11.8946586"><ele>468.0</ele><time>2026-04-19T09:03:49.547Z</time></trkpt><trkpt lat="43.5578556" lon="11.8946657"><ele>468.0</ele><time>2026-04-19T09:03:50.551Z</time></trkpt><trkpt lat="43.5577896" lon="11.8946725"><ele>468.00000000000006</ele><time>2026-04-19T09:03:51.546Z</time></trkpt><trkpt lat="43.5577263" lon="11.894678"><ele>468.0</ele><time>2026-04-19T09:03:52.536Z</time></trkpt><trkpt lat="43.5576247" lon="11.894728"><ele>468.0</ele><time>2026-04-19T09:03:54.545Z</time></trkpt><trkpt lat="43.5576167" lon="11.8948408"><ele>466.59999999999997</ele><time>2026-04-19T09:03:56.548Z</time></trkpt><trkpt lat="43.5576281" lon="11.8949625"><ele>465.19999999999993</ele><time>2026-04-19T09:03:58.536Z</time></trkpt><trkpt lat="43.5576288" lon="11.8951125"><ele>463.8</ele><time>2026-04-19T09:04:00.537Z</time></trkpt><trkpt lat="43.5576366" lon="11.8952863"><ele>462.4</ele><time>2026-04-19T09:04:02.549Z</time></trkpt><trkpt lat="43.5576427" lon="11.8953978"><ele>461.0</ele><time>2026-04-19T09:04:03.534Z</time></trkpt><trkpt lat="43.5576542" lon="11.8955143"><ele>460.0</ele><time>2026-04-19T09:04:04.535Z</time></trkpt><trkpt lat="43.5576546" lon="11.8956362"><ele>459.0</ele><time>2026-04-19T09:04:05.543Z</time></trkpt><trkpt lat="43.5576393" lon="11.8957591"><ele>458.0</ele><time>2026-04-19T09:04:06.544Z</time></trkpt><trkpt lat="43.5576065" lon="11.8958858"><ele>457.0</ele><time>2026-04-19T09:04:07.548Z</time></trkpt><trkpt lat="43.5575633" lon="11.896006"><ele>456.0</ele><time>2026-04-19T09:04:08.541Z</time></trkpt><trkpt lat="43.5575124" lon="11.896109"><ele>455.3333333333333</ele><time>2026-04-19T09:04:09.55Z</time></trkpt><trkpt lat="43.5574601" lon="11.8961857"><ele>454.66666666666663</ele><time>2026-04-19T09:04:10.548Z</time></trkpt><trkpt lat="43.5574072" lon="11.8962386"><ele>454.0</ele><time>2026-04-19T09:04:11.542Z</time></trkpt><trkpt lat="43.5573496" lon="11.8962798"><ele>453.3333333333333</ele><time>2026-04-19T09:04:12.555Z</time></trkpt><trkpt lat="43.5572912" lon="11.8963207"><ele>452.66666666666663</ele><time>2026-04-19T09:04:13.535Z</time></trkpt><trkpt lat="43.5571876" lon="11.8964111"><ele>452.0</ele><time>2026-04-19T09:04:15.539Z</time></trkpt><trkpt lat="43.5571433" lon="11.8964836"><ele>452.0</ele><time>2026-04-19T09:04:16.539Z</time></trkpt><trkpt lat="43.5570992" lon="11.8965723"><ele>452.00000000000006</ele><time>2026-04-19T09:04:17.527Z</time></trkpt><trkpt lat="43.55705" lon="11.8966802"><ele>452.00000000000006</ele><time>2026-04-19T09:04:18.528Z</time></trkpt><trkpt lat="43.5569962" lon="11.896805"><ele>452.0</ele><time>2026-04-19T09:04:19.536Z</time></trkpt><trkpt lat="43.5569493" lon="11.8969368"><ele>452.0</ele><time>2026-04-19T09:04:20.53Z</time></trkpt><trkpt lat="43.5569119" lon="11.8970617"><ele>447.99999999999994</ele><time>2026-04-19T09:04:21.528Z</time></trkpt><trkpt lat="43.5568902" lon="11.8971718"><ele>444.0</ele><time>2026-04-19T09:04:22.538Z</time></trkpt><trkpt lat="43.5568895" lon="11.8972804"><ele>440.0</ele><time>2026-04-19T09:04:23.536Z</time></trkpt><trkpt lat="43.5569041" lon="11.8973865"><ele>436.0</ele><time>2026-04-19T09:04:24.544Z</time></trkpt><trkpt lat="43.5569303" lon="11.897509"><ele>431.99999999999994</ele><time>2026-04-19T09:04:25.531Z</time></trkpt><trkpt lat="43.5569467" lon="11.8976428"><ele>428.0</ele><time>2026-04-19T09:04:26.548Z</time></trkpt><trkpt lat="43.5569452" lon="11.897785"><ele>426.59999999999997</ele><time>2026-04-19T09:04:27.544Z</time></trkpt><trkpt lat="43.5569373" lon="11.8979275"><ele>425.19999999999993</ele><time>2026-04-19T09:04:28.547Z</time></trkpt><trkpt lat="43.5569424" lon="11.8980691"><ele>423.8</ele><time>2026-04-19T09:04:29.543Z</time></trkpt><trkpt lat="43.5569639" lon="11.8982046"><ele>422.4</ele><time>2026-04-19T09:04:30.543Z</time></trkpt><trkpt lat="43.5570054" lon="11.8983316"><ele>421.0</ele><time>2026-04-19T09:04:31.548Z</time></trkpt><trkpt lat="43.5570632" lon="11.898448"><ele>424.6</ele><time>2026-04-19T09:04:32.545Z</time></trkpt><trkpt lat="43.557119" lon="11.8985634"><ele>428.20000000000005</ele><time>2026-04-19T09:04:33.548Z</time></trkpt><trkpt lat="43.5571565" lon="11.8986852"><ele>431.79999999999995</ele><time>2026-04-19T09:04:34.549Z</time></trkpt><trkpt lat="43.5571755" lon="11.8988168"><ele>435.4</ele><time>2026-04-19T09:04:35.554Z</time></trkpt><trkpt lat="43.5571753" lon="11.8989528"><ele>439.0</ele><time>2026-04-19T09:04:36.545Z</time></trkpt><trkpt lat="43.5571604" lon="11.899075"><ele>439.00000000000006</ele><time>2026-04-19T09:04:37.536Z</time></trkpt><trkpt lat="43.557142" lon="11.8991883"><ele>439.0</ele><time>2026-04-19T09:04:38.548Z</time></trkpt><trkpt lat="43.5571176" lon="11.8992886"><ele>439.0</ele><time>2026-04-19T09:04:39.537Z</time></trkpt><trkpt lat="43.5570807" lon="11.8993671"><ele>439.0</ele><time>2026-04-19T09:04:40.538Z</time></trkpt><trkpt lat="43.5569733" lon="11.8994158"><ele>439.00000000000006</ele><time>2026-04-19T09:04:42.538Z</time></trkpt><trkpt lat="43.5568815" lon="11.8993438"><ele>439.0</ele><time>2026-04-19T09:04:44.536Z</time></trkpt><trkpt lat="43.5567941" lon="11.8992769"><ele>437.79999999999995</ele><time>2026-04-19T09:04:46.549Z</time></trkpt><trkpt lat="43.5566935" lon="11.8992539"><ele>436.59999999999997</ele><time>2026-04-19T09:04:48.536Z</time></trkpt><trkpt lat="43.5565927" lon="11.8992517"><ele>435.4</ele><time>2026-04-19T09:04:50.544Z</time></trkpt><trkpt lat="43.5564805" lon="11.8992766"><ele>434.2</ele><time>2026-04-19T09:04:52.537Z</time></trkpt><trkpt lat="43.5563591" lon="11.8993196"><ele>433.0</ele><time>2026-04-19T09:04:54.56Z</time></trkpt><trkpt lat="43.5562951" lon="11.8993465"><ele>433.0</ele><time>2026-04-19T09:04:55.531Z</time></trkpt><trkpt lat="43.5562309" lon="11.8993548"><ele>432.99999999999994</ele><time>2026-04-19T09:04:56.541Z</time></trkpt><trkpt lat="43.556125" lon="11.8992792"><ele>432.99999999999994</ele><time>2026-04-19T09:04:58.538Z</time></trkpt><trkpt lat="43.5560451" lon="11.8991576"><ele>433.0</ele><time>2026-04-19T09:05:00.536Z</time></trkpt><trkpt lat="43.5559582" lon="11.8990449"><ele>433.0</ele><time>2026-04-19T09:05:02.539Z</time></trkpt><trkpt lat="43.5558728" lon="11.8989328"><ele>431.85714285714283</ele><time>2026-04-19T09:05:04.557Z</time></trkpt><trkpt lat="43.5557856" lon="11.8988116"><ele>430.7142857142857</ele><time>2026-04-19T09:05:06.544Z</time></trkpt><trkpt lat="43.5557363" lon="11.898757"><ele>429.57142857142856</ele><time>2026-04-19T09:05:07.537Z</time></trkpt><trkpt lat="43.5556875" lon="11.8987018"><ele>428.42857142857144</ele><time>2026-04-19T09:05:08.539Z</time></trkpt><trkpt lat="43.5556373" lon="11.8986462"><ele>427.2857142857143</ele><time>2026-04-19T09:05:09.54Z</time></trkpt><trkpt lat="43.5555854" lon="11.8985919"><ele>426.1428571428571</ele><time>2026-04-19T09:05:10.539Z</time></trkpt><trkpt lat="43.5555312" lon="11.8985435"><ele>425.0</ele><time>2026-04-19T09:05:11.533Z</time></trkpt><trkpt lat="43.5554239" lon="11.8984754"><ele>424.4</ele><time>2026-04-19T09:05:13.539Z</time></trkpt><trkpt lat="43.5553192" lon="11.8984425"><ele>423.8</ele><time>2026-04-19T09:05:15.542Z</time></trkpt><trkpt lat="43.5552091" lon="11.8984184"><ele>423.20000000000005</ele><time>2026-04-19T09:05:17.544Z</time></trkpt><trkpt lat="43.5550994" lon="11.8983897"><ele>422.6</ele><time>2026-04-19T09:05:19.543Z</time></trkpt><trkpt lat="43.5549933" lon="11.8983513"><ele>422.0</ele><time>2026-04-19T09:05:21.536Z</time></trkpt><trkpt lat="43.5548898" lon="11.8983337"><ele>422.0</ele><time>2026-04-19T09:05:23.545Z</time></trkpt><trkpt lat="43.5547875" lon="11.8983423"><ele>422.0</ele><time>2026-04-19T09:05:25.533Z</time></trkpt><trkpt lat="43.5546949" lon="11.8983745"><ele>422.0</ele><time>2026-04-19T09:05:27.521Z</time></trkpt><trkpt lat="43.5546113" lon="11.8984146"><ele>422.0</ele><time>2026-04-19T09:05:29.541Z</time></trkpt><trkpt lat="43.5545295" lon="11.8984553"><ele>422.0</ele><time>2026-04-19T09:05:31.54Z</time></trkpt><trkpt lat="43.554445" lon="11.8985007"><ele>427.0</ele><time>2026-04-19T09:05:33.555Z</time></trkpt><trkpt lat="43.5543603" lon="11.8985501"><ele>432.0</ele><time>2026-04-19T09:05:35.538Z</time></trkpt><trkpt lat="43.5542691" lon="11.8985815"><ele>437.00000000000006</ele><time>2026-04-19T09:05:37.545Z</time></trkpt><trkpt lat="43.5541738" lon="11.8985776"><ele>442.0</ele><time>2026-04-19T09:05:39.535Z</time></trkpt><trkpt lat="43.5540912" lon="11.8985162"><ele>447.0</ele><time>2026-04-19T09:05:41.531Z</time></trkpt><trkpt lat="43.5540283" lon="11.8984213"><ele>444.3333333333333</ele><time>2026-04-19T09:05:43.545Z</time></trkpt><trkpt lat="43.5539713" lon="11.8983223"><ele>441.66666666666663</ele><time>2026-04-19T09:05:45.54Z</time></trkpt><trkpt lat="43.5539137" lon="11.8982265"><ele>439.0</ele><time>2026-04-19T09:05:47.537Z</time></trkpt><trkpt lat="43.5538592" lon="11.8981373"><ele>436.3333333333333</ele><time>2026-04-19T09:05:49.546Z</time></trkpt><trkpt lat="43.5537894" lon="11.8981023"><ele>433.66666666666663</ele><time>2026-04-19T09:05:51.527Z</time></trkpt><trkpt lat="43.5537443" lon="11.8981653"><ele>431.0</ele><time>2026-04-19T09:05:53.541Z</time></trkpt><trkpt lat="43.5537603" lon="11.8982766"><ele>431.0</ele><time>2026-04-19T09:05:56.54Z</time></trkpt><trkpt lat="43.5538071" lon="11.8983815"><ele>431.0</ele><time>2026-04-19T09:05:59.536Z</time></trkpt><trkpt lat="43.5538338" lon="11.8984607"><ele>431.0</ele><time>2026-04-19T09:06:01.544Z</time></trkpt><trkpt lat="43.5538577" lon="11.898551"><ele>431.0</ele><time>2026-04-19T09:06:03.538Z</time></trkpt><trkpt lat="43.5538737" lon="11.898647"><ele>431.0</ele><time>2026-04-19T09:06:05.545Z</time></trkpt><trkpt lat="43.5538918" lon="11.8987379"><ele>431.0</ele><time>2026-04-19T09:06:07.544Z</time></trkpt><trkpt lat="43.5539108" lon="11.8988274"><ele>431.0</ele><time>2026-04-19T09:06:09.535Z</time></trkpt><trkpt lat="43.5539361" lon="11.8989175"><ele>433.66666666666663</ele><time>2026-04-19T09:06:11.546Z</time></trkpt><trkpt lat="43.5539699" lon="11.8989909"><ele>436.3333333333333</ele><time>2026-04-19T09:06:13.548Z</time></trkpt><trkpt lat="43.5540213" lon="11.899084"><ele>439.0</ele><time>2026-04-19T09:06:16.545Z</time></trkpt><trkpt lat="43.5540699" lon="11.8991674"><ele>441.66666666666663</ele><time>2026-04-19T09:06:19.536Z</time></trkpt><trkpt lat="43.5541214" lon="11.8992506"><ele>444.3333333333333</ele><time>2026-04-19T09:06:22.551Z</time></trkpt><trkpt lat="43.5541704" lon="11.8993331"><ele>447.0</ele><time>2026-04-19T09:06:25.539Z</time></trkpt><trkpt lat="43.5542202" lon="11.899421"><ele>448.4285714285714</ele><time>2026-04-19T09:06:28.54Z</time></trkpt><trkpt lat="43.5542584" lon="11.8994953"><ele>449.8571428571429</ele><time>2026-04-19T09:06:31.523Z</time></trkpt><trkpt lat="43.5543096" lon="11.8995815"><ele>451.28571428571433</ele><time>2026-04-19T09:06:34.537Z</time></trkpt><trkpt lat="43.5543567" lon="11.8996552"><ele>452.7142857142857</ele><time>2026-04-19T09:06:37.534Z</time></trkpt><trkpt lat="43.5544089" lon="11.899742"><ele>454.14285714285717</ele><time>2026-04-19T09:06:40.531Z</time></trkpt><trkpt lat="43.5544551" lon="11.8998275"><ele>455.5714285714286</ele><time>2026-04-19T09:06:43.561Z</time></trkpt><trkpt lat="43.5544986" lon="11.8999063"><ele>457.00000000000006</ele><time>2026-04-19T09:06:46.549Z</time></trkpt><trkpt lat="43.5545542" lon="11.8999653"><ele>457.00000000000006</ele><time>2026-04-19T09:06:49.554Z</time></trkpt><trkpt lat="43.5546396" lon="11.8999921"><ele>457.0</ele><time>2026-04-19T09:06:53.535Z</time></trkpt><trkpt lat="43.5547105" lon="11.8999954"><ele>457.00000000000006</ele><time>2026-04-19T09:06:56.552Z</time></trkpt><trkpt lat="43.5547843" lon="11.9000258"><ele>457.00000000000006</ele><time>2026-04-19T09:06:59.549Z</time></trkpt><trkpt lat="43.5548558" lon="11.9000672"><ele>457.0</ele><time>2026-04-19T09:07:02.551Z</time></trkpt><trkpt lat="43.5549169" lon="11.9001048"><ele>457.00000000000006</ele><time>2026-04-19T09:07:05.538Z</time></trkpt><trkpt lat="43.5549756" lon="11.9001486"><ele>457.00000000000006</ele><time>2026-04-19T09:07:08.531Z</time></trkpt><trkpt lat="43.5550165" lon="11.9002168"><ele>458.33333333333337</ele><time>2026-04-19T09:07:10.547Z</time></trkpt><trkpt lat="43.55504" lon="11.9003073"><ele>459.6666666666667</ele><time>2026-04-19T09:07:13.542Z</time></trkpt><trkpt lat="43.5550397" lon="11.9004156"><ele>461.0</ele><time>2026-04-19T09:07:16.543Z</time></trkpt><trkpt lat="43.5550455" lon="11.9005261"><ele>462.33333333333337</ele><time>2026-04-19T09:07:19.54Z</time></trkpt><trkpt lat="43.5550483" lon="11.9006281"><ele>463.6666666666667</ele><time>2026-04-19T09:07:22.541Z</time></trkpt><trkpt lat="43.5550636" lon="11.9007427"><ele>465.0</ele><time>2026-04-19T09:07:25.532Z</time></trkpt><trkpt lat="43.5550804" lon="11.9008559"><ele>466.1666666666667</ele><time>2026-04-19T09:07:28.566Z</time></trkpt><trkpt lat="43.5550937" lon="11.9009698"><ele>467.33333333333337</ele><time>2026-04-19T09:07:31.544Z</time></trkpt><trkpt lat="43.5551138" lon="11.9010791"><ele>468.5</ele><time>2026-04-19T09:07:34.539Z</time></trkpt><trkpt lat="43.5551278" lon="11.9011802"><ele>469.6666666666667</ele><time>2026-04-19T09:07:37.548Z</time></trkpt><trkpt lat="43.555139" lon="11.9012831"><ele>470.83333333333337</ele><time>2026-04-19T09:07:40.538Z</time></trkpt><trkpt lat="43.555151" lon="11.9013939"><ele>472.0</ele><time>2026-04-19T09:07:43.536Z</time></trkpt><trkpt lat="43.555163" lon="11.9015008"><ele>472.00000000000006</ele><time>2026-04-19T09:07:46.541Z</time></trkpt><trkpt lat="43.5551701" lon="11.9016028"><ele>472.0</ele><time>2026-04-19T09:07:49.536Z</time></trkpt><trkpt lat="43.5551811" lon="11.9017078"><ele>472.0</ele><time>2026-04-19T09:07:52.55Z</time></trkpt><trkpt lat="43.5551924" lon="11.9018125"><ele>472.0</ele><time>2026-04-19T09:07:55.531Z</time></trkpt><trkpt lat="43.5552024" lon="11.9019152"><ele>472.00000000000006</ele><time>2026-04-19T09:07:58.527Z</time></trkpt><trkpt lat="43.5552162" lon="11.9020146"><ele>472.0</ele><time>2026-04-19T09:08:01.534Z</time></trkpt><trkpt lat="43.5552291" lon="11.90212"><ele>473.71428571428567</ele><time>2026-04-19T09:08:04.542Z</time></trkpt><trkpt lat="43.555246" lon="11.902218"><ele>475.42857142857144</ele><time>2026-04-19T09:08:07.537Z</time></trkpt><trkpt lat="43.5552652" lon="11.902309"><ele>477.1428571428571</ele><time>2026-04-19T09:08:10.535Z</time></trkpt><trkpt lat="43.5552721" lon="11.9024015"><ele>478.85714285714283</ele><time>2026-04-19T09:08:13.543Z</time></trkpt><trkpt lat="43.5552722" lon="11.9024981"><ele>480.57142857142856</ele><time>2026-04-19T09:08:16.553Z</time></trkpt><trkpt lat="43.5552808" lon="11.9025932"><ele>482.2857142857143</ele><time>2026-04-19T09:08:19.528Z</time></trkpt><trkpt lat="43.5552884" lon="11.9026843"><ele>484.0</ele><time>2026-04-19T09:08:22.538Z</time></trkpt><trkpt lat="43.5553008" lon="11.9027777"><ele>484.85714285714283</ele><time>2026-04-19T09:08:25.542Z</time></trkpt><trkpt lat="43.5553109" lon="11.9028696"><ele>485.71428571428567</ele><time>2026-04-19T09:08:28.533Z</time></trkpt><trkpt lat="43.5553234" lon="11.902988"><ele>486.57142857142856</ele><time>2026-04-19T09:08:32.533Z</time></trkpt><trkpt lat="43.555353" lon="11.9030786"><ele>487.42857142857144</ele><time>2026-04-19T09:08:35.544Z</time></trkpt><trkpt lat="43.5553961" lon="11.9031547"><ele>488.2857142857143</ele><time>2026-04-19T09:08:38.533Z</time></trkpt><trkpt lat="43.5554495" lon="11.9032228"><ele>489.1428571428571</ele><time>2026-04-19T09:08:41.539Z</time></trkpt><trkpt lat="43.5555149" lon="11.9032839"><ele>490.0</ele><time>2026-04-19T09:08:44.536Z</time></trkpt><trkpt lat="43.5555814" lon="11.9033442"><ele>490.0</ele><time>2026-04-19T09:08:47.536Z</time></trkpt><trkpt lat="43.5556466" lon="11.9033992"><ele>490.0</ele><time>2026-04-19T09:08:50.538Z</time></trkpt><trkpt lat="43.5557093" lon="11.9034488"><ele>490.0</ele><time>2026-04-19T09:08:53.54Z</time></trkpt><trkpt lat="43.5557743" lon="11.9034953"><ele>490.0</ele><time>2026-04-19T09:08:56.544Z</time></trkpt><trkpt lat="43.5558407" lon="11.903534"><ele>490.0</ele><time>2026-04-19T09:08:59.537Z</time></trkpt><trkpt lat="43.555911" lon="11.9035661"><ele>490.0</ele><time>2026-04-19T09:09:02.546Z</time></trkpt><trkpt lat="43.5559843" lon="11.9035987"><ele>490.0</ele><time>2026-04-19T09:09:05.544Z</time></trkpt><trkpt lat="43.5560555" lon="11.9036313"><ele>492.1666666666667</ele><time>2026-04-19T09:09:08.552Z</time></trkpt><trkpt lat="43.5561257" lon="11.9036749"><ele>494.33333333333337</ele><time>2026-04-19T09:09:11.538Z</time></trkpt><trkpt lat="43.556189" lon="11.9037483"><ele>496.5</ele><time>2026-04-19T09:09:14.53Z</time></trkpt><trkpt lat="43.5562619" lon="11.9038178"><ele>498.66666666666663</ele><time>2026-04-19T09:09:17.54Z</time></trkpt><trkpt lat="43.5563356" lon="11.9038809"><ele>500.8333333333333</ele><time>2026-04-19T09:09:20.527Z</time></trkpt><trkpt lat="43.5564152" lon="11.9039446"><ele>503.0</ele><time>2026-04-19T09:09:23.539Z</time></trkpt><trkpt lat="43.5564758" lon="11.9039768"><ele>503.0</ele><time>2026-04-19T09:09:25.542Z</time></trkpt><trkpt lat="43.5565415" lon="11.9040008"><ele>503.00000000000006</ele><time>2026-04-19T09:09:27.536Z</time></trkpt><trkpt lat="43.5566046" lon="11.904016"><ele>503.0</ele><time>2026-04-19T09:09:29.535Z</time></trkpt><trkpt lat="43.5566979" lon="11.9040332"><ele>503.0</ele><time>2026-04-19T09:09:32.538Z</time></trkpt><trkpt lat="43.5567613" lon="11.9040387"><ele>503.00000000000006</ele><time>2026-04-19T09:09:34.543Z</time></trkpt><trkpt lat="43.5568249" lon="11.9040493"><ele>503.0</ele><time>2026-04-19T09:09:36.544Z</time></trkpt><trkpt lat="43.5568887" lon="11.90406"><ele>503.0</ele><time>2026-04-19T09:09:38.541Z</time></trkpt><trkpt lat="43.5569515" lon="11.9040769"><ele>502.99999999999994</ele><time>2026-04-19T09:09:40.545Z</time></trkpt><trkpt lat="43.5570145" lon="11.9040982"><ele>503.0</ele><time>2026-04-19T09:09:42.546Z</time></trkpt><trkpt lat="43.5570766" lon="11.9041164"><ele>503.0</ele><time>2026-04-19T09:09:44.531Z</time></trkpt><trkpt lat="43.557165" lon="11.9041424"><ele>503.0</ele><time>2026-04-19T09:09:47.552Z</time></trkpt><trkpt lat="43.5572474" lon="11.9041663"><ele>502.99999999999994</ele><time>2026-04-19T09:09:50.55Z</time></trkpt><trkpt lat="43.5573264" lon="11.9041939"><ele>503.0</ele><time>2026-04-19T09:09:53.527Z</time></trkpt><trkpt lat="43.5573974" lon="11.9042055"><ele>503.3333333333333</ele><time>2026-04-19T09:09:56.564Z</time></trkpt><trkpt lat="43.5574752" lon="11.9042281"><ele>503.66666666666663</ele><time>2026-04-19T09:09:59.556Z</time></trkpt><trkpt lat="43.5575643" lon="11.9042601"><ele>504.0</ele><time>2026-04-19T09:10:02.553Z</time></trkpt><trkpt lat="43.5576528" lon="11.9042907"><ele>504.33333333333337</ele><time>2026-04-19T09:10:05.543Z</time></trkpt><trkpt lat="43.5577421" lon="11.9043216"><ele>504.6666666666667</ele><time>2026-04-19T09:10:08.535Z</time></trkpt><trkpt lat="43.5578339" lon="11.9043515"><ele>505.0</ele><time>2026-04-19T09:10:11.539Z</time></trkpt><trkpt lat="43.5578966" lon="11.9043823"><ele>507.50000000000006</ele><time>2026-04-19T09:10:13.546Z</time></trkpt><trkpt lat="43.5579633" lon="11.9044104"><ele>510.0</ele><time>2026-04-19T09:10:15.541Z</time></trkpt><trkpt lat="43.5580343" lon="11.9044311"><ele>512.5</ele><time>2026-04-19T09:10:17.545Z</time></trkpt><trkpt lat="43.5581105" lon="11.9044456"><ele>515.0</ele><time>2026-04-19T09:10:19.54Z</time></trkpt><trkpt lat="43.5581889" lon="11.9044497"><ele>517.5</ele><time>2026-04-19T09:10:21.529Z</time></trkpt><trkpt lat="43.5582656" lon="11.9044423"><ele>520.0</ele><time>2026-04-19T09:10:23.544Z</time></trkpt><trkpt lat="43.5583471" lon="11.9044426"><ele>520.0</ele><time>2026-04-19T09:10:25.539Z</time></trkpt><trkpt lat="43.5584297" lon="11.9044533"><ele>520.0</ele><time>2026-04-19T09:10:27.547Z</time></trkpt><trkpt lat="43.5585061" lon="11.9044803"><ele>520.0</ele><time>2026-04-19T09:10:29.536Z</time></trkpt><trkpt lat="43.558583" lon="11.9045086"><ele>520.0</ele><time>2026-04-19T09:10:31.533Z</time></trkpt><trkpt lat="43.558659" lon="11.9045394"><ele>520.0</ele><time>2026-04-19T09:10:33.537Z</time></trkpt><trkpt lat="43.5587382" lon="11.9045657"><ele>520.0</ele><time>2026-04-19T09:10:35.546Z</time></trkpt><trkpt lat="43.5588157" lon="11.9045927"><ele>521.0</ele><time>2026-04-19T09:10:37.548Z</time></trkpt><trkpt lat="43.5588922" lon="11.9046137"><ele>522.0</ele><time>2026-04-19T09:10:39.531Z</time></trkpt><trkpt lat="43.5589656" lon="11.904632"><ele>523.0</ele><time>2026-04-19T09:10:41.531Z</time></trkpt><trkpt lat="43.5590387" lon="11.9046476"><ele>524.0</ele><time>2026-04-19T09:10:43.545Z</time></trkpt><trkpt lat="43.559108" lon="11.9046622"><ele>525.0</ele><time>2026-04-19T09:10:45.534Z</time></trkpt><trkpt lat="43.5591753" lon="11.9046767"><ele>526.0</ele><time>2026-04-19T09:10:47.534Z</time></trkpt><trkpt lat="43.5592622" lon="11.9046694"><ele>526.0</ele><time>2026-04-19T09:10:50.53Z</time></trkpt><trkpt lat="43.5593384" lon="11.9046336"><ele>526.0</ele><time>2026-04-19T09:10:53.53Z</time></trkpt><trkpt lat="43.5594106" lon="11.9045937"><ele>526.0</ele><time>2026-04-19T09:10:56.539Z</time></trkpt><trkpt lat="43.559485" lon="11.9045679"><ele>526.0</ele><time>2026-04-19T09:10:59.538Z</time></trkpt><trkpt lat="43.559558" lon="11.9045536"><ele>526.0</ele><time>2026-04-19T09:11:02.545Z</time></trkpt><trkpt lat="43.5596273" lon="11.9045177"><ele>526.0</ele><time>2026-04-19T09:11:05.544Z</time></trkpt><trkpt lat="43.5597046" lon="11.9044974"><ele>527.8333333333334</ele><time>2026-04-19T09:11:08.536Z</time></trkpt><trkpt lat="43.5597699" lon="11.9044516"><ele>529.6666666666667</ele><time>2026-04-19T09:11:11.535Z</time></trkpt><trkpt lat="43.5598275" lon="11.9043985"><ele>531.5</ele><time>2026-04-19T09:11:14.545Z</time></trkpt><trkpt lat="43.5599005" lon="11.9043757"><ele>533.3333333333334</ele><time>2026-04-19T09:11:17.545Z</time></trkpt><trkpt lat="43.5599794" lon="11.9043878"><ele>535.1666666666666</ele><time>2026-04-19T09:11:20.54Z</time></trkpt><trkpt lat="43.5600617" lon="11.9044032"><ele>537.0</ele><time>2026-04-19T09:11:23.547Z</time></trkpt><trkpt lat="43.560142" lon="11.9044285"><ele>537.0</ele><time>2026-04-19T09:11:26.544Z</time></trkpt><trkpt lat="43.5602245" lon="11.904448"><ele>537.0</ele><time>2026-04-19T09:11:29.533Z</time></trkpt><trkpt lat="43.5603017" lon="11.9044712"><ele>537.0</ele><time>2026-04-19T09:11:32.541Z</time></trkpt><trkpt lat="43.560379" lon="11.904505"><ele>537.0</ele><time>2026-04-19T09:11:35.541Z</time></trkpt><trkpt lat="43.560457" lon="11.9045403"><ele>537.0</ele><time>2026-04-19T09:11:38.532Z</time></trkpt><trkpt lat="43.560533" lon="11.9045696"><ele>537.0</ele><time>2026-04-19T09:11:41.536Z</time></trkpt><trkpt lat="43.5606109" lon="11.9045908"><ele>538.3333333333334</ele><time>2026-04-19T09:11:44.537Z</time></trkpt><trkpt lat="43.5606929" lon="11.9045968"><ele>539.6666666666666</ele><time>2026-04-19T09:11:47.546Z</time></trkpt><trkpt lat="43.5607719" lon="11.9045886"><ele>541.0</ele><time>2026-04-19T09:11:50.543Z</time></trkpt><trkpt lat="43.560849" lon="11.9045954"><ele>542.3333333333333</ele><time>2026-04-19T09:11:53.539Z</time></trkpt><trkpt lat="43.5609223" lon="11.9046283"><ele>543.6666666666666</ele><time>2026-04-19T09:11:56.549Z</time></trkpt><trkpt lat="43.5609882" lon="11.9046398"><ele>545.0</ele><time>2026-04-19T09:11:59.542Z</time></trkpt><trkpt lat="43.5610528" lon="11.9046923"><ele>545.0</ele><time>2026-04-19T09:12:02.536Z</time></trkpt><trkpt lat="43.5610855" lon="11.9047697"><ele>545.0</ele><time>2026-04-19T09:12:05.526Z</time></trkpt><trkpt lat="43.5610324" lon="11.9048452"><ele>545.0</ele><time>2026-04-19T09:12:10.562Z</time></trkpt><trkpt lat="43.5609783" lon="11.9048985"><ele>545.0</ele><time>2026-04-19T09:12:13.541Z</time></trkpt><trkpt lat="43.5609419" lon="11.9049715"><ele>545.0</ele><time>2026-04-19T09:12:16.541Z</time></trkpt><trkpt lat="43.5609055" lon="11.9050543"><ele>545.0</ele><time>2026-04-19T09:12:19.542Z</time></trkpt><trkpt lat="43.5608642" lon="11.9051486"><ele>545.0</ele><time>2026-04-19T09:12:23.539Z</time></trkpt><trkpt lat="43.5608095" lon="11.9052078"><ele>548.1666666666666</ele><time>2026-04-19T09:12:27.537Z</time></trkpt><trkpt lat="43.5607493" lon="11.9052747"><ele>551.3333333333333</ele><time>2026-04-19T09:12:31.543Z</time></trkpt><trkpt lat="43.5606842" lon="11.9053386"><ele>554.5</ele><time>2026-04-19T09:12:35.526Z</time></trkpt><trkpt lat="43.5606166" lon="11.9053925"><ele>557.6666666666666</ele><time>2026-04-19T09:12:39.549Z</time></trkpt><trkpt lat="43.5605574" lon="11.9054593"><ele>560.8333333333334</ele><time>2026-04-19T09:12:43.542Z</time></trkpt><trkpt lat="43.5605122" lon="11.9055527"><ele>564.0</ele><time>2026-04-19T09:12:47.545Z</time></trkpt><trkpt lat="43.5604997" lon="11.9056573"><ele>564.0</ele><time>2026-04-19T09:12:51.545Z</time></trkpt><trkpt lat="43.560511" lon="11.9057732"><ele>564.0</ele><time>2026-04-19T09:12:57.549Z</time></trkpt><trkpt lat="43.5605475" lon="11.9058546"><ele>564.0</ele><time>2026-04-19T09:13:01.557Z</time></trkpt><trkpt lat="43.5605904" lon="11.9059273"><ele>564.0</ele><time>2026-04-19T09:13:06.529Z</time></trkpt><trkpt lat="43.5606359" lon="11.9059907"><ele>564.0</ele><time>2026-04-19T09:13:09.541Z</time></trkpt><trkpt lat="43.5606852" lon="11.9060639"><ele>564.0</ele><time>2026-04-19T09:13:12.556Z</time></trkpt><trkpt lat="43.5607444" lon="11.9061347"><ele>564.0</ele><time>2026-04-19T09:13:16.519Z</time></trkpt><trkpt lat="43.5607943" lon="11.9062144"><ele>564.5</ele><time>2026-04-19T09:13:19.529Z</time></trkpt><trkpt lat="43.5608374" lon="11.9062965"><ele>565.0</ele><time>2026-04-19T09:13:22.521Z</time></trkpt><trkpt lat="43.5608647" lon="11.9063841"><ele>565.5</ele><time>2026-04-19T09:13:25.542Z</time></trkpt><trkpt lat="43.5608969" lon="11.9064904"><ele>566.0</ele><time>2026-04-19T09:13:29.549Z</time></trkpt><trkpt lat="43.5609421" lon="11.9065881"><ele>566.5</ele><time>2026-04-19T09:13:32.525Z</time></trkpt><trkpt lat="43.5609911" lon="11.9066866"><ele>567.0</ele><time>2026-04-19T09:13:35.543Z</time></trkpt><trkpt lat="43.5610301" lon="11.9067918"><ele>567.0</ele><time>2026-04-19T09:13:38.541Z</time></trkpt><trkpt lat="43.5610491" lon="11.9068977"><ele>567.0</ele><time>2026-04-19T09:13:41.54Z</time></trkpt><trkpt lat="43.5610547" lon="11.9069888"><ele>567.0</ele><time>2026-04-19T09:13:43.532Z</time></trkpt><trkpt lat="43.5610541" lon="11.9071041"><ele>567.0</ele><time>2026-04-19T09:13:45.549Z</time></trkpt><trkpt lat="43.5610671" lon="11.9071988"><ele>567.0</ele><time>2026-04-19T09:13:47.558Z</time></trkpt><trkpt lat="43.5610857" lon="11.9072927"><ele>567.0</ele><time>2026-04-19T09:13:50.526Z</time></trkpt><trkpt lat="43.5611089" lon="11.9074078"><ele>567.0</ele><time>2026-04-19T09:13:58.534Z</time></trkpt><trkpt lat="43.5611654" lon="11.907509"><ele>567.0</ele><time>2026-04-19T09:14:00.547Z</time></trkpt><trkpt lat="43.5612302" lon="11.9076148"><ele>567.0</ele><time>2026-04-19T09:14:02.552Z</time></trkpt><trkpt lat="43.5612965" lon="11.907752"><ele>567.0</ele><time>2026-04-19T09:14:04.533Z</time></trkpt><trkpt lat="43.5613265" lon="11.9078433"><ele>567.0</ele><time>2026-04-19T09:14:05.532Z</time></trkpt><trkpt lat="43.561356" lon="11.907931"><ele>566.5714285714286</ele><time>2026-04-19T09:14:06.519Z</time></trkpt><trkpt lat="43.5613889" lon="11.9080266"><ele>566.1428571428571</ele><time>2026-04-19T09:14:07.523Z</time></trkpt><trkpt lat="43.5614331" lon="11.9081165"><ele>565.7142857142858</ele><time>2026-04-19T09:14:08.536Z</time></trkpt><trkpt lat="43.5614643" lon="11.9082149"><ele>565.2857142857142</ele><time>2026-04-19T09:14:09.539Z</time></trkpt><trkpt lat="43.5614791" lon="11.9083085"><ele>564.8571428571429</ele><time>2026-04-19T09:14:10.539Z</time></trkpt><trkpt lat="43.5615046" lon="11.9083914"><ele>564.4285714285714</ele><time>2026-04-19T09:14:11.53Z</time></trkpt><trkpt lat="43.5615695" lon="11.908436"><ele>564.0</ele><time>2026-04-19T09:14:12.539Z</time></trkpt><trkpt lat="43.5616341" lon="11.9084801"><ele>563.6666666666666</ele><time>2026-04-19T09:14:13.545Z</time></trkpt><trkpt lat="43.561699" lon="11.9085281"><ele>563.3333333333334</ele><time>2026-04-19T09:14:14.551Z</time></trkpt><trkpt lat="43.5617458" lon="11.9086053"><ele>563.0</ele><time>2026-04-19T09:14:15.533Z</time></trkpt><trkpt lat="43.5617726" lon="11.9086912"><ele>562.6666666666667</ele><time>2026-04-19T09:14:16.545Z</time></trkpt><trkpt lat="43.5617815" lon="11.9088007"><ele>562.3333333333334</ele><time>2026-04-19T09:14:17.534Z</time></trkpt><trkpt lat="43.5617997" lon="11.9088856"><ele>562.0</ele><time>2026-04-19T09:14:18.539Z</time></trkpt><trkpt lat="43.5618479" lon="11.9090181"><ele>562.0</ele><time>2026-04-19T09:14:20.539Z</time></trkpt><trkpt lat="43.5619084" lon="11.9091164"><ele>562.0</ele><time>2026-04-19T09:14:22.554Z</time></trkpt><trkpt lat="43.5619839" lon="11.9092002"><ele>562.0</ele><time>2026-04-19T09:14:24.542Z</time></trkpt><trkpt lat="43.5620615" lon="11.9092905"><ele>562.0</ele><time>2026-04-19T09:14:26.526Z</time></trkpt><trkpt lat="43.5620932" lon="11.909432"><ele>562.0</ele><time>2026-04-19T09:14:28.527Z</time></trkpt><trkpt lat="43.5620921" lon="11.9095809"><ele>561.0</ele><time>2026-04-19T09:14:30.543Z</time></trkpt><trkpt lat="43.5621125" lon="11.9097048"><ele>560.0</ele><time>2026-04-19T09:14:32.534Z</time></trkpt><trkpt lat="43.5621759" lon="11.9098183"><ele>559.0</ele><time>2026-04-19T09:14:35.543Z</time></trkpt><trkpt lat="43.5622545" lon="11.9099217"><ele>558.0</ele><time>2026-04-19T09:14:37.534Z</time></trkpt><trkpt lat="43.5623366" lon="11.9100308"><ele>557.0</ele><time>2026-04-19T09:14:39.542Z</time></trkpt><trkpt lat="43.5623739" lon="11.9101305"><ele>557.0</ele><time>2026-04-19T09:14:41.523Z</time></trkpt><trkpt lat="43.5623701" lon="11.9102627"><ele>557.0</ele><time>2026-04-19T09:14:43.531Z</time></trkpt><trkpt lat="43.5623623" lon="11.9103628"><ele>557.0</ele><time>2026-04-19T09:14:45.53Z</time></trkpt><trkpt lat="43.5623812" lon="11.9104863"><ele>557.0</ele><time>2026-04-19T09:14:48.524Z</time></trkpt><trkpt lat="43.5624417" lon="11.9106006"><ele>557.0</ele><time>2026-04-19T09:14:50.52Z</time></trkpt><trkpt lat="43.5625175" lon="11.9107237"><ele>557.0</ele><time>2026-04-19T09:14:52.539Z</time></trkpt><trkpt lat="43.5625743" lon="11.9107854"><ele>557.0</ele><time>2026-04-19T09:14:55.533Z</time></trkpt><trkpt lat="43.5626127" lon="11.9108611"><ele>557.0</ele><time>2026-04-19T09:14:58.542Z</time></trkpt><trkpt lat="43.5626614" lon="11.9109532"><ele>557.0</ele><time>2026-04-19T09:15:00.526Z</time></trkpt><trkpt lat="43.5627221" lon="11.9110513"><ele>557.0</ele><time>2026-04-19T09:15:02.53Z</time></trkpt><trkpt lat="43.5627685" lon="11.9111516"><ele>557.0</ele><time>2026-04-19T09:15:04.547Z</time></trkpt><trkpt lat="43.5628056" lon="11.9112677"><ele>559.8000000000001</ele><time>2026-04-19T09:15:06.541Z</time></trkpt><trkpt lat="43.5628485" lon="11.911389"><ele>562.6</ele><time>2026-04-19T09:15:08.531Z</time></trkpt><trkpt lat="43.562881" lon="11.9114669"><ele>565.4000000000001</ele><time>2026-04-19T09:15:09.543Z</time></trkpt><trkpt lat="43.5629401" lon="11.9116002"><ele>568.2</ele><time>2026-04-19T09:15:11.549Z</time></trkpt><trkpt lat="43.5630037" lon="11.9117404"><ele>571.0</ele><time>2026-04-19T09:15:13.536Z</time></trkpt><trkpt lat="43.5630299" lon="11.9118221"><ele>565.4</ele><time>2026-04-19T09:15:14.522Z</time></trkpt><trkpt lat="43.5630855" lon="11.9119683"><ele>559.8</ele><time>2026-04-19T09:15:16.547Z</time></trkpt><trkpt lat="43.5631161" lon="11.9120817"><ele>554.1999999999999</ele><time>2026-04-19T09:15:18.525Z</time></trkpt><trkpt lat="43.563141" lon="11.9122005"><ele>548.6</ele><time>2026-04-19T09:15:20.532Z</time></trkpt><trkpt lat="43.5631555" lon="11.9122988"><ele>543.0</ele><time>2026-04-19T09:15:22.525Z</time></trkpt><trkpt lat="43.5632022" lon="11.9123917"><ele>543.0</ele><time>2026-04-19T09:15:24.542Z</time></trkpt><trkpt lat="43.5632293" lon="11.9124872"><ele>543.0</ele><time>2026-04-19T09:15:26.533Z</time></trkpt><trkpt lat="43.5632606" lon="11.9125946"><ele>543.0</ele><time>2026-04-19T09:15:28.52Z</time></trkpt><trkpt lat="43.5632847" lon="11.9126989"><ele>543.0</ele><time>2026-04-19T09:15:31.539Z</time></trkpt><trkpt lat="43.5633248" lon="11.9127938"><ele>543.0</ele><time>2026-04-19T09:15:34.535Z</time></trkpt><trkpt lat="43.563363" lon="11.9128694"><ele>543.0</ele><time>2026-04-19T09:15:38.528Z</time></trkpt><trkpt lat="43.56337" lon="11.9129867"><ele>543.3333333333334</ele><time>2026-04-19T09:15:41.537Z</time></trkpt><trkpt lat="43.5633956" lon="11.9130968"><ele>543.6666666666666</ele><time>2026-04-19T09:15:44.514Z</time></trkpt><trkpt lat="43.56343" lon="11.9132211"><ele>544.0</ele><time>2026-04-19T09:15:46.543Z</time></trkpt><trkpt lat="43.5634632" lon="11.9133372"><ele>544.3333333333333</ele><time>2026-04-19T09:15:49.552Z</time></trkpt><trkpt lat="43.5635066" lon="11.9134283"><ele>544.6666666666666</ele><time>2026-04-19T09:15:52.542Z</time></trkpt><trkpt lat="43.5635377" lon="11.9135284"><ele>545.0</ele><time>2026-04-19T09:15:55.53Z</time></trkpt><trkpt lat="43.5635106" lon="11.9136423"><ele>545.0</ele><time>2026-04-19T09:15:57.536Z</time></trkpt><trkpt lat="43.5634906" lon="11.9138147"><ele>545.0</ele><time>2026-04-19T09:15:59.544Z</time></trkpt><trkpt lat="43.5634502" lon="11.9138994"><ele>545.0</ele><time>2026-04-19T09:16:00.544Z</time></trkpt><trkpt lat="43.5633871" lon="11.9139529"><ele>545.0</ele><time>2026-04-19T09:16:01.54Z</time></trkpt><trkpt lat="43.563304" lon="11.9140558"><ele>545.0</ele><time>2026-04-19T09:16:03.537Z</time></trkpt><trkpt lat="43.5631871" lon="11.9141353"><ele>545.0</ele><time>2026-04-19T09:16:05.549Z</time></trkpt><trkpt lat="43.5631236" lon="11.9141763"><ele>545.0</ele><time>2026-04-19T09:16:06.54Z</time></trkpt><trkpt lat="43.5630848" lon="11.9143388"><ele>545.0</ele><time>2026-04-19T09:16:08.535Z</time></trkpt><trkpt lat="43.5630428" lon="11.9144124"><ele>545.0</ele><time>2026-04-19T09:16:09.531Z</time></trkpt><trkpt lat="43.5630097" lon="11.9144886"><ele>545.0</ele><time>2026-04-19T09:16:10.538Z</time></trkpt><trkpt lat="43.5629508" lon="11.9145488"><ele>545.0</ele><time>2026-04-19T09:16:11.535Z</time></trkpt><trkpt lat="43.5628728" lon="11.9145687"><ele>545.0</ele><time>2026-04-19T09:16:12.534Z</time></trkpt><trkpt lat="43.5627998" lon="11.9145629"><ele>545.0</ele><time>2026-04-19T09:16:13.534Z</time></trkpt><trkpt lat="43.5626814" lon="11.9146048"><ele>545.0</ele><time>2026-04-19T09:16:15.536Z</time></trkpt><trkpt lat="43.5626166" lon="11.9145977"><ele>545.0</ele><time>2026-04-19T09:16:16.541Z</time></trkpt><trkpt lat="43.5625377" lon="11.9146343"><ele>545.0</ele><time>2026-04-19T09:16:18.537Z</time></trkpt><trkpt lat="43.5625193" lon="11.9147236"><ele>545.0</ele><time>2026-04-19T09:16:22.525Z</time></trkpt><trkpt lat="43.5625484" lon="11.9148338"><ele>545.0</ele><time>2026-04-19T09:16:26.526Z</time></trkpt><trkpt lat="43.5626083" lon="11.9149232"><ele>545.0</ele><time>2026-04-19T09:16:29.532Z</time></trkpt><trkpt lat="43.5626708" lon="11.914954"><ele>545.0</ele><time>2026-04-19T09:16:32.542Z</time></trkpt><trkpt lat="43.5627638" lon="11.9149674"><ele>545.0</ele><time>2026-04-19T09:16:35.538Z</time></trkpt><trkpt lat="43.5628256" lon="11.9150101"><ele>545.0</ele><time>2026-04-19T09:16:37.54Z</time></trkpt><trkpt lat="43.5629038" lon="11.9150844"><ele>545.0</ele><time>2026-04-19T09:16:39.53Z</time></trkpt><trkpt lat="43.5629795" lon="11.9151405"><ele>545.0</ele><time>2026-04-19T09:16:41.544Z</time></trkpt><trkpt lat="43.5630511" lon="11.9152262"><ele>545.0</ele><time>2026-04-19T09:16:43.516Z</time></trkpt><trkpt lat="43.5630877" lon="11.9153012"><ele>545.0</ele><time>2026-04-19T09:16:45.538Z</time></trkpt><trkpt lat="43.5631211" lon="11.9153779"><ele>545.0</ele><time>2026-04-19T09:16:47.54Z</time></trkpt><trkpt lat="43.5631779" lon="11.9154464"><ele>545.0</ele><time>2026-04-19T09:16:51.532Z</time></trkpt><trkpt lat="43.5632353" lon="11.9155248"><ele>545.0</ele><time>2026-04-19T09:16:54.525Z</time></trkpt><trkpt lat="43.5633042" lon="11.9155837"><ele>545.0</ele><time>2026-04-19T09:16:58.537Z</time></trkpt><trkpt lat="43.5633863" lon="11.9156482"><ele>545.0</ele><time>2026-04-19T09:17:01.537Z</time></trkpt><trkpt lat="43.5634354" lon="11.9157124"><ele>545.0</ele><time>2026-04-19T09:17:03.543Z</time></trkpt><trkpt lat="43.5635282" lon="11.9157761"><ele>545.0</ele><time>2026-04-19T09:17:05.522Z</time></trkpt><trkpt lat="43.5636052" lon="11.9158403"><ele>545.0</ele><time>2026-04-19T09:17:07.519Z</time></trkpt><trkpt lat="43.5636759" lon="11.9159059"><ele>545.0</ele><time>2026-04-19T09:17:09.535Z</time></trkpt><trkpt lat="43.5637418" lon="11.9159553"><ele>544.6666666666666</ele><time>2026-04-19T09:17:11.526Z</time></trkpt><trkpt lat="43.5638113" lon="11.9160142"><ele>544.3333333333333</ele><time>2026-04-19T09:17:13.52Z</time></trkpt><trkpt lat="43.5638708" lon="11.9160674"><ele>544.0</ele><time>2026-04-19T09:17:15.509Z</time></trkpt><trkpt lat="43.5639513" lon="11.9161693"><ele>543.6666666666666</ele><time>2026-04-19T09:17:18.519Z</time></trkpt><trkpt lat="43.5640076" lon="11.916232"><ele>543.3333333333334</ele><time>2026-04-19T09:17:20.514Z</time></trkpt><trkpt lat="43.5640498" lon="11.9163049"><ele>543.0</ele><time>2026-04-19T09:17:22.55Z</time></trkpt><trkpt lat="43.5641078" lon="11.9164003"><ele>543.0</ele><time>2026-04-19T09:17:25.527Z</time></trkpt><trkpt lat="43.564184" lon="11.9164555"><ele>543.0</ele><time>2026-04-19T09:17:27.509Z</time></trkpt><trkpt lat="43.5642645" lon="11.9165128"><ele>543.0</ele><time>2026-04-19T09:17:29.527Z</time></trkpt><trkpt lat="43.5643416" lon="11.9165687"><ele>543.0</ele><time>2026-04-19T09:17:31.535Z</time></trkpt><trkpt lat="43.5644129" lon="11.9166304"><ele>543.0</ele><time>2026-04-19T09:17:33.517Z</time></trkpt><trkpt lat="43.5644721" lon="11.9167014"><ele>543.0</ele><time>2026-04-19T09:17:35.523Z</time></trkpt><trkpt lat="43.5645271" lon="11.9168132"><ele>541.8333333333334</ele><time>2026-04-19T09:17:38.52Z</time></trkpt><trkpt lat="43.5645235" lon="11.9169123"><ele>540.6666666666666</ele><time>2026-04-19T09:17:40.533Z</time></trkpt><trkpt lat="43.5644748" lon="11.916991"><ele>539.5</ele><time>2026-04-19T09:17:42.536Z</time></trkpt><trkpt lat="43.5644499" lon="11.9170719"><ele>538.3333333333333</ele><time>2026-04-19T09:17:44.529Z</time></trkpt><trkpt lat="43.5644172" lon="11.917148"><ele>537.1666666666666</ele><time>2026-04-19T09:17:46.517Z</time></trkpt><trkpt lat="43.5643187" lon="11.9172512"><ele>536.0</ele><time>2026-04-19T09:17:48.521Z</time></trkpt><trkpt lat="43.5642594" lon="11.9172898"><ele>536.0</ele><time>2026-04-19T09:17:49.537Z</time></trkpt><trkpt lat="43.5641588" lon="11.9174072"><ele>536.0</ele><time>2026-04-19T09:17:51.527Z</time></trkpt><trkpt lat="43.5640987" lon="11.9174863"><ele>536.0</ele><time>2026-04-19T09:17:52.537Z</time></trkpt><trkpt lat="43.5640454" lon="11.9175605"><ele>536.0</ele><time>2026-04-19T09:17:53.532Z</time></trkpt><trkpt lat="43.5640004" lon="11.9176342"><ele>536.0</ele><time>2026-04-19T09:17:54.525Z</time></trkpt><trkpt lat="43.5639503" lon="11.9177259"><ele>536.0</ele><time>2026-04-19T09:17:55.522Z</time></trkpt><trkpt lat="43.5638977" lon="11.917827"><ele>534.5</ele><time>2026-04-19T09:17:56.517Z</time></trkpt><trkpt lat="43.5638462" lon="11.9179316"><ele>533.0</ele><time>2026-04-19T09:17:57.51Z</time></trkpt><trkpt lat="43.5637976" lon="11.9180355"><ele>531.5</ele><time>2026-04-19T09:17:58.518Z</time></trkpt><trkpt lat="43.5637438" lon="11.918137"><ele>530.0</ele><time>2026-04-19T09:17:59.532Z</time></trkpt><trkpt lat="43.5636918" lon="11.9182428"><ele>528.5</ele><time>2026-04-19T09:18:00.516Z</time></trkpt><trkpt lat="43.5636496" lon="11.9183352"><ele>527.0</ele><time>2026-04-19T09:18:01.532Z</time></trkpt><trkpt lat="43.5636172" lon="11.9184345"><ele>527.0</ele><time>2026-04-19T09:18:02.54Z</time></trkpt><trkpt lat="43.5635931" lon="11.9185307"><ele>527.0</ele><time>2026-04-19T09:18:03.529Z</time></trkpt><trkpt lat="43.5635603" lon="11.9186412"><ele>527.0</ele><time>2026-04-19T09:18:04.533Z</time></trkpt><trkpt lat="43.5635253" lon="11.9187398"><ele>527.0</ele><time>2026-04-19T09:18:05.528Z</time></trkpt><trkpt lat="43.5634861" lon="11.9188294"><ele>527.0</ele><time>2026-04-19T09:18:06.528Z</time></trkpt><trkpt lat="43.5634408" lon="11.918926"><ele>527.0</ele><time>2026-04-19T09:18:07.513Z</time></trkpt><trkpt lat="43.5634057" lon="11.9190153"><ele>527.0</ele><time>2026-04-19T09:18:08.533Z</time></trkpt><trkpt lat="43.5633845" lon="11.9191187"><ele>527.0</ele><time>2026-04-19T09:18:09.54Z</time></trkpt><trkpt lat="43.563342" lon="11.919229"><ele>527.0</ele><time>2026-04-19T09:18:10.531Z</time></trkpt><trkpt lat="43.5632838" lon="11.919344"><ele>527.0</ele><time>2026-04-19T09:18:11.534Z</time></trkpt><trkpt lat="43.5632141" lon="11.9194475"><ele>527.0</ele><time>2026-04-19T09:18:12.509Z</time></trkpt><trkpt lat="43.5631587" lon="11.9195557"><ele>525.0</ele><time>2026-04-19T09:18:13.535Z</time></trkpt><trkpt lat="43.5631081" lon="11.9196605"><ele>523.0</ele><time>2026-04-19T09:18:14.507Z</time></trkpt><trkpt lat="43.5630603" lon="11.9197482"><ele>521.0</ele><time>2026-04-19T09:18:15.517Z</time></trkpt><trkpt lat="43.5630133" lon="11.9198187"><ele>519.0</ele><time>2026-04-19T09:18:16.517Z</time></trkpt><trkpt lat="43.562908" lon="11.919903"><ele>517.0</ele><time>2026-04-19T09:18:18.526Z</time></trkpt><trkpt lat="43.5628443" lon="11.9199016"><ele>515.0</ele><time>2026-04-19T09:18:19.544Z</time></trkpt><trkpt lat="43.5627745" lon="11.919878"><ele>515.0</ele><time>2026-04-19T09:18:20.525Z</time></trkpt><trkpt lat="43.5627117" lon="11.9198548"><ele>515.0</ele><time>2026-04-19T09:18:21.528Z</time></trkpt><trkpt lat="43.562644" lon="11.9198357"><ele>515.0</ele><time>2026-04-19T09:18:22.515Z</time></trkpt><trkpt lat="43.562569" lon="11.9198436"><ele>515.0</ele><time>2026-04-19T09:18:23.527Z</time></trkpt><trkpt lat="43.5625074" lon="11.9198748"><ele>515.0</ele><time>2026-04-19T09:18:24.52Z</time></trkpt><trkpt lat="43.5624195" lon="11.9198997"><ele>515.0</ele><time>2026-04-19T09:18:26.516Z</time></trkpt><trkpt lat="43.562355" lon="11.919924"><ele>515.0</ele><time>2026-04-19T09:18:28.521Z</time></trkpt><trkpt lat="43.562257" lon="11.9198864"><ele>515.0</ele><time>2026-04-19T09:18:30.53Z</time></trkpt><trkpt lat="43.5621538" lon="11.9198648"><ele>515.0</ele><time>2026-04-19T09:18:32.52Z</time></trkpt><trkpt lat="43.5620468" lon="11.9198915"><ele>515.0</ele><time>2026-04-19T09:18:34.521Z</time></trkpt><trkpt lat="43.5619874" lon="11.9199263"><ele>515.0</ele><time>2026-04-19T09:18:35.518Z</time></trkpt><trkpt lat="43.5619261" lon="11.9199471"><ele>515.0</ele><time>2026-04-19T09:18:36.524Z</time></trkpt><trkpt lat="43.5618591" lon="11.9199681"><ele>515.0</ele><time>2026-04-19T09:18:37.528Z</time></trkpt><trkpt lat="43.5617915" lon="11.9199917"><ele>515.7142857142858</ele><time>2026-04-19T09:18:38.53Z</time></trkpt><trkpt lat="43.5617213" lon="11.9200246"><ele>516.4285714285714</ele><time>2026-04-19T09:18:39.522Z</time></trkpt><trkpt lat="43.5616565" lon="11.9200694"><ele>517.1428571428571</ele><time>2026-04-19T09:18:40.523Z</time></trkpt><trkpt lat="43.5615903" lon="11.9201093"><ele>517.8571428571429</ele><time>2026-04-19T09:18:41.519Z</time></trkpt><trkpt lat="43.5615259" lon="11.9201382"><ele>518.5714285714286</ele><time>2026-04-19T09:18:42.516Z</time></trkpt><trkpt lat="43.5614642" lon="11.9201682"><ele>519.2857142857143</ele><time>2026-04-19T09:18:43.51Z</time></trkpt><trkpt lat="43.5613956" lon="11.9201989"><ele>520.0</ele><time>2026-04-19T09:18:44.519Z</time></trkpt><trkpt lat="43.5613203" lon="11.9202116"><ele>518.8571428571429</ele><time>2026-04-19T09:18:45.526Z</time></trkpt><trkpt lat="43.5612439" lon="11.9201987"><ele>517.7142857142858</ele><time>2026-04-19T09:18:46.536Z</time></trkpt><trkpt lat="43.5611711" lon="11.920201"><ele>516.5714285714286</ele><time>2026-04-19T09:18:47.535Z</time></trkpt><trkpt lat="43.5611038" lon="11.9201432"><ele>515.4285714285714</ele><time>2026-04-19T09:18:48.525Z</time></trkpt><trkpt lat="43.5610379" lon="11.9200734"><ele>514.2857142857142</ele><time>2026-04-19T09:18:50.517Z</time></trkpt><trkpt lat="43.5609788" lon="11.9200283"><ele>513.1428571428571</ele><time>2026-04-19T09:18:58.523Z</time></trkpt><trkpt lat="43.5609212" lon="11.9199899"><ele>512.0</ele><time>2026-04-19T09:19:13.521Z</time></trkpt><trkpt lat="43.5608212" lon="11.9200271"><ele>511.99999999999994</ele><time>2026-04-19T09:19:16.519Z</time></trkpt><trkpt lat="43.5607231" lon="11.9200361"><ele>512.0</ele><time>2026-04-19T09:19:18.512Z</time></trkpt><trkpt lat="43.5606571" lon="11.9200298"><ele>512.0</ele><time>2026-04-19T09:19:20.523Z</time></trkpt><trkpt lat="43.5607355" lon="11.920117"><ele>512.0</ele><time>2026-04-19T09:19:24.523Z</time></trkpt><trkpt lat="43.5608134" lon="11.9201571"><ele>511.99999999999994</ele><time>2026-04-19T09:19:26.53Z</time></trkpt><trkpt lat="43.5608822" lon="11.9202127"><ele>512.0</ele><time>2026-04-19T09:19:28.517Z</time></trkpt><trkpt lat="43.5609593" lon="11.9202803"><ele>507.66666666666663</ele><time>2026-04-19T09:19:30.537Z</time></trkpt><trkpt lat="43.5610449" lon="11.9203628"><ele>503.3333333333333</ele><time>2026-04-19T09:19:32.523Z</time></trkpt><trkpt lat="43.5611427" lon="11.920419"><ele>499.0</ele><time>2026-04-19T09:19:34.519Z</time></trkpt><trkpt lat="43.5612148" lon="11.9204918"><ele>494.66666666666663</ele><time>2026-04-19T09:19:37.532Z</time></trkpt><trkpt lat="43.5612446" lon="11.9205712"><ele>490.3333333333333</ele><time>2026-04-19T09:19:39.537Z</time></trkpt><trkpt lat="43.5613038" lon="11.9206252"><ele>486.0</ele><time>2026-04-19T09:19:42.517Z</time></trkpt><trkpt lat="43.5612993" lon="11.9207331"><ele>486.0</ele><time>2026-04-19T09:19:45.529Z</time></trkpt><trkpt lat="43.5612485" lon="11.9208189"><ele>486.0</ele><time>2026-04-19T09:19:48.522Z</time></trkpt><trkpt lat="43.5612735" lon="11.9209197"><ele>486.0</ele><time>2026-04-19T09:19:51.516Z</time></trkpt><trkpt lat="43.5613161" lon="11.9210397"><ele>486.0</ele><time>2026-04-19T09:19:54.513Z</time></trkpt><trkpt lat="43.5613461" lon="11.9211292"><ele>486.0</ele><time>2026-04-19T09:19:56.527Z</time></trkpt><trkpt lat="43.5613814" lon="11.9212223"><ele>486.0</ele><time>2026-04-19T09:19:58.515Z</time></trkpt><trkpt lat="43.561355" lon="11.9213118"><ele>482.3333333333333</ele><time>2026-04-19T09:20:00.521Z</time></trkpt><trkpt lat="43.561306" lon="11.9213715"><ele>478.66666666666663</ele><time>2026-04-19T09:20:02.497Z</time></trkpt><trkpt lat="43.5612414" lon="11.9214487"><ele>475.0</ele><time>2026-04-19T09:20:05.505Z</time></trkpt><trkpt lat="43.5612149" lon="11.9215726"><ele>471.3333333333333</ele><time>2026-04-19T09:20:08.512Z</time></trkpt><trkpt lat="43.5612235" lon="11.9216591"><ele>467.66666666666663</ele><time>2026-04-19T09:20:10.509Z</time></trkpt><trkpt lat="43.5612066" lon="11.9217771"><ele>464.0</ele><time>2026-04-19T09:20:13.505Z</time></trkpt><trkpt lat="43.5611112" lon="11.9218471"><ele>460.6</ele><time>2026-04-19T09:20:15.512Z</time></trkpt><trkpt lat="43.5610028" lon="11.9219557"><ele>457.2</ele><time>2026-04-19T09:20:17.515Z</time></trkpt><trkpt lat="43.5609391" lon="11.9220002"><ele>453.80000000000007</ele><time>2026-04-19T09:20:18.496Z</time></trkpt><trkpt lat="43.5608529" lon="11.9220667"><ele>450.40000000000003</ele><time>2026-04-19T09:20:20.512Z</time></trkpt><trkpt lat="43.5608491" lon="11.9221772"><ele>447.0</ele><time>2026-04-19T09:20:22.512Z</time></trkpt><trkpt lat="43.5609219" lon="11.9222466"><ele>446.99999999999994</ele><time>2026-04-19T09:20:24.519Z</time></trkpt><trkpt lat="43.5609944" lon="11.9222615"><ele>447.0</ele><time>2026-04-19T09:20:26.518Z</time></trkpt><trkpt lat="43.5610631" lon="11.9222769"><ele>447.0</ele><time>2026-04-19T09:20:28.519Z</time></trkpt><trkpt lat="43.5611194" lon="11.9223304"><ele>447.0</ele><time>2026-04-19T09:20:30.502Z</time></trkpt><trkpt lat="43.5611054" lon="11.9224217"><ele>447.0</ele><time>2026-04-19T09:20:33.514Z</time></trkpt><trkpt lat="43.5610256" lon="11.9224689"><ele>446.99999999999994</ele><time>2026-04-19T09:20:36.515Z</time></trkpt><trkpt lat="43.5609767" lon="11.9225275"><ele>447.0</ele><time>2026-04-19T09:20:38.514Z</time></trkpt><trkpt lat="43.560933" lon="11.9226636"><ele>444.0</ele><time>2026-04-19T09:20:41.513Z</time></trkpt><trkpt lat="43.5608746" lon="11.9227884"><ele>441.0</ele><time>2026-04-19T09:20:43.515Z</time></trkpt><trkpt lat="43.5608193" lon="11.922848"><ele>438.0</ele><time>2026-04-19T09:20:45.513Z</time></trkpt><trkpt lat="43.5607602" lon="11.9229373"><ele>435.0</ele><time>2026-04-19T09:20:47.505Z</time></trkpt><trkpt lat="43.560717" lon="11.9230461"><ele>432.0</ele><time>2026-04-19T09:20:49.527Z</time></trkpt><trkpt lat="43.5606898" lon="11.9231389"><ele>429.0</ele><time>2026-04-19T09:20:51.509Z</time></trkpt><trkpt lat="43.5606579" lon="11.9232272"><ele>429.0</ele><time>2026-04-19T09:20:53.505Z</time></trkpt><trkpt lat="43.5606341" lon="11.9233081"><ele>429.0</ele><time>2026-04-19T09:20:55.507Z</time></trkpt><trkpt lat="43.5606267" lon="11.9234259"><ele>429.0</ele><time>2026-04-19T09:20:58.515Z</time></trkpt><trkpt lat="43.5606207" lon="11.923515"><ele>429.0</ele><time>2026-04-19T09:21:00.515Z</time></trkpt><trkpt lat="43.560672" lon="11.9235877"><ele>429.0</ele><time>2026-04-19T09:21:02.522Z</time></trkpt><trkpt lat="43.5607187" lon="11.9236495"><ele>429.0</ele><time>2026-04-19T09:21:04.516Z</time></trkpt><trkpt lat="43.5607212" lon="11.9237553"><ele>429.0</ele><time>2026-04-19T09:21:06.522Z</time></trkpt><trkpt lat="43.5606683" lon="11.9238429"><ele>426.6666666666667</ele><time>2026-04-19T09:21:08.513Z</time></trkpt><trkpt lat="43.5606113" lon="11.9239"><ele>424.33333333333337</ele><time>2026-04-19T09:21:10.522Z</time></trkpt><trkpt lat="43.5605508" lon="11.9239495"><ele>422.0</ele><time>2026-04-19T09:21:12.515Z</time></trkpt><trkpt lat="43.5604656" lon="11.9239729"><ele>419.6666666666667</ele><time>2026-04-19T09:21:14.505Z</time></trkpt><trkpt lat="43.5603618" lon="11.9239379"><ele>417.33333333333337</ele><time>2026-04-19T09:21:16.539Z</time></trkpt><trkpt lat="43.5602891" lon="11.9238325"><ele>415.0</ele><time>2026-04-19T09:21:18.508Z</time></trkpt><trkpt lat="43.5602349" lon="11.9237732"><ele>414.00000000000006</ele><time>2026-04-19T09:21:20.523Z</time></trkpt><trkpt lat="43.560171" lon="11.9237288"><ele>413.0</ele><time>2026-04-19T09:21:22.502Z</time></trkpt><trkpt lat="43.5600837" lon="11.9237021"><ele>412.0</ele><time>2026-04-19T09:21:24.522Z</time></trkpt><trkpt lat="43.5600098" lon="11.9236627"><ele>411.0</ele><time>2026-04-19T09:21:30.509Z</time></trkpt><trkpt lat="43.5599425" lon="11.9236254"><ele>410.00000000000006</ele><time>2026-04-19T09:21:32.509Z</time></trkpt><trkpt lat="43.5598546" lon="11.9236466"><ele>409.0</ele><time>2026-04-19T09:21:34.525Z</time></trkpt><trkpt lat="43.559806" lon="11.9237895"><ele>409.0</ele><time>2026-04-19T09:21:36.51Z</time></trkpt><trkpt lat="43.5597573" lon="11.9239102"><ele>409.0</ele><time>2026-04-19T09:21:38.511Z</time></trkpt><trkpt lat="43.559701" lon="11.9240139"><ele>409.0</ele><time>2026-04-19T09:21:40.509Z</time></trkpt><trkpt lat="43.5596367" lon="11.9241051"><ele>409.0</ele><time>2026-04-19T09:21:42.523Z</time></trkpt><trkpt lat="43.5595726" lon="11.924225"><ele>409.0</ele><time>2026-04-19T09:21:44.509Z</time></trkpt><trkpt lat="43.5595439" lon="11.924315"><ele>405.6666666666667</ele><time>2026-04-19T09:21:46.526Z</time></trkpt><trkpt lat="43.5595546" lon="11.9244288"><ele>402.33333333333337</ele><time>2026-04-19T09:21:48.501Z</time></trkpt><trkpt lat="43.5595609" lon="11.9245181"><ele>399.0</ele><time>2026-04-19T09:21:50.509Z</time></trkpt><trkpt lat="43.5595691" lon="11.9246388"><ele>395.66666666666663</ele><time>2026-04-19T09:21:52.516Z</time></trkpt><trkpt lat="43.5595734" lon="11.9247474"><ele>392.3333333333333</ele><time>2026-04-19T09:21:54.512Z</time></trkpt><trkpt lat="43.5595742" lon="11.9248816"><ele>389.0</ele><time>2026-04-19T09:21:56.506Z</time></trkpt><trkpt lat="43.5595871" lon="11.9250237"><ele>384.8333333333333</ele><time>2026-04-19T09:21:58.5Z</time></trkpt><trkpt lat="43.5596368" lon="11.9251155"><ele>380.66666666666663</ele><time>2026-04-19T09:22:00.511Z</time></trkpt><trkpt lat="43.5596648" lon="11.9252288"><ele>376.5</ele><time>2026-04-19T09:22:02.513Z</time></trkpt><trkpt lat="43.5596632" lon="11.9253427"><ele>372.3333333333333</ele><time>2026-04-19T09:22:04.518Z</time></trkpt><trkpt lat="43.5596441" lon="11.9254341"><ele>368.16666666666663</ele><time>2026-04-19T09:22:06.522Z</time></trkpt><trkpt lat="43.5595673" lon="11.9255122"><ele>364.0</ele><time>2026-04-19T09:22:09.534Z</time></trkpt><trkpt lat="43.5594875" lon="11.9255092"><ele>364.0</ele><time>2026-04-19T09:22:12.52Z</time></trkpt><trkpt lat="43.5594214" lon="11.9254709"><ele>364.0</ele><time>2026-04-19T09:22:14.515Z</time></trkpt><trkpt lat="43.5593498" lon="11.9254002"><ele>364.0</ele><time>2026-04-19T09:22:16.51Z</time></trkpt><trkpt lat="43.5592708" lon="11.9253268"><ele>364.0</ele><time>2026-04-19T09:22:18.514Z</time></trkpt><trkpt lat="43.5591977" lon="11.9252656"><ele>364.0</ele><time>2026-04-19T09:22:20.509Z</time></trkpt><trkpt lat="43.5591431" lon="11.9252147"><ele>364.0</ele><time>2026-04-19T09:22:22.508Z</time></trkpt><trkpt lat="43.5591055" lon="11.9251238"><ele>364.0</ele><time>2026-04-19T09:22:24.516Z</time></trkpt><trkpt lat="43.5590645" lon="11.9250399"><ele>364.0</ele><time>2026-04-19T09:22:26.518Z</time></trkpt><trkpt lat="43.5590033" lon="11.924982"><ele>364.0</ele><time>2026-04-19T09:22:28.509Z</time></trkpt><trkpt lat="43.5589309" lon="11.9249734"><ele>364.0</ele><time>2026-04-19T09:22:30.51Z</time></trkpt><trkpt lat="43.5588619" lon="11.9249782"><ele>364.0</ele><time>2026-04-19T09:22:32.506Z</time></trkpt><trkpt lat="43.5587827" lon="11.9250422"><ele>364.0</ele><time>2026-04-19T09:22:35.502Z</time></trkpt><trkpt lat="43.5587565" lon="11.9251637"><ele>364.0</ele><time>2026-04-19T09:22:38.502Z</time></trkpt><trkpt lat="43.5587567" lon="11.925257"><ele>364.0</ele><time>2026-04-19T09:22:40.521Z</time></trkpt><trkpt lat="43.5587541" lon="11.9253535"><ele>364.0</ele><time>2026-04-19T09:22:42.514Z</time></trkpt><trkpt lat="43.5587641" lon="11.9254813"><ele>364.0</ele><time>2026-04-19T09:22:45.507Z</time></trkpt><trkpt lat="43.5587821" lon="11.9255913"><ele>364.0</ele><time>2026-04-19T09:22:47.513Z</time></trkpt><trkpt lat="43.558871" lon="11.9256734"><ele>364.0</ele><time>2026-04-19T09:22:49.519Z</time></trkpt><trkpt lat="43.5589275" lon="11.9257218"><ele>364.0</ele><time>2026-04-19T09:22:50.53Z</time></trkpt><trkpt lat="43.55898" lon="11.9257728"><ele>364.0</ele><time>2026-04-19T09:22:51.506Z</time></trkpt><trkpt lat="43.5590663" lon="11.9258946"><ele>364.0</ele><time>2026-04-19T09:22:53.508Z</time></trkpt><trkpt lat="43.559107" lon="11.9259715"><ele>364.0</ele><time>2026-04-19T09:22:54.497Z</time></trkpt><trkpt lat="43.5591733" lon="11.9260935"><ele>364.0</ele><time>2026-04-19T09:22:56.51Z</time></trkpt><trkpt lat="43.5592262" lon="11.9262353"><ele>361.6</ele><time>2026-04-19T09:22:58.509Z</time></trkpt><trkpt lat="43.5592636" lon="11.9263584"><ele>359.2</ele><time>2026-04-19T09:23:00.515Z</time></trkpt><trkpt lat="43.5592914" lon="11.9264724"><ele>356.8</ele><time>2026-04-19T09:23:02.521Z</time></trkpt><trkpt lat="43.5593113" lon="11.9265941"><ele>354.40000000000003</ele><time>2026-04-19T09:23:04.515Z</time></trkpt><trkpt lat="43.5593399" lon="11.926735"><ele>352.0</ele><time>2026-04-19T09:23:06.521Z</time></trkpt><trkpt lat="43.5593719" lon="11.9268356"><ele>349.40000000000003</ele><time>2026-04-19T09:23:08.511Z</time></trkpt><trkpt lat="43.5593885" lon="11.9269424"><ele>346.8</ele><time>2026-04-19T09:23:10.507Z</time></trkpt><trkpt lat="43.5593528" lon="11.9270507"><ele>344.2</ele><time>2026-04-19T09:23:12.503Z</time></trkpt><trkpt lat="43.5593192" lon="11.9271282"><ele>341.6</ele><time>2026-04-19T09:23:13.521Z</time></trkpt><trkpt lat="43.5592404" lon="11.9272455"><ele>339.0</ele><time>2026-04-19T09:23:15.509Z</time></trkpt><trkpt lat="43.5591558" lon="11.9273573"><ele>339.0</ele><time>2026-04-19T09:23:17.506Z</time></trkpt><trkpt lat="43.5590727" lon="11.9274579"><ele>339.0</ele><time>2026-04-19T09:23:19.521Z</time></trkpt><trkpt lat="43.5589905" lon="11.9275526"><ele>339.0</ele><time>2026-04-19T09:23:21.514Z</time></trkpt><trkpt lat="43.5588947" lon="11.9276084"><ele>339.0</ele><time>2026-04-19T09:23:23.525Z</time></trkpt><trkpt lat="43.5587806" lon="11.9276601"><ele>339.0</ele><time>2026-04-19T09:23:25.506Z</time></trkpt><trkpt lat="43.5587194" lon="11.9276853"><ele>337.5</ele><time>2026-04-19T09:23:26.514Z</time></trkpt><trkpt lat="43.5586004" lon="11.9277354"><ele>336.0</ele><time>2026-04-19T09:23:28.509Z</time></trkpt><trkpt lat="43.5584863" lon="11.9277896"><ele>334.5</ele><time>2026-04-19T09:23:30.517Z</time></trkpt><trkpt lat="43.5583755" lon="11.9278578"><ele>333.0</ele><time>2026-04-19T09:23:32.514Z</time></trkpt><trkpt lat="43.5582641" lon="11.9279164"><ele>333.0</ele><time>2026-04-19T09:23:34.508Z</time></trkpt><trkpt lat="43.5581473" lon="11.9279709"><ele>333.0</ele><time>2026-04-19T09:23:36.508Z</time></trkpt><trkpt lat="43.5580313" lon="11.9280209"><ele>333.0</ele><time>2026-04-19T09:23:38.519Z</time></trkpt><trkpt lat="43.5579208" lon="11.9280745"><ele>333.0</ele><time>2026-04-19T09:23:40.521Z</time></trkpt><trkpt lat="43.5578124" lon="11.9281231"><ele>334.4</ele><time>2026-04-19T09:23:42.519Z</time></trkpt><trkpt lat="43.5577109" lon="11.9281745"><ele>335.79999999999995</ele><time>2026-04-19T09:23:44.525Z</time></trkpt><trkpt lat="43.5575999" lon="11.9282254"><ele>337.2</ele><time>2026-04-19T09:23:46.51Z</time></trkpt><trkpt lat="43.5574968" lon="11.9282766"><ele>338.6</ele><time>2026-04-19T09:23:48.509Z</time></trkpt><trkpt lat="43.5574059" lon="11.9283273"><ele>340.0</ele><time>2026-04-19T09:23:50.515Z</time></trkpt><trkpt lat="43.5573183" lon="11.9283907"><ele>338.4</ele><time>2026-04-19T09:23:52.511Z</time></trkpt><trkpt lat="43.5572431" lon="11.9284646"><ele>336.8</ele><time>2026-04-19T09:23:54.498Z</time></trkpt><trkpt lat="43.5571692" lon="11.9285396"><ele>335.20000000000005</ele><time>2026-04-19T09:23:56.518Z</time></trkpt><trkpt lat="43.5570862" lon="11.9286126"><ele>333.6</ele><time>2026-04-19T09:23:58.52Z</time></trkpt><trkpt lat="43.5569965" lon="11.9286936"><ele>332.0</ele><time>2026-04-19T09:24:00.501Z</time></trkpt><trkpt lat="43.5569032" lon="11.9287719"><ele>330.75</ele><time>2026-04-19T09:24:02.515Z</time></trkpt><trkpt lat="43.5567994" lon="11.9288373"><ele>329.5</ele><time>2026-04-19T09:24:04.527Z</time></trkpt><trkpt lat="43.556692" lon="11.9289036"><ele>328.25</ele><time>2026-04-19T09:24:06.521Z</time></trkpt><trkpt lat="43.5565816" lon="11.9289554"><ele>327.0</ele><time>2026-04-19T09:24:08.514Z</time></trkpt><trkpt lat="43.5564726" lon="11.9289886"><ele>327.0</ele><time>2026-04-19T09:24:10.51Z</time></trkpt><trkpt lat="43.5563642" lon="11.9290198"><ele>327.0</ele><time>2026-04-19T09:24:12.515Z</time></trkpt><trkpt lat="43.5562496" lon="11.929051"><ele>327.0</ele><time>2026-04-19T09:24:14.513Z</time></trkpt><trkpt lat="43.5561284" lon="11.9290823"><ele>327.0</ele><time>2026-04-19T09:24:16.512Z</time></trkpt><trkpt lat="43.5560659" lon="11.9290993"><ele>327.0</ele><time>2026-04-19T09:24:17.511Z</time></trkpt><trkpt lat="43.5560028" lon="11.929116"><ele>326.7142857142857</ele><time>2026-04-19T09:24:18.507Z</time></trkpt><trkpt lat="43.55594" lon="11.9291369"><ele>326.42857142857144</ele><time>2026-04-19T09:24:19.5Z</time></trkpt><trkpt lat="43.5558767" lon="11.9291578"><ele>326.1428571428571</ele><time>2026-04-19T09:24:20.509Z</time></trkpt><trkpt lat="43.5558133" lon="11.9291778"><ele>325.8571428571429</ele><time>2026-04-19T09:24:21.514Z</time></trkpt><trkpt lat="43.5557506" lon="11.9292006"><ele>325.5714285714286</ele><time>2026-04-19T09:24:22.506Z</time></trkpt><trkpt lat="43.5556884" lon="11.9292244"><ele>325.2857142857143</ele><time>2026-04-19T09:24:23.503Z</time></trkpt><trkpt lat="43.5556263" lon="11.9292486"><ele>325.0</ele><time>2026-04-19T09:24:24.512Z</time></trkpt><trkpt lat="43.5555645" lon="11.9292742"><ele>325.0</ele><time>2026-04-19T09:24:25.511Z</time></trkpt><trkpt lat="43.5555025" lon="11.9293006"><ele>325.0</ele><time>2026-04-19T09:24:26.507Z</time></trkpt><trkpt lat="43.5554402" lon="11.9293263"><ele>325.0</ele><time>2026-04-19T09:24:27.525Z</time></trkpt><trkpt lat="43.5553788" lon="11.929353"><ele>325.0</ele><time>2026-04-19T09:24:28.522Z</time></trkpt><trkpt lat="43.5553185" lon="11.9293866"><ele>325.0</ele><time>2026-04-19T09:24:29.51Z</time></trkpt><trkpt lat="43.5552573" lon="11.9294178"><ele>325.0</ele><time>2026-04-19T09:24:30.503Z</time></trkpt><trkpt lat="43.5551957" lon="11.9294492"><ele>325.0</ele><time>2026-04-19T09:24:31.522Z</time></trkpt><trkpt lat="43.5551357" lon="11.9294835"><ele>324.85714285714283</ele><time>2026-04-19T09:24:32.503Z</time></trkpt><trkpt lat="43.555076" lon="11.9295183"><ele>324.7142857142857</ele><time>2026-04-19T09:24:33.51Z</time></trkpt><trkpt lat="43.5550151" lon="11.9295504"><ele>324.57142857142856</ele><time>2026-04-19T09:24:34.51Z</time></trkpt><trkpt lat="43.554953" lon="11.9295814"><ele>324.42857142857144</ele><time>2026-04-19T09:24:35.504Z</time></trkpt><trkpt lat="43.5548878" lon="11.9295998"><ele>324.2857142857143</ele><time>2026-04-19T09:24:36.511Z</time></trkpt><trkpt lat="43.5548229" lon="11.9296151"><ele>324.14285714285717</ele><time>2026-04-19T09:24:37.505Z</time></trkpt><trkpt lat="43.5547529" lon="11.9296079"><ele>324.0</ele><time>2026-04-19T09:24:38.516Z</time></trkpt><trkpt lat="43.5546852" lon="11.9295988"><ele>324.0</ele><time>2026-04-19T09:24:39.511Z</time></trkpt><trkpt lat="43.5546172" lon="11.9295878"><ele>324.0</ele><time>2026-04-19T09:24:40.519Z</time></trkpt><trkpt lat="43.5545496" lon="11.9295768"><ele>324.0</ele><time>2026-04-19T09:24:41.514Z</time></trkpt><trkpt lat="43.5544836" lon="11.9295609"><ele>324.0</ele><time>2026-04-19T09:24:42.508Z</time></trkpt><trkpt lat="43.5544181" lon="11.9295415"><ele>324.0</ele><time>2026-04-19T09:24:43.511Z</time></trkpt><trkpt lat="43.5543527" lon="11.9295258"><ele>324.0</ele><time>2026-04-19T09:24:44.504Z</time></trkpt><trkpt lat="43.554288" lon="11.9295092"><ele>324.0</ele><time>2026-04-19T09:24:45.52Z</time></trkpt><trkpt lat="43.5542259" lon="11.9294949"><ele>323.5</ele><time>2026-04-19T09:24:46.509Z</time></trkpt><trkpt lat="43.554102" lon="11.9294716"><ele>323.0</ele><time>2026-04-19T09:24:48.501Z</time></trkpt><trkpt lat="43.5539806" lon="11.9294653"><ele>322.5</ele><time>2026-04-19T09:24:50.521Z</time></trkpt><trkpt lat="43.5538587" lon="11.9294688"><ele>322.0</ele><time>2026-04-19T09:24:52.513Z</time></trkpt><trkpt lat="43.5537378" lon="11.9294795"><ele>321.75</ele><time>2026-04-19T09:24:54.505Z</time></trkpt><trkpt lat="43.5536151" lon="11.9294866"><ele>321.5</ele><time>2026-04-19T09:24:56.516Z</time></trkpt><trkpt lat="43.5534946" lon="11.9294898"><ele>321.25</ele><time>2026-04-19T09:24:58.529Z</time></trkpt><trkpt lat="43.5533721" lon="11.9294919"><ele>321.0</ele><time>2026-04-19T09:25:00.505Z</time></trkpt><trkpt lat="43.5532504" lon="11.9294916"><ele>321.0</ele><time>2026-04-19T09:25:02.51Z</time></trkpt><trkpt lat="43.553126" lon="11.9294927"><ele>321.0</ele><time>2026-04-19T09:25:04.523Z</time></trkpt><trkpt lat="43.5530014" lon="11.9295016"><ele>321.0</ele><time>2026-04-19T09:25:06.513Z</time></trkpt><trkpt lat="43.5528784" lon="11.9294953"><ele>321.0</ele><time>2026-04-19T09:25:08.514Z</time></trkpt><trkpt lat="43.5528146" lon="11.9294865"><ele>321.0</ele><time>2026-04-19T09:25:09.509Z</time></trkpt><trkpt lat="43.5527506" lon="11.9294784"><ele>320.57142857142856</ele><time>2026-04-19T09:25:10.513Z</time></trkpt><trkpt lat="43.5526861" lon="11.9294724"><ele>320.1428571428571</ele><time>2026-04-19T09:25:11.521Z</time></trkpt><trkpt lat="43.5526216" lon="11.9294644"><ele>319.71428571428567</ele><time>2026-04-19T09:25:12.507Z</time></trkpt><trkpt lat="43.5525566" lon="11.9294581"><ele>319.2857142857143</ele><time>2026-04-19T09:25:13.502Z</time></trkpt><trkpt lat="43.552492" lon="11.9294517"><ele>318.8571428571429</ele><time>2026-04-19T09:25:14.513Z</time></trkpt><trkpt lat="43.5524273" lon="11.9294453"><ele>318.4285714285714</ele><time>2026-04-19T09:25:15.498Z</time></trkpt><trkpt lat="43.5523627" lon="11.9294389"><ele>318.0</ele><time>2026-04-19T09:25:16.529Z</time></trkpt><trkpt lat="43.5522976" lon="11.9294337"><ele>318.0</ele><time>2026-04-19T09:25:17.504Z</time></trkpt><trkpt lat="43.5522315" lon="11.9294282"><ele>318.0</ele><time>2026-04-19T09:25:18.506Z</time></trkpt><trkpt lat="43.5521671" lon="11.9294226"><ele>318.0</ele><time>2026-04-19T09:25:19.506Z</time></trkpt><trkpt lat="43.5521011" lon="11.9294213"><ele>318.0</ele><time>2026-04-19T09:25:20.52Z</time></trkpt><trkpt lat="43.5520347" lon="11.9294182"><ele>318.0</ele><time>2026-04-19T09:25:21.51Z</time></trkpt><trkpt lat="43.5519679" lon="11.9294143"><ele>318.0</ele><time>2026-04-19T09:25:22.521Z</time></trkpt><trkpt lat="43.5518996" lon="11.9294018"><ele>318.0</ele><time>2026-04-19T09:25:23.509Z</time></trkpt><trkpt lat="43.5518332" lon="11.929385"><ele>317.3333333333333</ele><time>2026-04-19T09:25:24.506Z</time></trkpt><trkpt lat="43.5517686" lon="11.9293652"><ele>316.6666666666667</ele><time>2026-04-19T09:25:25.509Z</time></trkpt><trkpt lat="43.5517047" lon="11.9293396"><ele>316.0</ele><time>2026-04-19T09:25:26.501Z</time></trkpt><trkpt lat="43.5516382" lon="11.9293145"><ele>315.33333333333337</ele><time>2026-04-19T09:25:27.513Z</time></trkpt><trkpt lat="43.5515178" lon="11.9292677"><ele>314.6666666666667</ele><time>2026-04-19T09:25:29.513Z</time></trkpt><trkpt lat="43.5514027" lon="11.9292482"><ele>314.0</ele><time>2026-04-19T09:25:31.507Z</time></trkpt><trkpt lat="43.5513186" lon="11.9293449"><ele>314.0</ele><time>2026-04-19T09:25:33.515Z</time></trkpt><trkpt lat="43.5512904" lon="11.9295004"><ele>314.0</ele><time>2026-04-19T09:25:35.521Z</time></trkpt><trkpt lat="43.5512884" lon="11.9296718"><ele>314.0</ele><time>2026-04-19T09:25:37.511Z</time></trkpt><trkpt lat="43.5512659" lon="11.9298346"><ele>314.0</ele><time>2026-04-19T09:25:39.534Z</time></trkpt><trkpt lat="43.5512361" lon="11.929996"><ele>313.59999999999997</ele><time>2026-04-19T09:25:41.511Z</time></trkpt><trkpt lat="43.5512029" lon="11.9301591"><ele>313.2</ele><time>2026-04-19T09:25:43.523Z</time></trkpt><trkpt lat="43.551168" lon="11.9303218"><ele>312.79999999999995</ele><time>2026-04-19T09:25:45.518Z</time></trkpt><trkpt lat="43.5511329" lon="11.9304874"><ele>312.4</ele><time>2026-04-19T09:25:47.512Z</time></trkpt><trkpt lat="43.5511155" lon="11.9305719"><ele>312.0</ele><time>2026-04-19T09:25:48.504Z</time></trkpt><trkpt lat="43.5510961" lon="11.9306553"><ele>312.0</ele><time>2026-04-19T09:25:49.514Z</time></trkpt><trkpt lat="43.5510768" lon="11.9307389"><ele>312.0</ele><time>2026-04-19T09:25:50.515Z</time></trkpt><trkpt lat="43.5510557" lon="11.9308223"><ele>312.0</ele><time>2026-04-19T09:25:51.522Z</time></trkpt><trkpt lat="43.5510322" lon="11.9309065"><ele>312.0</ele><time>2026-04-19T09:25:52.519Z</time></trkpt><trkpt lat="43.5510055" lon="11.9309897"><ele>312.0</ele><time>2026-04-19T09:25:53.513Z</time></trkpt><trkpt lat="43.550975" lon="11.9310702"><ele>312.0</ele><time>2026-04-19T09:25:54.514Z</time></trkpt><trkpt lat="43.5509385" lon="11.9311451"><ele>312.0</ele><time>2026-04-19T09:25:55.506Z</time></trkpt><trkpt lat="43.5508998" lon="11.9312161"><ele>314.0</ele><time>2026-04-19T09:25:56.507Z</time></trkpt><trkpt lat="43.5508594" lon="11.9312834"><ele>316.0</ele><time>2026-04-19T09:25:57.521Z</time></trkpt><trkpt lat="43.5507743" lon="11.9314051"><ele>318.0</ele><time>2026-04-19T09:25:59.512Z</time></trkpt><trkpt lat="43.5506863" lon="11.9315177"><ele>320.0</ele><time>2026-04-19T09:26:01.514Z</time></trkpt><trkpt lat="43.5506043" lon="11.9316394"><ele>322.0</ele><time>2026-04-19T09:26:03.503Z</time></trkpt><trkpt lat="43.5505272" lon="11.9317761"><ele>321.16666666666663</ele><time>2026-04-19T09:26:05.513Z</time></trkpt><trkpt lat="43.5504902" lon="11.9318498"><ele>320.3333333333333</ele><time>2026-04-19T09:26:06.512Z</time></trkpt><trkpt lat="43.550396" lon="11.9319622"><ele>319.5</ele><time>2026-04-19T09:26:08.516Z</time></trkpt><trkpt lat="43.5503306" lon="11.9319876"><ele>318.6666666666667</ele><time>2026-04-19T09:26:09.529Z</time></trkpt><trkpt lat="43.5502581" lon="11.9319962"><ele>317.83333333333337</ele><time>2026-04-19T09:26:10.505Z</time></trkpt><trkpt lat="43.5501817" lon="11.9320005"><ele>317.0</ele><time>2026-04-19T09:26:11.519Z</time></trkpt><trkpt lat="43.5501033" lon="11.932002"><ele>317.0</ele><time>2026-04-19T09:26:12.514Z</time></trkpt><trkpt lat="43.5500246" lon="11.9319889"><ele>317.0</ele><time>2026-04-19T09:26:13.502Z</time></trkpt><trkpt lat="43.5499496" lon="11.9319617"><ele>317.0</ele><time>2026-04-19T09:26:14.511Z</time></trkpt><trkpt lat="43.5498784" lon="11.9319237"><ele>317.0</ele><time>2026-04-19T09:26:15.51Z</time></trkpt><trkpt lat="43.5498093" lon="11.9318823"><ele>317.0</ele><time>2026-04-19T09:26:16.51Z</time></trkpt><trkpt lat="43.5497436" lon="11.9318351"><ele>317.0</ele><time>2026-04-19T09:26:17.505Z</time></trkpt><trkpt lat="43.5496783" lon="11.9317897"><ele>317.0</ele><time>2026-04-19T09:26:18.523Z</time></trkpt><trkpt lat="43.5496136" lon="11.9317454"><ele>317.0</ele><time>2026-04-19T09:26:19.513Z</time></trkpt><trkpt lat="43.5495492" lon="11.9317006"><ele>317.0</ele><time>2026-04-19T09:26:20.512Z</time></trkpt><trkpt lat="43.5494844" lon="11.9316514"><ele>317.0</ele><time>2026-04-19T09:26:21.51Z</time></trkpt><trkpt lat="43.5494211" lon="11.9315998"><ele>317.0</ele><time>2026-04-19T09:26:22.526Z</time></trkpt><trkpt lat="43.549356" lon="11.9315511"><ele>317.0</ele><time>2026-04-19T09:26:23.533Z</time></trkpt><trkpt lat="43.5492917" lon="11.9315068"><ele>317.0</ele><time>2026-04-19T09:26:24.526Z</time></trkpt><trkpt lat="43.5492275" lon="11.9314594"><ele>317.2857142857143</ele><time>2026-04-19T09:26:25.517Z</time></trkpt><trkpt lat="43.5491644" lon="11.9314152"><ele>317.57142857142856</ele><time>2026-04-19T09:26:26.511Z</time></trkpt><trkpt lat="43.5491054" lon="11.9313685"><ele>317.8571428571429</ele><time>2026-04-19T09:26:27.495Z</time></trkpt><trkpt lat="43.5490446" lon="11.9313214"><ele>318.1428571428571</ele><time>2026-04-19T09:26:28.506Z</time></trkpt><trkpt lat="43.5489854" lon="11.9312787"><ele>318.4285714285714</ele><time>2026-04-19T09:26:29.512Z</time></trkpt><trkpt lat="43.5489262" lon="11.931239"><ele>318.7142857142857</ele><time>2026-04-19T09:26:30.512Z</time></trkpt><trkpt lat="43.5488687" lon="11.9311994"><ele>319.0</ele><time>2026-04-19T09:26:31.554Z</time></trkpt><trkpt lat="43.5488102" lon="11.9311647"><ele>319.0</ele><time>2026-04-19T09:26:32.51Z</time></trkpt><trkpt lat="43.54875" lon="11.9311387"><ele>319.0</ele><time>2026-04-19T09:26:33.507Z</time></trkpt><trkpt lat="43.5486265" lon="11.9311185"><ele>319.0</ele><time>2026-04-19T09:26:35.51Z</time></trkpt><trkpt lat="43.5485081" lon="11.9311289"><ele>319.0</ele><time>2026-04-19T09:26:37.502Z</time></trkpt><trkpt lat="43.5484008" lon="11.9311768"><ele>319.0</ele><time>2026-04-19T09:26:39.518Z</time></trkpt><trkpt lat="43.5483178" lon="11.9312617"><ele>318.3333333333333</ele><time>2026-04-19T09:26:41.516Z</time></trkpt><trkpt lat="43.5482486" lon="11.9313861"><ele>317.66666666666663</ele><time>2026-04-19T09:26:43.505Z</time></trkpt><trkpt lat="43.5482202" lon="11.9314663"><ele>317.0</ele><time>2026-04-19T09:26:44.513Z</time></trkpt><trkpt lat="43.548197" lon="11.9315562"><ele>316.3333333333333</ele><time>2026-04-19T09:26:45.528Z</time></trkpt><trkpt lat="43.5481696" lon="11.9316494"><ele>315.6666666666667</ele><time>2026-04-19T09:26:46.514Z</time></trkpt><trkpt lat="43.5481417" lon="11.9317449"><ele>315.0</ele><time>2026-04-19T09:26:47.505Z</time></trkpt><trkpt lat="43.5481149" lon="11.9318434"><ele>317.3333333333333</ele><time>2026-04-19T09:26:48.524Z</time></trkpt><trkpt lat="43.5480844" lon="11.9319445"><ele>319.6666666666667</ele><time>2026-04-19T09:26:49.513Z</time></trkpt><trkpt lat="43.5480514" lon="11.9320423"><ele>322.0</ele><time>2026-04-19T09:26:50.523Z</time></trkpt><trkpt lat="43.5480176" lon="11.932141"><ele>324.33333333333337</ele><time>2026-04-19T09:26:51.528Z</time></trkpt><trkpt lat="43.5479855" lon="11.9322399"><ele>326.6666666666667</ele><time>2026-04-19T09:26:52.521Z</time></trkpt><trkpt lat="43.547953" lon="11.9323369"><ele>329.0</ele><time>2026-04-19T09:26:53.515Z</time></trkpt><trkpt lat="43.5479165" lon="11.9324277"><ele>329.0</ele><time>2026-04-19T09:26:54.51Z</time></trkpt><trkpt lat="43.5478801" lon="11.9325147"><ele>329.0</ele><time>2026-04-19T09:26:55.515Z</time></trkpt><trkpt lat="43.547849" lon="11.9325988"><ele>329.0</ele><time>2026-04-19T09:26:56.521Z</time></trkpt><trkpt lat="43.5478152" lon="11.9326787"><ele>329.0</ele><time>2026-04-19T09:26:57.508Z</time></trkpt><trkpt lat="43.5477815" lon="11.9327534"><ele>329.0</ele><time>2026-04-19T09:26:58.509Z</time></trkpt><trkpt lat="43.5477225" lon="11.9328955"><ele>329.0</ele><time>2026-04-19T09:27:00.504Z</time></trkpt><trkpt lat="43.5476714" lon="11.9330103"><ele>329.7142857142857</ele><time>2026-04-19T09:27:02.505Z</time></trkpt><trkpt lat="43.5476275" lon="11.9330984"><ele>330.42857142857144</ele><time>2026-04-19T09:27:04.508Z</time></trkpt><trkpt lat="43.547587" lon="11.9331678"><ele>331.1428571428571</ele><time>2026-04-19T09:27:32.514Z</time></trkpt><trkpt lat="43.5475418" lon="11.933268"><ele>331.8571428571429</ele><time>2026-04-19T09:27:36.507Z</time></trkpt><trkpt lat="43.5474961" lon="11.9333304"><ele>332.57142857142856</ele><time>2026-04-19T09:27:38.511Z</time></trkpt><trkpt lat="43.5474454" lon="11.9334039"><ele>333.2857142857143</ele><time>2026-04-19T09:27:40.503Z</time></trkpt><trkpt lat="43.54739" lon="11.9334759"><ele>334.0</ele><time>2026-04-19T09:27:42.522Z</time></trkpt><trkpt lat="43.5473251" lon="11.9335443"><ele>334.0</ele><time>2026-04-19T09:27:44.539Z</time></trkpt><trkpt lat="43.5472364" lon="11.9336218"><ele>334.0</ele><time>2026-04-19T09:27:46.502Z</time></trkpt><trkpt lat="43.5471384" lon="11.9336893"><ele>334.0</ele><time>2026-04-19T09:27:48.505Z</time></trkpt><trkpt lat="43.5470296" lon="11.9337439"><ele>334.0</ele><time>2026-04-19T09:27:50.519Z</time></trkpt><trkpt lat="43.5469162" lon="11.9338"><ele>329.25</ele><time>2026-04-19T09:27:52.53Z</time></trkpt><trkpt lat="43.5468008" lon="11.9338604"><ele>324.5</ele><time>2026-04-19T09:27:54.515Z</time></trkpt><trkpt lat="43.5466864" lon="11.9339149"><ele>319.75</ele><time>2026-04-19T09:27:56.504Z</time></trkpt><trkpt lat="43.5465754" lon="11.933963"><ele>315.0</ele><time>2026-04-19T09:27:58.509Z</time></trkpt><trkpt lat="43.546464" lon="11.9339958"><ele>315.0</ele><time>2026-04-19T09:28:00.511Z</time></trkpt><trkpt lat="43.546352" lon="11.9340129"><ele>315.0</ele><time>2026-04-19T09:28:02.512Z</time></trkpt><trkpt lat="43.5462408" lon="11.9340198"><ele>315.0</ele><time>2026-04-19T09:28:04.516Z</time></trkpt><trkpt lat="43.5461326" lon="11.934036"><ele>315.0</ele><time>2026-04-19T09:28:06.509Z</time></trkpt><trkpt lat="43.5460364" lon="11.9340924"><ele>315.0</ele><time>2026-04-19T09:28:08.515Z</time></trkpt><trkpt lat="43.5459468" lon="11.9341603"><ele>314.6</ele><time>2026-04-19T09:28:10.508Z</time></trkpt><trkpt lat="43.5458468" lon="11.9342073"><ele>314.2</ele><time>2026-04-19T09:28:12.509Z</time></trkpt><trkpt lat="43.5457557" lon="11.9342751"><ele>313.8</ele><time>2026-04-19T09:28:14.505Z</time></trkpt><trkpt lat="43.5456562" lon="11.934353"><ele>313.4</ele><time>2026-04-19T09:28:16.509Z</time></trkpt><trkpt lat="43.5455632" lon="11.9344359"><ele>313.0</ele><time>2026-04-19T09:28:18.503Z</time></trkpt><trkpt lat="43.545472" lon="11.9345191"><ele>314.2</ele><time>2026-04-19T09:28:20.509Z</time></trkpt><trkpt lat="43.545389" lon="11.9346152"><ele>315.4</ele><time>2026-04-19T09:28:22.505Z</time></trkpt><trkpt lat="43.5452965" lon="11.9346997"><ele>316.59999999999997</ele><time>2026-04-19T09:28:24.518Z</time></trkpt><trkpt lat="43.5452085" lon="11.934782"><ele>317.8</ele><time>2026-04-19T09:28:26.514Z</time></trkpt><trkpt lat="43.5451284" lon="11.9348574"><ele>319.0</ele><time>2026-04-19T09:28:28.518Z</time></trkpt><trkpt lat="43.5450341" lon="11.9349461"><ele>319.0</ele><time>2026-04-19T09:28:30.509Z</time></trkpt><trkpt lat="43.544944" lon="11.9350162"><ele>319.0</ele><time>2026-04-19T09:28:32.507Z</time></trkpt><trkpt lat="43.5448449" lon="11.9350698"><ele>319.0</ele><time>2026-04-19T09:28:34.513Z</time></trkpt><trkpt lat="43.544753" lon="11.935112"><ele>319.0</ele><time>2026-04-19T09:28:36.51Z</time></trkpt><trkpt lat="43.5446566" lon="11.9351698"><ele>319.0</ele><time>2026-04-19T09:28:38.496Z</time></trkpt><trkpt lat="43.5445669" lon="11.9352426"><ele>320.4</ele><time>2026-04-19T09:28:40.522Z</time></trkpt><trkpt lat="43.5444828" lon="11.9353148"><ele>321.79999999999995</ele><time>2026-04-19T09:28:42.503Z</time></trkpt><trkpt lat="43.5443971" lon="11.9353872"><ele>323.20000000000005</ele><time>2026-04-19T09:28:44.517Z</time></trkpt><trkpt lat="43.544307" lon="11.9354689"><ele>324.6</ele><time>2026-04-19T09:28:46.515Z</time></trkpt><trkpt lat="43.5442258" lon="11.9355512"><ele>326.0</ele><time>2026-04-19T09:28:48.522Z</time></trkpt><trkpt lat="43.544148" lon="11.9356416"><ele>326.0</ele><time>2026-04-19T09:28:50.521Z</time></trkpt><trkpt lat="43.5440732" lon="11.9357209"><ele>326.0</ele><time>2026-04-19T09:28:52.512Z</time></trkpt><trkpt lat="43.5439963" lon="11.935808"><ele>326.0</ele><time>2026-04-19T09:28:54.508Z</time></trkpt><trkpt lat="43.5439167" lon="11.9358952"><ele>326.0</ele><time>2026-04-19T09:28:56.507Z</time></trkpt><trkpt lat="43.5438311" lon="11.9359753"><ele>326.0</ele><time>2026-04-19T09:28:58.505Z</time></trkpt><trkpt lat="43.5437426" lon="11.9360484"><ele>326.6</ele><time>2026-04-19T09:29:00.518Z</time></trkpt><trkpt lat="43.5436567" lon="11.9361204"><ele>327.20000000000005</ele><time>2026-04-19T09:29:02.521Z</time></trkpt><trkpt lat="43.54357" lon="11.9361883"><ele>327.79999999999995</ele><time>2026-04-19T09:29:04.518Z</time></trkpt><trkpt lat="43.5434902" lon="11.9362614"><ele>328.4</ele><time>2026-04-19T09:29:06.515Z</time></trkpt><trkpt lat="43.5434109" lon="11.9363433"><ele>329.0</ele><time>2026-04-19T09:29:08.531Z</time></trkpt><trkpt lat="43.5433343" lon="11.9364294"><ele>329.0</ele><time>2026-04-19T09:29:10.508Z</time></trkpt><trkpt lat="43.5432611" lon="11.9365165"><ele>329.0</ele><time>2026-04-19T09:29:12.507Z</time></trkpt><trkpt lat="43.5431897" lon="11.9366079"><ele>329.0</ele><time>2026-04-19T09:29:14.524Z</time></trkpt><trkpt lat="43.5431213" lon="11.9366917"><ele>329.0</ele><time>2026-04-19T09:29:16.502Z</time></trkpt><trkpt lat="43.5430516" lon="11.9367743"><ele>329.0</ele><time>2026-04-19T09:29:18.51Z</time></trkpt><trkpt lat="43.5429882" lon="11.9368679"><ele>327.5</ele><time>2026-04-19T09:29:20.507Z</time></trkpt><trkpt lat="43.5429286" lon="11.9369567"><ele>326.0</ele><time>2026-04-19T09:29:22.495Z</time></trkpt><trkpt lat="43.5428736" lon="11.9370506"><ele>324.5</ele><time>2026-04-19T09:29:24.508Z</time></trkpt><trkpt lat="43.5428217" lon="11.9371492"><ele>323.0</ele><time>2026-04-19T09:29:26.523Z</time></trkpt><trkpt lat="43.5427662" lon="11.9372435"><ele>321.5</ele><time>2026-04-19T09:29:28.524Z</time></trkpt><trkpt lat="43.5427105" lon="11.9373357"><ele>320.0</ele><time>2026-04-19T09:29:30.512Z</time></trkpt><trkpt lat="43.5426509" lon="11.9374199"><ele>320.0</ele><time>2026-04-19T09:29:32.501Z</time></trkpt><trkpt lat="43.5425922" lon="11.9375079"><ele>320.0</ele><time>2026-04-19T09:29:34.503Z</time></trkpt><trkpt lat="43.5425485" lon="11.9376083"><ele>320.0</ele><time>2026-04-19T09:29:36.507Z</time></trkpt><trkpt lat="43.5425231" lon="11.9377155"><ele>320.0</ele><time>2026-04-19T09:29:38.511Z</time></trkpt><trkpt lat="43.5425056" lon="11.9378171"><ele>320.0</ele><time>2026-04-19T09:29:40.508Z</time></trkpt><trkpt lat="43.5424712" lon="11.9379148"><ele>320.0</ele><time>2026-04-19T09:29:42.514Z</time></trkpt><trkpt lat="43.5424302" lon="11.9380058"><ele>322.42857142857144</ele><time>2026-04-19T09:29:44.521Z</time></trkpt><trkpt lat="43.5423887" lon="11.9380955"><ele>324.8571428571429</ele><time>2026-04-19T09:29:46.522Z</time></trkpt><trkpt lat="43.5423425" lon="11.938175"><ele>327.28571428571433</ele><time>2026-04-19T09:29:48.512Z</time></trkpt><trkpt lat="43.5422904" lon="11.9382442"><ele>329.7142857142857</ele><time>2026-04-19T09:29:50.517Z</time></trkpt><trkpt lat="43.5422385" lon="11.9383048"><ele>332.14285714285717</ele><time>2026-04-19T09:29:52.515Z</time></trkpt><trkpt lat="43.5421845" lon="11.9383634"><ele>334.5714285714286</ele><time>2026-04-19T09:29:54.506Z</time></trkpt><trkpt lat="43.54213" lon="11.9384279"><ele>337.0</ele><time>2026-04-19T09:29:56.507Z</time></trkpt><trkpt lat="43.5420757" lon="11.938492"><ele>336.3333333333333</ele><time>2026-04-19T09:29:58.509Z</time></trkpt><trkpt lat="43.5420275" lon="11.938577"><ele>335.66666666666663</ele><time>2026-04-19T09:30:00.517Z</time></trkpt><trkpt lat="43.5419846" lon="11.9386581"><ele>335.0</ele><time>2026-04-19T09:30:02.521Z</time></trkpt><trkpt lat="43.5419409" lon="11.9387357"><ele>334.3333333333333</ele><time>2026-04-19T09:30:04.506Z</time></trkpt><trkpt lat="43.5419015" lon="11.9388117"><ele>333.6666666666667</ele><time>2026-04-19T09:30:06.514Z</time></trkpt><trkpt lat="43.5418455" lon="11.9389264"><ele>333.0</ele><time>2026-04-19T09:30:09.512Z</time></trkpt><trkpt lat="43.5418035" lon="11.9389965"><ele>333.0</ele><time>2026-04-19T09:30:11.515Z</time></trkpt><trkpt lat="43.5417608" lon="11.9390606"><ele>333.0</ele><time>2026-04-19T09:30:13.512Z</time></trkpt><trkpt lat="43.5417107" lon="11.9391173"><ele>333.0</ele><time>2026-04-19T09:30:15.515Z</time></trkpt><trkpt lat="43.5416525" lon="11.939214"><ele>333.0</ele><time>2026-04-19T09:30:18.511Z</time></trkpt><trkpt lat="43.5415978" lon="11.9393064"><ele>333.0</ele><time>2026-04-19T09:30:21.517Z</time></trkpt><trkpt lat="43.5415496" lon="11.9393872"><ele>333.0</ele><time>2026-04-19T09:30:25.504Z</time></trkpt><trkpt lat="43.5415021" lon="11.9394882"><ele>336.0</ele><time>2026-04-19T09:30:28.515Z</time></trkpt><trkpt lat="43.5414489" lon="11.939575"><ele>339.0</ele><time>2026-04-19T09:30:31.51Z</time></trkpt><trkpt lat="43.5414158" lon="11.9396802"><ele>342.0</ele><time>2026-04-19T09:30:34.516Z</time></trkpt><trkpt lat="43.5413752" lon="11.9397515"><ele>345.0</ele><time>2026-04-19T09:30:37.515Z</time></trkpt><trkpt lat="43.5413341" lon="11.9398332"><ele>348.0</ele><time>2026-04-19T09:31:15.504Z</time></trkpt><trkpt lat="43.5412818" lon="11.9399081"><ele>351.0</ele><time>2026-04-19T09:31:18.512Z</time></trkpt><trkpt lat="43.5412172" lon="11.9399953"><ele>353.1666666666667</ele><time>2026-04-19T09:31:21.511Z</time></trkpt><trkpt lat="43.541157" lon="11.9400668"><ele>355.3333333333333</ele><time>2026-04-19T09:31:24.518Z</time></trkpt><trkpt lat="43.5410919" lon="11.9401503"><ele>357.5</ele><time>2026-04-19T09:31:27.521Z</time></trkpt><trkpt lat="43.5410235" lon="11.9402205"><ele>359.66666666666663</ele><time>2026-04-19T09:31:30.499Z</time></trkpt><trkpt lat="43.5409603" lon="11.940299"><ele>361.8333333333333</ele><time>2026-04-19T09:31:33.512Z</time></trkpt><trkpt lat="43.540898" lon="11.9403773"><ele>364.0</ele><time>2026-04-19T09:31:36.51Z</time></trkpt><trkpt lat="43.5408468" lon="11.9404326"><ele>364.0</ele><time>2026-04-19T09:31:38.533Z</time></trkpt><trkpt lat="43.5407791" lon="11.9405134"><ele>364.0</ele><time>2026-04-19T09:31:41.509Z</time></trkpt><trkpt lat="43.5407097" lon="11.9405932"><ele>364.0</ele><time>2026-04-19T09:31:44.511Z</time></trkpt><trkpt lat="43.540659" lon="11.9406472"><ele>364.0</ele><time>2026-04-19T09:31:46.496Z</time></trkpt><trkpt lat="43.5405781" lon="11.9406984"><ele>364.0</ele><time>2026-04-19T09:31:49.507Z</time></trkpt><trkpt lat="43.5404859" lon="11.9407259"><ele>364.0</ele><time>2026-04-19T09:31:52.514Z</time></trkpt><trkpt lat="43.5404227" lon="11.9407413"><ele>363.16666666666663</ele><time>2026-04-19T09:31:54.515Z</time></trkpt><trkpt lat="43.5403405" lon="11.9407544"><ele>362.3333333333333</ele><time>2026-04-19T09:31:57.518Z</time></trkpt><trkpt lat="43.5402753" lon="11.9407609"><ele>361.5</ele><time>2026-04-19T09:31:59.504Z</time></trkpt><trkpt lat="43.5401871" lon="11.940777"><ele>360.6666666666667</ele><time>2026-04-19T09:32:02.505Z</time></trkpt><trkpt lat="43.5400971" lon="11.9407632"><ele>359.83333333333337</ele><time>2026-04-19T09:32:05.509Z</time></trkpt><trkpt lat="43.5400023" lon="11.9407581"><ele>359.0</ele><time>2026-04-19T09:32:08.51Z</time></trkpt><trkpt lat="43.5399372" lon="11.9407397"><ele>359.0</ele><time>2026-04-19T09:32:10.499Z</time></trkpt><trkpt lat="43.5398711" lon="11.9407294"><ele>359.0</ele><time>2026-04-19T09:32:12.505Z</time></trkpt><trkpt lat="43.539793" lon="11.9407189"><ele>359.0</ele><time>2026-04-19T09:32:15.499Z</time></trkpt><trkpt lat="43.5397164" lon="11.9407064"><ele>359.0</ele><time>2026-04-19T09:32:17.504Z</time></trkpt><trkpt lat="43.5396504" lon="11.9406988"><ele>359.0</ele><time>2026-04-19T09:32:19.5Z</time></trkpt><trkpt lat="43.5395785" lon="11.940698"><ele>359.0</ele><time>2026-04-19T09:32:21.515Z</time></trkpt><trkpt lat="43.539511" lon="11.9406968"><ele>359.0</ele><time>2026-04-19T09:32:23.507Z</time></trkpt><trkpt lat="43.539444" lon="11.9406947"><ele>359.14285714285717</ele><time>2026-04-19T09:32:25.506Z</time></trkpt><trkpt lat="43.5393744" lon="11.9406902"><ele>359.28571428571433</ele><time>2026-04-19T09:32:27.503Z</time></trkpt><trkpt lat="43.539304" lon="11.9406825"><ele>359.42857142857144</ele><time>2026-04-19T09:32:29.505Z</time></trkpt><trkpt lat="43.5392348" lon="11.9406761"><ele>359.57142857142856</ele><time>2026-04-19T09:32:31.514Z</time></trkpt><trkpt lat="43.5391632" lon="11.94067"><ele>359.7142857142857</ele><time>2026-04-19T09:32:33.511Z</time></trkpt><trkpt lat="43.539089" lon="11.94065"><ele>359.85714285714283</ele><time>2026-04-19T09:32:35.509Z</time></trkpt><trkpt lat="43.5390228" lon="11.940645"><ele>360.0</ele><time>2026-04-19T09:32:37.505Z</time></trkpt><trkpt lat="43.5389488" lon="11.9406326"><ele>360.0</ele><time>2026-04-19T09:32:39.498Z</time></trkpt><trkpt lat="43.5388834" lon="11.9406104"><ele>360.0</ele><time>2026-04-19T09:32:41.508Z</time></trkpt><trkpt lat="43.5388107" lon="11.9406044"><ele>360.0</ele><time>2026-04-19T09:32:43.511Z</time></trkpt><trkpt lat="43.5387174" lon="11.9406357"><ele>360.0</ele><time>2026-04-19T09:32:46.51Z</time></trkpt><trkpt lat="43.5386361" lon="11.9406652"><ele>360.0</ele><time>2026-04-19T09:32:48.504Z</time></trkpt><trkpt lat="43.538571" lon="11.9407047"><ele>360.0</ele><time>2026-04-19T09:32:50.522Z</time></trkpt><trkpt lat="43.538496" lon="11.9407687"><ele>359.4</ele><time>2026-04-19T09:32:52.504Z</time></trkpt><trkpt lat="43.5384268" lon="11.9408404"><ele>358.8</ele><time>2026-04-19T09:32:54.5Z</time></trkpt><trkpt lat="43.5383588" lon="11.9409238"><ele>358.20000000000005</ele><time>2026-04-19T09:32:56.52Z</time></trkpt><trkpt lat="43.5382897" lon="11.9410136"><ele>357.6</ele><time>2026-04-19T09:32:58.523Z</time></trkpt><trkpt lat="43.5382167" lon="11.9411112"><ele>357.0</ele><time>2026-04-19T09:33:00.505Z</time></trkpt><trkpt lat="43.5381498" lon="11.9412088"><ele>359.6</ele><time>2026-04-19T09:33:02.506Z</time></trkpt><trkpt lat="43.5380679" lon="11.9412931"><ele>362.20000000000005</ele><time>2026-04-19T09:33:04.507Z</time></trkpt><trkpt lat="43.5379738" lon="11.9413331"><ele>364.8</ele><time>2026-04-19T09:33:06.505Z</time></trkpt><trkpt lat="43.5378809" lon="11.9413088"><ele>367.4</ele><time>2026-04-19T09:33:08.497Z</time></trkpt><trkpt lat="43.5377917" lon="11.9412508"><ele>370.0</ele><time>2026-04-19T09:33:10.509Z</time></trkpt><trkpt lat="43.5377157" lon="11.9411619"><ele>371.4</ele><time>2026-04-19T09:33:12.506Z</time></trkpt><trkpt lat="43.5376593" lon="11.9410508"><ele>372.8</ele><time>2026-04-19T09:33:14.508Z</time></trkpt><trkpt lat="43.5376135" lon="11.9409326"><ele>374.20000000000005</ele><time>2026-04-19T09:33:16.519Z</time></trkpt><trkpt lat="43.537583" lon="11.9408043"><ele>375.6</ele><time>2026-04-19T09:33:18.507Z</time></trkpt><trkpt lat="43.5375377" lon="11.940679"><ele>377.0</ele><time>2026-04-19T09:33:20.515Z</time></trkpt><trkpt lat="43.5374938" lon="11.9405815"><ele>374.0</ele><time>2026-04-19T09:33:22.502Z</time></trkpt><trkpt lat="43.5374182" lon="11.9405058"><ele>371.0</ele><time>2026-04-19T09:33:24.495Z</time></trkpt><trkpt lat="43.5373462" lon="11.9404138"><ele>368.0</ele><time>2026-04-19T09:33:26.508Z</time></trkpt><trkpt lat="43.5372791" lon="11.9403123"><ele>365.0</ele><time>2026-04-19T09:33:28.527Z</time></trkpt><trkpt lat="43.537215" lon="11.9402032"><ele>362.0</ele><time>2026-04-19T09:33:30.512Z</time></trkpt><trkpt lat="43.537156" lon="11.9400893"><ele>362.6</ele><time>2026-04-19T09:33:32.502Z</time></trkpt><trkpt lat="43.537098" lon="11.9399731"><ele>363.20000000000005</ele><time>2026-04-19T09:33:34.518Z</time></trkpt><trkpt lat="43.537036" lon="11.9398658"><ele>363.8</ele><time>2026-04-19T09:33:36.504Z</time></trkpt><trkpt lat="43.5369678" lon="11.9397705"><ele>364.4</ele><time>2026-04-19T09:33:38.519Z</time></trkpt><trkpt lat="43.536885" lon="11.9396976"><ele>365.0</ele><time>2026-04-19T09:33:40.513Z</time></trkpt><trkpt lat="43.5367882" lon="11.9396483"><ele>365.0</ele><time>2026-04-19T09:33:42.51Z</time></trkpt><trkpt lat="43.5366846" lon="11.9396255"><ele>365.0</ele><time>2026-04-19T09:33:44.501Z</time></trkpt><trkpt lat="43.5365823" lon="11.9396359"><ele>365.0</ele><time>2026-04-19T09:33:46.505Z</time></trkpt><trkpt lat="43.5364716" lon="11.9396589"><ele>365.0</ele><time>2026-04-19T09:33:48.504Z</time></trkpt><trkpt lat="43.53636" lon="11.9396857"><ele>365.0</ele><time>2026-04-19T09:33:50.51Z</time></trkpt><trkpt lat="43.5362497" lon="11.9397069"><ele>364.6</ele><time>2026-04-19T09:33:52.526Z</time></trkpt><trkpt lat="43.5361443" lon="11.9397294"><ele>364.2</ele><time>2026-04-19T09:33:54.5Z</time></trkpt><trkpt lat="43.5360359" lon="11.9397358"><ele>363.79999999999995</ele><time>2026-04-19T09:33:56.509Z</time></trkpt><trkpt lat="43.5359343" lon="11.9397506"><ele>363.4</ele><time>2026-04-19T09:33:58.507Z</time></trkpt><trkpt lat="43.5358347" lon="11.9397822"><ele>363.0</ele><time>2026-04-19T09:34:00.514Z</time></trkpt><trkpt lat="43.5357333" lon="11.939825"><ele>363.0</ele><time>2026-04-19T09:34:02.508Z</time></trkpt><trkpt lat="43.5356276" lon="11.9398776"><ele>363.0</ele><time>2026-04-19T09:34:04.509Z</time></trkpt><trkpt lat="43.5355308" lon="11.9399247"><ele>363.0</ele><time>2026-04-19T09:34:06.513Z</time></trkpt><trkpt lat="43.535429" lon="11.9399672"><ele>363.0</ele><time>2026-04-19T09:34:08.51Z</time></trkpt><trkpt lat="43.5353275" lon="11.9400244"><ele>363.0</ele><time>2026-04-19T09:34:10.492Z</time></trkpt><trkpt lat="43.5352294" lon="11.9400896"><ele>363.59999999999997</ele><time>2026-04-19T09:34:12.504Z</time></trkpt><trkpt lat="43.5351446" lon="11.9401836"><ele>364.2</ele><time>2026-04-19T09:34:14.511Z</time></trkpt><trkpt lat="43.535058" lon="11.9402791"><ele>364.8</ele><time>2026-04-19T09:34:16.502Z</time></trkpt><trkpt lat="43.5349742" lon="11.9403825"><ele>365.4</ele><time>2026-04-19T09:34:18.502Z</time></trkpt><trkpt lat="43.5348866" lon="11.9404863"><ele>366.0</ele><time>2026-04-19T09:34:20.501Z</time></trkpt><trkpt lat="43.5347949" lon="11.940588"><ele>366.0</ele><time>2026-04-19T09:34:22.535Z</time></trkpt><trkpt lat="43.5347005" lon="11.9406828"><ele>366.0</ele><time>2026-04-19T09:34:24.508Z</time></trkpt><trkpt lat="43.5346037" lon="11.9407678"><ele>366.0</ele><time>2026-04-19T09:34:26.509Z</time></trkpt><trkpt lat="43.5345031" lon="11.9408397"><ele>366.0</ele><time>2026-04-19T09:34:28.496Z</time></trkpt><trkpt lat="43.5343992" lon="11.9408946"><ele>365.6</ele><time>2026-04-19T09:34:30.502Z</time></trkpt><trkpt lat="43.5343004" lon="11.940932"><ele>365.20000000000005</ele><time>2026-04-19T09:34:32.504Z</time></trkpt><trkpt lat="43.5342061" lon="11.9409477"><ele>364.79999999999995</ele><time>2026-04-19T09:34:34.506Z</time></trkpt><trkpt lat="43.5341091" lon="11.9409482"><ele>364.4</ele><time>2026-04-19T09:34:36.504Z</time></trkpt><trkpt lat="43.5340114" lon="11.9409346"><ele>364.0</ele><time>2026-04-19T09:34:38.506Z</time></trkpt><trkpt lat="43.5339135" lon="11.9409086"><ele>361.4</ele><time>2026-04-19T09:34:40.503Z</time></trkpt><trkpt lat="43.5338405" lon="11.9408331"><ele>358.79999999999995</ele><time>2026-04-19T09:34:42.515Z</time></trkpt><trkpt lat="43.5337488" lon="11.9407806"><ele>356.20000000000005</ele><time>2026-04-19T09:34:44.513Z</time></trkpt><trkpt lat="43.5336479" lon="11.9407451"><ele>353.6</ele><time>2026-04-19T09:34:46.505Z</time></trkpt><trkpt lat="43.5335451" lon="11.9407394"><ele>351.0</ele><time>2026-04-19T09:34:48.529Z</time></trkpt><trkpt lat="43.5334413" lon="11.9407674"><ele>350.8</ele><time>2026-04-19T09:34:50.529Z</time></trkpt><trkpt lat="43.5333394" lon="11.9408212"><ele>350.6</ele><time>2026-04-19T09:34:52.52Z</time></trkpt><trkpt lat="43.533242" lon="11.9408808"><ele>350.4</ele><time>2026-04-19T09:34:54.502Z</time></trkpt><trkpt lat="43.533143" lon="11.9409366"><ele>350.2</ele><time>2026-04-19T09:34:56.515Z</time></trkpt><trkpt lat="43.5330481" lon="11.9409845"><ele>350.0</ele><time>2026-04-19T09:34:58.513Z</time></trkpt><trkpt lat="43.532949" lon="11.9410246"><ele>353.6</ele><time>2026-04-19T09:35:00.53Z</time></trkpt><trkpt lat="43.5328455" lon="11.9410564"><ele>357.2</ele><time>2026-04-19T09:35:02.509Z</time></trkpt><trkpt lat="43.5327488" lon="11.9411235"><ele>360.79999999999995</ele><time>2026-04-19T09:35:04.515Z</time></trkpt><trkpt lat="43.5326525" lon="11.9411837"><ele>364.4</ele><time>2026-04-19T09:35:06.503Z</time></trkpt><trkpt lat="43.5325528" lon="11.9412222"><ele>368.0</ele><time>2026-04-19T09:35:08.5Z</time></trkpt><trkpt lat="43.5324505" lon="11.9412646"><ele>368.0</ele><time>2026-04-19T09:35:10.504Z</time></trkpt><trkpt lat="43.5323495" lon="11.9413098"><ele>368.0</ele><time>2026-04-19T09:35:12.511Z</time></trkpt><trkpt lat="43.532251" lon="11.9413578"><ele>368.0</ele><time>2026-04-19T09:35:14.503Z</time></trkpt><trkpt lat="43.5321562" lon="11.9414196"><ele>368.0</ele><time>2026-04-19T09:35:16.506Z</time></trkpt><trkpt lat="43.5320711" lon="11.9415005"><ele>368.0</ele><time>2026-04-19T09:35:18.508Z</time></trkpt><trkpt lat="43.5319986" lon="11.9415965"><ele>366.4</ele><time>2026-04-19T09:35:20.499Z</time></trkpt><trkpt lat="43.531946" lon="11.941722"><ele>364.79999999999995</ele><time>2026-04-19T09:35:22.511Z</time></trkpt><trkpt lat="43.5319065" lon="11.9418587"><ele>363.2</ele><time>2026-04-19T09:35:24.518Z</time></trkpt><trkpt lat="43.531858" lon="11.9419932"><ele>361.6</ele><time>2026-04-19T09:35:26.496Z</time></trkpt><trkpt lat="43.5318072" lon="11.9421284"><ele>360.0</ele><time>2026-04-19T09:35:28.5Z</time></trkpt><trkpt lat="43.5317554" lon="11.9422631"><ele>360.0</ele><time>2026-04-19T09:35:30.503Z</time></trkpt><trkpt lat="43.5316933" lon="11.9424046"><ele>360.0</ele><time>2026-04-19T09:35:32.513Z</time></trkpt><trkpt lat="43.5316349" lon="11.9425401"><ele>360.0</ele><time>2026-04-19T09:35:34.502Z</time></trkpt><trkpt lat="43.531579" lon="11.9426793"><ele>360.0</ele><time>2026-04-19T09:35:36.514Z</time></trkpt><trkpt lat="43.5315257" lon="11.9428123"><ele>358.8</ele><time>2026-04-19T09:35:38.5Z</time></trkpt><trkpt lat="43.5314662" lon="11.9429426"><ele>357.6</ele><time>2026-04-19T09:35:40.509Z</time></trkpt><trkpt lat="43.5313932" lon="11.9430523"><ele>356.4</ele><time>2026-04-19T09:35:42.504Z</time></trkpt><trkpt lat="43.5313274" lon="11.943167"><ele>355.2</ele><time>2026-04-19T09:35:44.495Z</time></trkpt><trkpt lat="43.5312723" lon="11.9432518"><ele>354.0</ele><time>2026-04-19T09:35:46.506Z</time></trkpt><trkpt lat="43.531185" lon="11.9431826"><ele>354.0</ele><time>2026-04-19T09:35:49.506Z</time></trkpt><trkpt lat="43.5310834" lon="11.9431666"><ele>354.0</ele><time>2026-04-19T09:35:51.502Z</time></trkpt><trkpt lat="43.5309774" lon="11.943169"><ele>354.0</ele><time>2026-04-19T09:35:53.508Z</time></trkpt><trkpt lat="43.5308672" lon="11.9431717"><ele>354.0</ele><time>2026-04-19T09:35:55.507Z</time></trkpt><trkpt lat="43.530771" lon="11.9431789"><ele>354.0</ele><time>2026-04-19T09:35:57.498Z</time></trkpt><trkpt lat="43.5306777" lon="11.9431772"><ele>354.0</ele><time>2026-04-19T09:35:59.501Z</time></trkpt><trkpt lat="43.5305849" lon="11.9431696"><ele>354.0</ele><time>2026-04-19T09:36:01.521Z</time></trkpt><trkpt lat="43.5305005" lon="11.9431663"><ele>354.0</ele><time>2026-04-19T09:36:03.522Z</time></trkpt><trkpt lat="43.530414" lon="11.9431623"><ele>354.0</ele><time>2026-04-19T09:36:05.529Z</time></trkpt><trkpt lat="43.5303216" lon="11.9431463"><ele>354.0</ele><time>2026-04-19T09:36:07.519Z</time></trkpt><trkpt lat="43.5302308" lon="11.9431621"><ele>354.0</ele><time>2026-04-19T09:36:09.525Z</time></trkpt><trkpt lat="43.5301392" lon="11.9431445"><ele>354.3333333333333</ele><time>2026-04-19T09:36:11.499Z</time></trkpt><trkpt lat="43.5300394" lon="11.9431298"><ele>354.6666666666667</ele><time>2026-04-19T09:36:13.509Z</time></trkpt><trkpt lat="43.5299406" lon="11.9431332"><ele>355.0</ele><time>2026-04-19T09:36:15.496Z</time></trkpt><trkpt lat="43.5298613" lon="11.9431509"><ele>355.33333333333337</ele><time>2026-04-19T09:36:17.512Z</time></trkpt><trkpt lat="43.5297679" lon="11.9431718"><ele>355.6666666666667</ele><time>2026-04-19T09:36:20.51Z</time></trkpt><trkpt lat="43.529698" lon="11.9431558"><ele>356.0</ele><time>2026-04-19T09:36:22.518Z</time></trkpt><trkpt lat="43.5296363" lon="11.9431309"><ele>356.33333333333337</ele><time>2026-04-19T09:36:24.511Z</time></trkpt><trkpt lat="43.5295524" lon="11.9431055"><ele>356.6666666666667</ele><time>2026-04-19T09:36:27.526Z</time></trkpt><trkpt lat="43.5294723" lon="11.9431308"><ele>357.0</ele><time>2026-04-19T09:36:30.528Z</time></trkpt><trkpt lat="43.5293983" lon="11.943147"><ele>357.3333333333333</ele><time>2026-04-19T09:36:33.517Z</time></trkpt><trkpt lat="43.5293171" lon="11.9431054"><ele>357.66666666666663</ele><time>2026-04-19T09:36:36.516Z</time></trkpt><trkpt lat="43.5292357" lon="11.9431155"><ele>358.0</ele><time>2026-04-19T09:36:39.51Z</time></trkpt><trkpt lat="43.5291683" lon="11.9431585"><ele>358.0</ele><time>2026-04-19T09:36:42.509Z</time></trkpt><trkpt lat="43.5290962" lon="11.9432175"><ele>358.0</ele><time>2026-04-19T09:36:45.506Z</time></trkpt><trkpt lat="43.5290346" lon="11.9432781"><ele>358.0</ele><time>2026-04-19T09:36:48.502Z</time></trkpt><trkpt lat="43.5289822" lon="11.9433717"><ele>358.0</ele><time>2026-04-19T09:36:51.508Z</time></trkpt><trkpt lat="43.5289692" lon="11.9434972"><ele>358.0</ele><time>2026-04-19T09:36:54.504Z</time></trkpt><trkpt lat="43.528986" lon="11.9435815"><ele>358.0</ele><time>2026-04-19T09:36:56.516Z</time></trkpt><trkpt lat="43.5289872" lon="11.9437015"><ele>358.16666666666663</ele><time>2026-04-19T09:36:59.506Z</time></trkpt><trkpt lat="43.5289476" lon="11.9437715"><ele>358.3333333333333</ele><time>2026-04-19T09:37:01.506Z</time></trkpt><trkpt lat="43.5288755" lon="11.9438273"><ele>358.5</ele><time>2026-04-19T09:37:04.518Z</time></trkpt><trkpt lat="43.5287878" lon="11.9439024"><ele>358.6666666666667</ele><time>2026-04-19T09:37:07.504Z</time></trkpt><trkpt lat="43.5287273" lon="11.9439432"><ele>358.83333333333337</ele><time>2026-04-19T09:37:09.502Z</time></trkpt><trkpt lat="43.528663" lon="11.9439775"><ele>359.0</ele><time>2026-04-19T09:37:15.511Z</time></trkpt><trkpt lat="43.5285921" lon="11.9440216"><ele>359.0</ele><time>2026-04-19T09:37:19.511Z</time></trkpt><trkpt lat="43.528512" lon="11.9440799"><ele>359.0</ele><time>2026-04-19T09:37:22.507Z</time></trkpt><trkpt lat="43.528463" lon="11.9441379"><ele>359.0</ele><time>2026-04-19T09:37:24.509Z</time></trkpt><trkpt lat="43.5283712" lon="11.9441675"><ele>359.0</ele><time>2026-04-19T09:37:27.52Z</time></trkpt><trkpt lat="43.5282912" lon="11.944125"><ele>359.0</ele><time>2026-04-19T09:37:29.499Z</time></trkpt><trkpt lat="43.5282189" lon="11.9441267"><ele>359.0</ele><time>2026-04-19T09:37:31.524Z</time></trkpt><trkpt lat="43.5281255" lon="11.9441445"><ele>359.0</ele><time>2026-04-19T09:37:33.514Z</time></trkpt><trkpt lat="43.5280573" lon="11.9441599"><ele>359.0</ele><time>2026-04-19T09:37:35.506Z</time></trkpt><trkpt lat="43.5279703" lon="11.9441647"><ele>359.0</ele><time>2026-04-19T09:37:38.521Z</time></trkpt><trkpt lat="43.5279062" lon="11.9440955"><ele>359.0</ele><time>2026-04-19T09:37:41.518Z</time></trkpt><trkpt lat="43.5278471" lon="11.9440361"><ele>359.0</ele><time>2026-04-19T09:37:44.508Z</time></trkpt><trkpt lat="43.5277862" lon="11.9440038"><ele>359.0</ele><time>2026-04-19T09:37:46.499Z</time></trkpt><trkpt lat="43.5277126" lon="11.9439614"><ele>358.83333333333337</ele><time>2026-04-19T09:37:49.503Z</time></trkpt><trkpt lat="43.527636" lon="11.9439309"><ele>358.6666666666667</ele><time>2026-04-19T09:37:52.509Z</time></trkpt><trkpt lat="43.5275676" lon="11.943902"><ele>358.5</ele><time>2026-04-19T09:37:55.521Z</time></trkpt><trkpt lat="43.5275007" lon="11.9438524"><ele>358.3333333333333</ele><time>2026-04-19T09:37:59.521Z</time></trkpt><trkpt lat="43.5274301" lon="11.943826"><ele>358.16666666666663</ele><time>2026-04-19T09:38:01.514Z</time></trkpt><trkpt lat="43.5273452" lon="11.9438415"><ele>358.0</ele><time>2026-04-19T09:38:03.513Z</time></trkpt><trkpt lat="43.5273008" lon="11.9439155"><ele>358.0</ele><time>2026-04-19T09:38:05.505Z</time></trkpt><trkpt lat="43.5272781" lon="11.944029"><ele>358.0</ele><time>2026-04-19T09:38:08.511Z</time></trkpt><trkpt lat="43.5272416" lon="11.9441291"><ele>358.0</ele><time>2026-04-19T09:38:12.502Z</time></trkpt><trkpt lat="43.5272083" lon="11.9442225"><ele>358.0</ele><time>2026-04-19T09:38:18.502Z</time></trkpt><trkpt lat="43.5271625" lon="11.9443078"><ele>358.0</ele><time>2026-04-19T09:38:21.491Z</time></trkpt><trkpt lat="43.527114" lon="11.9444098"><ele>358.0</ele><time>2026-04-19T09:38:24.505Z</time></trkpt><trkpt lat="43.5270495" lon="11.9445097"><ele>358.7142857142857</ele><time>2026-04-19T09:38:28.499Z</time></trkpt><trkpt lat="43.5269954" lon="11.9445605"><ele>359.42857142857144</ele><time>2026-04-19T09:38:30.511Z</time></trkpt><trkpt lat="43.5269396" lon="11.9446165"><ele>360.1428571428571</ele><time>2026-04-19T09:38:33.514Z</time></trkpt><trkpt lat="43.5268734" lon="11.9446495"><ele>360.8571428571429</ele><time>2026-04-19T09:38:37.51Z</time></trkpt><trkpt lat="43.5268019" lon="11.9446604"><ele>361.57142857142856</ele><time>2026-04-19T09:38:40.506Z</time></trkpt><trkpt lat="43.5267357" lon="11.9446609"><ele>362.2857142857143</ele><time>2026-04-19T09:38:43.513Z</time></trkpt><trkpt lat="43.5266938" lon="11.9447309"><ele>363.0</ele><time>2026-04-19T09:38:47.512Z</time></trkpt><trkpt lat="43.5266642" lon="11.9448094"><ele>363.0</ele><time>2026-04-19T09:38:53.492Z</time></trkpt><trkpt lat="43.5266431" lon="11.9449114"><ele>363.0</ele><time>2026-04-19T09:38:56.515Z</time></trkpt><trkpt lat="43.5266432" lon="11.9450025"><ele>363.0</ele><time>2026-04-19T09:38:58.507Z</time></trkpt><trkpt lat="43.5266455" lon="11.9450924"><ele>363.0</ele><time>2026-04-19T09:39:00.516Z</time></trkpt><trkpt lat="43.5266013" lon="11.9452066"><ele>363.0</ele><time>2026-04-19T09:39:03.5Z</time></trkpt><trkpt lat="43.5265363" lon="11.9452665"><ele>363.0</ele><time>2026-04-19T09:39:06.51Z</time></trkpt><trkpt lat="43.5265089" lon="11.9453645"><ele>363.57142857142856</ele><time>2026-04-19T09:39:08.506Z</time></trkpt><trkpt lat="43.5265034" lon="11.9454683"><ele>364.1428571428571</ele><time>2026-04-19T09:39:10.509Z</time></trkpt><trkpt lat="43.5264922" lon="11.945568"><ele>364.71428571428567</ele><time>2026-04-19T09:39:12.505Z</time></trkpt><trkpt lat="43.5264599" lon="11.945661"><ele>365.2857142857143</ele><time>2026-04-19T09:39:15.504Z</time></trkpt><trkpt lat="43.5264186" lon="11.9457419"><ele>365.8571428571429</ele><time>2026-04-19T09:39:21.499Z</time></trkpt><trkpt lat="43.5263858" lon="11.9458219"><ele>366.4285714285714</ele><time>2026-04-19T09:39:26.509Z</time></trkpt><trkpt lat="43.526347" lon="11.9458976"><ele>367.0</ele><time>2026-04-19T09:39:30.502Z</time></trkpt><trkpt lat="43.5263461" lon="11.9459909"><ele>368.16666666666663</ele><time>2026-04-19T09:39:34.533Z</time></trkpt><trkpt lat="43.526378" lon="11.9461015"><ele>369.3333333333333</ele><time>2026-04-19T09:39:38.504Z</time></trkpt><trkpt lat="43.5264052" lon="11.9462093"><ele>370.5</ele><time>2026-04-19T09:39:41.509Z</time></trkpt><trkpt lat="43.5264378" lon="11.9462902"><ele>371.6666666666667</ele><time>2026-04-19T09:39:44.5Z</time></trkpt><trkpt lat="43.5264659" lon="11.9463689"><ele>372.83333333333337</ele><time>2026-04-19T09:39:47.509Z</time></trkpt><trkpt lat="43.5264322" lon="11.9464738"><ele>374.0</ele><time>2026-04-19T09:39:50.504Z</time></trkpt><trkpt lat="43.5263955" lon="11.9465636"><ele>374.0</ele><time>2026-04-19T09:39:53.504Z</time></trkpt><trkpt lat="43.5263708" lon="11.9466624"><ele>374.0</ele><time>2026-04-19T09:39:56.504Z</time></trkpt><trkpt lat="43.5263467" lon="11.9467779"><ele>374.0</ele><time>2026-04-19T09:39:59.517Z</time></trkpt><trkpt lat="43.5263287" lon="11.9469023"><ele>374.0</ele><time>2026-04-19T09:40:01.506Z</time></trkpt><trkpt lat="43.5263145" lon="11.9469873"><ele>374.0</ele><time>2026-04-19T09:40:03.511Z</time></trkpt><trkpt lat="43.5262813" lon="11.9471622"><ele>374.0</ele><time>2026-04-19T09:40:11.511Z</time></trkpt><trkpt lat="43.5262555" lon="11.9472667"><ele>375.1666666666667</ele><time>2026-04-19T09:40:15.505Z</time></trkpt><trkpt lat="43.5262549" lon="11.9473667"><ele>376.33333333333337</ele><time>2026-04-19T09:40:18.5Z</time></trkpt><trkpt lat="43.5262597" lon="11.9475033"><ele>377.5</ele><time>2026-04-19T09:40:29.549Z</time></trkpt><trkpt lat="43.5262519" lon="11.9475979"><ele>378.6666666666667</ele><time>2026-04-19T09:40:33.512Z</time></trkpt><trkpt lat="43.5262435" lon="11.9477288"><ele>379.8333333333333</ele><time>2026-04-19T09:40:38.506Z</time></trkpt><trkpt lat="43.526248" lon="11.947632"><ele>381.0</ele><time>2026-04-19T09:40:59.502Z</time></trkpt><trkpt lat="43.5262566" lon="11.9475349"><ele>381.0</ele><time>2026-04-19T09:41:03.509Z</time></trkpt><trkpt lat="43.5262751" lon="11.947447"><ele>381.0</ele><time>2026-04-19T09:41:06.507Z</time></trkpt><trkpt lat="43.5262041" lon="11.9473925"><ele>381.0</ele><time>2026-04-19T09:41:28.511Z</time></trkpt><trkpt lat="43.5261399" lon="11.9474065"><ele>381.0</ele><time>2026-04-19T09:41:32.494Z</time></trkpt><trkpt lat="43.5260776" lon="11.9474489"><ele>381.0</ele><time>2026-04-19T09:41:35.503Z</time></trkpt><trkpt lat="43.5260119" lon="11.9475067"><ele>381.0</ele><time>2026-04-19T09:41:38.503Z</time></trkpt><trkpt lat="43.5259595" lon="11.9475565"><ele>381.0</ele><time>2026-04-19T09:41:41.5Z</time></trkpt><trkpt lat="43.5259008" lon="11.9475981"><ele>380.0</ele><time>2026-04-19T09:41:44.514Z</time></trkpt><trkpt lat="43.525826" lon="11.9476816"><ele>379.0</ele><time>2026-04-19T09:41:46.505Z</time></trkpt><trkpt lat="43.5257711" lon="11.9477406"><ele>378.0</ele><time>2026-04-19T09:41:48.508Z</time></trkpt><trkpt lat="43.5257197" lon="11.9478018"><ele>377.0</ele><time>2026-04-19T09:41:52.507Z</time></trkpt><trkpt lat="43.5256691" lon="11.9478937"><ele>376.0</ele><time>2026-04-19T09:41:57.501Z</time></trkpt><trkpt lat="43.5256046" lon="11.9479796"><ele>375.0</ele><time>2026-04-19T09:41:59.517Z</time></trkpt><trkpt lat="43.5255457" lon="11.9480699"><ele>375.0</ele><time>2026-04-19T09:42:02.501Z</time></trkpt><trkpt lat="43.5254747" lon="11.9481427"><ele>375.0</ele><time>2026-04-19T09:42:04.517Z</time></trkpt><trkpt lat="43.5254095" lon="11.9482118"><ele>375.0</ele><time>2026-04-19T09:42:07.504Z</time></trkpt><trkpt lat="43.5253552" lon="11.9482785"><ele>375.0</ele><time>2026-04-19T09:42:10.513Z</time></trkpt><trkpt lat="43.5253051" lon="11.9483539"><ele>375.0</ele><time>2026-04-19T09:42:13.502Z</time></trkpt><trkpt lat="43.5252603" lon="11.9484404"><ele>375.0</ele><time>2026-04-19T09:42:17.504Z</time></trkpt><trkpt lat="43.5252229" lon="11.9485256"><ele>375.5</ele><time>2026-04-19T09:42:21.507Z</time></trkpt><trkpt lat="43.5251943" lon="11.948606"><ele>376.0</ele><time>2026-04-19T09:42:24.508Z</time></trkpt><trkpt lat="43.5251441" lon="11.948713"><ele>376.5</ele><time>2026-04-19T09:42:27.506Z</time></trkpt><trkpt lat="43.5251167" lon="11.9488107"><ele>377.0</ele><time>2026-04-19T09:42:30.515Z</time></trkpt><trkpt lat="43.5250704" lon="11.9489102"><ele>377.5</ele><time>2026-04-19T09:42:32.509Z</time></trkpt><trkpt lat="43.5250202" lon="11.9490416"><ele>378.0</ele><time>2026-04-19T09:42:34.502Z</time></trkpt><trkpt lat="43.5249805" lon="11.9491173"><ele>378.0</ele><time>2026-04-19T09:42:37.517Z</time></trkpt><trkpt lat="43.5249301" lon="11.9491718"><ele>378.0</ele><time>2026-04-19T09:42:41.506Z</time></trkpt><trkpt lat="43.5248574" lon="11.9491749"><ele>378.0</ele><time>2026-04-19T09:42:51.517Z</time></trkpt><trkpt lat="43.5247799" lon="11.94919"><ele>378.0</ele><time>2026-04-19T09:42:55.521Z</time></trkpt><trkpt lat="43.5247113" lon="11.9492299"><ele>378.0</ele><time>2026-04-19T09:42:59.508Z</time></trkpt><trkpt lat="43.5246585" lon="11.9492891"><ele>378.0</ele><time>2026-04-19T09:43:03.504Z</time></trkpt><trkpt lat="43.5246202" lon="11.9493636"><ele>378.0</ele><time>2026-04-19T09:43:08.507Z</time></trkpt><trkpt lat="43.524569" lon="11.9494285"><ele>379.8333333333333</ele><time>2026-04-19T09:43:12.519Z</time></trkpt><trkpt lat="43.524482" lon="11.9494435"><ele>381.66666666666663</ele><time>2026-04-19T09:43:15.512Z</time></trkpt><trkpt lat="43.5243893" lon="11.9494461"><ele>383.5</ele><time>2026-04-19T09:43:18.504Z</time></trkpt><trkpt lat="43.5243188" lon="11.9494614"><ele>385.3333333333333</ele><time>2026-04-19T09:43:20.509Z</time></trkpt><trkpt lat="43.5242506" lon="11.9494897"><ele>387.16666666666663</ele><time>2026-04-19T09:43:23.514Z</time></trkpt><trkpt lat="43.524194" lon="11.9495281"><ele>389.0</ele><time>2026-04-19T09:43:26.514Z</time></trkpt><trkpt lat="43.5241311" lon="11.9495612"><ele>388.99999999999994</ele><time>2026-04-19T09:43:29.511Z</time></trkpt><trkpt lat="43.5240236" lon="11.9495463"><ele>389.0</ele><time>2026-04-19T09:43:31.512Z</time></trkpt><trkpt lat="43.5239329" lon="11.9495477"><ele>389.0</ele><time>2026-04-19T09:43:33.52Z</time></trkpt><trkpt lat="43.5238496" lon="11.94957"><ele>389.0</ele><time>2026-04-19T09:43:35.515Z</time></trkpt><trkpt lat="43.5237818" lon="11.9495985"><ele>388.99999999999994</ele><time>2026-04-19T09:43:37.514Z</time></trkpt><trkpt lat="43.5237027" lon="11.9496475"><ele>389.0</ele><time>2026-04-19T09:43:39.528Z</time></trkpt><trkpt lat="43.5236424" lon="11.9496975"><ele>387.14285714285717</ele><time>2026-04-19T09:43:41.512Z</time></trkpt><trkpt lat="43.5235744" lon="11.9497351"><ele>385.2857142857143</ele><time>2026-04-19T09:43:43.492Z</time></trkpt><trkpt lat="43.5234951" lon="11.949757"><ele>383.42857142857144</ele><time>2026-04-19T09:43:46.519Z</time></trkpt><trkpt lat="43.5234317" lon="11.9497731"><ele>381.57142857142856</ele><time>2026-04-19T09:43:48.498Z</time></trkpt><trkpt lat="43.5233698" lon="11.9497946"><ele>379.71428571428567</ele><time>2026-04-19T09:43:50.517Z</time></trkpt><trkpt lat="43.5233154" lon="11.9498525"><ele>377.85714285714283</ele><time>2026-04-19T09:43:52.503Z</time></trkpt><trkpt lat="43.5232638" lon="11.9499184"><ele>376.0</ele><time>2026-04-19T09:43:54.514Z</time></trkpt><trkpt lat="43.5231821" lon="11.9499613"><ele>376.0</ele><time>2026-04-19T09:43:57.5Z</time></trkpt><trkpt lat="43.5231101" lon="11.9499885"><ele>376.0</ele><time>2026-04-19T09:44:00.509Z</time></trkpt><trkpt lat="43.523046" lon="11.9500218"><ele>376.0</ele><time>2026-04-19T09:44:02.495Z</time></trkpt><trkpt lat="43.5229826" lon="11.9500699"><ele>376.0</ele><time>2026-04-19T09:44:04.502Z</time></trkpt><trkpt lat="43.5229315" lon="11.9501431"><ele>376.0</ele><time>2026-04-19T09:44:06.495Z</time></trkpt><trkpt lat="43.5228961" lon="11.9502274"><ele>376.0</ele><time>2026-04-19T09:44:08.503Z</time></trkpt><trkpt lat="43.5228426" lon="11.9503141"><ele>376.0</ele><time>2026-04-19T09:44:11.506Z</time></trkpt><trkpt lat="43.5227899" lon="11.950386"><ele>376.0</ele><time>2026-04-19T09:44:14.498Z</time></trkpt><trkpt lat="43.5227309" lon="11.9504455"><ele>376.0</ele><time>2026-04-19T09:44:17.5Z</time></trkpt><trkpt lat="43.5226758" lon="11.9505197"><ele>376.0</ele><time>2026-04-19T09:44:21.504Z</time></trkpt><trkpt lat="43.5226281" lon="11.9505866"><ele>376.0</ele><time>2026-04-19T09:44:24.508Z</time></trkpt><trkpt lat="43.5225812" lon="11.9506772"><ele>376.0</ele><time>2026-04-19T09:44:28.51Z</time></trkpt><trkpt lat="43.5225414" lon="11.9507534"><ele>376.0</ele><time>2026-04-19T09:44:31.518Z</time></trkpt><trkpt lat="43.522495" lon="11.9508378"><ele>376.0</ele><time>2026-04-19T09:44:35.449Z</time></trkpt><trkpt lat="43.5224333" lon="11.9509391"><ele>379.16666666666663</ele><time>2026-04-19T09:44:38.507Z</time></trkpt><trkpt lat="43.5224059" lon="11.9510208"><ele>382.3333333333333</ele><time>2026-04-19T09:44:42.517Z</time></trkpt><trkpt lat="43.5223468" lon="11.9511176"><ele>385.5</ele><time>2026-04-19T09:44:45.511Z</time></trkpt><trkpt lat="43.5222961" lon="11.9512122"><ele>388.66666666666663</ele><time>2026-04-19T09:44:48.5Z</time></trkpt><trkpt lat="43.5222661" lon="11.9513008"><ele>391.8333333333333</ele><time>2026-04-19T09:44:52.499Z</time></trkpt><trkpt lat="43.5222168" lon="11.9513967"><ele>395.0</ele><time>2026-04-19T09:44:56.519Z</time></trkpt><trkpt lat="43.5221735" lon="11.9514738"><ele>395.0</ele><time>2026-04-19T09:44:59.504Z</time></trkpt><trkpt lat="43.522121" lon="11.9515506"><ele>395.0</ele><time>2026-04-19T09:45:03.506Z</time></trkpt><trkpt lat="43.5220509" lon="11.951615"><ele>395.0</ele><time>2026-04-19T09:45:07.5Z</time></trkpt><trkpt lat="43.5219881" lon="11.9516439"><ele>395.0</ele><time>2026-04-19T09:45:10.505Z</time></trkpt><trkpt lat="43.521922" lon="11.951653"><ele>395.0</ele><time>2026-04-19T09:45:13.502Z</time></trkpt><trkpt lat="43.5218572" lon="11.9516962"><ele>395.0</ele><time>2026-04-19T09:45:16.516Z</time></trkpt><trkpt lat="43.5218" lon="11.9517386"><ele>395.0</ele><time>2026-04-19T09:45:19.501Z</time></trkpt><trkpt lat="43.5217414" lon="11.9517051"><ele>392.16666666666663</ele><time>2026-04-19T09:45:23.496Z</time></trkpt><trkpt lat="43.5216906" lon="11.9516431"><ele>389.3333333333333</ele><time>2026-04-19T09:45:26.501Z</time></trkpt><trkpt lat="43.5216429" lon="11.9515562"><ele>386.5</ele><time>2026-04-19T09:45:29.511Z</time></trkpt><trkpt lat="43.5215844" lon="11.9514684"><ele>383.66666666666663</ele><time>2026-04-19T09:45:32.511Z</time></trkpt><trkpt lat="43.5215559" lon="11.9513705"><ele>380.8333333333333</ele><time>2026-04-19T09:45:35.508Z</time></trkpt><trkpt lat="43.5215387" lon="11.9512607"><ele>378.0</ele><time>2026-04-19T09:45:38.509Z</time></trkpt><trkpt lat="43.5215278" lon="11.9511472"><ele>378.0</ele><time>2026-04-19T09:45:41.51Z</time></trkpt><trkpt lat="43.5215174" lon="11.951055"><ele>378.0</ele><time>2026-04-19T09:45:44.518Z</time></trkpt><trkpt lat="43.5215064" lon="11.9509428"><ele>378.0</ele><time>2026-04-19T09:45:48.504Z</time></trkpt><trkpt lat="43.5214855" lon="11.9508416"><ele>378.0</ele><time>2026-04-19T09:45:52.507Z</time></trkpt><trkpt lat="43.5214726" lon="11.9507263"><ele>378.0</ele><time>2026-04-19T09:45:58.505Z</time></trkpt><trkpt lat="43.5214652" lon="11.9506331"><ele>378.0</ele><time>2026-04-19T09:46:03.514Z</time></trkpt><trkpt lat="43.5214775" lon="11.9505317"><ele>378.2857142857143</ele><time>2026-04-19T09:46:08.517Z</time></trkpt><trkpt lat="43.5214794" lon="11.9504416"><ele>378.57142857142856</ele><time>2026-04-19T09:46:12.522Z</time></trkpt><trkpt lat="43.5214812" lon="11.9503315"><ele>378.8571428571429</ele><time>2026-04-19T09:46:16.5Z</time></trkpt><trkpt lat="43.5214626" lon="11.9502483"><ele>379.1428571428571</ele><time>2026-04-19T09:46:20.502Z</time></trkpt><trkpt lat="43.521396" lon="11.9501865"><ele>379.42857142857144</ele><time>2026-04-19T09:46:26.509Z</time></trkpt><trkpt lat="43.5213306" lon="11.9502013"><ele>379.7142857142857</ele><time>2026-04-19T09:46:29.496Z</time></trkpt><trkpt lat="43.5212632" lon="11.950249"><ele>380.0</ele><time>2026-04-19T09:46:34.517Z</time></trkpt><trkpt lat="43.5211955" lon="11.9502773"><ele>382.2857142857143</ele><time>2026-04-19T09:46:39.508Z</time></trkpt><trkpt lat="43.5211287" lon="11.9503098"><ele>384.57142857142856</ele><time>2026-04-19T09:46:43.512Z</time></trkpt><trkpt lat="43.5210633" lon="11.9503292"><ele>386.8571428571429</ele><time>2026-04-19T09:46:47.517Z</time></trkpt><trkpt lat="43.5209956" lon="11.9503567"><ele>389.1428571428571</ele><time>2026-04-19T09:46:51.507Z</time></trkpt><trkpt lat="43.5209266" lon="11.9503864"><ele>391.4285714285714</ele><time>2026-04-19T09:46:55.511Z</time></trkpt><trkpt lat="43.5208625" lon="11.95041"><ele>393.7142857142857</ele><time>2026-04-19T09:46:59.508Z</time></trkpt><trkpt lat="43.520786" lon="11.9504315"><ele>396.0</ele><time>2026-04-19T09:47:04.514Z</time></trkpt><trkpt lat="43.520714" lon="11.950464"><ele>396.0</ele><time>2026-04-19T09:47:09.506Z</time></trkpt><trkpt lat="43.5206533" lon="11.95049"><ele>396.0</ele><time>2026-04-19T09:47:13.507Z</time></trkpt><trkpt lat="43.5205824" lon="11.9505214"><ele>396.0</ele><time>2026-04-19T09:47:17.514Z</time></trkpt><trkpt lat="43.5205164" lon="11.9505579"><ele>396.0</ele><time>2026-04-19T09:47:21.501Z</time></trkpt><trkpt lat="43.520458" lon="11.9506051"><ele>396.0</ele><time>2026-04-19T09:47:25.505Z</time></trkpt><trkpt lat="43.520402" lon="11.9506487"><ele>396.0</ele><time>2026-04-19T09:47:28.511Z</time></trkpt><trkpt lat="43.5203345" lon="11.9506953"><ele>396.0</ele><time>2026-04-19T09:47:32.517Z</time></trkpt><trkpt lat="43.5202596" lon="11.9506964"><ele>397.8571428571429</ele><time>2026-04-19T09:47:37.505Z</time></trkpt><trkpt lat="43.5202039" lon="11.9506403"><ele>399.71428571428567</ele><time>2026-04-19T09:47:41.506Z</time></trkpt><trkpt lat="43.5201403" lon="11.9505886"><ele>401.57142857142856</ele><time>2026-04-19T09:47:45.495Z</time></trkpt><trkpt lat="43.5200769" lon="11.9505477"><ele>403.42857142857144</ele><time>2026-04-19T09:47:49.51Z</time></trkpt><trkpt lat="43.520025" lon="11.950495"><ele>405.28571428571433</ele><time>2026-04-19T09:47:53.521Z</time></trkpt><trkpt lat="43.5199499" lon="11.9504767"><ele>407.1428571428571</ele><time>2026-04-19T09:47:58.507Z</time></trkpt><trkpt lat="43.5198592" lon="11.950489"><ele>409.0</ele><time>2026-04-19T09:48:00.509Z</time></trkpt><trkpt lat="43.519756" lon="11.950507"><ele>409.00000000000006</ele><time>2026-04-19T09:48:02.519Z</time></trkpt><trkpt lat="43.5196708" lon="11.9505508"><ele>409.0</ele><time>2026-04-19T09:48:04.515Z</time></trkpt><trkpt lat="43.5196025" lon="11.9506317"><ele>409.0</ele><time>2026-04-19T09:48:07.503Z</time></trkpt><trkpt lat="43.5195413" lon="11.9506566"><ele>409.0</ele><time>2026-04-19T09:48:10.503Z</time></trkpt><trkpt lat="43.5194672" lon="11.9507"><ele>409.00000000000006</ele><time>2026-04-19T09:48:13.508Z</time></trkpt><trkpt lat="43.5193934" lon="11.9507286"><ele>409.0</ele><time>2026-04-19T09:48:15.522Z</time></trkpt><trkpt lat="43.5193125" lon="11.9507692"><ele>410.2</ele><time>2026-04-19T09:48:17.519Z</time></trkpt><trkpt lat="43.5192347" lon="11.9508272"><ele>411.4</ele><time>2026-04-19T09:48:19.522Z</time></trkpt><trkpt lat="43.5191537" lon="11.9509154"><ele>412.6</ele><time>2026-04-19T09:48:21.514Z</time></trkpt><trkpt lat="43.5190667" lon="11.9510184"><ele>413.8</ele><time>2026-04-19T09:48:23.506Z</time></trkpt><trkpt lat="43.5190006" lon="11.9511277"><ele>415.0</ele><time>2026-04-19T09:48:25.507Z</time></trkpt><trkpt lat="43.5189172" lon="11.9511638"><ele>412.0</ele><time>2026-04-19T09:48:27.499Z</time></trkpt><trkpt lat="43.51885" lon="11.9512259"><ele>409.0</ele><time>2026-04-19T09:48:29.509Z</time></trkpt><trkpt lat="43.5188081" lon="11.9512935"><ele>406.0</ele><time>2026-04-19T09:48:30.51Z</time></trkpt><trkpt lat="43.5187337" lon="11.9514294"><ele>403.0</ele><time>2026-04-19T09:48:32.505Z</time></trkpt><trkpt lat="43.5186496" lon="11.9515137"><ele>400.0</ele><time>2026-04-19T09:48:34.509Z</time></trkpt><trkpt lat="43.5185731" lon="11.9515787"><ele>400.0</ele><time>2026-04-19T09:48:36.503Z</time></trkpt><trkpt lat="43.5184827" lon="11.9516823"><ele>400.0</ele><time>2026-04-19T09:48:38.488Z</time></trkpt><trkpt lat="43.5183718" lon="11.9517526"><ele>400.0</ele><time>2026-04-19T09:48:40.494Z</time></trkpt><trkpt lat="43.5183027" lon="11.951771"><ele>400.0</ele><time>2026-04-19T09:48:41.505Z</time></trkpt><trkpt lat="43.5182329" lon="11.9517919"><ele>400.0</ele><time>2026-04-19T09:48:42.506Z</time></trkpt><trkpt lat="43.5181575" lon="11.9518225"><ele>397.6666666666667</ele><time>2026-04-19T09:48:43.514Z</time></trkpt><trkpt lat="43.5180846" lon="11.9518726"><ele>395.33333333333337</ele><time>2026-04-19T09:48:44.51Z</time></trkpt><trkpt lat="43.5180215" lon="11.9519291"><ele>393.0</ele><time>2026-04-19T09:48:45.519Z</time></trkpt><trkpt lat="43.5179708" lon="11.9519834"><ele>390.66666666666663</ele><time>2026-04-19T09:48:46.503Z</time></trkpt><trkpt lat="43.5178569" lon="11.9520898"><ele>388.3333333333333</ele><time>2026-04-19T09:48:48.496Z</time></trkpt><trkpt lat="43.5177877" lon="11.9521395"><ele>386.0</ele><time>2026-04-19T09:48:49.506Z</time></trkpt><trkpt lat="43.5177155" lon="11.9521785"><ele>385.99999999999994</ele><time>2026-04-19T09:48:50.504Z</time></trkpt><trkpt lat="43.5176443" lon="11.9522093"><ele>386.0</ele><time>2026-04-19T09:48:51.502Z</time></trkpt><trkpt lat="43.5175595" lon="11.9522678"><ele>386.0</ele><time>2026-04-19T09:48:52.507Z</time></trkpt><trkpt lat="43.5174831" lon="11.9523528"><ele>386.0</ele><time>2026-04-19T09:48:53.494Z</time></trkpt><trkpt lat="43.5174198" lon="11.9524218"><ele>385.99999999999994</ele><time>2026-04-19T09:48:54.519Z</time></trkpt><trkpt lat="43.5173617" lon="11.9524769"><ele>386.0</ele><time>2026-04-19T09:48:55.512Z</time></trkpt><trkpt lat="43.5172753" lon="11.9525328"><ele>387.00000000000006</ele><time>2026-04-19T09:48:57.506Z</time></trkpt><trkpt lat="43.5172194" lon="11.9525934"><ele>388.0</ele><time>2026-04-19T09:49:00.509Z</time></trkpt><trkpt lat="43.5171591" lon="11.9526296"><ele>389.0</ele><time>2026-04-19T09:49:10.509Z</time></trkpt><trkpt lat="43.5170944" lon="11.9526552"><ele>390.0</ele><time>2026-04-19T09:49:13.507Z</time></trkpt><trkpt lat="43.5170231" lon="11.9526818"><ele>391.0</ele><time>2026-04-19T09:49:17.514Z</time></trkpt><trkpt lat="43.5169391" lon="11.9527235"><ele>392.00000000000006</ele><time>2026-04-19T09:49:20.511Z</time></trkpt><trkpt lat="43.5168647" lon="11.9527352"><ele>393.0</ele><time>2026-04-19T09:49:23.505Z</time></trkpt><trkpt lat="43.5167804" lon="11.9527318"><ele>393.14285714285717</ele><time>2026-04-19T09:49:26.536Z</time></trkpt><trkpt lat="43.5167085" lon="11.952756"><ele>393.2857142857143</ele><time>2026-04-19T09:49:30.519Z</time></trkpt><trkpt lat="43.51665" lon="11.9528132"><ele>393.42857142857144</ele><time>2026-04-19T09:49:33.501Z</time></trkpt><trkpt lat="43.5165987" lon="11.9528906"><ele>393.57142857142856</ele><time>2026-04-19T09:49:36.499Z</time></trkpt><trkpt lat="43.5165644" lon="11.9529711"><ele>393.7142857142857</ele><time>2026-04-19T09:49:39.518Z</time></trkpt><trkpt lat="43.5165237" lon="11.9530435"><ele>393.8571428571429</ele><time>2026-04-19T09:49:42.511Z</time></trkpt><trkpt lat="43.516483" lon="11.9531101"><ele>394.0</ele><time>2026-04-19T09:49:45.51Z</time></trkpt><trkpt lat="43.5164353" lon="11.9531835"><ele>394.00000000000006</ele><time>2026-04-19T09:49:47.501Z</time></trkpt><trkpt lat="43.5163707" lon="11.9532584"><ele>394.0</ele><time>2026-04-19T09:49:53.519Z</time></trkpt><trkpt lat="43.5163197" lon="11.9533154"><ele>394.0</ele><time>2026-04-19T09:49:56.509Z</time></trkpt><trkpt lat="43.5162672" lon="11.953393"><ele>394.0</ele><time>2026-04-19T09:49:58.508Z</time></trkpt><trkpt lat="43.5162118" lon="11.9534724"><ele>394.00000000000006</ele><time>2026-04-19T09:50:00.505Z</time></trkpt><trkpt lat="43.5161577" lon="11.9535441"><ele>394.0</ele><time>2026-04-19T09:50:02.521Z</time></trkpt><trkpt lat="43.5160977" lon="11.9536071"><ele>394.0</ele><time>2026-04-19T09:50:04.519Z</time></trkpt><trkpt lat="43.5160455" lon="11.9536714"><ele>394.0</ele><time>2026-04-19T09:50:06.505Z</time></trkpt><trkpt lat="43.5159943" lon="11.9537277"><ele>394.0</ele><time>2026-04-19T09:50:08.508Z</time></trkpt><trkpt lat="43.5159481" lon="11.9537973"><ele>394.0</ele><time>2026-04-19T09:50:10.514Z</time></trkpt><trkpt lat="43.5159041" lon="11.9538657"><ele>394.0</ele><time>2026-04-19T09:50:12.52Z</time></trkpt><trkpt lat="43.5158431" lon="11.95396"><ele>394.0</ele><time>2026-04-19T09:50:15.502Z</time></trkpt><trkpt lat="43.5157884" lon="11.9540401"><ele>394.0</ele><time>2026-04-19T09:50:17.524Z</time></trkpt><trkpt lat="43.5157472" lon="11.9541105"><ele>394.6666666666667</ele><time>2026-04-19T09:50:19.501Z</time></trkpt><trkpt lat="43.5156889" lon="11.9542101"><ele>395.33333333333337</ele><time>2026-04-19T09:50:22.509Z</time></trkpt><trkpt lat="43.5156418" lon="11.9542706"><ele>396.0</ele><time>2026-04-19T09:50:24.513Z</time></trkpt><trkpt lat="43.5155964" lon="11.954373"><ele>396.66666666666663</ele><time>2026-04-19T09:50:28.514Z</time></trkpt><trkpt lat="43.5155128" lon="11.9544488"><ele>397.3333333333333</ele><time>2026-04-19T09:50:31.51Z</time></trkpt><trkpt lat="43.5154357" lon="11.9545029"><ele>398.0</ele><time>2026-04-19T09:50:34.509Z</time></trkpt><trkpt lat="43.5153681" lon="11.954532"><ele>397.99999999999994</ele><time>2026-04-19T09:50:37.509Z</time></trkpt><trkpt lat="43.5152953" lon="11.954579"><ele>398.0</ele><time>2026-04-19T09:50:41.498Z</time></trkpt><trkpt lat="43.5152552" lon="11.9546595"><ele>398.0</ele><time>2026-04-19T09:50:44.505Z</time></trkpt><trkpt lat="43.515196" lon="11.9547383"><ele>398.0</ele><time>2026-04-19T09:50:47.515Z</time></trkpt><trkpt lat="43.5151371" lon="11.9548107"><ele>397.99999999999994</ele><time>2026-04-19T09:50:50.504Z</time></trkpt><trkpt lat="43.515069" lon="11.9548818"><ele>398.0</ele><time>2026-04-19T09:50:53.511Z</time></trkpt><trkpt lat="43.5149907" lon="11.9549097"><ele>397.99999999999994</ele><time>2026-04-19T09:50:56.506Z</time></trkpt><trkpt lat="43.5149004" lon="11.9549246"><ele>398.0</ele><time>2026-04-19T09:50:59.505Z</time></trkpt><trkpt lat="43.5148047" lon="11.9549361"><ele>398.0</ele><time>2026-04-19T09:51:02.513Z</time></trkpt><trkpt lat="43.5147408" lon="11.9549467"><ele>398.0</ele><time>2026-04-19T09:51:04.517Z</time></trkpt><trkpt lat="43.514677" lon="11.9549496"><ele>397.99999999999994</ele><time>2026-04-19T09:51:06.515Z</time></trkpt><trkpt lat="43.5145852" lon="11.9549311"><ele>398.0</ele><time>2026-04-19T09:51:09.511Z</time></trkpt><trkpt lat="43.5145223" lon="11.9549109"><ele>397.4285714285714</ele><time>2026-04-19T09:51:11.509Z</time></trkpt><trkpt lat="43.5144586" lon="11.9549029"><ele>396.85714285714283</ele><time>2026-04-19T09:51:13.509Z</time></trkpt><trkpt lat="43.5143694" lon="11.9548656"><ele>396.2857142857143</ele><time>2026-04-19T09:51:16.513Z</time></trkpt><trkpt lat="43.5143064" lon="11.954821"><ele>395.71428571428567</ele><time>2026-04-19T09:51:18.517Z</time></trkpt><trkpt lat="43.5142489" lon="11.9547675"><ele>395.14285714285717</ele><time>2026-04-19T09:51:20.505Z</time></trkpt><trkpt lat="43.5141899" lon="11.9547126"><ele>394.57142857142856</ele><time>2026-04-19T09:51:22.507Z</time></trkpt><trkpt lat="43.5141285" lon="11.9546863"><ele>394.0</ele><time>2026-04-19T09:51:24.513Z</time></trkpt><trkpt lat="43.514037" lon="11.9547224"><ele>394.00000000000006</ele><time>2026-04-19T09:51:27.495Z</time></trkpt><trkpt lat="43.5139878" lon="11.9548271"><ele>394.0</ele><time>2026-04-19T09:51:30.504Z</time></trkpt><trkpt lat="43.513972" lon="11.9549566"><ele>394.0</ele><time>2026-04-19T09:51:33.505Z</time></trkpt><trkpt lat="43.5139707" lon="11.9550463"><ele>394.0</ele><time>2026-04-19T09:51:35.507Z</time></trkpt><trkpt lat="43.5139257" lon="11.9551599"><ele>394.00000000000006</ele><time>2026-04-19T09:51:38.503Z</time></trkpt><trkpt lat="43.5138747" lon="11.9552224"><ele>394.0</ele><time>2026-04-19T09:51:40.512Z</time></trkpt><trkpt lat="43.5138158" lon="11.9552696"><ele>395.57142857142856</ele><time>2026-04-19T09:51:42.507Z</time></trkpt><trkpt lat="43.5137609" lon="11.9553201"><ele>397.14285714285717</ele><time>2026-04-19T09:51:44.508Z</time></trkpt><trkpt lat="43.5137116" lon="11.9553758"><ele>398.71428571428567</ele><time>2026-04-19T09:51:46.494Z</time></trkpt><trkpt lat="43.513648" lon="11.9554608"><ele>400.2857142857143</ele><time>2026-04-19T09:51:49.497Z</time></trkpt><trkpt lat="43.5135823" lon="11.9555276"><ele>401.85714285714283</ele><time>2026-04-19T09:51:52.497Z</time></trkpt><trkpt lat="43.5135205" lon="11.9555698"><ele>403.4285714285714</ele><time>2026-04-19T09:51:55.513Z</time></trkpt><trkpt lat="43.5134604" lon="11.9555376"><ele>405.0</ele><time>2026-04-19T09:51:59.503Z</time></trkpt><trkpt lat="43.513398" lon="11.9555161"><ele>404.99999999999994</ele><time>2026-04-19T09:52:02.512Z</time></trkpt><trkpt lat="43.5133385" lon="11.9555489"><ele>405.0</ele><time>2026-04-19T09:52:06.499Z</time></trkpt><trkpt lat="43.5132656" lon="11.9555798"><ele>405.0</ele><time>2026-04-19T09:52:09.511Z</time></trkpt><trkpt lat="43.5131906" lon="11.9555962"><ele>405.0</ele><time>2026-04-19T09:52:11.51Z</time></trkpt><trkpt lat="43.513123" lon="11.955622"><ele>405.0</ele><time>2026-04-19T09:52:13.508Z</time></trkpt><trkpt lat="43.5130576" lon="11.9556334"><ele>404.99999999999994</ele><time>2026-04-19T09:52:15.512Z</time></trkpt><trkpt lat="43.5129936" lon="11.955656"><ele>405.0</ele><time>2026-04-19T09:52:17.498Z</time></trkpt><trkpt lat="43.5129228" lon="11.9556899"><ele>405.4285714285714</ele><time>2026-04-19T09:52:19.505Z</time></trkpt><trkpt lat="43.512859" lon="11.9557405"><ele>405.85714285714283</ele><time>2026-04-19T09:52:21.522Z</time></trkpt><trkpt lat="43.5127968" lon="11.955782"><ele>406.2857142857143</ele><time>2026-04-19T09:52:23.502Z</time></trkpt><trkpt lat="43.5127364" lon="11.955827"><ele>406.71428571428567</ele><time>2026-04-19T09:52:26.493Z</time></trkpt><trkpt lat="43.5126928" lon="11.9558952"><ele>407.14285714285717</ele><time>2026-04-19T09:52:30.496Z</time></trkpt><trkpt lat="43.5126076" lon="11.9559828"><ele>407.57142857142856</ele><time>2026-04-19T09:52:34.509Z</time></trkpt><trkpt lat="43.5125496" lon="11.9560194"><ele>408.0</ele><time>2026-04-19T09:52:36.5Z</time></trkpt><trkpt lat="43.5124734" lon="11.9560244"><ele>410.5</ele><time>2026-04-19T09:52:39.523Z</time></trkpt><trkpt lat="43.5124091" lon="11.9560167"><ele>413.0</ele><time>2026-04-19T09:52:57.501Z</time></trkpt><trkpt lat="43.5123563" lon="11.9560747"><ele>415.5</ele><time>2026-04-19T09:53:01.503Z</time></trkpt><trkpt lat="43.5122992" lon="11.9561386"><ele>418.0</ele><time>2026-04-19T09:53:07.507Z</time></trkpt><trkpt lat="43.5122202" lon="11.9562153"><ele>420.5</ele><time>2026-04-19T09:53:16.496Z</time></trkpt><trkpt lat="43.512144" lon="11.9562646"><ele>423.0</ele><time>2026-04-19T09:53:20.504Z</time></trkpt><trkpt lat="43.5120643" lon="11.9563031"><ele>423.0</ele><time>2026-04-19T09:53:24.503Z</time></trkpt><trkpt lat="43.5120011" lon="11.9562959"><ele>423.0</ele><time>2026-04-19T09:53:27.505Z</time></trkpt><trkpt lat="43.511926" lon="11.9562898"><ele>423.0</ele><time>2026-04-19T09:53:32.514Z</time></trkpt><trkpt lat="43.5118643" lon="11.95625"><ele>423.0</ele><time>2026-04-19T09:53:36.508Z</time></trkpt><trkpt lat="43.5117844" lon="11.956242"><ele>423.0</ele><time>2026-04-19T09:53:40.495Z</time></trkpt><trkpt lat="43.5116979" lon="11.9562516"><ele>423.0</ele><time>2026-04-19T09:53:44.506Z</time></trkpt><trkpt lat="43.5116113" lon="11.9562491"><ele>423.0</ele><time>2026-04-19T09:53:47.501Z</time></trkpt><trkpt lat="43.5115226" lon="11.9562479"><ele>423.0</ele><time>2026-04-19T09:53:50.512Z</time></trkpt><trkpt lat="43.5114398" lon="11.9562094"><ele>423.0</ele><time>2026-04-19T09:53:53.5Z</time></trkpt><trkpt lat="43.5113641" lon="11.9561553"><ele>423.0</ele><time>2026-04-19T09:53:57.523Z</time></trkpt><trkpt lat="43.5112764" lon="11.9561159"><ele>423.0</ele><time>2026-04-19T09:53:59.496Z</time></trkpt><trkpt lat="43.5112153" lon="11.9560898"><ele>423.0</ele><time>2026-04-19T09:54:01.513Z</time></trkpt><trkpt lat="43.5111535" lon="11.9560667"><ele>421.8333333333333</ele><time>2026-04-19T09:54:03.502Z</time></trkpt><trkpt lat="43.511091" lon="11.9560436"><ele>420.66666666666663</ele><time>2026-04-19T09:54:05.507Z</time></trkpt><trkpt lat="43.5109979" lon="11.956032"><ele>419.5</ele><time>2026-04-19T09:54:08.521Z</time></trkpt><trkpt lat="43.5109173" lon="11.9560265"><ele>418.3333333333333</ele><time>2026-04-19T09:54:11.508Z</time></trkpt><trkpt lat="43.510837" lon="11.9560133"><ele>417.16666666666663</ele><time>2026-04-19T09:54:14.501Z</time></trkpt><trkpt lat="43.5107666" lon="11.956003"><ele>416.0</ele><time>2026-04-19T09:54:16.505Z</time></trkpt><trkpt lat="43.510687" lon="11.9560069"><ele>415.99999999999994</ele><time>2026-04-19T09:54:19.505Z</time></trkpt><trkpt lat="43.5106181" lon="11.956035"><ele>416.0</ele><time>2026-04-19T09:54:22.513Z</time></trkpt><trkpt lat="43.5105254" lon="11.9560636"><ele>416.0</ele><time>2026-04-19T09:54:25.508Z</time></trkpt><trkpt lat="43.5104564" lon="11.9560571"><ele>416.0</ele><time>2026-04-19T09:54:27.517Z</time></trkpt><trkpt lat="43.5103903" lon="11.9560596"><ele>415.99999999999994</ele><time>2026-04-19T09:54:29.506Z</time></trkpt><trkpt lat="43.5103092" lon="11.9560856"><ele>416.0</ele><time>2026-04-19T09:54:32.502Z</time></trkpt><trkpt lat="43.5102241" lon="11.9561081"><ele>416.16666666666663</ele><time>2026-04-19T09:54:35.512Z</time></trkpt><trkpt lat="43.5101475" lon="11.956169"><ele>416.3333333333333</ele><time>2026-04-19T09:54:38.506Z</time></trkpt><trkpt lat="43.5100693" lon="11.9561741"><ele>416.5</ele><time>2026-04-19T09:54:42.512Z</time></trkpt><trkpt lat="43.5099799" lon="11.956198"><ele>416.66666666666663</ele><time>2026-04-19T09:54:45.51Z</time></trkpt><trkpt lat="43.5099192" lon="11.9562269"><ele>416.8333333333333</ele><time>2026-04-19T09:54:47.505Z</time></trkpt><trkpt lat="43.5098544" lon="11.9562626"><ele>417.0</ele><time>2026-04-19T09:54:49.508Z</time></trkpt><trkpt lat="43.5097907" lon="11.956294"><ele>417.0</ele><time>2026-04-19T09:54:51.502Z</time></trkpt><trkpt lat="43.5097165" lon="11.9563468"><ele>417.0</ele><time>2026-04-19T09:54:55.5Z</time></trkpt><trkpt lat="43.5096625" lon="11.9563923"><ele>417.0</ele><time>2026-04-19T09:55:00.519Z</time></trkpt><trkpt lat="43.5095913" lon="11.9564282"><ele>417.0</ele><time>2026-04-19T09:55:04.491Z</time></trkpt><trkpt lat="43.5094997" lon="11.9564652"><ele>417.0</ele><time>2026-04-19T09:56:01.466Z</time></trkpt><trkpt lat="43.5094585" lon="11.956555"><ele>417.0</ele><time>2026-04-19T09:56:05.51Z</time></trkpt><trkpt lat="43.5093859" lon="11.9566008"><ele>418.0</ele><time>2026-04-19T09:56:11.502Z</time></trkpt><trkpt lat="43.5093117" lon="11.9566005"><ele>419.0</ele><time>2026-04-19T09:56:18.502Z</time></trkpt><trkpt lat="43.509245" lon="11.9565735"><ele>420.0</ele><time>2026-04-19T09:56:22.507Z</time></trkpt><trkpt lat="43.5091834" lon="11.9565396"><ele>421.0</ele><time>2026-04-19T09:56:26.512Z</time></trkpt><trkpt lat="43.5091313" lon="11.9564878"><ele>422.0</ele><time>2026-04-19T09:56:29.492Z</time></trkpt><trkpt lat="43.5090726" lon="11.956437"><ele>423.0</ele><time>2026-04-19T09:56:32.498Z</time></trkpt><trkpt lat="43.5089932" lon="11.9563649"><ele>424.0</ele><time>2026-04-19T09:56:35.509Z</time></trkpt><trkpt lat="43.5089368" lon="11.9562997"><ele>424.0</ele><time>2026-04-19T09:56:38.497Z</time></trkpt><trkpt lat="43.5088976" lon="11.9562308"><ele>424.0</ele><time>2026-04-19T09:56:41.516Z</time></trkpt><trkpt lat="43.508823" lon="11.9561871"><ele>424.0</ele><time>2026-04-19T09:56:44.508Z</time></trkpt><trkpt lat="43.5087635" lon="11.9561388"><ele>424.0</ele><time>2026-04-19T09:56:46.509Z</time></trkpt><trkpt lat="43.508701" lon="11.9560985"><ele>424.0</ele><time>2026-04-19T09:56:48.517Z</time></trkpt><trkpt lat="43.5086378" lon="11.9560794"><ele>424.0</ele><time>2026-04-19T09:56:50.512Z</time></trkpt><trkpt lat="43.5085577" lon="11.9561025"><ele>424.0</ele><time>2026-04-19T09:56:53.51Z</time></trkpt><trkpt lat="43.5084875" lon="11.9561569"><ele>424.83333333333337</ele><time>2026-04-19T09:56:56.51Z</time></trkpt><trkpt lat="43.5084279" lon="11.9562065"><ele>425.6666666666667</ele><time>2026-04-19T09:56:58.506Z</time></trkpt><trkpt lat="43.508343" lon="11.9562944"><ele>426.5</ele><time>2026-04-19T09:57:01.516Z</time></trkpt><trkpt lat="43.5082945" lon="11.9563697"><ele>427.33333333333337</ele><time>2026-04-19T09:57:03.508Z</time></trkpt><trkpt lat="43.5082413" lon="11.9564486"><ele>428.1666666666667</ele><time>2026-04-19T09:57:06.517Z</time></trkpt><trkpt lat="43.5081418" lon="11.956515"><ele>429.0</ele><time>2026-04-19T09:57:08.511Z</time></trkpt><trkpt lat="43.5080619" lon="11.9565632"><ele>429.0</ele><time>2026-04-19T09:57:10.517Z</time></trkpt><trkpt lat="43.5079977" lon="11.9565971"><ele>429.0</ele><time>2026-04-19T09:57:12.504Z</time></trkpt><trkpt lat="43.5079094" lon="11.9565951"><ele>429.0</ele><time>2026-04-19T09:57:14.523Z</time></trkpt><trkpt lat="43.5078272" lon="11.9565609"><ele>429.0</ele><time>2026-04-19T09:57:17.517Z</time></trkpt><trkpt lat="43.5077527" lon="11.9565024"><ele>429.0</ele><time>2026-04-19T09:57:19.508Z</time></trkpt><trkpt lat="43.5076914" lon="11.9564544"><ele>429.0</ele><time>2026-04-19T09:57:21.512Z</time></trkpt><trkpt lat="43.507625" lon="11.9563899"><ele>428.8333333333333</ele><time>2026-04-19T09:57:24.512Z</time></trkpt><trkpt lat="43.5075341" lon="11.9563189"><ele>428.66666666666663</ele><time>2026-04-19T09:57:26.507Z</time></trkpt><trkpt lat="43.5074787" lon="11.9562611"><ele>428.5</ele><time>2026-04-19T09:57:28.505Z</time></trkpt><trkpt lat="43.5074152" lon="11.9562072"><ele>428.3333333333333</ele><time>2026-04-19T09:57:30.513Z</time></trkpt><trkpt lat="43.5073346" lon="11.9561583"><ele>428.16666666666663</ele><time>2026-04-19T09:57:33.51Z</time></trkpt><trkpt lat="43.5072631" lon="11.9561385"><ele>428.0</ele><time>2026-04-19T09:57:35.515Z</time></trkpt><trkpt lat="43.5071819" lon="11.9561583"><ele>428.00000000000006</ele><time>2026-04-19T09:57:38.499Z</time></trkpt><trkpt lat="43.5071221" lon="11.9562125"><ele>428.0</ele><time>2026-04-19T09:57:41.52Z</time></trkpt><trkpt lat="43.5070599" lon="11.9562512"><ele>428.0</ele><time>2026-04-19T09:57:44.519Z</time></trkpt><trkpt lat="43.5070063" lon="11.9562969"><ele>428.0</ele><time>2026-04-19T09:57:46.506Z</time></trkpt><trkpt lat="43.5069504" lon="11.9563659"><ele>428.0</ele><time>2026-04-19T09:57:56.524Z</time></trkpt><trkpt lat="43.5069014" lon="11.9564221"><ele>428.00000000000006</ele><time>2026-04-19T09:58:00.511Z</time></trkpt><trkpt lat="43.5068626" lon="11.9564947"><ele>428.0</ele><time>2026-04-19T09:58:04.507Z</time></trkpt><trkpt lat="43.5068242" lon="11.9565728"><ele>427.99999999999994</ele><time>2026-04-19T09:58:07.501Z</time></trkpt><trkpt lat="43.506773" lon="11.9566451"><ele>428.0</ele><time>2026-04-19T09:58:11.524Z</time></trkpt><trkpt lat="43.5067244" lon="11.9567313"><ele>428.0</ele><time>2026-04-19T09:58:14.511Z</time></trkpt><trkpt lat="43.5066639" lon="11.9567996"><ele>428.0</ele><time>2026-04-19T09:58:16.51Z</time></trkpt><trkpt lat="43.5066001" lon="11.9568589"><ele>427.99999999999994</ele><time>2026-04-19T09:58:18.513Z</time></trkpt><trkpt lat="43.5065425" lon="11.9568955"><ele>428.0</ele><time>2026-04-19T09:58:21.504Z</time></trkpt><trkpt lat="43.5064833" lon="11.9569671"><ele>428.00000000000006</ele><time>2026-04-19T09:58:25.51Z</time></trkpt><trkpt lat="43.5064291" lon="11.9570406"><ele>428.0</ele><time>2026-04-19T09:58:31.511Z</time></trkpt><trkpt lat="43.5063725" lon="11.9570963"><ele>428.0</ele><time>2026-04-19T09:58:38.509Z</time></trkpt><trkpt lat="43.5063617" lon="11.9571853"><ele>428.0</ele><time>2026-04-19T09:58:46.5Z</time></trkpt><trkpt lat="43.5063217" lon="11.9572734"><ele>428.0</ele><time>2026-04-19T09:58:55.507Z</time></trkpt><trkpt lat="43.5062651" lon="11.9573294"><ele>428.00000000000006</ele><time>2026-04-19T09:58:59.519Z</time></trkpt><trkpt lat="43.5062059" lon="11.957363"><ele>428.0</ele><time>2026-04-19T09:59:03.517Z</time></trkpt><trkpt lat="43.5061424" lon="11.9573484"><ele>427.99999999999994</ele><time>2026-04-19T09:59:08.51Z</time></trkpt><trkpt lat="43.5060832" lon="11.9572997"><ele>428.0</ele><time>2026-04-19T09:59:13.507Z</time></trkpt><trkpt lat="43.5060177" lon="11.9572682"><ele>428.0</ele><time>2026-04-19T09:59:17.511Z</time></trkpt><trkpt lat="43.5059494" lon="11.9572637"><ele>428.0</ele><time>2026-04-19T09:59:21.509Z</time></trkpt><trkpt lat="43.5058641" lon="11.9572832"><ele>427.99999999999994</ele><time>2026-04-19T09:59:24.511Z</time></trkpt><trkpt lat="43.5057779" lon="11.9572997"><ele>428.0</ele><time>2026-04-19T09:59:28.507Z</time></trkpt><trkpt lat="43.5056941" lon="11.9573351"><ele>428.00000000000006</ele><time>2026-04-19T09:59:31.519Z</time></trkpt><trkpt lat="43.5056158" lon="11.9573322"><ele>428.0</ele><time>2026-04-19T09:59:34.51Z</time></trkpt><trkpt lat="43.5055426" lon="11.9573292"><ele>428.0</ele><time>2026-04-19T09:59:37.51Z</time></trkpt><trkpt lat="43.5054726" lon="11.9573342"><ele>428.0</ele><time>2026-04-19T09:59:40.501Z</time></trkpt><trkpt lat="43.505406" lon="11.9573102"><ele>428.0</ele><time>2026-04-19T09:59:45.515Z</time></trkpt><trkpt lat="43.505338" lon="11.9572663"><ele>428.00000000000006</ele><time>2026-04-19T09:59:49.514Z</time></trkpt><trkpt lat="43.5052827" lon="11.9572181"><ele>428.0</ele><time>2026-04-19T09:59:52.498Z</time></trkpt><trkpt lat="43.505218" lon="11.9571944"><ele>428.42857142857144</ele><time>2026-04-19T09:59:54.512Z</time></trkpt><trkpt lat="43.5051474" lon="11.9571611"><ele>428.8571428571429</ele><time>2026-04-19T09:59:57.512Z</time></trkpt><trkpt lat="43.505078" lon="11.9571295"><ele>429.28571428571433</ele><time>2026-04-19T10:00:00.517Z</time></trkpt><trkpt lat="43.505007" lon="11.957103"><ele>429.7142857142857</ele><time>2026-04-19T10:00:02.502Z</time></trkpt><trkpt lat="43.5049273" lon="11.9570723"><ele>430.1428571428571</ele><time>2026-04-19T10:00:04.506Z</time></trkpt><trkpt lat="43.5048545" lon="11.9570801"><ele>430.5714285714286</ele><time>2026-04-19T10:00:06.508Z</time></trkpt><trkpt lat="43.5047888" lon="11.9570908"><ele>431.0</ele><time>2026-04-19T10:00:09.506Z</time></trkpt><trkpt lat="43.50472" lon="11.9571246"><ele>430.99999999999994</ele><time>2026-04-19T10:00:12.501Z</time></trkpt><trkpt lat="43.5046484" lon="11.9571389"><ele>431.0</ele><time>2026-04-19T10:00:15.507Z</time></trkpt><trkpt lat="43.5045551" lon="11.9571764"><ele>431.0</ele><time>2026-04-19T10:00:18.52Z</time></trkpt><trkpt lat="43.5044885" lon="11.9572269"><ele>431.0</ele><time>2026-04-19T10:00:22.508Z</time></trkpt><trkpt lat="43.5044256" lon="11.9572756"><ele>430.99999999999994</ele><time>2026-04-19T10:00:24.521Z</time></trkpt><trkpt lat="43.5043523" lon="11.9573605"><ele>431.0</ele><time>2026-04-19T10:00:27.517Z</time></trkpt><trkpt lat="43.504309" lon="11.9574384"><ele>431.42857142857144</ele><time>2026-04-19T10:00:29.508Z</time></trkpt><trkpt lat="43.5042647" lon="11.957514"><ele>431.85714285714283</ele><time>2026-04-19T10:00:31.521Z</time></trkpt><trkpt lat="43.504225" lon="11.9575833"><ele>432.2857142857143</ele><time>2026-04-19T10:00:33.522Z</time></trkpt><trkpt lat="43.5041829" lon="11.9576621"><ele>432.7142857142857</ele><time>2026-04-19T10:00:35.508Z</time></trkpt><trkpt lat="43.504133" lon="11.9577165"><ele>433.1428571428571</ele><time>2026-04-19T10:00:37.505Z</time></trkpt><trkpt lat="43.5040906" lon="11.9577995"><ele>433.57142857142856</ele><time>2026-04-19T10:00:40.523Z</time></trkpt><trkpt lat="43.5040622" lon="11.9578925"><ele>434.0</ele><time>2026-04-19T10:00:45.506Z</time></trkpt><trkpt lat="43.5040519" lon="11.9579942"><ele>434.42857142857144</ele><time>2026-04-19T10:00:50.503Z</time></trkpt><trkpt lat="43.5040479" lon="11.9580925"><ele>434.8571428571429</ele><time>2026-04-19T10:00:54.501Z</time></trkpt><trkpt lat="43.5040457" lon="11.9581945"><ele>435.2857142857143</ele><time>2026-04-19T10:00:59.524Z</time></trkpt><trkpt lat="43.5040377" lon="11.9582952"><ele>435.7142857142857</ele><time>2026-04-19T10:01:04.511Z</time></trkpt><trkpt lat="43.5040527" lon="11.9583891"><ele>436.14285714285717</ele><time>2026-04-19T10:01:08.523Z</time></trkpt><trkpt lat="43.5040504" lon="11.9584868"><ele>436.57142857142856</ele><time>2026-04-19T10:01:12.528Z</time></trkpt><trkpt lat="43.5040472" lon="11.9585849"><ele>437.0</ele><time>2026-04-19T10:01:16.501Z</time></trkpt><trkpt lat="43.5040261" lon="11.9586806"><ele>439.16666666666663</ele><time>2026-04-19T10:01:20.506Z</time></trkpt><trkpt lat="43.5039981" lon="11.9587832"><ele>441.3333333333333</ele><time>2026-04-19T10:01:24.513Z</time></trkpt><trkpt lat="43.5039659" lon="11.9588673"><ele>443.5</ele><time>2026-04-19T10:01:28.518Z</time></trkpt><trkpt lat="43.5039253" lon="11.958947"><ele>445.66666666666663</ele><time>2026-04-19T10:01:30.52Z</time></trkpt><trkpt lat="43.5038728" lon="11.9590425"><ele>447.8333333333333</ele><time>2026-04-19T10:01:33.517Z</time></trkpt><trkpt lat="43.5038237" lon="11.9591355"><ele>450.0</ele><time>2026-04-19T10:01:35.505Z</time></trkpt><trkpt lat="43.5037729" lon="11.959223"><ele>449.3333333333333</ele><time>2026-04-19T10:01:38.521Z</time></trkpt><trkpt lat="43.503746" lon="11.9593193"><ele>448.66666666666663</ele><time>2026-04-19T10:01:41.508Z</time></trkpt><trkpt lat="43.5037141" lon="11.9594242"><ele>448.0</ele><time>2026-04-19T10:01:44.505Z</time></trkpt><trkpt lat="43.503665" lon="11.9595001"><ele>447.3333333333333</ele><time>2026-04-19T10:01:47.515Z</time></trkpt><trkpt lat="43.5035775" lon="11.9595585"><ele>446.66666666666663</ele><time>2026-04-19T10:01:50.519Z</time></trkpt><trkpt lat="43.5035137" lon="11.9595971"><ele>446.0</ele><time>2026-04-19T10:01:52.517Z</time></trkpt><trkpt lat="43.5034435" lon="11.9596468"><ele>445.99999999999994</ele><time>2026-04-19T10:01:54.508Z</time></trkpt><trkpt lat="43.5033818" lon="11.9596762"><ele>446.0</ele><time>2026-04-19T10:01:56.51Z</time></trkpt><trkpt lat="43.5032959" lon="11.9596949"><ele>446.0</ele><time>2026-04-19T10:01:59.5Z</time></trkpt><trkpt lat="43.5032117" lon="11.9597158"><ele>446.0</ele><time>2026-04-19T10:02:02.508Z</time></trkpt><trkpt lat="43.503146" lon="11.9597119"><ele>445.99999999999994</ele><time>2026-04-19T10:02:04.526Z</time></trkpt><trkpt lat="43.5030548" lon="11.9597124"><ele>446.0</ele><time>2026-04-19T10:02:07.508Z</time></trkpt><trkpt lat="43.5029765" lon="11.9597489"><ele>446.0</ele><time>2026-04-19T10:02:10.503Z</time></trkpt><trkpt lat="43.5029298" lon="11.9598274"><ele>446.0</ele><time>2026-04-19T10:02:14.504Z</time></trkpt><trkpt lat="43.5028885" lon="11.9599125"><ele>446.0</ele><time>2026-04-19T10:02:18.508Z</time></trkpt><trkpt lat="43.5028622" lon="11.9600098"><ele>446.0</ele><time>2026-04-19T10:02:22.503Z</time></trkpt><trkpt lat="43.502818" lon="11.9600788"><ele>446.0</ele><time>2026-04-19T10:02:26.51Z</time></trkpt><trkpt lat="43.5028027" lon="11.9601686"><ele>446.0</ele><time>2026-04-19T10:02:36.513Z</time></trkpt><trkpt lat="43.5027251" lon="11.9602315"><ele>446.0</ele><time>2026-04-19T10:08:25.478Z</time></trkpt><trkpt lat="43.5027015" lon="11.9603226"><ele>446.2857142857143</ele><time>2026-04-19T10:08:28.514Z</time></trkpt><trkpt lat="43.5026756" lon="11.9604082"><ele>446.57142857142856</ele><time>2026-04-19T10:08:31.5Z</time></trkpt><trkpt lat="43.5026374" lon="11.9604907"><ele>446.8571428571429</ele><time>2026-04-19T10:08:34.502Z</time></trkpt><trkpt lat="43.5026009" lon="11.9605633"><ele>447.1428571428571</ele><time>2026-04-19T10:08:37.506Z</time></trkpt><trkpt lat="43.5025529" lon="11.9606261"><ele>447.42857142857144</ele><time>2026-04-19T10:08:40.508Z</time></trkpt><trkpt lat="43.5024829" lon="11.9606923"><ele>447.7142857142857</ele><time>2026-04-19T10:08:44.499Z</time></trkpt><trkpt lat="43.5023988" lon="11.960734"><ele>448.0</ele><time>2026-04-19T10:08:47.515Z</time></trkpt><trkpt lat="43.5023353" lon="11.9607439"><ele>448.0</ele><time>2026-04-19T10:08:49.516Z</time></trkpt><trkpt lat="43.5022609" lon="11.9607491"><ele>448.0</ele><time>2026-04-19T10:08:55.512Z</time></trkpt><trkpt lat="43.5022089" lon="11.9607984"><ele>448.0</ele><time>2026-04-19T10:08:59.532Z</time></trkpt><trkpt lat="43.5021361" lon="11.9608538"><ele>448.0</ele><time>2026-04-19T10:09:02.51Z</time></trkpt><trkpt lat="43.5020796" lon="11.9609087"><ele>448.0</ele><time>2026-04-19T10:09:05.507Z</time></trkpt><trkpt lat="43.5020322" lon="11.9609799"><ele>448.0</ele><time>2026-04-19T10:09:08.504Z</time></trkpt><trkpt lat="43.5019787" lon="11.9610648"><ele>448.0</ele><time>2026-04-19T10:09:11.498Z</time></trkpt><trkpt lat="43.5019333" lon="11.9611595"><ele>448.33333333333337</ele><time>2026-04-19T10:09:14.513Z</time></trkpt><trkpt lat="43.5018831" lon="11.9612239"><ele>448.6666666666667</ele><time>2026-04-19T10:09:17.512Z</time></trkpt><trkpt lat="43.5018327" lon="11.9612849"><ele>449.0</ele><time>2026-04-19T10:09:20.512Z</time></trkpt><trkpt lat="43.5017676" lon="11.9613596"><ele>449.33333333333337</ele><time>2026-04-19T10:09:24.51Z</time></trkpt><trkpt lat="43.5016888" lon="11.9614389"><ele>449.6666666666667</ele><time>2026-04-19T10:09:27.499Z</time></trkpt><trkpt lat="43.5016007" lon="11.9615004"><ele>450.0</ele><time>2026-04-19T10:09:29.499Z</time></trkpt><trkpt lat="43.5015256" lon="11.9615642"><ele>450.0</ele><time>2026-04-19T10:09:31.515Z</time></trkpt><trkpt lat="43.5014522" lon="11.9616438"><ele>450.0</ele><time>2026-04-19T10:09:33.508Z</time></trkpt><trkpt lat="43.5013945" lon="11.9617052"><ele>450.0</ele><time>2026-04-19T10:09:35.524Z</time></trkpt><trkpt lat="43.5013334" lon="11.9617832"><ele>450.0</ele><time>2026-04-19T10:09:38.504Z</time></trkpt><trkpt lat="43.5012797" lon="11.9618481"><ele>450.0</ele><time>2026-04-19T10:09:40.502Z</time></trkpt><trkpt lat="43.5012263" lon="11.9619102"><ele>450.0</ele><time>2026-04-19T10:09:42.498Z</time></trkpt><trkpt lat="43.5011484" lon="11.9619739"><ele>450.8333333333333</ele><time>2026-04-19T10:09:45.496Z</time></trkpt><trkpt lat="43.5010837" lon="11.962039"><ele>451.66666666666663</ele><time>2026-04-19T10:09:48.509Z</time></trkpt><trkpt lat="43.5010528" lon="11.9621339"><ele>452.5</ele><time>2026-04-19T10:09:55.511Z</time></trkpt><trkpt lat="43.5009878" lon="11.9621857"><ele>453.3333333333333</ele><time>2026-04-19T10:10:00.514Z</time></trkpt><trkpt lat="43.5009202" lon="11.9622344"><ele>454.16666666666663</ele><time>2026-04-19T10:10:04.514Z</time></trkpt><trkpt lat="43.5008441" lon="11.9622526"><ele>455.0</ele><time>2026-04-19T10:10:16.507Z</time></trkpt><trkpt lat="43.5007783" lon="11.9622302"><ele>455.0</ele><time>2026-04-19T10:10:19.497Z</time></trkpt><trkpt lat="43.5006866" lon="11.9622218"><ele>455.0</ele><time>2026-04-19T10:10:22.516Z</time></trkpt><trkpt lat="43.5006213" lon="11.9622161"><ele>455.0</ele><time>2026-04-19T10:10:25.51Z</time></trkpt><trkpt lat="43.5005533" lon="11.9622342"><ele>455.0</ele><time>2026-04-19T10:10:29.513Z</time></trkpt><trkpt lat="43.5004779" lon="11.9622543"><ele>455.0</ele><time>2026-04-19T10:10:33.51Z</time></trkpt><trkpt lat="43.5005516" lon="11.962235"><ele>455.0</ele><time>2026-04-19T10:10:51.512Z</time></trkpt><trkpt lat="43.500621" lon="11.9622165"><ele>455.0</ele><time>2026-04-19T10:10:55.516Z</time></trkpt><trkpt lat="43.5006923" lon="11.9622157"><ele>455.0</ele><time>2026-04-19T10:10:57.518Z</time></trkpt><trkpt lat="43.5007677" lon="11.9622281"><ele>455.0</ele><time>2026-04-19T10:10:59.507Z</time></trkpt><trkpt lat="43.5008423" lon="11.962238"><ele>455.0</ele><time>2026-04-19T10:11:01.509Z</time></trkpt><trkpt lat="43.5009089" lon="11.9622375"><ele>455.0</ele><time>2026-04-19T10:11:03.524Z</time></trkpt><trkpt lat="43.5009264" lon="11.962322"><ele>455.0</ele><time>2026-04-19T10:11:09.516Z</time></trkpt><trkpt lat="43.5008707" lon="11.962367"><ele>455.0</ele><time>2026-04-19T10:11:13.519Z</time></trkpt><trkpt lat="43.5008156" lon="11.9624318"><ele>455.0</ele><time>2026-04-19T10:11:18.508Z</time></trkpt><trkpt lat="43.5007623" lon="11.9624927"><ele>457.0</ele><time>2026-04-19T10:11:22.518Z</time></trkpt><trkpt lat="43.500694" lon="11.9625342"><ele>459.0</ele><time>2026-04-19T10:11:27.512Z</time></trkpt><trkpt lat="43.5006316" lon="11.9625758"><ele>461.0</ele><time>2026-04-19T10:11:32.509Z</time></trkpt><trkpt lat="43.5005971" lon="11.9626498"><ele>463.0</ele><time>2026-04-19T10:11:37.505Z</time></trkpt><trkpt lat="43.5005686" lon="11.9627332"><ele>465.0</ele><time>2026-04-19T10:11:43.515Z</time></trkpt><trkpt lat="43.5005321" lon="11.9628088"><ele>467.0</ele><time>2026-04-19T10:12:08.51Z</time></trkpt><trkpt lat="43.5004737" lon="11.9628567"><ele>469.0</ele><time>2026-04-19T10:12:30.512Z</time></trkpt><trkpt lat="43.5004091" lon="11.9629"><ele>469.0</ele><time>2026-04-19T10:12:36.512Z</time></trkpt><trkpt lat="43.500342" lon="11.9629227"><ele>469.0</ele><time>2026-04-19T10:12:40.504Z</time></trkpt><trkpt lat="43.5002791" lon="11.9629674"><ele>469.0</ele><time>2026-04-19T10:12:45.505Z</time></trkpt><trkpt lat="43.500242" lon="11.9630488"><ele>469.0</ele><time>2026-04-19T10:12:50.52Z</time></trkpt><trkpt lat="43.5002442" lon="11.9631373"><ele>469.0</ele><time>2026-04-19T10:12:54.507Z</time></trkpt><trkpt lat="43.5002272" lon="11.9632257"><ele>469.0</ele><time>2026-04-19T10:12:59.511Z</time></trkpt><trkpt lat="43.5001678" lon="11.9632823"><ele>469.0</ele><time>2026-04-19T10:13:05.515Z</time></trkpt><trkpt lat="43.5001088" lon="11.9633152"><ele>469.0</ele><time>2026-04-19T10:13:10.508Z</time></trkpt><trkpt lat="43.5000502" lon="11.9633544"><ele>469.0</ele><time>2026-04-19T10:13:15.522Z</time></trkpt><trkpt lat="43.500005" lon="11.9634228"><ele>469.0</ele><time>2026-04-19T10:13:20.513Z</time></trkpt><trkpt lat="43.4999749" lon="11.9635055"><ele>469.0</ele><time>2026-04-19T10:13:25.507Z</time></trkpt><trkpt lat="43.4999548" lon="11.9636055"><ele>469.0</ele><time>2026-04-19T10:13:30.514Z</time></trkpt><trkpt lat="43.4999711" lon="11.963705"><ele>469.0</ele><time>2026-04-19T10:13:35.52Z</time></trkpt><trkpt lat="43.4999892" lon="11.9637974"><ele>469.0</ele><time>2026-04-19T10:13:38.51Z</time></trkpt><trkpt lat="43.4999914" lon="11.9639014"><ele>470.2857142857143</ele><time>2026-04-19T10:13:42.522Z</time></trkpt><trkpt lat="43.4999865" lon="11.9640009"><ele>471.57142857142856</ele><time>2026-04-19T10:13:45.527Z</time></trkpt><trkpt lat="43.4999805" lon="11.9641101"><ele>472.8571428571429</ele><time>2026-04-19T10:13:49.514Z</time></trkpt><trkpt lat="43.4999534" lon="11.9642089"><ele>474.14285714285717</ele><time>2026-04-19T10:13:53.508Z</time></trkpt><trkpt lat="43.4999288" lon="11.9642908"><ele>475.42857142857144</ele><time>2026-04-19T10:13:57.511Z</time></trkpt><trkpt lat="43.4998977" lon="11.9643838"><ele>476.7142857142858</ele><time>2026-04-19T10:14:00.503Z</time></trkpt><trkpt lat="43.4998742" lon="11.9644853"><ele>478.00000000000006</ele><time>2026-04-19T10:14:03.499Z</time></trkpt><trkpt lat="43.4998739" lon="11.9645848"><ele>478.57142857142867</ele><time>2026-04-19T10:14:06.506Z</time></trkpt><trkpt lat="43.4998808" lon="11.9646792"><ele>479.14285714285717</ele><time>2026-04-19T10:14:09.524Z</time></trkpt><trkpt lat="43.4998793" lon="11.9647853"><ele>479.7142857142858</ele><time>2026-04-19T10:14:13.51Z</time></trkpt><trkpt lat="43.4998903" lon="11.9648753"><ele>480.28571428571433</ele><time>2026-04-19T10:14:17.506Z</time></trkpt><trkpt lat="43.4998996" lon="11.9649753"><ele>480.8571428571429</ele><time>2026-04-19T10:14:20.506Z</time></trkpt><trkpt lat="43.4999223" lon="11.9650736"><ele>481.42857142857144</ele><time>2026-04-19T10:14:23.529Z</time></trkpt><trkpt lat="43.4999606" lon="11.9651718"><ele>482.0</ele><time>2026-04-19T10:14:27.501Z</time></trkpt><trkpt lat="43.4999947" lon="11.9652685"><ele>483.66666666666663</ele><time>2026-04-19T10:14:32.519Z</time></trkpt><trkpt lat="43.4999839" lon="11.965362"><ele>485.3333333333333</ele><time>2026-04-19T10:14:35.516Z</time></trkpt><trkpt lat="43.4999593" lon="11.965488"><ele>487.0</ele><time>2026-04-19T10:14:38.511Z</time></trkpt><trkpt lat="43.4999326" lon="11.9656003"><ele>488.66666666666663</ele><time>2026-04-19T10:14:41.513Z</time></trkpt><trkpt lat="43.499912" lon="11.9656825"><ele>490.3333333333333</ele><time>2026-04-19T10:14:43.505Z</time></trkpt><trkpt lat="43.4998873" lon="11.9657935"><ele>492.0</ele><time>2026-04-19T10:14:46.505Z</time></trkpt><trkpt lat="43.499886" lon="11.9659078"><ele>495.6666666666667</ele><time>2026-04-19T10:14:49.507Z</time></trkpt><trkpt lat="43.4998492" lon="11.9660178"><ele>499.33333333333337</ele><time>2026-04-19T10:14:52.513Z</time></trkpt><trkpt lat="43.4998092" lon="11.9661355"><ele>503.0</ele><time>2026-04-19T10:14:55.529Z</time></trkpt><trkpt lat="43.4997468" lon="11.9661508"><ele>506.6666666666667</ele><time>2026-04-19T10:14:58.53Z</time></trkpt><trkpt lat="43.4996777" lon="11.9660681"><ele>510.33333333333337</ele><time>2026-04-19T10:15:01.501Z</time></trkpt><trkpt lat="43.4996249" lon="11.9659822"><ele>514.0</ele><time>2026-04-19T10:15:04.52Z</time></trkpt><trkpt lat="43.4995654" lon="11.9659004"><ele>511.85714285714283</ele><time>2026-04-19T10:15:07.509Z</time></trkpt><trkpt lat="43.4995115" lon="11.9658427"><ele>509.7142857142858</ele><time>2026-04-19T10:15:10.513Z</time></trkpt><trkpt lat="43.4994524" lon="11.9657943"><ele>507.5714285714286</ele><time>2026-04-19T10:15:13.514Z</time></trkpt><trkpt lat="43.4993964" lon="11.9657508"><ele>505.42857142857144</ele><time>2026-04-19T10:15:16.498Z</time></trkpt><trkpt lat="43.499332" lon="11.9657371"><ele>503.28571428571433</ele><time>2026-04-19T10:15:19.51Z</time></trkpt><trkpt lat="43.4992748" lon="11.9656996"><ele>501.1428571428572</ele><time>2026-04-19T10:15:22.509Z</time></trkpt><trkpt lat="43.4992166" lon="11.9656392"><ele>499.00000000000006</ele><time>2026-04-19T10:15:27.525Z</time></trkpt><trkpt lat="43.4991665" lon="11.9655713"><ele>499.00000000000006</ele><time>2026-04-19T10:15:31.509Z</time></trkpt><trkpt lat="43.4990904" lon="11.965558"><ele>499.0</ele><time>2026-04-19T10:15:35.499Z</time></trkpt><trkpt lat="43.4990278" lon="11.9655964"><ele>499.00000000000006</ele><time>2026-04-19T10:15:39.507Z</time></trkpt><trkpt lat="43.498975" lon="11.9656533"><ele>499.00000000000006</ele><time>2026-04-19T10:15:43.51Z</time></trkpt><trkpt lat="43.4989333" lon="11.9657279"><ele>499.0</ele><time>2026-04-19T10:15:47.508Z</time></trkpt><trkpt lat="43.4988815" lon="11.965782"><ele>499.00000000000006</ele><time>2026-04-19T10:15:51.507Z</time></trkpt><trkpt lat="43.4988273" lon="11.9658297"><ele>499.00000000000006</ele><time>2026-04-19T10:15:55.504Z</time></trkpt><trkpt lat="43.4987686" lon="11.965867"><ele>500.00000000000006</ele><time>2026-04-19T10:15:59.504Z</time></trkpt><trkpt lat="43.4987072" lon="11.9658968"><ele>501.0</ele><time>2026-04-19T10:16:03.523Z</time></trkpt><trkpt lat="43.4986317" lon="11.9658976"><ele>502.00000000000006</ele><time>2026-04-19T10:16:08.512Z</time></trkpt><trkpt lat="43.4985766" lon="11.9658499"><ele>503.00000000000006</ele><time>2026-04-19T10:16:12.505Z</time></trkpt><trkpt lat="43.4985152" lon="11.9657818"><ele>504.0</ele><time>2026-04-19T10:16:16.525Z</time></trkpt><trkpt lat="43.4984579" lon="11.9657321"><ele>505.00000000000006</ele><time>2026-04-19T10:16:20.508Z</time></trkpt><trkpt lat="43.4983933" lon="11.9657221"><ele>506.00000000000006</ele><time>2026-04-19T10:18:17.518Z</time></trkpt><trkpt lat="43.4983223" lon="11.9656967"><ele>505.99999999999994</ele><time>2026-04-19T10:18:40.513Z</time></trkpt><trkpt lat="43.498247" lon="11.9656485"><ele>506.0</ele><time>2026-04-19T10:18:43.507Z</time></trkpt><trkpt lat="43.4981925" lon="11.9655932"><ele>506.0</ele><time>2026-04-19T10:18:46.515Z</time></trkpt><trkpt lat="43.4981248" lon="11.9655576"><ele>506.0</ele><time>2026-04-19T10:18:50.518Z</time></trkpt><trkpt lat="43.4980537" lon="11.9654957"><ele>505.99999999999994</ele><time>2026-04-19T10:18:55.507Z</time></trkpt><trkpt lat="43.4979914" lon="11.9654179"><ele>506.0</ele><time>2026-04-19T10:18:58.512Z</time></trkpt><trkpt lat="43.4979382" lon="11.9653694"><ele>509.8333333333333</ele><time>2026-04-19T10:19:01.525Z</time></trkpt><trkpt lat="43.4978742" lon="11.9653111"><ele>513.6666666666666</ele><time>2026-04-19T10:19:05.575Z</time></trkpt><trkpt lat="43.4978144" lon="11.9652511"><ele>517.5</ele><time>2026-04-19T10:19:09.517Z</time></trkpt><trkpt lat="43.4977462" lon="11.9651874"><ele>521.3333333333334</ele><time>2026-04-19T10:19:13.507Z</time></trkpt><trkpt lat="43.4976823" lon="11.9651297"><ele>525.1666666666667</ele><time>2026-04-19T10:19:17.535Z</time></trkpt><trkpt lat="43.4976025" lon="11.9651054"><ele>529.0</ele><time>2026-04-19T10:19:21.528Z</time></trkpt><trkpt lat="43.4975312" lon="11.9651421"><ele>529.0</ele><time>2026-04-19T10:19:25.535Z</time></trkpt><trkpt lat="43.4974662" lon="11.9651722"><ele>529.0</ele><time>2026-04-19T10:19:29.501Z</time></trkpt><trkpt lat="43.4974049" lon="11.9652115"><ele>529.0</ele><time>2026-04-19T10:19:32.507Z</time></trkpt><trkpt lat="43.4973509" lon="11.9652759"><ele>529.0</ele><time>2026-04-19T10:19:36.518Z</time></trkpt><trkpt lat="43.4972877" lon="11.9653127"><ele>529.0</ele><time>2026-04-19T10:19:40.499Z</time></trkpt><trkpt lat="43.4972175" lon="11.9653423"><ele>529.0</ele><time>2026-04-19T10:19:45.515Z</time></trkpt><trkpt lat="43.4971573" lon="11.9653742"><ele>529.0</ele><time>2026-04-19T10:19:50.513Z</time></trkpt><trkpt lat="43.4970845" lon="11.9653987"><ele>528.8333333333334</ele><time>2026-04-19T10:20:06.511Z</time></trkpt><trkpt lat="43.4970099" lon="11.9654296"><ele>528.6666666666667</ele><time>2026-04-19T10:20:12.513Z</time></trkpt><trkpt lat="43.4969453" lon="11.9654762"><ele>528.5</ele><time>2026-04-19T10:20:16.506Z</time></trkpt><trkpt lat="43.4968757" lon="11.9655121"><ele>528.3333333333334</ele><time>2026-04-19T10:20:20.519Z</time></trkpt><trkpt lat="43.4968048" lon="11.9655447"><ele>528.1666666666666</ele><time>2026-04-19T10:20:25.511Z</time></trkpt><trkpt lat="43.4967259" lon="11.9655751"><ele>528.0</ele><time>2026-04-19T10:20:30.515Z</time></trkpt><trkpt lat="43.4966495" lon="11.9655941"><ele>528.0</ele><time>2026-04-19T10:20:34.51Z</time></trkpt><trkpt lat="43.4965853" lon="11.9656177"><ele>528.0</ele><time>2026-04-19T10:20:38.514Z</time></trkpt><trkpt lat="43.4965144" lon="11.9656481"><ele>528.0</ele><time>2026-04-19T10:20:42.517Z</time></trkpt><trkpt lat="43.4964398" lon="11.9656979"><ele>528.0</ele><time>2026-04-19T10:20:46.511Z</time></trkpt><trkpt lat="43.4963697" lon="11.9657434"><ele>528.0</ele><time>2026-04-19T10:20:50.508Z</time></trkpt><trkpt lat="43.4963046" lon="11.9657695"><ele>528.0</ele><time>2026-04-19T10:20:55.508Z</time></trkpt><trkpt lat="43.4963732" lon="11.9657465"><ele>528.0</ele><time>2026-04-19T10:21:22.506Z</time></trkpt><trkpt lat="43.4964585" lon="11.9656982"><ele>528.0</ele><time>2026-04-19T10:21:26.507Z</time></trkpt><trkpt lat="43.496537" lon="11.9656421"><ele>528.0</ele><time>2026-04-19T10:21:29.517Z</time></trkpt><trkpt lat="43.4966236" lon="11.96561"><ele>528.0</ele><time>2026-04-19T10:21:32.513Z</time></trkpt><trkpt lat="43.4967137" lon="11.9655776"><ele>528.0</ele><time>2026-04-19T10:21:35.516Z</time></trkpt><trkpt lat="43.496796" lon="11.9655574"><ele>528.0</ele><time>2026-04-19T10:21:38.522Z</time></trkpt><trkpt lat="43.4968635" lon="11.9655307"><ele>528.0</ele><time>2026-04-19T10:21:41.5Z</time></trkpt><trkpt lat="43.4969322" lon="11.9654971"><ele>528.0</ele><time>2026-04-19T10:21:45.503Z</time></trkpt><trkpt lat="43.4970074" lon="11.9654459"><ele>528.0</ele><time>2026-04-19T10:21:48.501Z</time></trkpt><trkpt lat="43.4970716" lon="11.9654038"><ele>528.0</ele><time>2026-04-19T10:21:52.519Z</time></trkpt><trkpt lat="43.4971373" lon="11.9653843"><ele>528.0</ele><time>2026-04-19T10:22:26.508Z</time></trkpt><trkpt lat="43.4972015" lon="11.9653595"><ele>528.0</ele><time>2026-04-19T10:22:29.511Z</time></trkpt><trkpt lat="43.4972649" lon="11.9653244"><ele>528.0</ele><time>2026-04-19T10:22:34.51Z</time></trkpt><trkpt lat="43.4973274" lon="11.9652913"><ele>528.0</ele><time>2026-04-19T10:22:39.517Z</time></trkpt><trkpt lat="43.4974089" lon="11.9652396"><ele>528.1428571428571</ele><time>2026-04-19T10:22:43.51Z</time></trkpt><trkpt lat="43.4974697" lon="11.9651845"><ele>528.2857142857143</ele><time>2026-04-19T10:22:47.502Z</time></trkpt><trkpt lat="43.4975366" lon="11.9651599"><ele>528.4285714285714</ele><time>2026-04-19T10:22:51.509Z</time></trkpt><trkpt lat="43.4976028" lon="11.9651431"><ele>528.5714285714286</ele><time>2026-04-19T10:22:54.51Z</time></trkpt><trkpt lat="43.4976682" lon="11.9651614"><ele>528.7142857142857</ele><time>2026-04-19T10:22:56.513Z</time></trkpt><trkpt lat="43.4977374" lon="11.9652162"><ele>528.8571428571429</ele><time>2026-04-19T10:22:58.514Z</time></trkpt><trkpt lat="43.4978013" lon="11.9652698"><ele>529.0</ele><time>2026-04-19T10:23:00.514Z</time></trkpt><trkpt lat="43.4978791" lon="11.9653364"><ele>524.4</ele><time>2026-04-19T10:23:02.511Z</time></trkpt><trkpt lat="43.4979551" lon="11.9654076"><ele>519.8</ele><time>2026-04-19T10:23:04.525Z</time></trkpt><trkpt lat="43.4980191" lon="11.9654729"><ele>515.2</ele><time>2026-04-19T10:23:06.506Z</time></trkpt><trkpt lat="43.4981045" lon="11.9655456"><ele>510.6</ele><time>2026-04-19T10:23:08.507Z</time></trkpt><trkpt lat="43.4981975" lon="11.9656057"><ele>506.0</ele><time>2026-04-19T10:23:10.501Z</time></trkpt><trkpt lat="43.4982628" lon="11.9656579"><ele>506.00000000000006</ele><time>2026-04-19T10:23:12.512Z</time></trkpt><trkpt lat="43.4983348" lon="11.965695"><ele>506.0</ele><time>2026-04-19T10:23:15.506Z</time></trkpt><trkpt lat="43.4984007" lon="11.9657061"><ele>506.00000000000006</ele><time>2026-04-19T10:23:18.505Z</time></trkpt><trkpt lat="43.4984567" lon="11.9657533"><ele>506.00000000000006</ele><time>2026-04-19T10:23:21.505Z</time></trkpt><trkpt lat="43.4984479" lon="11.965842"><ele>506.0</ele><time>2026-04-19T10:23:24.519Z</time></trkpt><trkpt lat="43.4984602" lon="11.9659411"><ele>506.00000000000006</ele><time>2026-04-19T10:23:27.499Z</time></trkpt><trkpt lat="43.4984685" lon="11.9660289"><ele>506.00000000000006</ele><time>2026-04-19T10:23:30.505Z</time></trkpt><trkpt lat="43.498474" lon="11.966119"><ele>508.7142857142858</ele><time>2026-04-19T10:23:33.501Z</time></trkpt><trkpt lat="43.4984777" lon="11.96621"><ele>511.42857142857144</ele><time>2026-04-19T10:23:36.509Z</time></trkpt><trkpt lat="43.4984846" lon="11.9662986"><ele>514.1428571428571</ele><time>2026-04-19T10:23:39.523Z</time></trkpt><trkpt lat="43.4984893" lon="11.966386"><ele>516.8571428571429</ele><time>2026-04-19T10:23:42.526Z</time></trkpt><trkpt lat="43.4985077" lon="11.9664857"><ele>519.5714285714286</ele><time>2026-04-19T10:23:46.517Z</time></trkpt><trkpt lat="43.4985566" lon="11.9665418"><ele>522.2857142857143</ele><time>2026-04-19T10:23:49.502Z</time></trkpt><trkpt lat="43.4986035" lon="11.9666063"><ele>525.0</ele><time>2026-04-19T10:23:52.507Z</time></trkpt><trkpt lat="43.4986526" lon="11.9666644"><ele>526.7142857142857</ele><time>2026-04-19T10:23:56.517Z</time></trkpt><trkpt lat="43.4987152" lon="11.9667183"><ele>528.4285714285714</ele><time>2026-04-19T10:24:00.519Z</time></trkpt><trkpt lat="43.4987866" lon="11.9667577"><ele>530.1428571428571</ele><time>2026-04-19T10:24:04.5Z</time></trkpt><trkpt lat="43.4988517" lon="11.9668174"><ele>531.8571428571429</ele><time>2026-04-19T10:24:08.51Z</time></trkpt><trkpt lat="43.4988648" lon="11.9669206"><ele>533.5714285714286</ele><time>2026-04-19T10:24:12.506Z</time></trkpt><trkpt lat="43.4988053" lon="11.9669774"><ele>535.2857142857142</ele><time>2026-04-19T10:24:17.51Z</time></trkpt><trkpt lat="43.4987401" lon="11.9670085"><ele>537.0</ele><time>2026-04-19T10:24:22.505Z</time></trkpt><trkpt lat="43.4986917" lon="11.9670659"><ele>538.5714285714286</ele><time>2026-04-19T10:24:26.5Z</time></trkpt><trkpt lat="43.4986546" lon="11.9671552"><ele>540.1428571428571</ele><time>2026-04-19T10:24:31.505Z</time></trkpt><trkpt lat="43.4986184" lon="11.967236"><ele>541.7142857142858</ele><time>2026-04-19T10:24:36.505Z</time></trkpt><trkpt lat="43.4985643" lon="11.9672886"><ele>543.2857142857142</ele><time>2026-04-19T10:24:42.51Z</time></trkpt><trkpt lat="43.4985031" lon="11.9673265"><ele>544.8571428571429</ele><time>2026-04-19T10:24:49.514Z</time></trkpt><trkpt lat="43.4984545" lon="11.9672522"><ele>546.4285714285714</ele><time>2026-04-19T10:25:33.525Z</time></trkpt><trkpt lat="43.4983963" lon="11.9672111"><ele>548.0</ele><time>2026-04-19T10:25:37.504Z</time></trkpt><trkpt lat="43.4983331" lon="11.9672014"><ele>548.0000000000001</ele><time>2026-04-19T10:25:42.521Z</time></trkpt><trkpt lat="43.4982641" lon="11.96722"><ele>548.0</ele><time>2026-04-19T10:25:48.509Z</time></trkpt><trkpt lat="43.4981909" lon="11.9672547"><ele>548.0</ele><time>2026-04-19T10:25:53.52Z</time></trkpt><trkpt lat="43.4981207" lon="11.9672629"><ele>548.0</ele><time>2026-04-19T10:25:59.513Z</time></trkpt><trkpt lat="43.4980574" lon="11.9672442"><ele>548.0</ele><time>2026-04-19T10:26:03.518Z</time></trkpt><trkpt lat="43.4979962" lon="11.9671998"><ele>548.0000000000001</ele><time>2026-04-19T10:26:08.512Z</time></trkpt><trkpt lat="43.4979343" lon="11.967156"><ele>548.0</ele><time>2026-04-19T10:26:13.514Z</time></trkpt><trkpt lat="43.4978666" lon="11.9671124"><ele>548.8571428571429</ele><time>2026-04-19T10:26:18.518Z</time></trkpt><trkpt lat="43.4978149" lon="11.9670574"><ele>549.7142857142858</ele><time>2026-04-19T10:26:23.508Z</time></trkpt><trkpt lat="43.4977724" lon="11.9669861"><ele>550.5714285714286</ele><time>2026-04-19T10:26:29.523Z</time></trkpt><trkpt lat="43.4977193" lon="11.9669136"><ele>551.4285714285714</ele><time>2026-04-19T10:26:38.499Z</time></trkpt><trkpt lat="43.4976615" lon="11.9668522"><ele>552.2857142857142</ele><time>2026-04-19T10:26:43.513Z</time></trkpt><trkpt lat="43.4976341" lon="11.9667623"><ele>553.1428571428571</ele><time>2026-04-19T10:26:48.526Z</time></trkpt><trkpt lat="43.4976105" lon="11.9666795"><ele>554.0</ele><time>2026-04-19T10:26:52.515Z</time></trkpt><trkpt lat="43.4975634" lon="11.9665961"><ele>554.0</ele><time>2026-04-19T10:26:57.501Z</time></trkpt><trkpt lat="43.4975019" lon="11.9665411"><ele>554.0</ele><time>2026-04-19T10:27:02.511Z</time></trkpt><trkpt lat="43.4974422" lon="11.966503"><ele>554.0</ele><time>2026-04-19T10:27:07.534Z</time></trkpt><trkpt lat="43.4973767" lon="11.9664782"><ele>554.0</ele><time>2026-04-19T10:27:12.522Z</time></trkpt><trkpt lat="43.4973147" lon="11.966437"><ele>554.0</ele><time>2026-04-19T10:27:17.52Z</time></trkpt><trkpt lat="43.4972537" lon="11.9663925"><ele>554.0</ele><time>2026-04-19T10:27:22.513Z</time></trkpt><trkpt lat="43.4971873" lon="11.9663595"><ele>554.0</ele><time>2026-04-19T10:27:27.523Z</time></trkpt><trkpt lat="43.4971187" lon="11.966371"><ele>555.7142857142857</ele><time>2026-04-19T10:27:32.5Z</time></trkpt><trkpt lat="43.4970474" lon="11.9663607"><ele>557.4285714285713</ele><time>2026-04-19T10:27:37.509Z</time></trkpt><trkpt lat="43.4969769" lon="11.966364"><ele>559.1428571428571</ele><time>2026-04-19T10:27:42.501Z</time></trkpt><trkpt lat="43.4969164" lon="11.9663902"><ele>560.8571428571429</ele><time>2026-04-19T10:27:46.514Z</time></trkpt><trkpt lat="43.4968515" lon="11.9664241"><ele>562.5714285714287</ele><time>2026-04-19T10:27:51.513Z</time></trkpt><trkpt lat="43.4967832" lon="11.9664561"><ele>564.2857142857143</ele><time>2026-04-19T10:27:56.51Z</time></trkpt><trkpt lat="43.4967092" lon="11.9664766"><ele>566.0</ele><time>2026-04-19T10:28:00.502Z</time></trkpt><trkpt lat="43.4966532" lon="11.9665209"><ele>566.0</ele><time>2026-04-19T10:28:04.509Z</time></trkpt><trkpt lat="43.4966073" lon="11.9665924"><ele>566.0</ele><time>2026-04-19T10:28:08.51Z</time></trkpt><trkpt lat="43.4965602" lon="11.9666597"><ele>566.0</ele><time>2026-04-19T10:28:12.527Z</time></trkpt><trkpt lat="43.4965103" lon="11.9667324"><ele>566.0</ele><time>2026-04-19T10:28:16.515Z</time></trkpt><trkpt lat="43.4964457" lon="11.9667672"><ele>566.0</ele><time>2026-04-19T10:28:49.498Z</time></trkpt><trkpt lat="43.4963804" lon="11.966794"><ele>566.0</ele><time>2026-04-19T10:28:51.512Z</time></trkpt><trkpt lat="43.4963013" lon="11.9668464"><ele>566.0</ele><time>2026-04-19T10:28:53.503Z</time></trkpt><trkpt lat="43.4962396" lon="11.9669017"><ele>567.1428571428571</ele><time>2026-04-19T10:28:55.51Z</time></trkpt><trkpt lat="43.4961769" lon="11.966954"><ele>568.2857142857143</ele><time>2026-04-19T10:28:58.509Z</time></trkpt><trkpt lat="43.4961197" lon="11.9670053"><ele>569.4285714285714</ele><time>2026-04-19T10:29:01.511Z</time></trkpt><trkpt lat="43.4960426" lon="11.967049"><ele>570.5714285714286</ele><time>2026-04-19T10:29:05.494Z</time></trkpt><trkpt lat="43.4959738" lon="11.9670982"><ele>571.7142857142858</ele><time>2026-04-19T10:29:09.508Z</time></trkpt><trkpt lat="43.4959289" lon="11.9671654"><ele>572.8571428571429</ele><time>2026-04-19T10:29:13.523Z</time></trkpt><trkpt lat="43.4958699" lon="11.9672248"><ele>574.0</ele><time>2026-04-19T10:29:17.509Z</time></trkpt><trkpt lat="43.4958147" lon="11.9672978"><ele>574.0</ele><time>2026-04-19T10:29:21.511Z</time></trkpt><trkpt lat="43.4957693" lon="11.9673792"><ele>574.0</ele><time>2026-04-19T10:29:25.501Z</time></trkpt><trkpt lat="43.4957662" lon="11.9674784"><ele>574.0</ele><time>2026-04-19T10:29:29.507Z</time></trkpt><trkpt lat="43.4958217" lon="11.9675296"><ele>574.0</ele><time>2026-04-19T10:29:33.51Z</time></trkpt><trkpt lat="43.495895" lon="11.9675409"><ele>574.0</ele><time>2026-04-19T10:29:37.51Z</time></trkpt><trkpt lat="43.495964" lon="11.9675377"><ele>574.0</ele><time>2026-04-19T10:29:41.518Z</time></trkpt><trkpt lat="43.4960347" lon="11.9675491"><ele>574.0</ele><time>2026-04-19T10:29:46.515Z</time></trkpt><trkpt lat="43.496091" lon="11.9675884"><ele>575.8571428571429</ele><time>2026-04-19T10:29:50.503Z</time></trkpt><trkpt lat="43.4961584" lon="11.9676294"><ele>577.7142857142858</ele><time>2026-04-19T10:29:54.512Z</time></trkpt><trkpt lat="43.4962155" lon="11.9676931"><ele>579.5714285714286</ele><time>2026-04-19T10:29:59.513Z</time></trkpt><trkpt lat="43.4962613" lon="11.9677628"><ele>581.4285714285714</ele><time>2026-04-19T10:30:03.505Z</time></trkpt><trkpt lat="43.496309" lon="11.9678359"><ele>583.2857142857143</ele><time>2026-04-19T10:30:08.501Z</time></trkpt><trkpt lat="43.4963564" lon="11.967905"><ele>585.1428571428571</ele><time>2026-04-19T10:33:12.508Z</time></trkpt><trkpt lat="43.4963904" lon="11.9679898"><ele>587.0</ele><time>2026-04-19T10:33:16.512Z</time></trkpt><trkpt lat="43.4964578" lon="11.9680577"><ele>588.0</ele><time>2026-04-19T10:33:20.505Z</time></trkpt><trkpt lat="43.4965365" lon="11.968045"><ele>589.0</ele><time>2026-04-19T10:33:26.504Z</time></trkpt><trkpt lat="43.4965669" lon="11.9679685"><ele>590.0</ele><time>2026-04-19T10:33:29.511Z</time></trkpt><trkpt lat="43.4965742" lon="11.9678587"><ele>591.0</ele><time>2026-04-19T10:33:33.501Z</time></trkpt><trkpt lat="43.4965874" lon="11.9677578"><ele>592.0</ele><time>2026-04-19T10:33:37.52Z</time></trkpt><trkpt lat="43.4965878" lon="11.9676645"><ele>593.0</ele><time>2026-04-19T10:33:41.507Z</time></trkpt><trkpt lat="43.4965902" lon="11.9675703"><ele>594.0</ele><time>2026-04-19T10:33:45.503Z</time></trkpt><trkpt lat="43.4966026" lon="11.9674669"><ele>594.0</ele><time>2026-04-19T10:33:49.518Z</time></trkpt><trkpt lat="43.4966259" lon="11.9673708"><ele>594.0</ele><time>2026-04-19T10:33:53.517Z</time></trkpt><trkpt lat="43.4966839" lon="11.9673262"><ele>594.0</ele><time>2026-04-19T10:33:57.529Z</time></trkpt><trkpt lat="43.4967673" lon="11.9673107"><ele>594.0</ele><time>2026-04-19T10:34:01.507Z</time></trkpt><trkpt lat="43.4968219" lon="11.9673887"><ele>594.0</ele><time>2026-04-19T10:34:05.52Z</time></trkpt><trkpt lat="43.4968397" lon="11.9674787"><ele>594.0</ele><time>2026-04-19T10:34:09.516Z</time></trkpt><trkpt lat="43.4968573" lon="11.9675713"><ele>594.0</ele><time>2026-04-19T10:34:13.527Z</time></trkpt><trkpt lat="43.4968904" lon="11.9676574"><ele>594.7142857142858</ele><time>2026-04-19T10:34:17.526Z</time></trkpt><trkpt lat="43.4969235" lon="11.9677498"><ele>595.4285714285714</ele><time>2026-04-19T10:34:21.52Z</time></trkpt><trkpt lat="43.4969603" lon="11.9678358"><ele>596.1428571428571</ele><time>2026-04-19T10:34:25.524Z</time></trkpt><trkpt lat="43.4970007" lon="11.967923"><ele>596.8571428571429</ele><time>2026-04-19T10:34:29.505Z</time></trkpt><trkpt lat="43.4970331" lon="11.9679989"><ele>597.5714285714286</ele><time>2026-04-19T10:34:33.519Z</time></trkpt><trkpt lat="43.4970671" lon="11.968079"><ele>598.2857142857143</ele><time>2026-04-19T10:34:37.517Z</time></trkpt><trkpt lat="43.4970937" lon="11.9681616"><ele>599.0</ele><time>2026-04-19T10:34:41.506Z</time></trkpt><trkpt lat="43.4971313" lon="11.9682377"><ele>599.0</ele><time>2026-04-19T10:34:45.522Z</time></trkpt><trkpt lat="43.4971585" lon="11.9683237"><ele>599.0</ele><time>2026-04-19T10:34:49.521Z</time></trkpt><trkpt lat="43.4971845" lon="11.9684087"><ele>599.0</ele><time>2026-04-19T10:34:53.511Z</time></trkpt><trkpt lat="43.4972066" lon="11.9684962"><ele>599.0</ele><time>2026-04-19T10:34:57.512Z</time></trkpt><trkpt lat="43.497215" lon="11.9685946"><ele>599.0</ele><time>2026-04-19T10:35:02.504Z</time></trkpt><trkpt lat="43.4972196" lon="11.9686946"><ele>599.0</ele><time>2026-04-19T10:35:07.509Z</time></trkpt><trkpt lat="43.4972042" lon="11.9687849"><ele>599.0</ele><time>2026-04-19T10:35:11.508Z</time></trkpt><trkpt lat="43.4971537" lon="11.9688586"><ele>601.5714285714286</ele><time>2026-04-19T10:35:15.505Z</time></trkpt><trkpt lat="43.4970908" lon="11.9689123"><ele>604.1428571428571</ele><time>2026-04-19T10:35:19.512Z</time></trkpt><trkpt lat="43.4970734" lon="11.9690021"><ele>606.7142857142858</ele><time>2026-04-19T10:35:24.514Z</time></trkpt><trkpt lat="43.4971343" lon="11.9690637"><ele>609.2857142857142</ele><time>2026-04-19T10:35:29.506Z</time></trkpt><trkpt lat="43.4972052" lon="11.9690808"><ele>611.8571428571428</ele><time>2026-04-19T10:35:34.505Z</time></trkpt><trkpt lat="43.4972609" lon="11.9691319"><ele>614.4285714285714</ele><time>2026-04-19T10:35:39.502Z</time></trkpt><trkpt lat="43.4973066" lon="11.9691975"><ele>617.0</ele><time>2026-04-19T10:35:44.501Z</time></trkpt><trkpt lat="43.4973319" lon="11.9692884"><ele>618.7142857142858</ele><time>2026-04-19T10:35:49.497Z</time></trkpt><trkpt lat="43.4973003" lon="11.969374"><ele>620.4285714285713</ele><time>2026-04-19T10:35:55.512Z</time></trkpt><trkpt lat="43.4972303" lon="11.9693717"><ele>622.1428571428571</ele><time>2026-04-19T10:36:00.507Z</time></trkpt><trkpt lat="43.4971614" lon="11.9693957"><ele>623.8571428571429</ele><time>2026-04-19T10:36:05.506Z</time></trkpt><trkpt lat="43.4971078" lon="11.9694671"><ele>625.5714285714287</ele><time>2026-04-19T10:36:10.508Z</time></trkpt><trkpt lat="43.4970789" lon="11.9695649"><ele>627.2857142857142</ele><time>2026-04-19T10:36:15.516Z</time></trkpt><trkpt lat="43.4970639" lon="11.9696514"><ele>629.0</ele><time>2026-04-19T10:36:19.52Z</time></trkpt><trkpt lat="43.4970353" lon="11.9697417"><ele>629.0</ele><time>2026-04-19T10:36:23.511Z</time></trkpt><trkpt lat="43.4970059" lon="11.9698268"><ele>629.0</ele><time>2026-04-19T10:36:27.518Z</time></trkpt><trkpt lat="43.4969793" lon="11.9699235"><ele>629.0</ele><time>2026-04-19T10:36:32.523Z</time></trkpt><trkpt lat="43.4970054" lon="11.9700165"><ele>629.0</ele><time>2026-04-19T10:36:37.509Z</time></trkpt><trkpt lat="43.4970657" lon="11.9700738"><ele>629.0</ele><time>2026-04-19T10:36:42.518Z</time></trkpt><trkpt lat="43.4971129" lon="11.9701557"><ele>629.0</ele><time>2026-04-19T10:36:48.506Z</time></trkpt><trkpt lat="43.4971336" lon="11.970255"><ele>629.0</ele><time>2026-04-19T10:36:53.508Z</time></trkpt><trkpt lat="43.4971361" lon="11.9703425"><ele>632.7142857142857</ele><time>2026-04-19T10:36:57.51Z</time></trkpt><trkpt lat="43.4971472" lon="11.9704331"><ele>636.4285714285714</ele><time>2026-04-19T10:37:01.513Z</time></trkpt><trkpt lat="43.4971888" lon="11.9705168"><ele>640.1428571428571</ele><time>2026-04-19T10:37:05.514Z</time></trkpt><trkpt lat="43.4972487" lon="11.9705653"><ele>643.8571428571429</ele><time>2026-04-19T10:37:09.495Z</time></trkpt><trkpt lat="43.4973157" lon="11.9706183"><ele>647.5714285714286</ele><time>2026-04-19T10:37:14.517Z</time></trkpt><trkpt lat="43.4973666" lon="11.970671"><ele>651.2857142857143</ele><time>2026-04-19T10:37:19.514Z</time></trkpt><trkpt lat="43.4974333" lon="11.9707276"><ele>655.0</ele><time>2026-04-19T10:37:24.505Z</time></trkpt><trkpt lat="43.497482" lon="11.970794"><ele>655.0</ele><time>2026-04-19T10:37:29.508Z</time></trkpt><trkpt lat="43.4975401" lon="11.9708369"><ele>655.0</ele><time>2026-04-19T10:37:33.513Z</time></trkpt><trkpt lat="43.4975739" lon="11.9709233"><ele>655.0</ele><time>2026-04-19T10:37:38.508Z</time></trkpt><trkpt lat="43.4975774" lon="11.9710151"><ele>655.0</ele><time>2026-04-19T10:37:43.532Z</time></trkpt><trkpt lat="43.497533" lon="11.9710894"><ele>655.0</ele><time>2026-04-19T10:37:48.513Z</time></trkpt><trkpt lat="43.4975005" lon="11.9711767"><ele>655.0</ele><time>2026-04-19T10:37:53.506Z</time></trkpt><trkpt lat="43.4974785" lon="11.9712813"><ele>655.0</ele><time>2026-04-19T10:37:58.514Z</time></trkpt><trkpt lat="43.4974581" lon="11.9713657"><ele>658.5</ele><time>2026-04-19T10:38:02.508Z</time></trkpt><trkpt lat="43.4974229" lon="11.9714577"><ele>662.0</ele><time>2026-04-19T10:38:06.507Z</time></trkpt><trkpt lat="43.4973793" lon="11.9715617"><ele>665.5</ele><time>2026-04-19T10:38:12.501Z</time></trkpt><trkpt lat="43.4973402" lon="11.9716509"><ele>669.0</ele><time>2026-04-19T10:38:16.503Z</time></trkpt><trkpt lat="43.49728" lon="11.9717626"><ele>672.5</ele><time>2026-04-19T10:39:04.51Z</time></trkpt><trkpt lat="43.4972783" lon="11.9718691"><ele>676.0</ele><time>2026-04-19T10:39:09.512Z</time></trkpt><trkpt lat="43.4972722" lon="11.9719774"><ele>677.3333333333334</ele><time>2026-04-19T10:39:14.539Z</time></trkpt><trkpt lat="43.4972866" lon="11.9720755"><ele>678.6666666666667</ele><time>2026-04-19T10:39:18.509Z</time></trkpt><trkpt lat="43.4973003" lon="11.9721906"><ele>680.0</ele><time>2026-04-19T10:39:23.517Z</time></trkpt><trkpt lat="43.4973143" lon="11.9722826"><ele>681.3333333333334</ele><time>2026-04-19T10:39:27.511Z</time></trkpt><trkpt lat="43.4973283" lon="11.9723867"><ele>682.6666666666666</ele><time>2026-04-19T10:39:31.517Z</time></trkpt><trkpt lat="43.4973426" lon="11.9724901"><ele>684.0</ele><time>2026-04-19T10:39:35.524Z</time></trkpt><trkpt lat="43.4973659" lon="11.9725889"><ele>684.7142857142857</ele><time>2026-04-19T10:39:39.512Z</time></trkpt><trkpt lat="43.4973997" lon="11.9726925"><ele>685.4285714285714</ele><time>2026-04-19T10:39:44.517Z</time></trkpt><trkpt lat="43.4974318" lon="11.9727798"><ele>686.1428571428571</ele><time>2026-04-19T10:39:48.519Z</time></trkpt><trkpt lat="43.4974722" lon="11.9728508"><ele>686.8571428571429</ele><time>2026-04-19T10:39:52.509Z</time></trkpt><trkpt lat="43.4975148" lon="11.9729278"><ele>687.5714285714286</ele><time>2026-04-19T10:39:56.506Z</time></trkpt><trkpt lat="43.4975327" lon="11.9730155"><ele>688.2857142857142</ele><time>2026-04-19T10:40:00.518Z</time></trkpt><trkpt lat="43.4975759" lon="11.9730981"><ele>689.0</ele><time>2026-04-19T10:40:07.515Z</time></trkpt><trkpt lat="43.4976066" lon="11.973181"><ele>689.0</ele><time>2026-04-19T10:40:10.525Z</time></trkpt><trkpt lat="43.4976388" lon="11.9732752"><ele>689.0</ele><time>2026-04-19T10:40:14.516Z</time></trkpt><trkpt lat="43.4976506" lon="11.9733622"><ele>689.0</ele><time>2026-04-19T10:40:17.508Z</time></trkpt><trkpt lat="43.4976745" lon="11.9734432"><ele>689.0</ele><time>2026-04-19T10:40:20.504Z</time></trkpt><trkpt lat="43.497699" lon="11.9735804"><ele>689.0</ele><time>2026-04-19T10:40:24.518Z</time></trkpt><trkpt lat="43.4977181" lon="11.9736923"><ele>689.0</ele><time>2026-04-19T10:40:26.519Z</time></trkpt><trkpt lat="43.4977494" lon="11.9737794"><ele>690.6666666666666</ele><time>2026-04-19T10:40:28.524Z</time></trkpt><trkpt lat="43.4977894" lon="11.9738845"><ele>692.3333333333333</ele><time>2026-04-19T10:40:31.504Z</time></trkpt><trkpt lat="43.4978275" lon="11.9739725"><ele>694.0</ele><time>2026-04-19T10:40:34.508Z</time></trkpt><trkpt lat="43.4978503" lon="11.9740755"><ele>695.6666666666666</ele><time>2026-04-19T10:40:37.504Z</time></trkpt><trkpt lat="43.497875" lon="11.9741942"><ele>697.3333333333334</ele><time>2026-04-19T10:40:40.528Z</time></trkpt><trkpt lat="43.497884" lon="11.9742981"><ele>699.0</ele><time>2026-04-19T10:40:43.519Z</time></trkpt><trkpt lat="43.4978411" lon="11.9743644"><ele>701.2857142857142</ele><time>2026-04-19T10:40:46.503Z</time></trkpt><trkpt lat="43.4977727" lon="11.9743624"><ele>703.5714285714287</ele><time>2026-04-19T10:40:50.503Z</time></trkpt><trkpt lat="43.4977019" lon="11.9743631"><ele>705.8571428571429</ele><time>2026-04-19T10:40:55.506Z</time></trkpt><trkpt lat="43.4976296" lon="11.9743826"><ele>708.1428571428571</ele><time>2026-04-19T10:41:00.503Z</time></trkpt><trkpt lat="43.4975532" lon="11.9743807"><ele>710.4285714285713</ele><time>2026-04-19T10:41:06.517Z</time></trkpt><trkpt lat="43.4974902" lon="11.9743721"><ele>712.7142857142858</ele><time>2026-04-19T10:41:11.518Z</time></trkpt><trkpt lat="43.4974172" lon="11.9743878"><ele>715.0</ele><time>2026-04-19T10:41:17.519Z</time></trkpt><trkpt lat="43.4973532" lon="11.9744142"><ele>715.0</ele><time>2026-04-19T10:41:35.508Z</time></trkpt><trkpt lat="43.4972887" lon="11.974468"><ele>715.0</ele><time>2026-04-19T10:41:40.511Z</time></trkpt><trkpt lat="43.4972305" lon="11.9745231"><ele>715.0</ele><time>2026-04-19T10:41:44.516Z</time></trkpt><trkpt lat="43.4971726" lon="11.9745839"><ele>715.0</ele><time>2026-04-19T10:41:48.53Z</time></trkpt><trkpt lat="43.4971264" lon="11.9746508"><ele>715.0</ele><time>2026-04-19T10:41:52.507Z</time></trkpt><trkpt lat="43.4970841" lon="11.9747258"><ele>715.0</ele><time>2026-04-19T10:41:56.509Z</time></trkpt><trkpt lat="43.4970448" lon="11.9748101"><ele>715.0</ele><time>2026-04-19T10:42:00.516Z</time></trkpt><trkpt lat="43.4970064" lon="11.974896"><ele>713.8571428571429</ele><time>2026-04-19T10:42:04.505Z</time></trkpt><trkpt lat="43.4969953" lon="11.9749965"><ele>712.7142857142857</ele><time>2026-04-19T10:42:08.528Z</time></trkpt><trkpt lat="43.497029" lon="11.9750815"><ele>711.5714285714286</ele><time>2026-04-19T10:42:12.521Z</time></trkpt><trkpt lat="43.4970832" lon="11.9751422"><ele>710.4285714285714</ele><time>2026-04-19T10:42:16.508Z</time></trkpt><trkpt lat="43.4971342" lon="11.9752101"><ele>709.2857142857142</ele><time>2026-04-19T10:42:20.54Z</time></trkpt><trkpt lat="43.497169" lon="11.9752979"><ele>708.1428571428571</ele><time>2026-04-19T10:42:24.522Z</time></trkpt><trkpt lat="43.4971967" lon="11.9753909"><ele>707.0</ele><time>2026-04-19T10:42:28.507Z</time></trkpt><trkpt lat="43.4972283" lon="11.9754801"><ele>710.4285714285714</ele><time>2026-04-19T10:42:32.527Z</time></trkpt><trkpt lat="43.4972545" lon="11.975566"><ele>713.8571428571429</ele><time>2026-04-19T10:42:36.506Z</time></trkpt><trkpt lat="43.4972382" lon="11.9756603"><ele>717.2857142857142</ele><time>2026-04-19T10:42:40.506Z</time></trkpt><trkpt lat="43.4971987" lon="11.975736"><ele>720.7142857142858</ele><time>2026-04-19T10:42:44.517Z</time></trkpt><trkpt lat="43.4971668" lon="11.9758374"><ele>724.1428571428571</ele><time>2026-04-19T10:42:48.507Z</time></trkpt><trkpt lat="43.4971271" lon="11.9759365"><ele>727.5714285714286</ele><time>2026-04-19T10:42:52.523Z</time></trkpt><trkpt lat="43.4970923" lon="11.9760108"><ele>731.0</ele><time>2026-04-19T10:42:55.54Z</time></trkpt><trkpt lat="43.4970582" lon="11.9760846"><ele>732.4285714285714</ele><time>2026-04-19T10:42:58.541Z</time></trkpt><trkpt lat="43.4970213" lon="11.976179"><ele>733.8571428571429</ele><time>2026-04-19T10:43:02.512Z</time></trkpt><trkpt lat="43.4970004" lon="11.9762752"><ele>735.2857142857142</ele><time>2026-04-19T10:43:05.526Z</time></trkpt><trkpt lat="43.4969862" lon="11.9763898"><ele>736.7142857142858</ele><time>2026-04-19T10:43:09.523Z</time></trkpt><trkpt lat="43.4969856" lon="11.9764782"><ele>738.1428571428572</ele><time>2026-04-19T10:43:12.532Z</time></trkpt><trkpt lat="43.4969939" lon="11.9765658"><ele>739.5714285714286</ele><time>2026-04-19T10:43:15.514Z</time></trkpt><trkpt lat="43.4970051" lon="11.9766549"><ele>741.0</ele><time>2026-04-19T10:43:18.525Z</time></trkpt><trkpt lat="43.4970273" lon="11.9767364"><ele>741.0</ele><time>2026-04-19T10:43:21.532Z</time></trkpt><trkpt lat="43.4970591" lon="11.9768435"><ele>741.0</ele><time>2026-04-19T10:43:25.521Z</time></trkpt><trkpt lat="43.4970864" lon="11.9769575"><ele>741.0</ele><time>2026-04-19T10:43:29.521Z</time></trkpt><trkpt lat="43.4971034" lon="11.9770499"><ele>741.0</ele><time>2026-04-19T10:43:32.528Z</time></trkpt><trkpt lat="43.4971217" lon="11.9771338"><ele>741.0</ele><time>2026-04-19T10:43:35.531Z</time></trkpt><trkpt lat="43.4971662" lon="11.9772236"><ele>741.0</ele><time>2026-04-19T10:43:39.515Z</time></trkpt><trkpt lat="43.497219" lon="11.9773116"><ele>741.1428571428571</ele><time>2026-04-19T10:43:43.526Z</time></trkpt><trkpt lat="43.4972779" lon="11.977395"><ele>741.2857142857143</ele><time>2026-04-19T10:43:47.524Z</time></trkpt><trkpt lat="43.4973187" lon="11.9774667"><ele>741.4285714285714</ele><time>2026-04-19T10:43:50.526Z</time></trkpt><trkpt lat="43.4973597" lon="11.977534"><ele>741.5714285714286</ele><time>2026-04-19T10:43:53.52Z</time></trkpt><trkpt lat="43.4974175" lon="11.9776122"><ele>741.7142857142858</ele><time>2026-04-19T10:43:57.536Z</time></trkpt><trkpt lat="43.4974563" lon="11.9777049"><ele>741.8571428571429</ele><time>2026-04-19T10:46:52.482Z</time></trkpt><trkpt lat="43.4974468" lon="11.9778014"><ele>742.0</ele><time>2026-04-19T10:46:55.524Z</time></trkpt><trkpt lat="43.4974043" lon="11.9779033"><ele>742.0</ele><time>2026-04-19T10:46:57.543Z</time></trkpt><trkpt lat="43.4973412" lon="11.9780095"><ele>742.0</ele><time>2026-04-19T10:46:59.525Z</time></trkpt><trkpt lat="43.4972536" lon="11.9780884"><ele>742.0</ele><time>2026-04-19T10:47:01.553Z</time></trkpt><trkpt lat="43.4971408" lon="11.9781332"><ele>742.0</ele><time>2026-04-19T10:47:03.538Z</time></trkpt><trkpt lat="43.4970777" lon="11.9781475"><ele>742.0</ele><time>2026-04-19T10:47:04.533Z</time></trkpt><trkpt lat="43.4969572" lon="11.9781788"><ele>741.2</ele><time>2026-04-19T10:47:06.549Z</time></trkpt><trkpt lat="43.4968287" lon="11.9782009"><ele>740.4000000000001</ele><time>2026-04-19T10:47:08.539Z</time></trkpt><trkpt lat="43.4967186" lon="11.9782574"><ele>739.5999999999999</ele><time>2026-04-19T10:47:10.533Z</time></trkpt><trkpt lat="43.4966799" lon="11.9783334"><ele>738.8</ele><time>2026-04-19T10:47:11.535Z</time></trkpt><trkpt lat="43.4966594" lon="11.9784311"><ele>738.0</ele><time>2026-04-19T10:47:12.544Z</time></trkpt><trkpt lat="43.4966619" lon="11.9785335"><ele>737.1666666666666</ele><time>2026-04-19T10:47:13.536Z</time></trkpt><trkpt lat="43.4966785" lon="11.9786395"><ele>736.3333333333334</ele><time>2026-04-19T10:47:14.532Z</time></trkpt><trkpt lat="43.4967015" lon="11.9787449"><ele>735.5</ele><time>2026-04-19T10:47:15.531Z</time></trkpt><trkpt lat="43.4967295" lon="11.9788498"><ele>734.6666666666667</ele><time>2026-04-19T10:47:16.524Z</time></trkpt><trkpt lat="43.4967499" lon="11.9789592"><ele>733.8333333333334</ele><time>2026-04-19T10:47:17.54Z</time></trkpt><trkpt lat="43.4967588" lon="11.9790701"><ele>733.0</ele><time>2026-04-19T10:47:18.519Z</time></trkpt><trkpt lat="43.4967575" lon="11.9791843"><ele>732.3333333333334</ele><time>2026-04-19T10:47:19.525Z</time></trkpt><trkpt lat="43.4967518" lon="11.9792972"><ele>731.6666666666667</ele><time>2026-04-19T10:47:20.525Z</time></trkpt><trkpt lat="43.4967512" lon="11.979407"><ele>731.0</ele><time>2026-04-19T10:47:21.527Z</time></trkpt><trkpt lat="43.4967584" lon="11.9795118"><ele>730.3333333333334</ele><time>2026-04-19T10:47:22.518Z</time></trkpt><trkpt lat="43.4967805" lon="11.9796101"><ele>729.6666666666666</ele><time>2026-04-19T10:47:23.525Z</time></trkpt><trkpt lat="43.496814" lon="11.9797018"><ele>729.0</ele><time>2026-04-19T10:47:24.527Z</time></trkpt><trkpt lat="43.4968376" lon="11.9797973"><ele>729.0</ele><time>2026-04-19T10:47:25.529Z</time></trkpt><trkpt lat="43.4968402" lon="11.9798951"><ele>729.0</ele><time>2026-04-19T10:47:26.523Z</time></trkpt><trkpt lat="43.4968257" lon="11.9799989"><ele>729.0</ele><time>2026-04-19T10:47:27.536Z</time></trkpt><trkpt lat="43.4968048" lon="11.980107"><ele>729.0</ele><time>2026-04-19T10:47:28.53Z</time></trkpt><trkpt lat="43.4967937" lon="11.980218"><ele>729.0</ele><time>2026-04-19T10:47:29.523Z</time></trkpt><trkpt lat="43.4967837" lon="11.9803281"><ele>729.0</ele><time>2026-04-19T10:47:30.532Z</time></trkpt><trkpt lat="43.4967739" lon="11.9804368"><ele>729.3333333333334</ele><time>2026-04-19T10:47:31.53Z</time></trkpt><trkpt lat="43.4967453" lon="11.9805332"><ele>729.6666666666666</ele><time>2026-04-19T10:47:32.515Z</time></trkpt><trkpt lat="43.496713" lon="11.9806202"><ele>730.0</ele><time>2026-04-19T10:47:33.523Z</time></trkpt><trkpt lat="43.4966837" lon="11.980703"><ele>730.3333333333333</ele><time>2026-04-19T10:47:34.53Z</time></trkpt><trkpt lat="43.4966465" lon="11.9808502"><ele>730.6666666666666</ele><time>2026-04-19T10:47:36.519Z</time></trkpt><trkpt lat="43.4966664" lon="11.9809602"><ele>731.0</ele><time>2026-04-19T10:47:38.529Z</time></trkpt><trkpt lat="43.4967023" lon="11.9810489"><ele>732.6666666666666</ele><time>2026-04-19T10:47:41.538Z</time></trkpt><trkpt lat="43.4967547" lon="11.981134"><ele>734.3333333333333</ele><time>2026-04-19T10:47:45.528Z</time></trkpt><trkpt lat="43.4968115" lon="11.9812018"><ele>736.0</ele><time>2026-04-19T10:47:48.539Z</time></trkpt><trkpt lat="43.4968561" lon="11.9812924"><ele>737.6666666666666</ele><time>2026-04-19T10:47:52.519Z</time></trkpt><trkpt lat="43.4968951" lon="11.9813972"><ele>739.3333333333334</ele><time>2026-04-19T10:47:56.528Z</time></trkpt><trkpt lat="43.4969135" lon="11.9814802"><ele>741.0</ele><time>2026-04-19T10:47:59.522Z</time></trkpt><trkpt lat="43.4969203" lon="11.9815865"><ele>741.0</ele><time>2026-04-19T10:48:03.53Z</time></trkpt><trkpt lat="43.4968495" lon="11.9815371"><ele>741.0</ele><time>2026-04-19T10:48:12.52Z</time></trkpt><trkpt lat="43.4967874" lon="11.9814856"><ele>741.0</ele><time>2026-04-19T10:48:16.523Z</time></trkpt><trkpt lat="43.4967154" lon="11.9814826"><ele>741.0</ele><time>2026-04-19T10:48:20.552Z</time></trkpt><trkpt lat="43.4966386" lon="11.9814448"><ele>741.0</ele><time>2026-04-19T10:48:24.541Z</time></trkpt><trkpt lat="43.4965651" lon="11.9813892"><ele>741.0</ele><time>2026-04-19T10:48:28.536Z</time></trkpt><trkpt lat="43.4964844" lon="11.9813644"><ele>741.0</ele><time>2026-04-19T10:48:32.523Z</time></trkpt><trkpt lat="43.4964181" lon="11.981357"><ele>741.0</ele><time>2026-04-19T10:48:35.538Z</time></trkpt><trkpt lat="43.4963527" lon="11.9813457"><ele>741.0</ele><time>2026-04-19T10:48:38.537Z</time></trkpt><trkpt lat="43.4962916" lon="11.9813244"><ele>741.0</ele><time>2026-04-19T10:48:41.525Z</time></trkpt><trkpt lat="43.4962252" lon="11.9812933"><ele>741.0</ele><time>2026-04-19T10:48:44.526Z</time></trkpt><trkpt lat="43.4961456" lon="11.9812686"><ele>741.0</ele><time>2026-04-19T10:48:48.519Z</time></trkpt><trkpt lat="43.4960746" lon="11.9812634"><ele>741.0</ele><time>2026-04-19T10:48:51.525Z</time></trkpt><trkpt lat="43.4959909" lon="11.9812592"><ele>742.5714285714286</ele><time>2026-04-19T10:48:55.523Z</time></trkpt><trkpt lat="43.4959223" lon="11.9812785"><ele>744.1428571428572</ele><time>2026-04-19T10:48:58.52Z</time></trkpt><trkpt lat="43.495848" lon="11.9813255"><ele>745.7142857142858</ele><time>2026-04-19T10:49:02.539Z</time></trkpt><trkpt lat="43.4957835" lon="11.9813603"><ele>747.2857142857142</ele><time>2026-04-19T10:49:06.53Z</time></trkpt><trkpt lat="43.4957206" lon="11.9814079"><ele>748.8571428571429</ele><time>2026-04-19T10:49:10.52Z</time></trkpt><trkpt lat="43.4956702" lon="11.9814632"><ele>750.4285714285714</ele><time>2026-04-19T10:49:14.525Z</time></trkpt><trkpt lat="43.4956102" lon="11.9815111"><ele>752.0</ele><time>2026-04-19T10:49:19.527Z</time></trkpt><trkpt lat="43.4955533" lon="11.9815593"><ele>752.0</ele><time>2026-04-19T10:49:24.523Z</time></trkpt><trkpt lat="43.4955061" lon="11.9816373"><ele>752.0</ele><time>2026-04-19T10:49:29.522Z</time></trkpt><trkpt lat="43.4954563" lon="11.9817017"><ele>752.0</ele><time>2026-04-19T10:49:34.532Z</time></trkpt><trkpt lat="43.4954058" lon="11.9817558"><ele>752.0</ele><time>2026-04-19T10:49:39.548Z</time></trkpt><trkpt lat="43.4953695" lon="11.9818359"><ele>752.0</ele><time>2026-04-19T10:49:44.55Z</time></trkpt><trkpt lat="43.4953368" lon="11.981922"><ele>752.0</ele><time>2026-04-19T10:49:48.537Z</time></trkpt><trkpt lat="43.4953235" lon="11.9820182"><ele>752.0</ele><time>2026-04-19T10:49:53.557Z</time></trkpt><trkpt lat="43.4953206" lon="11.982116"><ele>752.7142857142857</ele><time>2026-04-19T10:49:58.548Z</time></trkpt><trkpt lat="43.4953239" lon="11.9822161"><ele>753.4285714285713</ele><time>2026-04-19T10:50:03.55Z</time></trkpt><trkpt lat="43.4953478" lon="11.9823167"><ele>754.1428571428571</ele><time>2026-04-19T10:50:08.526Z</time></trkpt><trkpt lat="43.495384" lon="11.982417"><ele>754.8571428571429</ele><time>2026-04-19T10:50:13.533Z</time></trkpt><trkpt lat="43.4954003" lon="11.9825089"><ele>755.5714285714286</ele><time>2026-04-19T10:50:16.525Z</time></trkpt><trkpt lat="43.495406" lon="11.9826123"><ele>756.2857142857143</ele><time>2026-04-19T10:50:20.545Z</time></trkpt><trkpt lat="43.4954081" lon="11.9827024"><ele>757.0</ele><time>2026-04-19T10:50:25.538Z</time></trkpt><trkpt lat="43.4954038" lon="11.982811"><ele>758.7142857142858</ele><time>2026-04-19T10:50:29.534Z</time></trkpt><trkpt lat="43.4953869" lon="11.9828964"><ele>760.4285714285713</ele><time>2026-04-19T10:50:32.541Z</time></trkpt><trkpt lat="43.4953893" lon="11.9829951"><ele>762.1428571428571</ele><time>2026-04-19T10:50:36.519Z</time></trkpt><trkpt lat="43.4953831" lon="11.9831003"><ele>763.8571428571429</ele><time>2026-04-19T10:50:41.538Z</time></trkpt><trkpt lat="43.4953842" lon="11.9832026"><ele>765.5714285714287</ele><time>2026-04-19T10:50:45.545Z</time></trkpt><trkpt lat="43.4953776" lon="11.9832925"><ele>767.2857142857142</ele><time>2026-04-19T10:50:48.548Z</time></trkpt><trkpt lat="43.4953934" lon="11.9833783"><ele>769.0</ele><time>2026-04-19T10:50:52.547Z</time></trkpt><trkpt lat="43.4954265" lon="11.983463"><ele>770.0</ele><time>2026-04-19T10:50:56.534Z</time></trkpt><trkpt lat="43.4954357" lon="11.9835676"><ele>771.0</ele><time>2026-04-19T10:51:00.538Z</time></trkpt><trkpt lat="43.495432" lon="11.9836726"><ele>772.0</ele><time>2026-04-19T10:51:04.53Z</time></trkpt><trkpt lat="43.4953933" lon="11.9837586"><ele>773.0</ele><time>2026-04-19T10:51:08.544Z</time></trkpt><trkpt lat="43.4953511" lon="11.9838423"><ele>774.0</ele><time>2026-04-19T10:51:12.533Z</time></trkpt><trkpt lat="43.4952989" lon="11.9839134"><ele>775.0</ele><time>2026-04-19T10:51:16.542Z</time></trkpt><trkpt lat="43.4952532" lon="11.9839834"><ele>776.0</ele><time>2026-04-19T10:51:20.523Z</time></trkpt><trkpt lat="43.4951941" lon="11.9840557"><ele>776.2857142857142</ele><time>2026-04-19T10:51:23.547Z</time></trkpt><trkpt lat="43.4951296" lon="11.9841346"><ele>776.5714285714287</ele><time>2026-04-19T10:51:27.553Z</time></trkpt><trkpt lat="43.4950834" lon="11.9841989"><ele>776.8571428571429</ele><time>2026-04-19T10:51:30.536Z</time></trkpt><trkpt lat="43.4950305" lon="11.984259"><ele>777.1428571428571</ele><time>2026-04-19T10:51:33.548Z</time></trkpt><trkpt lat="43.4949818" lon="11.984322"><ele>777.4285714285713</ele><time>2026-04-19T10:51:36.536Z</time></trkpt><trkpt lat="43.4949304" lon="11.9843818"><ele>777.7142857142858</ele><time>2026-04-19T10:51:39.537Z</time></trkpt><trkpt lat="43.4948764" lon="11.9844386"><ele>778.0</ele><time>2026-04-19T10:51:43.531Z</time></trkpt><trkpt lat="43.4948175" lon="11.9845203"><ele>778.5714285714286</ele><time>2026-04-19T10:51:48.523Z</time></trkpt><trkpt lat="43.4947769" lon="11.9845899"><ele>779.1428571428571</ele><time>2026-04-19T10:51:51.52Z</time></trkpt><trkpt lat="43.494734" lon="11.9846658"><ele>779.7142857142857</ele><time>2026-04-19T10:51:54.541Z</time></trkpt><trkpt lat="43.4946894" lon="11.9847588"><ele>780.2857142857142</ele><time>2026-04-19T10:51:58.525Z</time></trkpt><trkpt lat="43.4946725" lon="11.9848492"><ele>780.8571428571429</ele><time>2026-04-19T10:52:03.531Z</time></trkpt><trkpt lat="43.4946646" lon="11.9849417"><ele>781.4285714285713</ele><time>2026-04-19T10:52:07.547Z</time></trkpt><trkpt lat="43.4946319" lon="11.9850375"><ele>782.0</ele><time>2026-04-19T10:52:11.516Z</time></trkpt><trkpt lat="43.494613" lon="11.9851257"><ele>783.1428571428571</ele><time>2026-04-19T10:52:14.539Z</time></trkpt><trkpt lat="43.4946147" lon="11.9852242"><ele>784.2857142857142</ele><time>2026-04-19T10:52:18.519Z</time></trkpt><trkpt lat="43.4946075" lon="11.9853274"><ele>785.4285714285713</ele><time>2026-04-19T10:52:23.524Z</time></trkpt><trkpt lat="43.4946022" lon="11.985417"><ele>786.5714285714286</ele><time>2026-04-19T10:52:26.528Z</time></trkpt><trkpt lat="43.4945894" lon="11.9855252"><ele>787.7142857142858</ele><time>2026-04-19T10:52:30.531Z</time></trkpt><trkpt lat="43.494555" lon="11.9856155"><ele>788.8571428571428</ele><time>2026-04-19T10:52:34.529Z</time></trkpt><trkpt lat="43.494529" lon="11.9857065"><ele>790.0</ele><time>2026-04-19T10:52:38.534Z</time></trkpt><trkpt lat="43.4944946" lon="11.9857833"><ele>794.1428571428571</ele><time>2026-04-19T10:52:42.535Z</time></trkpt><trkpt lat="43.4944636" lon="11.9858599"><ele>798.2857142857143</ele><time>2026-04-19T10:52:46.553Z</time></trkpt><trkpt lat="43.4944507" lon="11.9859587"><ele>802.4285714285714</ele><time>2026-04-19T10:52:50.538Z</time></trkpt><trkpt lat="43.4944652" lon="11.9860542"><ele>806.5714285714286</ele><time>2026-04-19T10:52:54.529Z</time></trkpt><trkpt lat="43.4944721" lon="11.9861631"><ele>810.7142857142858</ele><time>2026-04-19T10:52:58.548Z</time></trkpt><trkpt lat="43.4944826" lon="11.9862579"><ele>814.8571428571429</ele><time>2026-04-19T10:53:01.544Z</time></trkpt><trkpt lat="43.4944742" lon="11.9863442"><ele>819.0</ele><time>2026-04-19T10:53:04.535Z</time></trkpt><trkpt lat="43.4944746" lon="11.9864509"><ele>819.0</ele><time>2026-04-19T10:53:09.522Z</time></trkpt><trkpt lat="43.4944756" lon="11.9865534"><ele>819.0</ele><time>2026-04-19T10:53:13.524Z</time></trkpt><trkpt lat="43.4944577" lon="11.9866534"><ele>819.0</ele><time>2026-04-19T10:53:16.52Z</time></trkpt><trkpt lat="43.4944368" lon="11.9867395"><ele>819.0</ele><time>2026-04-19T10:53:19.529Z</time></trkpt><trkpt lat="43.4944061" lon="11.9868512"><ele>819.0</ele><time>2026-04-19T10:53:23.524Z</time></trkpt><trkpt lat="43.4943797" lon="11.986975"><ele>819.0</ele><time>2026-04-19T10:53:27.527Z</time></trkpt><trkpt lat="43.4943537" lon="11.9870731"><ele>818.3333333333334</ele><time>2026-04-19T10:53:30.535Z</time></trkpt><trkpt lat="43.4943312" lon="11.9871585"><ele>817.6666666666667</ele><time>2026-04-19T10:53:33.537Z</time></trkpt><trkpt lat="43.4942949" lon="11.9872527"><ele>817.0</ele><time>2026-04-19T10:53:36.521Z</time></trkpt><trkpt lat="43.494258" lon="11.9873411"><ele>816.3333333333334</ele><time>2026-04-19T10:53:39.525Z</time></trkpt><trkpt lat="43.4941863" lon="11.9874015"><ele>815.6666666666667</ele><time>2026-04-19T10:53:42.532Z</time></trkpt><trkpt lat="43.4940973" lon="11.9874301"><ele>815.0</ele><time>2026-04-19T10:53:45.525Z</time></trkpt><trkpt lat="43.4940163" lon="11.9874388"><ele>815.0</ele><time>2026-04-19T10:53:47.54Z</time></trkpt><trkpt lat="43.4939447" lon="11.9874539"><ele>815.0</ele><time>2026-04-19T10:53:49.53Z</time></trkpt><trkpt lat="43.4938731" lon="11.9874595"><ele>815.0</ele><time>2026-04-19T10:53:51.55Z</time></trkpt><trkpt lat="43.4938019" lon="11.9874748"><ele>815.0</ele><time>2026-04-19T10:53:53.544Z</time></trkpt><trkpt lat="43.4937305" lon="11.9874992"><ele>815.0</ele><time>2026-04-19T10:53:55.539Z</time></trkpt><trkpt lat="43.4936672" lon="11.9875096"><ele>815.0</ele><time>2026-04-19T10:53:57.55Z</time></trkpt><trkpt lat="43.4935932" lon="11.9875263"><ele>815.0</ele><time>2026-04-19T10:54:00.546Z</time></trkpt><trkpt lat="43.4935074" lon="11.9875492"><ele>816.8333333333334</ele><time>2026-04-19T10:54:03.529Z</time></trkpt><trkpt lat="43.4934263" lon="11.9875883"><ele>818.6666666666667</ele><time>2026-04-19T10:54:06.535Z</time></trkpt><trkpt lat="43.4933473" lon="11.9876213"><ele>820.5</ele><time>2026-04-19T10:54:09.533Z</time></trkpt><trkpt lat="43.4932753" lon="11.9876536"><ele>822.3333333333333</ele><time>2026-04-19T10:54:12.514Z</time></trkpt><trkpt lat="43.4931978" lon="11.9876817"><ele>824.1666666666666</ele><time>2026-04-19T10:54:16.525Z</time></trkpt><trkpt lat="43.4931235" lon="11.9876914"><ele>826.0</ele><time>2026-04-19T10:54:20.522Z</time></trkpt><trkpt lat="43.4930459" lon="11.9876862"><ele>825.9999999999999</ele><time>2026-04-19T10:54:24.54Z</time></trkpt><trkpt lat="43.4929617" lon="11.9876645"><ele>826.0</ele><time>2026-04-19T10:54:28.539Z</time></trkpt><trkpt lat="43.4928966" lon="11.9876575"><ele>826.0</ele><time>2026-04-19T10:54:31.546Z</time></trkpt><trkpt lat="43.4928125" lon="11.9876628"><ele>826.0</ele><time>2026-04-19T10:54:34.54Z</time></trkpt><trkpt lat="43.4927194" lon="11.987669"><ele>825.9999999999999</ele><time>2026-04-19T10:54:37.523Z</time></trkpt><trkpt lat="43.4926396" lon="11.9877"><ele>826.0</ele><time>2026-04-19T10:54:40.545Z</time></trkpt><trkpt lat="43.4925602" lon="11.9877548"><ele>825.1999999999999</ele><time>2026-04-19T10:54:43.528Z</time></trkpt><trkpt lat="43.4924905" lon="11.9878442"><ele>824.4</ele><time>2026-04-19T10:54:46.524Z</time></trkpt><trkpt lat="43.4924742" lon="11.9879391"><ele>823.6</ele><time>2026-04-19T10:54:48.529Z</time></trkpt><trkpt lat="43.4924872" lon="11.9880695"><ele>822.8</ele><time>2026-04-19T10:54:50.549Z</time></trkpt><trkpt lat="43.4924881" lon="11.9882014"><ele>822.0</ele><time>2026-04-19T10:54:52.539Z</time></trkpt><trkpt lat="43.4924555" lon="11.9883255"><ele>824.3333333333334</ele><time>2026-04-19T10:54:54.523Z</time></trkpt><trkpt lat="43.4924232" lon="11.9884543"><ele>826.6666666666667</ele><time>2026-04-19T10:54:57.529Z</time></trkpt><trkpt lat="43.4924013" lon="11.9885593"><ele>829.0</ele><time>2026-04-19T10:54:59.521Z</time></trkpt><trkpt lat="43.4923755" lon="11.988673"><ele>831.3333333333334</ele><time>2026-04-19T10:55:01.525Z</time></trkpt><trkpt lat="43.4923367" lon="11.9887618"><ele>833.6666666666667</ele><time>2026-04-19T10:55:03.525Z</time></trkpt><trkpt lat="43.4922817" lon="11.9888695"><ele>836.0</ele><time>2026-04-19T10:55:06.523Z</time></trkpt><trkpt lat="43.492234" lon="11.9889488"><ele>836.0000000000001</ele><time>2026-04-19T10:55:08.528Z</time></trkpt><trkpt lat="43.4921953" lon="11.9890271"><ele>836.0</ele><time>2026-04-19T10:55:10.525Z</time></trkpt><trkpt lat="43.4921336" lon="11.9891022"><ele>836.0</ele><time>2026-04-19T10:55:14.527Z</time></trkpt><trkpt lat="43.4920592" lon="11.9891501"><ele>836.0</ele><time>2026-04-19T10:55:17.524Z</time></trkpt><trkpt lat="43.4919768" lon="11.9892012"><ele>836.0000000000001</ele><time>2026-04-19T10:55:20.533Z</time></trkpt><trkpt lat="43.4919148" lon="11.9892305"><ele>836.0</ele><time>2026-04-19T10:55:22.51Z</time></trkpt><trkpt lat="43.4918348" lon="11.9892892"><ele>835.3333333333334</ele><time>2026-04-19T10:55:25.522Z</time></trkpt><trkpt lat="43.4917686" lon="11.9893643"><ele>834.6666666666667</ele><time>2026-04-19T10:55:28.518Z</time></trkpt><trkpt lat="43.4917068" lon="11.9894185"><ele>834.0</ele><time>2026-04-19T10:55:31.529Z</time></trkpt><trkpt lat="43.4916419" lon="11.9894455"><ele>833.3333333333333</ele><time>2026-04-19T10:55:34.525Z</time></trkpt><trkpt lat="43.4915789" lon="11.9894922"><ele>832.6666666666666</ele><time>2026-04-19T10:55:38.538Z</time></trkpt><trkpt lat="43.4915007" lon="11.9895091"><ele>832.0</ele><time>2026-04-19T10:55:42.543Z</time></trkpt><trkpt lat="43.4914157" lon="11.9895067"><ele>831.9999999999999</ele><time>2026-04-19T10:55:45.528Z</time></trkpt><trkpt lat="43.4913374" lon="11.9894922"><ele>832.0</ele><time>2026-04-19T10:55:48.544Z</time></trkpt><trkpt lat="43.4912707" lon="11.9894782"><ele>832.0</ele><time>2026-04-19T10:55:51.549Z</time></trkpt><trkpt lat="43.4911953" lon="11.9894689"><ele>832.0</ele><time>2026-04-19T10:55:54.538Z</time></trkpt><trkpt lat="43.491115" lon="11.9894674"><ele>831.9999999999999</ele><time>2026-04-19T10:55:57.526Z</time></trkpt><trkpt lat="43.491049" lon="11.9894694"><ele>832.0</ele><time>2026-04-19T10:56:00.549Z</time></trkpt><trkpt lat="43.4909464" lon="11.9894937"><ele>831.4999999999999</ele><time>2026-04-19T10:56:03.55Z</time></trkpt><trkpt lat="43.4908512" lon="11.9895178"><ele>831.0</ele><time>2026-04-19T10:56:05.534Z</time></trkpt><trkpt lat="43.4907777" lon="11.989545"><ele>830.5</ele><time>2026-04-19T10:56:07.541Z</time></trkpt><trkpt lat="43.4907038" lon="11.9895673"><ele>830.0</ele><time>2026-04-19T10:56:09.547Z</time></trkpt><trkpt lat="43.4906245" lon="11.9895916"><ele>829.4999999999999</ele><time>2026-04-19T10:56:11.547Z</time></trkpt><trkpt lat="43.4907085" lon="11.9895779"><ele>829.0</ele><time>2026-04-19T10:58:05.544Z</time></trkpt><trkpt lat="43.4908069" lon="11.9895527"><ele>828.9999999999999</ele><time>2026-04-19T10:58:08.545Z</time></trkpt><trkpt lat="43.4908851" lon="11.9895287"><ele>829.0</ele><time>2026-04-19T10:58:10.563Z</time></trkpt><trkpt lat="43.4909861" lon="11.9895151"><ele>829.0</ele><time>2026-04-19T10:58:12.555Z</time></trkpt><trkpt lat="43.4910533" lon="11.9895009"><ele>829.0</ele><time>2026-04-19T10:58:14.546Z</time></trkpt><trkpt lat="43.4911364" lon="11.9894876"><ele>828.9999999999999</ele><time>2026-04-19T10:58:16.55Z</time></trkpt><trkpt lat="43.4912266" lon="11.9894926"><ele>829.0</ele><time>2026-04-19T10:58:18.526Z</time></trkpt><trkpt lat="43.4913104" lon="11.9895037"><ele>829.4999999999999</ele><time>2026-04-19T10:58:20.554Z</time></trkpt><trkpt lat="43.4913963" lon="11.9895171"><ele>830.0</ele><time>2026-04-19T10:58:22.533Z</time></trkpt><trkpt lat="43.4914718" lon="11.9895109"><ele>830.5</ele><time>2026-04-19T10:58:24.545Z</time></trkpt><trkpt lat="43.4915523" lon="11.9894948"><ele>831.0</ele><time>2026-04-19T10:58:27.546Z</time></trkpt><trkpt lat="43.4916144" lon="11.9895272"><ele>831.4999999999999</ele><time>2026-04-19T10:58:31.533Z</time></trkpt><trkpt lat="43.4916116" lon="11.9896335"><ele>832.0</ele><time>2026-04-19T10:58:35.548Z</time></trkpt><trkpt lat="43.4916299" lon="11.9897174"><ele>832.0</ele><time>2026-04-19T10:58:38.561Z</time></trkpt><trkpt lat="43.4916623" lon="11.9897974"><ele>832.0</ele><time>2026-04-19T10:58:41.546Z</time></trkpt><trkpt lat="43.4917007" lon="11.9898853"><ele>832.0</ele><time>2026-04-19T10:58:44.558Z</time></trkpt><trkpt lat="43.4917151" lon="11.9899792"><ele>832.0</ele><time>2026-04-19T10:58:47.535Z</time></trkpt><trkpt lat="43.4917161" lon="11.9900777"><ele>832.0</ele><time>2026-04-19T10:58:50.537Z</time></trkpt><trkpt lat="43.4917137" lon="11.9901844"><ele>832.0</ele><time>2026-04-19T10:58:53.517Z</time></trkpt><trkpt lat="43.4916817" lon="11.990267"><ele>832.0</ele><time>2026-04-19T10:58:55.554Z</time></trkpt><trkpt lat="43.4916303" lon="11.9903432"><ele>831.7142857142857</ele><time>2026-04-19T10:58:57.537Z</time></trkpt><trkpt lat="43.4915619" lon="11.9904139"><ele>831.4285714285714</ele><time>2026-04-19T10:58:59.544Z</time></trkpt><trkpt lat="43.4914926" lon="11.9904697"><ele>831.1428571428571</ele><time>2026-04-19T10:59:01.538Z</time></trkpt><trkpt lat="43.4914345" lon="11.9905186"><ele>830.8571428571429</ele><time>2026-04-19T10:59:03.54Z</time></trkpt><trkpt lat="43.4913737" lon="11.9905574"><ele>830.5714285714287</ele><time>2026-04-19T10:59:07.541Z</time></trkpt><trkpt lat="43.4913183" lon="11.9906022"><ele>830.2857142857143</ele><time>2026-04-19T10:59:15.542Z</time></trkpt><trkpt lat="43.4912511" lon="11.9906373"><ele>830.0</ele><time>2026-04-19T10:59:18.534Z</time></trkpt><trkpt lat="43.4911765" lon="11.9906828"><ele>830.0000000000001</ele><time>2026-04-19T10:59:21.543Z</time></trkpt><trkpt lat="43.4911104" lon="11.9907288"><ele>830.0</ele><time>2026-04-19T10:59:23.546Z</time></trkpt><trkpt lat="43.4910513" lon="11.9907863"><ele>830.0</ele><time>2026-04-19T10:59:25.535Z</time></trkpt><trkpt lat="43.4909974" lon="11.9908479"><ele>830.0</ele><time>2026-04-19T10:59:27.539Z</time></trkpt><trkpt lat="43.4909478" lon="11.9909163"><ele>830.0000000000001</ele><time>2026-04-19T10:59:29.527Z</time></trkpt><trkpt lat="43.490894" lon="11.9910025"><ele>830.0</ele><time>2026-04-19T10:59:32.544Z</time></trkpt><trkpt lat="43.4908298" lon="11.9910896"><ele>828.8571428571429</ele><time>2026-04-19T10:59:36.538Z</time></trkpt><trkpt lat="43.4907646" lon="11.9911467"><ele>827.7142857142858</ele><time>2026-04-19T10:59:39.541Z</time></trkpt><trkpt lat="43.4907005" lon="11.9912009"><ele>826.5714285714286</ele><time>2026-04-19T10:59:42.546Z</time></trkpt><trkpt lat="43.4906476" lon="11.9912509"><ele>825.4285714285714</ele><time>2026-04-19T10:59:44.522Z</time></trkpt><trkpt lat="43.4905758" lon="11.9913098"><ele>824.2857142857142</ele><time>2026-04-19T10:59:47.526Z</time></trkpt><trkpt lat="43.4905063" lon="11.991337"><ele>823.1428571428571</ele><time>2026-04-19T10:59:50.531Z</time></trkpt><trkpt lat="43.4904355" lon="11.9913705"><ele>822.0</ele><time>2026-04-19T10:59:53.545Z</time></trkpt><trkpt lat="43.4903729" lon="11.9913939"><ele>824.7142857142857</ele><time>2026-04-19T10:59:56.538Z</time></trkpt><trkpt lat="43.4903059" lon="11.9913994"><ele>827.4285714285713</ele><time>2026-04-19T10:59:59.518Z</time></trkpt><trkpt lat="43.4902427" lon="11.9913959"><ele>830.1428571428571</ele><time>2026-04-19T11:00:02.533Z</time></trkpt><trkpt lat="43.4901773" lon="11.9914121"><ele>832.8571428571429</ele><time>2026-04-19T11:00:05.527Z</time></trkpt><trkpt lat="43.4901106" lon="11.991404"><ele>835.5714285714286</ele><time>2026-04-19T11:00:08.539Z</time></trkpt><trkpt lat="43.4900472" lon="11.9914052"><ele>838.2857142857143</ele><time>2026-04-19T11:00:11.555Z</time></trkpt><trkpt lat="43.4899683" lon="11.9914128"><ele>841.0</ele><time>2026-04-19T11:00:15.536Z</time></trkpt><trkpt lat="43.4899008" lon="11.9914213"><ele>841.0</ele><time>2026-04-19T11:00:18.542Z</time></trkpt><trkpt lat="43.4898308" lon="11.9914391"><ele>841.0</ele><time>2026-04-19T11:00:21.541Z</time></trkpt><trkpt lat="43.4897671" lon="11.9914551"><ele>841.0</ele><time>2026-04-19T11:00:24.526Z</time></trkpt><trkpt lat="43.4897039" lon="11.9914788"><ele>841.0</ele><time>2026-04-19T11:00:27.542Z</time></trkpt><trkpt lat="43.4896265" lon="11.991502"><ele>841.0</ele><time>2026-04-19T11:00:32.534Z</time></trkpt><trkpt lat="43.4895639" lon="11.9915233"><ele>841.0</ele><time>2026-04-19T11:00:35.541Z</time></trkpt><trkpt lat="43.4895001" lon="11.9915639"><ele>841.0</ele><time>2026-04-19T11:00:38.52Z</time></trkpt><trkpt lat="43.4894349" lon="11.9915948"><ele>843.2857142857143</ele><time>2026-04-19T11:00:41.528Z</time></trkpt><trkpt lat="43.4893728" lon="11.9916176"><ele>845.5714285714286</ele><time>2026-04-19T11:00:44.54Z</time></trkpt><trkpt lat="43.4893099" lon="11.9916494"><ele>847.8571428571429</ele><time>2026-04-19T11:00:47.534Z</time></trkpt><trkpt lat="43.4892425" lon="11.991662"><ele>850.1428571428571</ele><time>2026-04-19T11:00:50.547Z</time></trkpt><trkpt lat="43.4891708" lon="11.9916641"><ele>852.4285714285713</ele><time>2026-04-19T11:00:53.542Z</time></trkpt><trkpt lat="43.4891109" lon="11.9916302"><ele>854.7142857142857</ele><time>2026-04-19T11:00:56.534Z</time></trkpt><trkpt lat="43.4890501" lon="11.9915741"><ele>857.0</ele><time>2026-04-19T11:01:00.527Z</time></trkpt><trkpt lat="43.4889928" lon="11.9914987"><ele>857.0000000000001</ele><time>2026-04-19T11:01:02.525Z</time></trkpt><trkpt lat="43.4889114" lon="11.9914127"><ele>857.0</ele><time>2026-04-19T11:01:04.544Z</time></trkpt><trkpt lat="43.4888336" lon="11.9913353"><ele>857.0</ele><time>2026-04-19T11:01:06.525Z</time></trkpt><trkpt lat="43.4887662" lon="11.9912581"><ele>857.0</ele><time>2026-04-19T11:01:08.537Z</time></trkpt><trkpt lat="43.4887097" lon="11.991189"><ele>857.0000000000001</ele><time>2026-04-19T11:01:10.519Z</time></trkpt><trkpt lat="43.4886612" lon="11.9911214"><ele>857.0</ele><time>2026-04-19T11:01:12.517Z</time></trkpt><trkpt lat="43.4886148" lon="11.991051"><ele>856.2857142857142</ele><time>2026-04-19T11:01:14.538Z</time></trkpt><trkpt lat="43.4885396" lon="11.9909738"><ele>855.5714285714286</ele><time>2026-04-19T11:01:17.549Z</time></trkpt><trkpt lat="43.4884763" lon="11.990932"><ele>854.8571428571429</ele><time>2026-04-19T11:01:19.537Z</time></trkpt><trkpt lat="43.4884174" lon="11.9908875"><ele>854.1428571428571</ele><time>2026-04-19T11:01:21.536Z</time></trkpt><trkpt lat="43.4883575" lon="11.9908539"><ele>853.4285714285714</ele><time>2026-04-19T11:01:23.544Z</time></trkpt><trkpt lat="43.4883049" lon="11.9908056"><ele>852.7142857142857</ele><time>2026-04-19T11:01:25.55Z</time></trkpt><trkpt lat="43.4882647" lon="11.9907203"><ele>852.0</ele><time>2026-04-19T11:01:27.533Z</time></trkpt><trkpt lat="43.4882317" lon="11.9906176"><ele>852.0</ele><time>2026-04-19T11:01:29.52Z</time></trkpt><trkpt lat="43.4881873" lon="11.9905183"><ele>852.0</ele><time>2026-04-19T11:01:31.525Z</time></trkpt><trkpt lat="43.488134" lon="11.9904259"><ele>852.0</ele><time>2026-04-19T11:01:33.521Z</time></trkpt><trkpt lat="43.4880723" lon="11.9903447"><ele>852.0</ele><time>2026-04-19T11:01:35.526Z</time></trkpt><trkpt lat="43.4880011" lon="11.9902822"><ele>852.0</ele><time>2026-04-19T11:01:37.547Z</time></trkpt><trkpt lat="43.4879203" lon="11.9902213"><ele>852.0</ele><time>2026-04-19T11:01:39.531Z</time></trkpt><trkpt lat="43.487829" lon="11.9901375"><ele>851.0</ele><time>2026-04-19T11:01:41.536Z</time></trkpt><trkpt lat="43.4877415" lon="11.9900582"><ele>850.0</ele><time>2026-04-19T11:01:43.556Z</time></trkpt><trkpt lat="43.4876811" lon="11.9900149"><ele>849.0</ele><time>2026-04-19T11:01:44.529Z</time></trkpt><trkpt lat="43.4876185" lon="11.9899769"><ele>848.0</ele><time>2026-04-19T11:01:45.515Z</time></trkpt><trkpt lat="43.4875603" lon="11.9899386"><ele>847.0</ele><time>2026-04-19T11:01:46.545Z</time></trkpt><trkpt lat="43.4874699" lon="11.9898214"><ele>846.0</ele><time>2026-04-19T11:01:48.545Z</time></trkpt><trkpt lat="43.4873863" lon="11.9897334"><ele>846.0</ele><time>2026-04-19T11:01:50.546Z</time></trkpt><trkpt lat="43.4873112" lon="11.9896487"><ele>846.0</ele><time>2026-04-19T11:01:52.534Z</time></trkpt><trkpt lat="43.4872316" lon="11.9895712"><ele>846.0</ele><time>2026-04-19T11:01:54.551Z</time></trkpt><trkpt lat="43.4871427" lon="11.9894986"><ele>846.0</ele><time>2026-04-19T11:01:56.531Z</time></trkpt><trkpt lat="43.4870512" lon="11.9894322"><ele>846.0</ele><time>2026-04-19T11:01:58.524Z</time></trkpt><trkpt lat="43.4869628" lon="11.9893564"><ele>843.5999999999999</ele><time>2026-04-19T11:02:00.542Z</time></trkpt><trkpt lat="43.4868775" lon="11.9893091"><ele>841.2</ele><time>2026-04-19T11:02:02.539Z</time></trkpt><trkpt lat="43.4867958" lon="11.9892404"><ele>838.8</ele><time>2026-04-19T11:02:04.525Z</time></trkpt><trkpt lat="43.4867197" lon="11.9892421"><ele>836.4000000000001</ele><time>2026-04-19T11:02:06.536Z</time></trkpt><trkpt lat="43.4866287" lon="11.9892777"><ele>834.0</ele><time>2026-04-19T11:02:08.56Z</time></trkpt><trkpt lat="43.4865307" lon="11.9893063"><ele>834.0</ele><time>2026-04-19T11:02:10.529Z</time></trkpt><trkpt lat="43.4864618" lon="11.9893303"><ele>834.0</ele><time>2026-04-19T11:02:12.526Z</time></trkpt><trkpt lat="43.4863937" lon="11.9893421"><ele>834.0</ele><time>2026-04-19T11:02:14.539Z</time></trkpt><trkpt lat="43.486306" lon="11.9893551"><ele>834.0</ele><time>2026-04-19T11:02:17.545Z</time></trkpt><trkpt lat="43.4862408" lon="11.9893628"><ele>834.0</ele><time>2026-04-19T11:02:19.542Z</time></trkpt><trkpt lat="43.4861768" lon="11.9893869"><ele>834.0</ele><time>2026-04-19T11:02:21.538Z</time></trkpt><trkpt lat="43.486083" lon="11.9894048"><ele>831.2</ele><time>2026-04-19T11:02:24.54Z</time></trkpt><trkpt lat="43.4860056" lon="11.9894018"><ele>828.4000000000001</ele><time>2026-04-19T11:02:26.521Z</time></trkpt><trkpt lat="43.4859053" lon="11.9894071"><ele>825.6</ele><time>2026-04-19T11:02:28.541Z</time></trkpt><trkpt lat="43.4857871" lon="11.9893908"><ele>822.8</ele><time>2026-04-19T11:02:30.532Z</time></trkpt><trkpt lat="43.485678" lon="11.9894337"><ele>820.0</ele><time>2026-04-19T11:02:32.544Z</time></trkpt><trkpt lat="43.4855784" lon="11.9895126"><ele>820.0</ele><time>2026-04-19T11:02:34.545Z</time></trkpt><trkpt lat="43.4854823" lon="11.9896016"><ele>820.0</ele><time>2026-04-19T11:02:36.522Z</time></trkpt><trkpt lat="43.485391" lon="11.9896668"><ele>820.0</ele><time>2026-04-19T11:02:38.541Z</time></trkpt><trkpt lat="43.4853115" lon="11.9896996"><ele>820.0</ele><time>2026-04-19T11:02:40.556Z</time></trkpt><trkpt lat="43.4852323" lon="11.9897214"><ele>820.0</ele><time>2026-04-19T11:02:43.525Z</time></trkpt><trkpt lat="43.4851648" lon="11.9897643"><ele>820.2857142857143</ele><time>2026-04-19T11:02:46.537Z</time></trkpt><trkpt lat="43.4850934" lon="11.9898228"><ele>820.5714285714286</ele><time>2026-04-19T11:02:49.547Z</time></trkpt><trkpt lat="43.485014" lon="11.9898684"><ele>820.8571428571429</ele><time>2026-04-19T11:02:52.538Z</time></trkpt><trkpt lat="43.4849472" lon="11.9898645"><ele>821.1428571428571</ele><time>2026-04-19T11:02:54.538Z</time></trkpt><trkpt lat="43.4848809" lon="11.9898531"><ele>821.4285714285713</ele><time>2026-04-19T11:02:56.54Z</time></trkpt><trkpt lat="43.4848158" lon="11.9898371"><ele>821.7142857142857</ele><time>2026-04-19T11:02:58.541Z</time></trkpt><trkpt lat="43.4847455" lon="11.9898178"><ele>822.0</ele><time>2026-04-19T11:03:00.533Z</time></trkpt><trkpt lat="43.4846712" lon="11.9898081"><ele>822.0</ele><time>2026-04-19T11:03:02.523Z</time></trkpt><trkpt lat="43.4845968" lon="11.9897996"><ele>822.0</ele><time>2026-04-19T11:03:04.546Z</time></trkpt><trkpt lat="43.4845189" lon="11.9897903"><ele>822.0</ele><time>2026-04-19T11:03:06.554Z</time></trkpt><trkpt lat="43.4844483" lon="11.9897841"><ele>822.0</ele><time>2026-04-19T11:03:08.53Z</time></trkpt><trkpt lat="43.4843785" lon="11.9897817"><ele>822.0</ele><time>2026-04-19T11:03:10.553Z</time></trkpt><trkpt lat="43.4843037" lon="11.9897905"><ele>822.0</ele><time>2026-04-19T11:03:12.546Z</time></trkpt><trkpt lat="43.4842228" lon="11.9897965"><ele>822.0</ele><time>2026-04-19T11:03:14.516Z</time></trkpt><trkpt lat="43.4841535" lon="11.9897971"><ele>822.3333333333334</ele><time>2026-04-19T11:03:16.54Z</time></trkpt><trkpt lat="43.4840819" lon="11.9897898"><ele>822.6666666666667</ele><time>2026-04-19T11:03:18.539Z</time></trkpt><trkpt lat="43.4840106" lon="11.989803"><ele>823.0</ele><time>2026-04-19T11:03:20.554Z</time></trkpt><trkpt lat="43.4839194" lon="11.9898023"><ele>823.3333333333334</ele><time>2026-04-19T11:03:23.537Z</time></trkpt><trkpt lat="43.4838376" lon="11.9897913"><ele>823.6666666666667</ele><time>2026-04-19T11:03:25.527Z</time></trkpt><trkpt lat="43.483769" lon="11.9898022"><ele>824.0</ele><time>2026-04-19T11:03:27.541Z</time></trkpt><trkpt lat="43.4837093" lon="11.9898408"><ele>825.5714285714286</ele><time>2026-04-19T11:03:29.527Z</time></trkpt><trkpt lat="43.4836454" lon="11.9898453"><ele>827.1428571428571</ele><time>2026-04-19T11:03:31.525Z</time></trkpt><trkpt lat="43.4835725" lon="11.9898352"><ele>828.7142857142858</ele><time>2026-04-19T11:03:34.538Z</time></trkpt><trkpt lat="43.4835092" lon="11.9898106"><ele>830.2857142857142</ele><time>2026-04-19T11:03:38.538Z</time></trkpt><trkpt lat="43.4834367" lon="11.9897771"><ele>831.8571428571429</ele><time>2026-04-19T11:03:42.534Z</time></trkpt><trkpt lat="43.483364" lon="11.9897549"><ele>833.4285714285714</ele><time>2026-04-19T11:03:45.553Z</time></trkpt><trkpt lat="43.4832959" lon="11.9897506"><ele>835.0</ele><time>2026-04-19T11:03:48.54Z</time></trkpt><trkpt lat="43.4832317" lon="11.9897549"><ele>834.9999999999999</ele><time>2026-04-19T11:03:51.555Z</time></trkpt><trkpt lat="43.4831437" lon="11.9897522"><ele>835.0</ele><time>2026-04-19T11:03:55.522Z</time></trkpt><trkpt lat="43.4830747" lon="11.9897491"><ele>835.0</ele><time>2026-04-19T11:03:59.541Z</time></trkpt><trkpt lat="43.4830015" lon="11.9897514"><ele>835.0</ele><time>2026-04-19T11:04:02.523Z</time></trkpt><trkpt lat="43.482938" lon="11.9897766"><ele>834.9999999999999</ele><time>2026-04-19T11:04:06.533Z</time></trkpt><trkpt lat="43.4828525" lon="11.989783"><ele>835.0</ele><time>2026-04-19T11:04:10.537Z</time></trkpt><trkpt lat="43.4827858" lon="11.9898055"><ele>837.3333333333333</ele><time>2026-04-19T11:04:13.537Z</time></trkpt><trkpt lat="43.4827092" lon="11.9897973"><ele>839.6666666666666</ele><time>2026-04-19T11:04:17.554Z</time></trkpt><trkpt lat="43.4826351" lon="11.9898161"><ele>842.0</ele><time>2026-04-19T11:04:22.54Z</time></trkpt><trkpt lat="43.4825474" lon="11.9898043"><ele>844.3333333333333</ele><time>2026-04-19T11:04:28.517Z</time></trkpt><trkpt lat="43.4824766" lon="11.9897795"><ele>846.6666666666666</ele><time>2026-04-19T11:04:32.523Z</time></trkpt><trkpt lat="43.4823988" lon="11.9897565"><ele>849.0</ele><time>2026-04-19T11:04:36.523Z</time></trkpt><trkpt lat="43.4823373" lon="11.9897992"><ele>849.0000000000001</ele><time>2026-04-19T11:04:40.537Z</time></trkpt><trkpt lat="43.4822982" lon="11.9898747"><ele>849.0</ele><time>2026-04-19T11:04:44.544Z</time></trkpt><trkpt lat="43.4822651" lon="11.9899699"><ele>849.0</ele><time>2026-04-19T11:04:49.54Z</time></trkpt><trkpt lat="43.4822371" lon="11.9900677"><ele>849.0</ele><time>2026-04-19T11:04:54.533Z</time></trkpt><trkpt lat="43.4822061" lon="11.9901589"><ele>849.0</ele><time>2026-04-19T11:04:58.53Z</time></trkpt><trkpt lat="43.4821641" lon="11.9902393"><ele>849.0000000000001</ele><time>2026-04-19T11:05:02.54Z</time></trkpt><trkpt lat="43.4821213" lon="11.9903331"><ele>849.0</ele><time>2026-04-19T11:05:06.542Z</time></trkpt><trkpt lat="43.4820757" lon="11.9904025"><ele>851.8333333333334</ele><time>2026-04-19T11:05:09.525Z</time></trkpt><trkpt lat="43.4820245" lon="11.990453"><ele>854.6666666666667</ele><time>2026-04-19T11:05:13.539Z</time></trkpt><trkpt lat="43.4819625" lon="11.9905195"><ele>857.5</ele><time>2026-04-19T11:05:17.528Z</time></trkpt><trkpt lat="43.4818938" lon="11.9905667"><ele>860.3333333333334</ele><time>2026-04-19T11:05:21.547Z</time></trkpt><trkpt lat="43.4818228" lon="11.9906402"><ele>863.1666666666667</ele><time>2026-04-19T11:05:25.528Z</time></trkpt><trkpt lat="43.4817661" lon="11.9906913"><ele>866.0</ele><time>2026-04-19T11:05:28.521Z</time></trkpt><trkpt lat="43.4816974" lon="11.9907393"><ele>866.0000000000001</ele><time>2026-04-19T11:05:33.537Z</time></trkpt><trkpt lat="43.4816184" lon="11.9907871"><ele>866.0</ele><time>2026-04-19T11:05:36.543Z</time></trkpt><trkpt lat="43.4815557" lon="11.990815"><ele>866.0</ele><time>2026-04-19T11:05:38.539Z</time></trkpt><trkpt lat="43.4814674" lon="11.9908422"><ele>866.0</ele><time>2026-04-19T11:05:42.524Z</time></trkpt><trkpt lat="43.4813931" lon="11.9908456"><ele>866.0000000000001</ele><time>2026-04-19T11:05:44.545Z</time></trkpt><trkpt lat="43.4813175" lon="11.9908263"><ele>866.0</ele><time>2026-04-19T11:05:47.536Z</time></trkpt><trkpt lat="43.4812334" lon="11.9908325"><ele>866.1666666666667</ele><time>2026-04-19T11:05:50.528Z</time></trkpt><trkpt lat="43.481167" lon="11.9908339"><ele>866.3333333333334</ele><time>2026-04-19T11:05:53.552Z</time></trkpt><trkpt lat="43.4810968" lon="11.9908499"><ele>866.5</ele><time>2026-04-19T11:05:58.536Z</time></trkpt><trkpt lat="43.481011" lon="11.9908904"><ele>866.6666666666667</ele><time>2026-04-19T11:06:02.532Z</time></trkpt><trkpt lat="43.4809305" lon="11.9909564"><ele>866.8333333333334</ele><time>2026-04-19T11:06:06.54Z</time></trkpt><trkpt lat="43.4808644" lon="11.9910316"><ele>867.0</ele><time>2026-04-19T11:06:10.539Z</time></trkpt><trkpt lat="43.4808111" lon="11.9911146"><ele>867.7142857142857</ele><time>2026-04-19T11:06:13.557Z</time></trkpt><trkpt lat="43.4807633" lon="11.9911858"><ele>868.4285714285714</ele><time>2026-04-19T11:06:16.531Z</time></trkpt><trkpt lat="43.4807167" lon="11.9912478"><ele>869.1428571428571</ele><time>2026-04-19T11:06:19.538Z</time></trkpt><trkpt lat="43.4806464" lon="11.9912674"><ele>869.8571428571429</ele><time>2026-04-19T11:08:19.516Z</time></trkpt><trkpt lat="43.4805609" lon="11.9912623"><ele>870.5714285714287</ele><time>2026-04-19T11:08:22.538Z</time></trkpt><trkpt lat="43.4804838" lon="11.9912677"><ele>871.2857142857143</ele><time>2026-04-19T11:08:27.549Z</time></trkpt><trkpt lat="43.4804059" lon="11.9912781"><ele>872.0</ele><time>2026-04-19T11:08:31.556Z</time></trkpt><trkpt lat="43.4803371" lon="11.991281"><ele>873.0</ele><time>2026-04-19T11:08:34.542Z</time></trkpt><trkpt lat="43.480256" lon="11.991308"><ele>874.0</ele><time>2026-04-19T11:08:38.543Z</time></trkpt><trkpt lat="43.4801761" lon="11.9912867"><ele>875.0</ele><time>2026-04-19T11:08:42.537Z</time></trkpt><trkpt lat="43.4801188" lon="11.9912496"><ele>876.0</ele><time>2026-04-19T11:08:46.541Z</time></trkpt><trkpt lat="43.4800673" lon="11.9911853"><ele>877.0</ele><time>2026-04-19T11:08:50.541Z</time></trkpt><trkpt lat="43.4800105" lon="11.9911475"><ele>878.0</ele><time>2026-04-19T11:09:02.541Z</time></trkpt><trkpt lat="43.4799391" lon="11.9911473"><ele>879.0</ele><time>2026-04-19T11:09:06.555Z</time></trkpt><trkpt lat="43.4798748" lon="11.991151"><ele>879.0</ele><time>2026-04-19T11:09:09.516Z</time></trkpt><trkpt lat="43.4798009" lon="11.9911517"><ele>879.0</ele><time>2026-04-19T11:09:12.543Z</time></trkpt><trkpt lat="43.4797333" lon="11.9911909"><ele>879.0</ele><time>2026-04-19T11:09:15.522Z</time></trkpt><trkpt lat="43.4796641" lon="11.9912234"><ele>879.0</ele><time>2026-04-19T11:09:18.526Z</time></trkpt><trkpt lat="43.4795987" lon="11.9912708"><ele>879.0</ele><time>2026-04-19T11:09:21.537Z</time></trkpt><trkpt lat="43.4795315" lon="11.9913009"><ele>879.0</ele><time>2026-04-19T11:09:24.559Z</time></trkpt><trkpt lat="43.4794661" lon="11.9913243"><ele>879.0</ele><time>2026-04-19T11:09:27.532Z</time></trkpt><trkpt lat="43.4793896" lon="11.9913329"><ele>880.8571428571429</ele><time>2026-04-19T11:09:30.523Z</time></trkpt><trkpt lat="43.4793129" lon="11.9913358"><ele>882.7142857142858</ele><time>2026-04-19T11:09:34.519Z</time></trkpt><trkpt lat="43.4792425" lon="11.9913356"><ele>884.5714285714286</ele><time>2026-04-19T11:09:37.519Z</time></trkpt><trkpt lat="43.479168" lon="11.9913193"><ele>886.4285714285714</ele><time>2026-04-19T11:09:40.549Z</time></trkpt><trkpt lat="43.4790992" lon="11.9913145"><ele>888.2857142857142</ele><time>2026-04-19T11:09:44.538Z</time></trkpt><trkpt lat="43.4790289" lon="11.9913111"><ele>890.1428571428571</ele><time>2026-04-19T11:09:48.53Z</time></trkpt><trkpt lat="43.4789642" lon="11.9913016"><ele>892.0</ele><time>2026-04-19T11:09:51.53Z</time></trkpt><trkpt lat="43.478889" lon="11.9913223"><ele>892.0</ele><time>2026-04-19T11:09:55.544Z</time></trkpt><trkpt lat="43.4788119" lon="11.9913174"><ele>892.0</ele><time>2026-04-19T11:09:59.546Z</time></trkpt><trkpt lat="43.4787375" lon="11.9912721"><ele>892.0</ele><time>2026-04-19T11:10:03.562Z</time></trkpt><trkpt lat="43.478677" lon="11.9912225"><ele>892.0</ele><time>2026-04-19T11:10:06.54Z</time></trkpt><trkpt lat="43.4786182" lon="11.991187"><ele>892.0</ele><time>2026-04-19T11:10:09.537Z</time></trkpt><trkpt lat="43.4785473" lon="11.9911499"><ele>892.0</ele><time>2026-04-19T11:10:13.543Z</time></trkpt><trkpt lat="43.4784793" lon="11.9911367"><ele>892.0</ele><time>2026-04-19T11:10:21.536Z</time></trkpt><trkpt lat="43.4783803" lon="11.9910959"><ele>891.4999999999999</ele><time>2026-04-19T11:10:24.532Z</time></trkpt><trkpt lat="43.4783058" lon="11.9910958"><ele>891.0</ele><time>2026-04-19T11:10:26.538Z</time></trkpt><trkpt lat="43.4782428" lon="11.9910923"><ele>890.5</ele><time>2026-04-19T11:10:28.542Z</time></trkpt><trkpt lat="43.4781531" lon="11.9910251"><ele>890.0</ele><time>2026-04-19T11:10:30.559Z</time></trkpt><trkpt lat="43.4780609" lon="11.9909534"><ele>889.4999999999999</ele><time>2026-04-19T11:10:32.542Z</time></trkpt><trkpt lat="43.477972" lon="11.9908911"><ele>889.0</ele><time>2026-04-19T11:10:34.527Z</time></trkpt><trkpt lat="43.4778855" lon="11.9908407"><ele>891.1666666666666</ele><time>2026-04-19T11:10:36.541Z</time></trkpt><trkpt lat="43.4778073" lon="11.9907909"><ele>893.3333333333333</ele><time>2026-04-19T11:10:38.542Z</time></trkpt><trkpt lat="43.4777338" lon="11.9907481"><ele>895.5</ele><time>2026-04-19T11:10:40.53Z</time></trkpt><trkpt lat="43.4776574" lon="11.9907074"><ele>897.6666666666667</ele><time>2026-04-19T11:10:42.526Z</time></trkpt><trkpt lat="43.4775825" lon="11.9906669"><ele>899.8333333333334</ele><time>2026-04-19T11:10:44.546Z</time></trkpt><trkpt lat="43.477506" lon="11.9906291"><ele>902.0</ele><time>2026-04-19T11:10:46.521Z</time></trkpt><trkpt lat="43.4774329" lon="11.9905836"><ele>902.0000000000001</ele><time>2026-04-19T11:10:48.546Z</time></trkpt><trkpt lat="43.4773607" lon="11.9905354"><ele>902.0</ele><time>2026-04-19T11:10:50.521Z</time></trkpt><trkpt lat="43.4772919" lon="11.9904816"><ele>902.0</ele><time>2026-04-19T11:10:52.543Z</time></trkpt><trkpt lat="43.4772133" lon="11.9904415"><ele>902.0</ele><time>2026-04-19T11:10:54.52Z</time></trkpt><trkpt lat="43.4771288" lon="11.9904009"><ele>902.0000000000001</ele><time>2026-04-19T11:10:56.55Z</time></trkpt><trkpt lat="43.4770398" lon="11.9903505"><ele>902.0</ele><time>2026-04-19T11:10:58.537Z</time></trkpt><trkpt lat="43.4769545" lon="11.9902998"><ele>901.5000000000001</ele><time>2026-04-19T11:11:00.523Z</time></trkpt><trkpt lat="43.4768681" lon="11.9902576"><ele>901.0</ele><time>2026-04-19T11:11:02.536Z</time></trkpt><trkpt lat="43.4767887" lon="11.9902039"><ele>900.5</ele><time>2026-04-19T11:11:04.539Z</time></trkpt><trkpt lat="43.4767142" lon="11.9901352"><ele>900.0</ele><time>2026-04-19T11:11:06.538Z</time></trkpt><trkpt lat="43.4766384" lon="11.9900703"><ele>899.5000000000001</ele><time>2026-04-19T11:11:08.538Z</time></trkpt><trkpt lat="43.4765567" lon="11.9900219"><ele>899.0</ele><time>2026-04-19T11:11:10.519Z</time></trkpt><trkpt lat="43.47647" lon="11.9899698"><ele>899.0</ele><time>2026-04-19T11:11:12.53Z</time></trkpt><trkpt lat="43.4763895" lon="11.9898926"><ele>899.0000000000001</ele><time>2026-04-19T11:11:14.52Z</time></trkpt><trkpt lat="43.4763158" lon="11.9898031"><ele>899.0000000000001</ele><time>2026-04-19T11:11:16.552Z</time></trkpt><trkpt lat="43.4762376" lon="11.9897143"><ele>899.0</ele><time>2026-04-19T11:11:18.542Z</time></trkpt><trkpt lat="43.4761593" lon="11.9896348"><ele>899.0</ele><time>2026-04-19T11:11:20.553Z</time></trkpt><trkpt lat="43.4760774" lon="11.9895627"><ele>897.8000000000001</ele><time>2026-04-19T11:11:22.534Z</time></trkpt><trkpt lat="43.4759962" lon="11.9894874"><ele>896.6000000000001</ele><time>2026-04-19T11:11:24.542Z</time></trkpt><trkpt lat="43.4759104" lon="11.9894048"><ele>895.4</ele><time>2026-04-19T11:11:26.542Z</time></trkpt><trkpt lat="43.4758279" lon="11.9893443"><ele>894.2</ele><time>2026-04-19T11:11:28.535Z</time></trkpt><trkpt lat="43.4757427" lon="11.9893066"><ele>893.0</ele><time>2026-04-19T11:11:30.536Z</time></trkpt><trkpt lat="43.4756598" lon="11.9892717"><ele>893.0000000000001</ele><time>2026-04-19T11:11:32.538Z</time></trkpt><trkpt lat="43.475586" lon="11.9892285"><ele>893.0</ele><time>2026-04-19T11:11:34.524Z</time></trkpt><trkpt lat="43.4755118" lon="11.9892113"><ele>893.0</ele><time>2026-04-19T11:11:36.516Z</time></trkpt><trkpt lat="43.4754375" lon="11.9892029"><ele>893.0</ele><time>2026-04-19T11:11:38.529Z</time></trkpt><trkpt lat="43.4753641" lon="11.9892156"><ele>893.0000000000001</ele><time>2026-04-19T11:11:40.529Z</time></trkpt><trkpt lat="43.4752903" lon="11.9892161"><ele>893.0</ele><time>2026-04-19T11:11:42.541Z</time></trkpt><trkpt lat="43.4752108" lon="11.9892185"><ele>894.0000000000001</ele><time>2026-04-19T11:11:44.537Z</time></trkpt><trkpt lat="43.475131" lon="11.9892203"><ele>895.0</ele><time>2026-04-19T11:11:46.537Z</time></trkpt><trkpt lat="43.4750519" lon="11.98921"><ele>896.0</ele><time>2026-04-19T11:11:48.557Z</time></trkpt><trkpt lat="43.4749709" lon="11.9891863"><ele>897.0</ele><time>2026-04-19T11:11:50.539Z</time></trkpt><trkpt lat="43.4748943" lon="11.9891615"><ele>898.0000000000001</ele><time>2026-04-19T11:11:52.542Z</time></trkpt><trkpt lat="43.4748237" lon="11.989123"><ele>899.0</ele><time>2026-04-19T11:11:54.524Z</time></trkpt><trkpt lat="43.4747475" lon="11.9890926"><ele>899.0</ele><time>2026-04-19T11:11:56.539Z</time></trkpt><trkpt lat="43.4746695" lon="11.9890494"><ele>899.0000000000001</ele><time>2026-04-19T11:11:58.541Z</time></trkpt><trkpt lat="43.4745889" lon="11.9890079"><ele>899.0000000000001</ele><time>2026-04-19T11:12:00.548Z</time></trkpt><trkpt lat="43.4744924" lon="11.9889685"><ele>899.0</ele><time>2026-04-19T11:12:02.534Z</time></trkpt><trkpt lat="43.4744165" lon="11.9889868"><ele>899.0</ele><time>2026-04-19T11:12:04.529Z</time></trkpt><trkpt lat="43.4743159" lon="11.9889655"><ele>898.4285714285713</ele><time>2026-04-19T11:12:07.542Z</time></trkpt><trkpt lat="43.4742456" lon="11.9889602"><ele>897.8571428571429</ele><time>2026-04-19T11:12:09.548Z</time></trkpt><trkpt lat="43.4741859" lon="11.988928"><ele>897.2857142857142</ele><time>2026-04-19T11:12:11.542Z</time></trkpt><trkpt lat="43.4741362" lon="11.9888655"><ele>896.7142857142857</ele><time>2026-04-19T11:12:13.544Z</time></trkpt><trkpt lat="43.474079" lon="11.988828"><ele>896.1428571428571</ele><time>2026-04-19T11:12:15.538Z</time></trkpt><trkpt lat="43.4740104" lon="11.9888015"><ele>895.5714285714286</ele><time>2026-04-19T11:12:17.546Z</time></trkpt><trkpt lat="43.4739497" lon="11.9887739"><ele>895.0</ele><time>2026-04-19T11:12:19.534Z</time></trkpt><trkpt lat="43.4738857" lon="11.9887556"><ele>894.9999999999999</ele><time>2026-04-19T11:12:21.536Z</time></trkpt><trkpt lat="43.4738128" lon="11.988727"><ele>895.0</ele><time>2026-04-19T11:12:23.538Z</time></trkpt><trkpt lat="43.473733" lon="11.988669"><ele>895.0</ele><time>2026-04-19T11:12:25.544Z</time></trkpt><trkpt lat="43.4736606" lon="11.9885916"><ele>895.0</ele><time>2026-04-19T11:12:27.541Z</time></trkpt><trkpt lat="43.4736417" lon="11.9885084"><ele>894.9999999999999</ele><time>2026-04-19T11:12:29.534Z</time></trkpt><trkpt lat="43.4737029" lon="11.9884027"><ele>895.0</ele><time>2026-04-19T11:12:31.537Z</time></trkpt><trkpt lat="43.4737772" lon="11.9882778"><ele>894.6666666666666</ele><time>2026-04-19T11:12:33.522Z</time></trkpt><trkpt lat="43.4738188" lon="11.9881399"><ele>894.3333333333333</ele><time>2026-04-19T11:12:35.521Z</time></trkpt><trkpt lat="43.473828" lon="11.988031"><ele>894.0</ele><time>2026-04-19T11:12:37.528Z</time></trkpt><trkpt lat="43.473842" lon="11.9879369"><ele>893.6666666666667</ele><time>2026-04-19T11:12:40.528Z</time></trkpt><trkpt lat="43.4738498" lon="11.9878213"><ele>893.3333333333334</ele><time>2026-04-19T11:12:43.525Z</time></trkpt><trkpt lat="43.4738498" lon="11.9877303"><ele>893.0</ele><time>2026-04-19T11:12:59.531Z</time></trkpt><trkpt lat="43.473834" lon="11.9876217"><ele>893.0</ele><time>2026-04-19T11:13:15.537Z</time></trkpt><trkpt lat="43.4738371" lon="11.9875349"><ele>893.0</ele><time>2026-04-19T11:13:18.527Z</time></trkpt><trkpt lat="43.473885" lon="11.9874729"><ele>893.0</ele><time>2026-04-19T11:13:22.516Z</time></trkpt><trkpt lat="43.4739414" lon="11.9873955"><ele>893.0</ele><time>2026-04-19T11:13:26.545Z</time></trkpt><trkpt lat="43.473968" lon="11.9872966"><ele>893.0</ele><time>2026-04-19T11:13:30.531Z</time></trkpt><trkpt lat="43.4739769" lon="11.9872009"><ele>893.0</ele><time>2026-04-19T11:13:36.537Z</time></trkpt><trkpt lat="43.4740049" lon="11.9871147"><ele>893.0</ele><time>2026-04-19T11:13:41.541Z</time></trkpt><trkpt lat="43.4739899" lon="11.9870233"><ele>893.4285714285714</ele><time>2026-04-19T11:13:45.54Z</time></trkpt><trkpt lat="43.473951" lon="11.9869361"><ele>893.8571428571429</ele><time>2026-04-19T11:13:49.527Z</time></trkpt><trkpt lat="43.4739058" lon="11.986849"><ele>894.2857142857142</ele><time>2026-04-19T11:13:53.556Z</time></trkpt><trkpt lat="43.4738603" lon="11.9867854"><ele>894.7142857142858</ele><time>2026-04-19T11:13:56.559Z</time></trkpt><trkpt lat="43.4738065" lon="11.9867274"><ele>895.1428571428571</ele><time>2026-04-19T11:13:59.534Z</time></trkpt><trkpt lat="43.4737455" lon="11.9866682"><ele>895.5714285714286</ele><time>2026-04-19T11:14:03.519Z</time></trkpt><trkpt lat="43.4736985" lon="11.9865731"><ele>896.0</ele><time>2026-04-19T11:14:07.543Z</time></trkpt><trkpt lat="43.4736448" lon="11.9864859"><ele>896.0</ele><time>2026-04-19T11:14:11.515Z</time></trkpt><trkpt lat="43.4736066" lon="11.9864136"><ele>896.0</ele><time>2026-04-19T11:14:14.529Z</time></trkpt><trkpt lat="43.4735801" lon="11.9863173"><ele>896.0</ele><time>2026-04-19T11:14:18.52Z</time></trkpt><trkpt lat="43.4735745" lon="11.9862164"><ele>896.0</ele><time>2026-04-19T11:14:22.549Z</time></trkpt><trkpt lat="43.473593" lon="11.9861284"><ele>896.0</ele><time>2026-04-19T11:14:26.532Z</time></trkpt><trkpt lat="43.4736294" lon="11.9860372"><ele>896.0</ele><time>2026-04-19T11:14:30.53Z</time></trkpt><trkpt lat="43.4736585" lon="11.9859446"><ele>896.0</ele><time>2026-04-19T11:14:35.542Z</time></trkpt><trkpt lat="43.4736929" lon="11.9858506"><ele>896.2857142857142</ele><time>2026-04-19T11:14:39.524Z</time></trkpt><trkpt lat="43.4737233" lon="11.9857725"><ele>896.5714285714286</ele><time>2026-04-19T11:14:42.544Z</time></trkpt><trkpt lat="43.4737551" lon="11.9856814"><ele>896.8571428571429</ele><time>2026-04-19T11:14:46.549Z</time></trkpt><trkpt lat="43.4737738" lon="11.9855787"><ele>897.1428571428571</ele><time>2026-04-19T11:14:50.546Z</time></trkpt><trkpt lat="43.4737811" lon="11.9854667"><ele>897.4285714285713</ele><time>2026-04-19T11:14:54.521Z</time></trkpt><trkpt lat="43.4737879" lon="11.9853752"><ele>897.7142857142857</ele><time>2026-04-19T11:14:57.537Z</time></trkpt><trkpt lat="43.4737988" lon="11.9852618"><ele>898.0</ele><time>2026-04-19T11:15:01.539Z</time></trkpt><trkpt lat="43.473799" lon="11.9851711"><ele>898.7142857142857</ele><time>2026-04-19T11:15:04.531Z</time></trkpt><trkpt lat="43.4738151" lon="11.9850851"><ele>899.4285714285713</ele><time>2026-04-19T11:15:07.519Z</time></trkpt><trkpt lat="43.4738464" lon="11.9850056"><ele>900.1428571428571</ele><time>2026-04-19T11:15:10.542Z</time></trkpt><trkpt lat="43.4738838" lon="11.9849329"><ele>900.8571428571429</ele><time>2026-04-19T11:15:13.524Z</time></trkpt><trkpt lat="43.473914" lon="11.9848337"><ele>901.5714285714286</ele><time>2026-04-19T11:15:17.551Z</time></trkpt><trkpt lat="43.473927" lon="11.9847313"><ele>902.2857142857142</ele><time>2026-04-19T11:15:21.536Z</time></trkpt><trkpt lat="43.4739254" lon="11.9846442"><ele>903.0</ele><time>2026-04-19T11:15:24.535Z</time></trkpt><trkpt lat="43.4739266" lon="11.98455"><ele>904.0</ele><time>2026-04-19T11:15:27.537Z</time></trkpt><trkpt lat="43.4739309" lon="11.9844564"><ele>905.0</ele><time>2026-04-19T11:15:30.532Z</time></trkpt><trkpt lat="43.4739233" lon="11.9843627"><ele>906.0</ele><time>2026-04-19T11:15:33.547Z</time></trkpt><trkpt lat="43.4739049" lon="11.9842718"><ele>907.0</ele><time>2026-04-19T11:15:36.537Z</time></trkpt><trkpt lat="43.473877" lon="11.9841824"><ele>908.0</ele><time>2026-04-19T11:15:39.554Z</time></trkpt><trkpt lat="43.4738532" lon="11.9840976"><ele>909.0</ele><time>2026-04-19T11:15:42.554Z</time></trkpt><trkpt lat="43.4738433" lon="11.9840085"><ele>910.0</ele><time>2026-04-19T11:15:45.536Z</time></trkpt><trkpt lat="43.4738026" lon="11.9839399"><ele>909.8571428571429</ele><time>2026-04-19T11:15:49.551Z</time></trkpt><trkpt lat="43.4737668" lon="11.9838643"><ele>909.7142857142858</ele><time>2026-04-19T11:15:52.549Z</time></trkpt><trkpt lat="43.4737292" lon="11.9837653"><ele>909.5714285714286</ele><time>2026-04-19T11:15:56.52Z</time></trkpt><trkpt lat="43.473689" lon="11.9836934"><ele>909.4285714285714</ele><time>2026-04-19T11:15:59.55Z</time></trkpt><trkpt lat="43.4736472" lon="11.9836218"><ele>909.2857142857143</ele><time>2026-04-19T11:16:02.52Z</time></trkpt><trkpt lat="43.4735978" lon="11.9835314"><ele>909.1428571428571</ele><time>2026-04-19T11:16:06.528Z</time></trkpt><trkpt lat="43.4735929" lon="11.9834413"><ele>909.0</ele><time>2026-04-19T11:16:10.555Z</time></trkpt><trkpt lat="43.4736127" lon="11.9833482"><ele>911.0</ele><time>2026-04-19T11:16:23.526Z</time></trkpt><trkpt lat="43.4736634" lon="11.9832811"><ele>913.0</ele><time>2026-04-19T11:17:39.526Z</time></trkpt><trkpt lat="43.4737097" lon="11.9832036"><ele>915.0</ele><time>2026-04-19T11:17:43.533Z</time></trkpt><trkpt lat="43.4737609" lon="11.9831205"><ele>917.0</ele><time>2026-04-19T11:17:47.54Z</time></trkpt><trkpt lat="43.4738014" lon="11.9830414"><ele>919.0</ele><time>2026-04-19T11:17:51.534Z</time></trkpt><trkpt lat="43.4738342" lon="11.9829603"><ele>921.0</ele><time>2026-04-19T11:17:55.513Z</time></trkpt><trkpt lat="43.4738903" lon="11.9828964"><ele>923.0</ele><time>2026-04-19T11:17:59.517Z</time></trkpt><trkpt lat="43.4739266" lon="11.9828065"><ele>924.7142857142857</ele><time>2026-04-19T11:18:03.511Z</time></trkpt><trkpt lat="43.4739519" lon="11.9827166"><ele>926.4285714285716</ele><time>2026-04-19T11:18:08.527Z</time></trkpt><trkpt lat="43.4739605" lon="11.9826184"><ele>928.1428571428572</ele><time>2026-04-19T11:18:12.532Z</time></trkpt><trkpt lat="43.4739699" lon="11.9825236"><ele>929.8571428571429</ele><time>2026-04-19T11:18:16.536Z</time></trkpt><trkpt lat="43.4739737" lon="11.9824155"><ele>931.5714285714287</ele><time>2026-04-19T11:18:21.532Z</time></trkpt><trkpt lat="43.4740034" lon="11.9823168"><ele>933.2857142857144</ele><time>2026-04-19T11:18:26.538Z</time></trkpt><trkpt lat="43.4740534" lon="11.9822554"><ele>935.0000000000001</ele><time>2026-04-19T11:18:39.535Z</time></trkpt><trkpt lat="43.4740971" lon="11.9821795"><ele>937.1428571428573</ele><time>2026-04-19T11:19:44.538Z</time></trkpt><trkpt lat="43.4741041" lon="11.9820683"><ele>939.2857142857143</ele><time>2026-04-19T11:19:48.532Z</time></trkpt><trkpt lat="43.4741107" lon="11.9819653"><ele>941.4285714285716</ele><time>2026-04-19T11:19:52.54Z</time></trkpt><trkpt lat="43.4741237" lon="11.9818744"><ele>943.5714285714287</ele><time>2026-04-19T11:19:56.517Z</time></trkpt><trkpt lat="43.4741625" lon="11.9817913"><ele>945.7142857142858</ele><time>2026-04-19T11:20:00.55Z</time></trkpt><trkpt lat="43.4741847" lon="11.9817091"><ele>947.8571428571429</ele><time>2026-04-19T11:20:05.532Z</time></trkpt><trkpt lat="43.4741709" lon="11.9816003"><ele>950.0</ele><time>2026-04-19T11:20:10.52Z</time></trkpt><trkpt lat="43.4741457" lon="11.9815147"><ele>951.8333333333334</ele><time>2026-04-19T11:20:13.52Z</time></trkpt><trkpt lat="43.4740742" lon="11.9814564"><ele>953.6666666666667</ele><time>2026-04-19T11:20:16.517Z</time></trkpt><trkpt lat="43.4740155" lon="11.9813964"><ele>955.5</ele><time>2026-04-19T11:20:18.539Z</time></trkpt><trkpt lat="43.4739632" lon="11.9813221"><ele>957.3333333333333</ele><time>2026-04-19T11:20:20.557Z</time></trkpt><trkpt lat="43.4739119" lon="11.9812348"><ele>959.1666666666666</ele><time>2026-04-19T11:20:22.538Z</time></trkpt><trkpt lat="43.4738556" lon="11.9811226"><ele>961.0</ele><time>2026-04-19T11:20:24.535Z</time></trkpt><trkpt lat="43.4738017" lon="11.9810311"><ele>958.5714285714286</ele><time>2026-04-19T11:20:26.534Z</time></trkpt><trkpt lat="43.4737651" lon="11.9809493"><ele>956.1428571428571</ele><time>2026-04-19T11:20:28.54Z</time></trkpt><trkpt lat="43.4737174" lon="11.9808926"><ele>953.7142857142857</ele><time>2026-04-19T11:20:30.509Z</time></trkpt><trkpt lat="43.4736502" lon="11.9808617"><ele>951.2857142857142</ele><time>2026-04-19T11:20:32.554Z</time></trkpt><trkpt lat="43.4735763" lon="11.9808699"><ele>948.8571428571429</ele><time>2026-04-19T11:20:35.551Z</time></trkpt><trkpt lat="43.4734963" lon="11.9808771"><ele>946.4285714285713</ele><time>2026-04-19T11:20:38.519Z</time></trkpt><trkpt lat="43.4734498" lon="11.9808022"><ele>944.0</ele><time>2026-04-19T11:20:41.522Z</time></trkpt><trkpt lat="43.4733856" lon="11.9807488"><ele>944.0</ele><time>2026-04-19T11:20:43.538Z</time></trkpt><trkpt lat="43.4733244" lon="11.9807187"><ele>944.0</ele><time>2026-04-19T11:20:45.537Z</time></trkpt><trkpt lat="43.4732597" lon="11.9807292"><ele>944.0</ele><time>2026-04-19T11:20:47.535Z</time></trkpt><trkpt lat="43.4731966" lon="11.9807132"><ele>944.0</ele><time>2026-04-19T11:20:49.541Z</time></trkpt><trkpt lat="43.4731392" lon="11.9806517"><ele>944.0</ele><time>2026-04-19T11:20:51.5Z</time></trkpt><trkpt lat="43.4731214" lon="11.9805505"><ele>944.0</ele><time>2026-04-19T11:20:53.619Z</time></trkpt><trkpt lat="43.473074" lon="11.9804553"><ele>944.0</ele><time>2026-04-19T11:20:56.531Z</time></trkpt><trkpt lat="43.4729884" lon="11.9804301"><ele>940.0</ele><time>2026-04-19T11:20:58.532Z</time></trkpt><trkpt lat="43.4729117" lon="11.9804158"><ele>936.0000000000001</ele><time>2026-04-19T11:21:00.536Z</time></trkpt><trkpt lat="43.4728457" lon="11.9803495"><ele>932.0000000000001</ele><time>2026-04-19T11:21:02.517Z</time></trkpt><trkpt lat="43.4727763" lon="11.9802572"><ele>928.0</ele><time>2026-04-19T11:21:04.514Z</time></trkpt><trkpt lat="43.4726917" lon="11.9801497"><ele>924.0</ele><time>2026-04-19T11:21:06.529Z</time></trkpt><trkpt lat="43.4725956" lon="11.9801407"><ele>924.0</ele><time>2026-04-19T11:21:08.555Z</time></trkpt><trkpt lat="43.4725055" lon="11.9801278"><ele>924.0</ele><time>2026-04-19T11:21:10.56Z</time></trkpt><trkpt lat="43.472416" lon="11.9801125"><ele>924.0</ele><time>2026-04-19T11:21:12.52Z</time></trkpt><trkpt lat="43.4723476" lon="11.9800773"><ele>924.0</ele><time>2026-04-19T11:21:14.54Z</time></trkpt><trkpt lat="43.472256" lon="11.9800429"><ele>924.0</ele><time>2026-04-19T11:21:17.529Z</time></trkpt><trkpt lat="43.4721817" lon="11.9799927"><ele>924.0</ele><time>2026-04-19T11:21:19.538Z</time></trkpt><trkpt lat="43.4721142" lon="11.9799549"><ele>925.6666666666666</ele><time>2026-04-19T11:21:21.54Z</time></trkpt><trkpt lat="43.4720527" lon="11.9799251"><ele>927.3333333333333</ele><time>2026-04-19T11:21:23.527Z</time></trkpt><trkpt lat="43.4719651" lon="11.9799048"><ele>929.0</ele><time>2026-04-19T11:21:26.515Z</time></trkpt><trkpt lat="43.4718771" lon="11.9799172"><ele>930.6666666666666</ele><time>2026-04-19T11:21:29.535Z</time></trkpt><trkpt lat="43.4717893" lon="11.9799188"><ele>932.3333333333333</ele><time>2026-04-19T11:21:32.551Z</time></trkpt><trkpt lat="43.4717267" lon="11.979942"><ele>934.0</ele><time>2026-04-19T11:21:34.536Z</time></trkpt><trkpt lat="43.4716639" lon="11.9799653"><ele>933.9999999999999</ele><time>2026-04-19T11:21:36.53Z</time></trkpt><trkpt lat="43.4715745" lon="11.9799781"><ele>934.0</ele><time>2026-04-19T11:21:39.557Z</time></trkpt><trkpt lat="43.4715004" lon="11.9799886"><ele>934.0</ele><time>2026-04-19T11:21:42.536Z</time></trkpt><trkpt lat="43.4714272" lon="11.9799781"><ele>934.0</ele><time>2026-04-19T11:21:45.537Z</time></trkpt><trkpt lat="43.4713565" lon="11.9799753"><ele>933.9999999999999</ele><time>2026-04-19T11:21:48.518Z</time></trkpt><trkpt lat="43.4712924" lon="11.9799801"><ele>934.0</ele><time>2026-04-19T11:21:51.538Z</time></trkpt><trkpt lat="43.4712147" lon="11.9799582"><ele>935.5714285714284</ele><time>2026-04-19T11:21:55.611Z</time></trkpt><trkpt lat="43.4711461" lon="11.9799598"><ele>937.1428571428571</ele><time>2026-04-19T11:21:58.538Z</time></trkpt><trkpt lat="43.4710651" lon="11.9799666"><ele>938.7142857142857</ele><time>2026-04-19T11:22:02.527Z</time></trkpt><trkpt lat="43.4710004" lon="11.9799748"><ele>940.2857142857142</ele><time>2026-04-19T11:22:05.531Z</time></trkpt><trkpt lat="43.470921" lon="11.9799835"><ele>941.8571428571429</ele><time>2026-04-19T11:22:09.532Z</time></trkpt><trkpt lat="43.4708471" lon="11.979966"><ele>943.4285714285714</ele><time>2026-04-19T11:22:13.542Z</time></trkpt><trkpt lat="43.4707765" lon="11.9799654"><ele>945.0</ele><time>2026-04-19T11:22:17.526Z</time></trkpt><trkpt lat="43.4707032" lon="11.9799812"><ele>945.0</ele><time>2026-04-19T11:22:21.543Z</time></trkpt><trkpt lat="43.4706286" lon="11.9799884"><ele>945.0</ele><time>2026-04-19T11:22:25.546Z</time></trkpt><trkpt lat="43.470557" lon="11.9799883"><ele>945.0</ele><time>2026-04-19T11:22:29.547Z</time></trkpt><trkpt lat="43.4704862" lon="11.9799589"><ele>945.0</ele><time>2026-04-19T11:22:33.555Z</time></trkpt><trkpt lat="43.4704191" lon="11.9799284"><ele>945.0</ele><time>2026-04-19T11:22:37.53Z</time></trkpt><trkpt lat="43.4703554" lon="11.9798745"><ele>945.0</ele><time>2026-04-19T11:22:41.536Z</time></trkpt><trkpt lat="43.4703085" lon="11.9798123"><ele>945.0</ele><time>2026-04-19T11:22:45.519Z</time></trkpt><trkpt lat="43.4702519" lon="11.9797487"><ele>945.1666666666666</ele><time>2026-04-19T11:22:49.579Z</time></trkpt><trkpt lat="43.4701966" lon="11.9796766"><ele>945.3333333333333</ele><time>2026-04-19T11:22:53.56Z</time></trkpt><trkpt lat="43.470146" lon="11.9795987"><ele>945.5</ele><time>2026-04-19T11:22:57.583Z</time></trkpt><trkpt lat="43.4701032" lon="11.9795112"><ele>945.6666666666666</ele><time>2026-04-19T11:23:00.533Z</time></trkpt><trkpt lat="43.4700596" lon="11.9794273"><ele>945.8333333333333</ele><time>2026-04-19T11:23:04.527Z</time></trkpt><trkpt lat="43.4699961" lon="11.979376"><ele>946.0</ele><time>2026-04-19T11:23:09.53Z</time></trkpt><trkpt lat="43.4700126" lon="11.9792788"><ele>946.0</ele><time>2026-04-19T11:33:26.521Z</time></trkpt><trkpt lat="43.4699889" lon="11.9791956"><ele>946.0</ele><time>2026-04-19T11:33:29.55Z</time></trkpt><trkpt lat="43.4699491" lon="11.9791011"><ele>946.0</ele><time>2026-04-19T11:33:32.536Z</time></trkpt><trkpt lat="43.4699128" lon="11.9790287"><ele>946.0</ele><time>2026-04-19T11:33:34.533Z</time></trkpt><trkpt lat="43.4698847" lon="11.9789432"><ele>946.0</ele><time>2026-04-19T11:33:36.519Z</time></trkpt><trkpt lat="43.4698446" lon="11.9788576"><ele>946.0</ele><time>2026-04-19T11:33:38.544Z</time></trkpt><trkpt lat="43.4698045" lon="11.9787665"><ele>946.0</ele><time>2026-04-19T11:33:40.541Z</time></trkpt><trkpt lat="43.4697648" lon="11.9786663"><ele>947.4</ele><time>2026-04-19T11:33:42.553Z</time></trkpt><trkpt lat="43.4697172" lon="11.9785613"><ele>948.8</ele><time>2026-04-19T11:33:44.526Z</time></trkpt><trkpt lat="43.4696759" lon="11.9784497"><ele>950.1999999999999</ele><time>2026-04-19T11:33:46.549Z</time></trkpt><trkpt lat="43.4696329" lon="11.9783286"><ele>951.5999999999999</ele><time>2026-04-19T11:33:48.546Z</time></trkpt><trkpt lat="43.4695805" lon="11.9782114"><ele>953.0</ele><time>2026-04-19T11:33:50.542Z</time></trkpt><trkpt lat="43.4695267" lon="11.9780951"><ele>953.0</ele><time>2026-04-19T11:33:52.548Z</time></trkpt><trkpt lat="43.4694757" lon="11.9779809"><ele>953.0</ele><time>2026-04-19T11:33:54.546Z</time></trkpt><trkpt lat="43.4694251" lon="11.9778639"><ele>953.0</ele><time>2026-04-19T11:33:56.524Z</time></trkpt><trkpt lat="43.4693676" lon="11.9777446"><ele>953.0</ele><time>2026-04-19T11:33:58.544Z</time></trkpt><trkpt lat="43.4693127" lon="11.9776154"><ele>953.0</ele><time>2026-04-19T11:34:00.535Z</time></trkpt><trkpt lat="43.4692578" lon="11.9774728"><ele>953.0000000000001</ele><time>2026-04-19T11:34:02.547Z</time></trkpt><trkpt lat="43.4691916" lon="11.9773226"><ele>953.0</ele><time>2026-04-19T11:34:04.546Z</time></trkpt><trkpt lat="43.4691555" lon="11.977242"><ele>953.0</ele><time>2026-04-19T11:34:05.537Z</time></trkpt><trkpt lat="43.46912" lon="11.9771551"><ele>953.0</ele><time>2026-04-19T11:34:06.547Z</time></trkpt><trkpt lat="43.4690843" lon="11.9770642"><ele>953.0000000000001</ele><time>2026-04-19T11:34:07.553Z</time></trkpt><trkpt lat="43.4690414" lon="11.9769778"><ele>953.0</ele><time>2026-04-19T11:34:08.547Z</time></trkpt><trkpt lat="43.4689998" lon="11.9768934"><ele>953.0000000000001</ele><time>2026-04-19T11:34:09.543Z</time></trkpt><trkpt lat="43.4689637" lon="11.9768006"><ele>953.0</ele><time>2026-04-19T11:34:10.553Z</time></trkpt><trkpt lat="43.4689214" lon="11.9767079"><ele>953.0</ele><time>2026-04-19T11:34:11.534Z</time></trkpt><trkpt lat="43.4688801" lon="11.9766113"><ele>953.0</ele><time>2026-04-19T11:34:12.538Z</time></trkpt><trkpt lat="43.4688419" lon="11.976504"><ele>953.0000000000001</ele><time>2026-04-19T11:34:13.526Z</time></trkpt><trkpt lat="43.4688037" lon="11.9763955"><ele>953.0</ele><time>2026-04-19T11:34:14.539Z</time></trkpt><trkpt lat="43.468767" lon="11.9762829"><ele>948.2</ele><time>2026-04-19T11:34:15.518Z</time></trkpt><trkpt lat="43.4687321" lon="11.9761679"><ele>943.4</ele><time>2026-04-19T11:34:16.525Z</time></trkpt><trkpt lat="43.4686971" lon="11.9760506"><ele>938.6000000000001</ele><time>2026-04-19T11:34:17.527Z</time></trkpt><trkpt lat="43.4686643" lon="11.9759299"><ele>933.8000000000001</ele><time>2026-04-19T11:34:18.536Z</time></trkpt><trkpt lat="43.4686403" lon="11.9758127"><ele>929.0</ele><time>2026-04-19T11:34:19.541Z</time></trkpt><trkpt lat="43.4686298" lon="11.9756906"><ele>929.0000000000001</ele><time>2026-04-19T11:34:20.536Z</time></trkpt><trkpt lat="43.4686211" lon="11.9755732"><ele>929.0</ele><time>2026-04-19T11:34:21.544Z</time></trkpt><trkpt lat="43.4686358" lon="11.9754555"><ele>929.0</ele><time>2026-04-19T11:34:22.548Z</time></trkpt><trkpt lat="43.468661" lon="11.9753403"><ele>929.0</ele><time>2026-04-19T11:34:23.523Z</time></trkpt><trkpt lat="43.468693" lon="11.9752361"><ele>929.0000000000001</ele><time>2026-04-19T11:34:24.549Z</time></trkpt><trkpt lat="43.4687334" lon="11.9751434"><ele>929.0</ele><time>2026-04-19T11:34:25.536Z</time></trkpt><trkpt lat="43.4687849" lon="11.9750702"><ele>931.3333333333334</ele><time>2026-04-19T11:34:26.566Z</time></trkpt><trkpt lat="43.4688463" lon="11.9750157"><ele>933.6666666666667</ele><time>2026-04-19T11:34:27.54Z</time></trkpt><trkpt lat="43.4689161" lon="11.9749867"><ele>936.0</ele><time>2026-04-19T11:34:28.545Z</time></trkpt><trkpt lat="43.4689909" lon="11.9749682"><ele>938.3333333333333</ele><time>2026-04-19T11:34:29.541Z</time></trkpt><trkpt lat="43.4690679" lon="11.9749514"><ele>940.6666666666666</ele><time>2026-04-19T11:34:30.531Z</time></trkpt><trkpt lat="43.4691359" lon="11.9749025"><ele>943.0</ele><time>2026-04-19T11:34:31.531Z</time></trkpt><trkpt lat="43.4691839" lon="11.9748207"><ele>942.9999999999999</ele><time>2026-04-19T11:34:32.525Z</time></trkpt><trkpt lat="43.4692106" lon="11.9747198"><ele>943.0</ele><time>2026-04-19T11:34:33.543Z</time></trkpt><trkpt lat="43.4692233" lon="11.9746117"><ele>943.0</ele><time>2026-04-19T11:34:34.537Z</time></trkpt><trkpt lat="43.4692218" lon="11.9745006"><ele>943.0</ele><time>2026-04-19T11:34:35.544Z</time></trkpt><trkpt lat="43.4692046" lon="11.9743901"><ele>942.9999999999999</ele><time>2026-04-19T11:34:36.552Z</time></trkpt><trkpt lat="43.4691722" lon="11.9742832"><ele>943.0</ele><time>2026-04-19T11:34:37.547Z</time></trkpt><trkpt lat="43.4691267" lon="11.9741826"><ele>941.8333333333333</ele><time>2026-04-19T11:34:38.533Z</time></trkpt><trkpt lat="43.4690768" lon="11.9740838"><ele>940.6666666666666</ele><time>2026-04-19T11:34:39.541Z</time></trkpt><trkpt lat="43.4690263" lon="11.9739857"><ele>939.5</ele><time>2026-04-19T11:34:40.536Z</time></trkpt><trkpt lat="43.4689809" lon="11.973884"><ele>938.3333333333333</ele><time>2026-04-19T11:34:41.535Z</time></trkpt><trkpt lat="43.4689372" lon="11.9737795"><ele>937.1666666666666</ele><time>2026-04-19T11:34:42.543Z</time></trkpt><trkpt lat="43.4688912" lon="11.973676"><ele>936.0</ele><time>2026-04-19T11:34:43.538Z</time></trkpt><trkpt lat="43.4688415" lon="11.9735733"><ele>936.0</ele><time>2026-04-19T11:34:44.543Z</time></trkpt><trkpt lat="43.4687914" lon="11.9734661"><ele>936.0</ele><time>2026-04-19T11:34:45.532Z</time></trkpt><trkpt lat="43.4687495" lon="11.9733531"><ele>936.0</ele><time>2026-04-19T11:34:46.539Z</time></trkpt><trkpt lat="43.4687191" lon="11.9732463"><ele>936.0</ele><time>2026-04-19T11:34:47.519Z</time></trkpt><trkpt lat="43.4686954" lon="11.9731399"><ele>936.0</ele><time>2026-04-19T11:34:48.524Z</time></trkpt><trkpt lat="43.4686708" lon="11.9730289"><ele>936.0</ele><time>2026-04-19T11:34:49.535Z</time></trkpt><trkpt lat="43.4686714" lon="11.9729072"><ele>935.0</ele><time>2026-04-19T11:34:50.552Z</time></trkpt><trkpt lat="43.4686811" lon="11.9727849"><ele>934.0</ele><time>2026-04-19T11:34:51.542Z</time></trkpt><trkpt lat="43.4686991" lon="11.9726695"><ele>933.0</ele><time>2026-04-19T11:34:52.525Z</time></trkpt><trkpt lat="43.4687196" lon="11.9725607"><ele>932.0</ele><time>2026-04-19T11:34:53.534Z</time></trkpt><trkpt lat="43.4687509" lon="11.972455"><ele>931.0</ele><time>2026-04-19T11:34:54.541Z</time></trkpt><trkpt lat="43.4687839" lon="11.9723463"><ele>930.0</ele><time>2026-04-19T11:34:55.55Z</time></trkpt><trkpt lat="43.4688322" lon="11.9722477"><ele>930.0</ele><time>2026-04-19T11:34:56.548Z</time></trkpt><trkpt lat="43.4688973" lon="11.9721578"><ele>930.0</ele><time>2026-04-19T11:34:57.525Z</time></trkpt><trkpt lat="43.4689599" lon="11.9720621"><ele>930.0</ele><time>2026-04-19T11:34:58.528Z</time></trkpt><trkpt lat="43.4690244" lon="11.9719557"><ele>930.0</ele><time>2026-04-19T11:34:59.537Z</time></trkpt><trkpt lat="43.4690898" lon="11.9718498"><ele>930.0</ele><time>2026-04-19T11:35:00.52Z</time></trkpt><trkpt lat="43.4691571" lon="11.9717353"><ele>926.5</ele><time>2026-04-19T11:35:01.531Z</time></trkpt><trkpt lat="43.4692266" lon="11.9716176"><ele>923.0</ele><time>2026-04-19T11:35:02.534Z</time></trkpt><trkpt lat="43.4693011" lon="11.9714986"><ele>919.5</ele><time>2026-04-19T11:35:03.552Z</time></trkpt><trkpt lat="43.4693809" lon="11.9713761"><ele>916.0</ele><time>2026-04-19T11:35:04.527Z</time></trkpt><trkpt lat="43.4694618" lon="11.9712529"><ele>916.0</ele><time>2026-04-19T11:35:05.538Z</time></trkpt><trkpt lat="43.4695389" lon="11.9711255"><ele>916.0</ele><time>2026-04-19T11:35:06.519Z</time></trkpt><trkpt lat="43.4696118" lon="11.9709966"><ele>916.0</ele><time>2026-04-19T11:35:07.52Z</time></trkpt><trkpt lat="43.4696712" lon="11.9708667"><ele>916.0</ele><time>2026-04-19T11:35:08.528Z</time></trkpt><trkpt lat="43.4697263" lon="11.9707486"><ele>915.0</ele><time>2026-04-19T11:35:09.523Z</time></trkpt><trkpt lat="43.4697819" lon="11.9706456"><ele>913.9999999999999</ele><time>2026-04-19T11:35:10.536Z</time></trkpt><trkpt lat="43.4698421" lon="11.9705454"><ele>912.9999999999999</ele><time>2026-04-19T11:35:11.534Z</time></trkpt><trkpt lat="43.4699093" lon="11.9704491"><ele>912.0</ele><time>2026-04-19T11:35:12.545Z</time></trkpt><trkpt lat="43.4699808" lon="11.9703528"><ele>911.0</ele><time>2026-04-19T11:35:13.535Z</time></trkpt><trkpt lat="43.4700573" lon="11.9702636"><ele>911.0</ele><time>2026-04-19T11:35:14.538Z</time></trkpt><trkpt lat="43.4701344" lon="11.9701737"><ele>910.9999999999999</ele><time>2026-04-19T11:35:15.525Z</time></trkpt><trkpt lat="43.4702132" lon="11.9700827"><ele>910.9999999999999</ele><time>2026-04-19T11:35:16.542Z</time></trkpt><trkpt lat="43.4702922" lon="11.9699947"><ele>911.0</ele><time>2026-04-19T11:35:17.537Z</time></trkpt><trkpt lat="43.4703722" lon="11.9699059"><ele>911.0</ele><time>2026-04-19T11:35:18.534Z</time></trkpt><trkpt lat="43.470453" lon="11.9698129"><ele>909.8</ele><time>2026-04-19T11:35:19.522Z</time></trkpt><trkpt lat="43.4705315" lon="11.9697141"><ele>908.5999999999999</ele><time>2026-04-19T11:35:20.527Z</time></trkpt><trkpt lat="43.4706105" lon="11.9696113"><ele>907.4</ele><time>2026-04-19T11:35:21.509Z</time></trkpt><trkpt lat="43.4706877" lon="11.9695039"><ele>906.2</ele><time>2026-04-19T11:35:22.537Z</time></trkpt><trkpt lat="43.470759" lon="11.9693908"><ele>905.0</ele><time>2026-04-19T11:35:23.538Z</time></trkpt><trkpt lat="43.4708285" lon="11.9692762"><ele>902.6</ele><time>2026-04-19T11:35:24.542Z</time></trkpt><trkpt lat="43.4708996" lon="11.9691721"><ele>900.2</ele><time>2026-04-19T11:35:25.532Z</time></trkpt><trkpt lat="43.4709791" lon="11.9690837"><ele>897.8</ele><time>2026-04-19T11:35:26.532Z</time></trkpt><trkpt lat="43.4710711" lon="11.969007"><ele>895.4</ele><time>2026-04-19T11:35:27.519Z</time></trkpt><trkpt lat="43.4711697" lon="11.9689402"><ele>893.0</ele><time>2026-04-19T11:35:28.537Z</time></trkpt><trkpt lat="43.4712611" lon="11.9688626"><ele>893.0</ele><time>2026-04-19T11:35:29.514Z</time></trkpt><trkpt lat="43.4713318" lon="11.9687629"><ele>893.0</ele><time>2026-04-19T11:35:30.553Z</time></trkpt><trkpt lat="43.4713789" lon="11.9686482"><ele>893.0</ele><time>2026-04-19T11:35:31.525Z</time></trkpt><trkpt lat="43.4714051" lon="11.968526"><ele>893.0</ele><time>2026-04-19T11:35:32.527Z</time></trkpt><trkpt lat="43.4714226" lon="11.9684058"><ele>893.0</ele><time>2026-04-19T11:35:33.527Z</time></trkpt><trkpt lat="43.4714423" lon="11.9682898"><ele>893.0000000000001</ele><time>2026-04-19T11:35:34.558Z</time></trkpt><trkpt lat="43.4714658" lon="11.9681786"><ele>893.0</ele><time>2026-04-19T11:35:35.532Z</time></trkpt><trkpt lat="43.4714876" lon="11.968066"><ele>893.0</ele><time>2026-04-19T11:35:36.545Z</time></trkpt><trkpt lat="43.4715078" lon="11.9679514"><ele>893.0</ele><time>2026-04-19T11:35:37.527Z</time></trkpt><trkpt lat="43.4715289" lon="11.9678351"><ele>893.0000000000001</ele><time>2026-04-19T11:35:38.552Z</time></trkpt><trkpt lat="43.4715476" lon="11.9677162"><ele>893.0</ele><time>2026-04-19T11:35:39.549Z</time></trkpt><trkpt lat="43.471566" lon="11.9675931"><ele>891.4</ele><time>2026-04-19T11:35:40.552Z</time></trkpt><trkpt lat="43.471583" lon="11.9674658"><ele>889.8</ele><time>2026-04-19T11:35:41.56Z</time></trkpt><trkpt lat="43.4715984" lon="11.9673355"><ele>888.2</ele><time>2026-04-19T11:35:42.524Z</time></trkpt><trkpt lat="43.4716154" lon="11.9672018"><ele>886.6</ele><time>2026-04-19T11:35:43.542Z</time></trkpt><trkpt lat="43.4716443" lon="11.967067"><ele>885.0</ele><time>2026-04-19T11:35:44.51Z</time></trkpt><trkpt lat="43.4716829" lon="11.966932"><ele>885.0</ele><time>2026-04-19T11:35:45.539Z</time></trkpt><trkpt lat="43.4717198" lon="11.9667928"><ele>885.0</ele><time>2026-04-19T11:35:46.55Z</time></trkpt><trkpt lat="43.4717588" lon="11.9666646"><ele>885.0</ele><time>2026-04-19T11:35:47.536Z</time></trkpt><trkpt lat="43.4717974" lon="11.9665425"><ele>885.0</ele><time>2026-04-19T11:35:48.545Z</time></trkpt><trkpt lat="43.4718336" lon="11.9664246"><ele>885.0</ele><time>2026-04-19T11:35:49.525Z</time></trkpt><trkpt lat="43.4718785" lon="11.966319"><ele>883.8333333333334</ele><time>2026-04-19T11:35:50.536Z</time></trkpt><trkpt lat="43.4719322" lon="11.9662237"><ele>882.6666666666667</ele><time>2026-04-19T11:35:51.541Z</time></trkpt><trkpt lat="43.4719901" lon="11.9661359"><ele>881.5</ele><time>2026-04-19T11:35:52.529Z</time></trkpt><trkpt lat="43.4720488" lon="11.966062"><ele>880.3333333333334</ele><time>2026-04-19T11:35:53.549Z</time></trkpt><trkpt lat="43.4721122" lon="11.9660096"><ele>879.1666666666667</ele><time>2026-04-19T11:35:54.547Z</time></trkpt><trkpt lat="43.4721777" lon="11.9659761"><ele>878.0</ele><time>2026-04-19T11:35:55.545Z</time></trkpt><trkpt lat="43.4722422" lon="11.9659654"><ele>878.0000000000001</ele><time>2026-04-19T11:35:56.547Z</time></trkpt><trkpt lat="43.4723566" lon="11.9660279"><ele>878.0</ele><time>2026-04-19T11:35:58.54Z</time></trkpt><trkpt lat="43.4724107" lon="11.966085"><ele>878.0</ele><time>2026-04-19T11:35:59.54Z</time></trkpt><trkpt lat="43.4724693" lon="11.96615"><ele>878.0</ele><time>2026-04-19T11:36:00.526Z</time></trkpt><trkpt lat="43.4725299" lon="11.9662246"><ele>878.0000000000001</ele><time>2026-04-19T11:36:01.548Z</time></trkpt><trkpt lat="43.4725959" lon="11.9663038"><ele>878.0</ele><time>2026-04-19T11:36:02.539Z</time></trkpt><trkpt lat="43.4726596" lon="11.9663793"><ele>878.0000000000001</ele><time>2026-04-19T11:36:03.525Z</time></trkpt><trkpt lat="43.4727118" lon="11.9664659"><ele>878.0</ele><time>2026-04-19T11:36:04.534Z</time></trkpt><trkpt lat="43.4727581" lon="11.9665649"><ele>878.0</ele><time>2026-04-19T11:36:05.543Z</time></trkpt><trkpt lat="43.4728048" lon="11.9666588"><ele>878.0</ele><time>2026-04-19T11:36:06.544Z</time></trkpt><trkpt lat="43.4728491" lon="11.9667454"><ele>878.0000000000001</ele><time>2026-04-19T11:36:07.542Z</time></trkpt><trkpt lat="43.4729061" lon="11.9668223"><ele>878.0</ele><time>2026-04-19T11:36:08.522Z</time></trkpt><trkpt lat="43.4729788" lon="11.9668917"><ele>877.0</ele><time>2026-04-19T11:36:09.549Z</time></trkpt><trkpt lat="43.4730642" lon="11.9669566"><ele>876.0</ele><time>2026-04-19T11:36:10.538Z</time></trkpt><trkpt lat="43.4731645" lon="11.9670069"><ele>875.0</ele><time>2026-04-19T11:36:11.541Z</time></trkpt><trkpt lat="43.4732606" lon="11.9670431"><ele>874.0</ele><time>2026-04-19T11:36:12.532Z</time></trkpt><trkpt lat="43.4733556" lon="11.9670665"><ele>873.0</ele><time>2026-04-19T11:36:13.535Z</time></trkpt><trkpt lat="43.4734452" lon="11.9670782"><ele>873.0</ele><time>2026-04-19T11:36:14.551Z</time></trkpt><trkpt lat="43.4735333" lon="11.9670807"><ele>873.0</ele><time>2026-04-19T11:36:15.523Z</time></trkpt><trkpt lat="43.4736202" lon="11.9670839"><ele>873.0</ele><time>2026-04-19T11:36:16.545Z</time></trkpt><trkpt lat="43.4737044" lon="11.9670841"><ele>873.0</ele><time>2026-04-19T11:36:17.524Z</time></trkpt><trkpt lat="43.473793" lon="11.9670894"><ele>873.0</ele><time>2026-04-19T11:36:18.529Z</time></trkpt><trkpt lat="43.4738805" lon="11.9670917"><ele>873.0</ele><time>2026-04-19T11:36:19.551Z</time></trkpt><trkpt lat="43.4739649" lon="11.9670914"><ele>871.5714285714286</ele><time>2026-04-19T11:36:20.544Z</time></trkpt><trkpt lat="43.4740443" lon="11.9670847"><ele>870.1428571428571</ele><time>2026-04-19T11:36:21.545Z</time></trkpt><trkpt lat="43.4741208" lon="11.9670679"><ele>868.7142857142858</ele><time>2026-04-19T11:36:22.543Z</time></trkpt><trkpt lat="43.474193" lon="11.9670394"><ele>867.2857142857142</ele><time>2026-04-19T11:36:23.548Z</time></trkpt><trkpt lat="43.4742619" lon="11.9669994"><ele>865.8571428571429</ele><time>2026-04-19T11:36:24.545Z</time></trkpt><trkpt lat="43.474321" lon="11.9669474"><ele>864.4285714285714</ele><time>2026-04-19T11:36:25.541Z</time></trkpt><trkpt lat="43.4743759" lon="11.9668905"><ele>863.0</ele><time>2026-04-19T11:36:26.53Z</time></trkpt><trkpt lat="43.4744238" lon="11.9668228"><ele>863.0000000000001</ele><time>2026-04-19T11:36:27.516Z</time></trkpt><trkpt lat="43.4744657" lon="11.966752"><ele>863.0</ele><time>2026-04-19T11:36:28.544Z</time></trkpt><trkpt lat="43.4745061" lon="11.9666783"><ele>863.0</ele><time>2026-04-19T11:36:29.53Z</time></trkpt><trkpt lat="43.474548" lon="11.9665981"><ele>863.0</ele><time>2026-04-19T11:36:30.542Z</time></trkpt><trkpt lat="43.4745856" lon="11.9665165"><ele>863.0</ele><time>2026-04-19T11:36:31.516Z</time></trkpt><trkpt lat="43.4746237" lon="11.9664365"><ele>863.0000000000001</ele><time>2026-04-19T11:36:32.54Z</time></trkpt><trkpt lat="43.474664" lon="11.9663549"><ele>863.0</ele><time>2026-04-19T11:36:33.545Z</time></trkpt><trkpt lat="43.4747017" lon="11.9662683"><ele>862.3333333333334</ele><time>2026-04-19T11:36:34.542Z</time></trkpt><trkpt lat="43.4747392" lon="11.9661794"><ele>861.6666666666667</ele><time>2026-04-19T11:36:35.545Z</time></trkpt><trkpt lat="43.4747798" lon="11.9660908"><ele>861.0</ele><time>2026-04-19T11:36:36.534Z</time></trkpt><trkpt lat="43.4748221" lon="11.966003"><ele>860.3333333333333</ele><time>2026-04-19T11:36:37.548Z</time></trkpt><trkpt lat="43.4748676" lon="11.9659139"><ele>859.6666666666666</ele><time>2026-04-19T11:36:38.528Z</time></trkpt><trkpt lat="43.474914" lon="11.9658246"><ele>859.0</ele><time>2026-04-19T11:36:39.546Z</time></trkpt><trkpt lat="43.474959" lon="11.9657322"><ele>857.4999999999999</ele><time>2026-04-19T11:36:40.546Z</time></trkpt><trkpt lat="43.4750026" lon="11.9656385"><ele>856.0</ele><time>2026-04-19T11:36:41.542Z</time></trkpt><trkpt lat="43.4750471" lon="11.9655411"><ele>854.5</ele><time>2026-04-19T11:36:42.521Z</time></trkpt><trkpt lat="43.4750936" lon="11.9654436"><ele>853.0</ele><time>2026-04-19T11:36:43.522Z</time></trkpt><trkpt lat="43.4751428" lon="11.9653406"><ele>851.4999999999999</ele><time>2026-04-19T11:36:44.529Z</time></trkpt><trkpt lat="43.4751922" lon="11.9652364"><ele>850.0</ele><time>2026-04-19T11:36:45.54Z</time></trkpt><trkpt lat="43.4752407" lon="11.965128"><ele>848.3333333333333</ele><time>2026-04-19T11:36:46.54Z</time></trkpt><trkpt lat="43.4752774" lon="11.9650113"><ele>846.6666666666666</ele><time>2026-04-19T11:36:47.523Z</time></trkpt><trkpt lat="43.475297" lon="11.9648895"><ele>845.0</ele><time>2026-04-19T11:36:48.53Z</time></trkpt><trkpt lat="43.4753061" lon="11.9647682"><ele>843.3333333333333</ele><time>2026-04-19T11:36:49.531Z</time></trkpt><trkpt lat="43.4753142" lon="11.9646474"><ele>841.6666666666666</ele><time>2026-04-19T11:36:50.529Z</time></trkpt><trkpt lat="43.4753189" lon="11.9645265"><ele>840.0</ele><time>2026-04-19T11:36:51.519Z</time></trkpt><trkpt lat="43.475323" lon="11.9644021"><ele>840.0</ele><time>2026-04-19T11:36:52.529Z</time></trkpt><trkpt lat="43.4753302" lon="11.9642741"><ele>840.0</ele><time>2026-04-19T11:36:53.543Z</time></trkpt><trkpt lat="43.4753392" lon="11.9641454"><ele>840.0</ele><time>2026-04-19T11:36:54.513Z</time></trkpt><trkpt lat="43.4753494" lon="11.964013"><ele>840.0</ele><time>2026-04-19T11:36:55.536Z</time></trkpt><trkpt lat="43.4753615" lon="11.963877"><ele>840.0</ele><time>2026-04-19T11:36:56.547Z</time></trkpt><trkpt lat="43.4753893" lon="11.9637433"><ele>840.8</ele><time>2026-04-19T11:36:57.507Z</time></trkpt><trkpt lat="43.475436" lon="11.9636154"><ele>841.6</ele><time>2026-04-19T11:36:58.514Z</time></trkpt><trkpt lat="43.4755005" lon="11.9634961"><ele>842.4000000000001</ele><time>2026-04-19T11:36:59.513Z</time></trkpt><trkpt lat="43.4755717" lon="11.963382"><ele>843.2</ele><time>2026-04-19T11:37:00.522Z</time></trkpt><trkpt lat="43.4756281" lon="11.9632551"><ele>844.0</ele><time>2026-04-19T11:37:01.526Z</time></trkpt><trkpt lat="43.4756598" lon="11.9631121"><ele>841.9999999999999</ele><time>2026-04-19T11:37:02.521Z</time></trkpt><trkpt lat="43.4756784" lon="11.9629739"><ele>840.0</ele><time>2026-04-19T11:37:03.55Z</time></trkpt><trkpt lat="43.4756967" lon="11.9628519"><ele>838.0</ele><time>2026-04-19T11:37:04.519Z</time></trkpt><trkpt lat="43.4757111" lon="11.9627376"><ele>836.0</ele><time>2026-04-19T11:37:05.53Z</time></trkpt><trkpt lat="43.4757246" lon="11.9626186"><ele>833.9999999999999</ele><time>2026-04-19T11:37:06.518Z</time></trkpt><trkpt lat="43.4757371" lon="11.9625029"><ele>832.0</ele><time>2026-04-19T11:37:07.522Z</time></trkpt><trkpt lat="43.4757487" lon="11.9623901"><ele>829.8</ele><time>2026-04-19T11:37:08.521Z</time></trkpt><trkpt lat="43.4757631" lon="11.9622898"><ele>827.6</ele><time>2026-04-19T11:37:09.539Z</time></trkpt><trkpt lat="43.4757888" lon="11.9622001"><ele>825.4</ele><time>2026-04-19T11:37:10.518Z</time></trkpt><trkpt lat="43.4758704" lon="11.9620848"><ele>823.1999999999999</ele><time>2026-04-19T11:37:12.534Z</time></trkpt><trkpt lat="43.4759806" lon="11.9620695"><ele>821.0</ele><time>2026-04-19T11:37:14.538Z</time></trkpt><trkpt lat="43.4761026" lon="11.962092"><ele>821.0000000000001</ele><time>2026-04-19T11:37:16.525Z</time></trkpt><trkpt lat="43.4761699" lon="11.9620736"><ele>821.0</ele><time>2026-04-19T11:37:17.532Z</time></trkpt><trkpt lat="43.4762382" lon="11.9620296"><ele>821.0</ele><time>2026-04-19T11:37:18.549Z</time></trkpt><trkpt lat="43.4763062" lon="11.9619649"><ele>821.0</ele><time>2026-04-19T11:37:19.529Z</time></trkpt><trkpt lat="43.4763776" lon="11.9618893"><ele>821.0000000000001</ele><time>2026-04-19T11:37:20.53Z</time></trkpt><trkpt lat="43.4764573" lon="11.9618154"><ele>821.0</ele><time>2026-04-19T11:37:21.548Z</time></trkpt><trkpt lat="43.4765453" lon="11.9617469"><ele>818.6666666666667</ele><time>2026-04-19T11:37:22.525Z</time></trkpt><trkpt lat="43.4766314" lon="11.9616901"><ele>816.3333333333334</ele><time>2026-04-19T11:37:23.532Z</time></trkpt><trkpt lat="43.4767033" lon="11.9616464"><ele>814.0</ele><time>2026-04-19T11:37:24.536Z</time></trkpt><trkpt lat="43.4767961" lon="11.9615755"><ele>811.6666666666667</ele><time>2026-04-19T11:37:26.541Z</time></trkpt><trkpt lat="43.4768358" lon="11.9614639"><ele>809.3333333333334</ele><time>2026-04-19T11:38:58.524Z</time></trkpt><trkpt lat="43.4768913" lon="11.961387"><ele>807.0</ele><time>2026-04-19T11:39:00.55Z</time></trkpt><trkpt lat="43.4769895" lon="11.9612776"><ele>807.0</ele><time>2026-04-19T11:39:02.515Z</time></trkpt><trkpt lat="43.4770509" lon="11.9612117"><ele>807.0</ele><time>2026-04-19T11:39:03.551Z</time></trkpt><trkpt lat="43.4771143" lon="11.9611398"><ele>807.0</ele><time>2026-04-19T11:39:04.53Z</time></trkpt><trkpt lat="43.4771845" lon="11.9610724"><ele>807.0</ele><time>2026-04-19T11:39:05.536Z</time></trkpt><trkpt lat="43.4772667" lon="11.961017"><ele>807.0</ele><time>2026-04-19T11:39:06.547Z</time></trkpt><trkpt lat="43.4773534" lon="11.9609735"><ele>807.0</ele><time>2026-04-19T11:39:07.554Z</time></trkpt><trkpt lat="43.4774265" lon="11.9609211"><ele>806.0000000000001</ele><time>2026-04-19T11:39:08.517Z</time></trkpt><trkpt lat="43.4774848" lon="11.960842"><ele>805.0</ele><time>2026-04-19T11:39:09.54Z</time></trkpt><trkpt lat="43.4775137" lon="11.9607421"><ele>804.0</ele><time>2026-04-19T11:39:10.539Z</time></trkpt><trkpt lat="43.4775107" lon="11.9606393"><ele>803.0</ele><time>2026-04-19T11:39:11.52Z</time></trkpt><trkpt lat="43.4774846" lon="11.9605472"><ele>802.0</ele><time>2026-04-19T11:39:12.539Z</time></trkpt><trkpt lat="43.4774525" lon="11.9604612"><ele>801.0000000000001</ele><time>2026-04-19T11:39:13.539Z</time></trkpt><trkpt lat="43.4774248" lon="11.9603731"><ele>800.0</ele><time>2026-04-19T11:39:14.545Z</time></trkpt><trkpt lat="43.4774067" lon="11.9602807"><ele>800.0000000000001</ele><time>2026-04-19T11:39:15.53Z</time></trkpt><trkpt lat="43.4773967" lon="11.9601852"><ele>800.0</ele><time>2026-04-19T11:39:16.532Z</time></trkpt><trkpt lat="43.4773909" lon="11.9600914"><ele>800.0</ele><time>2026-04-19T11:39:17.532Z</time></trkpt><trkpt lat="43.4773911" lon="11.959947"><ele>800.0</ele><time>2026-04-19T11:39:19.531Z</time></trkpt><trkpt lat="43.477399" lon="11.9598287"><ele>800.0000000000001</ele><time>2026-04-19T11:39:21.529Z</time></trkpt><trkpt lat="43.4774076" lon="11.9597186"><ele>800.0</ele><time>2026-04-19T11:39:23.523Z</time></trkpt><trkpt lat="43.4774115" lon="11.959606"><ele>799.1666666666667</ele><time>2026-04-19T11:39:25.531Z</time></trkpt><trkpt lat="43.4774266" lon="11.9594951"><ele>798.3333333333334</ele><time>2026-04-19T11:39:27.547Z</time></trkpt><trkpt lat="43.4774573" lon="11.959385"><ele>797.5</ele><time>2026-04-19T11:39:29.523Z</time></trkpt><trkpt lat="43.4775183" lon="11.9592829"><ele>796.6666666666667</ele><time>2026-04-19T11:39:31.535Z</time></trkpt><trkpt lat="43.4776068" lon="11.9591817"><ele>795.8333333333334</ele><time>2026-04-19T11:39:33.523Z</time></trkpt><trkpt lat="43.4776582" lon="11.959124"><ele>795.0</ele><time>2026-04-19T11:39:34.54Z</time></trkpt><trkpt lat="43.4777098" lon="11.9590601"><ele>795.0</ele><time>2026-04-19T11:39:35.522Z</time></trkpt><trkpt lat="43.4777616" lon="11.9589908"><ele>795.0</ele><time>2026-04-19T11:39:36.535Z</time></trkpt><trkpt lat="43.477816" lon="11.9589214"><ele>795.0</ele><time>2026-04-19T11:39:37.544Z</time></trkpt><trkpt lat="43.477876" lon="11.9588534"><ele>795.0</ele><time>2026-04-19T11:39:38.552Z</time></trkpt><trkpt lat="43.477943" lon="11.9587894"><ele>795.0</ele><time>2026-04-19T11:39:39.542Z</time></trkpt><trkpt lat="43.4780131" lon="11.9587287"><ele>795.0</ele><time>2026-04-19T11:39:40.519Z</time></trkpt><trkpt lat="43.4780867" lon="11.9586717"><ele>795.0</ele><time>2026-04-19T11:39:41.531Z</time></trkpt><trkpt lat="43.4781625" lon="11.9586138"><ele>795.0</ele><time>2026-04-19T11:39:42.518Z</time></trkpt><trkpt lat="43.4782376" lon="11.9585579"><ele>795.0</ele><time>2026-04-19T11:39:43.529Z</time></trkpt><trkpt lat="43.4783112" lon="11.9585141"><ele>795.0</ele><time>2026-04-19T11:39:44.536Z</time></trkpt><trkpt lat="43.4783881" lon="11.9584756"><ele>795.0</ele><time>2026-04-19T11:39:45.551Z</time></trkpt><trkpt lat="43.4784724" lon="11.9584343"><ele>795.0</ele><time>2026-04-19T11:39:46.529Z</time></trkpt><trkpt lat="43.4785642" lon="11.9583796"><ele>791.6</ele><time>2026-04-19T11:39:47.525Z</time></trkpt><trkpt lat="43.4786569" lon="11.9583149"><ele>788.2</ele><time>2026-04-19T11:39:48.527Z</time></trkpt><trkpt lat="43.4787477" lon="11.9582393"><ele>784.8</ele><time>2026-04-19T11:39:49.529Z</time></trkpt><trkpt lat="43.4788341" lon="11.9581508"><ele>781.4</ele><time>2026-04-19T11:39:50.518Z</time></trkpt><trkpt lat="43.4789168" lon="11.9580544"><ele>778.0</ele><time>2026-04-19T11:39:51.534Z</time></trkpt><trkpt lat="43.4789956" lon="11.9579515"><ele>777.9999999999999</ele><time>2026-04-19T11:39:52.542Z</time></trkpt><trkpt lat="43.479067" lon="11.9578472"><ele>778.0</ele><time>2026-04-19T11:39:53.547Z</time></trkpt><trkpt lat="43.4791239" lon="11.9577517"><ele>778.0</ele><time>2026-04-19T11:39:54.514Z</time></trkpt><trkpt lat="43.4791725" lon="11.9576693"><ele>778.0</ele><time>2026-04-19T11:39:55.529Z</time></trkpt><trkpt lat="43.4792175" lon="11.9575927"><ele>777.9999999999999</ele><time>2026-04-19T11:39:56.56Z</time></trkpt><trkpt lat="43.4792576" lon="11.957522"><ele>778.0</ele><time>2026-04-19T11:39:57.55Z</time></trkpt><trkpt lat="43.4793064" lon="11.95743"><ele>777.9999999999999</ele><time>2026-04-19T11:39:59.521Z</time></trkpt><trkpt lat="43.4792477" lon="11.9574872"><ele>778.0</ele><time>2026-04-19T11:40:06.538Z</time></trkpt><trkpt lat="43.4792095" lon="11.9575704"><ele>778.0</ele><time>2026-04-19T11:40:08.535Z</time></trkpt><trkpt lat="43.4791563" lon="11.9576594"><ele>778.0</ele><time>2026-04-19T11:40:10.544Z</time></trkpt><trkpt lat="43.4791065" lon="11.9577534"><ele>777.9999999999999</ele><time>2026-04-19T11:40:12.535Z</time></trkpt><trkpt lat="43.479039" lon="11.9577754"><ele>778.0</ele><time>2026-04-19T11:40:14.525Z</time></trkpt><trkpt lat="43.4789783" lon="11.9577116"><ele>778.0</ele><time>2026-04-19T11:40:16.542Z</time></trkpt><trkpt lat="43.4789009" lon="11.9576408"><ele>778.0</ele><time>2026-04-19T11:40:18.537Z</time></trkpt><trkpt lat="43.4788029" lon="11.9576365"><ele>778.0</ele><time>2026-04-19T11:40:20.531Z</time></trkpt><trkpt lat="43.4787146" lon="11.9576984"><ele>778.0</ele><time>2026-04-19T11:40:22.523Z</time></trkpt><trkpt lat="43.4786227" lon="11.9577435"><ele>778.0</ele><time>2026-04-19T11:40:24.54Z</time></trkpt><trkpt lat="43.4785362" lon="11.9578099"><ele>777.6666666666666</ele><time>2026-04-19T11:40:26.525Z</time></trkpt><trkpt lat="43.478462" lon="11.9578798"><ele>777.3333333333333</ele><time>2026-04-19T11:40:28.518Z</time></trkpt><trkpt lat="43.4783718" lon="11.957971"><ele>777.0</ele><time>2026-04-19T11:40:30.526Z</time></trkpt><trkpt lat="43.4783114" lon="11.9580002"><ele>776.6666666666667</ele><time>2026-04-19T11:40:31.516Z</time></trkpt><trkpt lat="43.4782496" lon="11.9580355"><ele>776.3333333333334</ele><time>2026-04-19T11:40:32.52Z</time></trkpt><trkpt lat="43.4781885" lon="11.9580582"><ele>776.0</ele><time>2026-04-19T11:40:33.544Z</time></trkpt><trkpt lat="43.4781203" lon="11.958063"><ele>776.0000000000001</ele><time>2026-04-19T11:40:34.521Z</time></trkpt><trkpt lat="43.4780406" lon="11.9580548"><ele>776.0</ele><time>2026-04-19T11:40:35.541Z</time></trkpt><trkpt lat="43.4779582" lon="11.9580344"><ele>776.0</ele><time>2026-04-19T11:40:36.545Z</time></trkpt><trkpt lat="43.4778896" lon="11.9580141"><ele>776.0</ele><time>2026-04-19T11:40:37.529Z</time></trkpt><trkpt lat="43.4778254" lon="11.9579826"><ele>776.0000000000001</ele><time>2026-04-19T11:40:38.526Z</time></trkpt><trkpt lat="43.4777714" lon="11.95783"><ele>776.0</ele><time>2026-04-19T11:40:40.538Z</time></trkpt><trkpt lat="43.4777427" lon="11.9577476"><ele>774.1999999999999</ele><time>2026-04-19T11:40:41.551Z</time></trkpt><trkpt lat="43.4777143" lon="11.9575768"><ele>772.4</ele><time>2026-04-19T11:40:43.544Z</time></trkpt><trkpt lat="43.4776925" lon="11.9574773"><ele>770.6</ele><time>2026-04-19T11:40:44.536Z</time></trkpt><trkpt lat="43.4776388" lon="11.9573446"><ele>768.8</ele><time>2026-04-19T11:40:46.529Z</time></trkpt><trkpt lat="43.4776459" lon="11.957213"><ele>767.0</ele><time>2026-04-19T11:40:48.529Z</time></trkpt><trkpt lat="43.477671" lon="11.9570394"><ele>765.0</ele><time>2026-04-19T11:40:50.543Z</time></trkpt><trkpt lat="43.4776831" lon="11.956938"><ele>763.0</ele><time>2026-04-19T11:40:51.527Z</time></trkpt><trkpt lat="43.4777036" lon="11.9568459"><ele>761.0</ele><time>2026-04-19T11:40:52.537Z</time></trkpt><trkpt lat="43.4777316" lon="11.9567103"><ele>759.0</ele><time>2026-04-19T11:40:54.529Z</time></trkpt><trkpt lat="43.4777529" lon="11.9565494"><ele>757.0</ele><time>2026-04-19T11:40:56.524Z</time></trkpt><trkpt lat="43.4777754" lon="11.9563909"><ele>755.2</ele><time>2026-04-19T11:40:58.536Z</time></trkpt><trkpt lat="43.477745" lon="11.956232"><ele>753.4000000000001</ele><time>2026-04-19T11:41:00.517Z</time></trkpt><trkpt lat="43.4777484" lon="11.9560839"><ele>751.5999999999999</ele><time>2026-04-19T11:41:02.515Z</time></trkpt><trkpt lat="43.4778283" lon="11.9559777"><ele>749.8</ele><time>2026-04-19T11:41:04.535Z</time></trkpt><trkpt lat="43.4778795" lon="11.9559115"><ele>748.0</ele><time>2026-04-19T11:41:05.53Z</time></trkpt><trkpt lat="43.4779499" lon="11.9558181"><ele>746.8333333333334</ele><time>2026-04-19T11:41:07.514Z</time></trkpt><trkpt lat="43.4780315" lon="11.9558208"><ele>745.6666666666667</ele><time>2026-04-19T11:41:09.531Z</time></trkpt><trkpt lat="43.4781474" lon="11.9557549"><ele>744.5</ele><time>2026-04-19T11:41:11.523Z</time></trkpt><trkpt lat="43.4781996" lon="11.9556904"><ele>743.3333333333334</ele><time>2026-04-19T11:41:12.512Z</time></trkpt><trkpt lat="43.4782156" lon="11.9555956"><ele>742.1666666666666</ele><time>2026-04-19T11:41:13.523Z</time></trkpt><trkpt lat="43.4782282" lon="11.9555003"><ele>741.0</ele><time>2026-04-19T11:41:14.513Z</time></trkpt><trkpt lat="43.4782126" lon="11.9554129"><ele>741.0</ele><time>2026-04-19T11:41:15.512Z</time></trkpt><trkpt lat="43.4781924" lon="11.9552551"><ele>741.0</ele><time>2026-04-19T11:41:17.514Z</time></trkpt><trkpt lat="43.4782293" lon="11.9551651"><ele>741.0</ele><time>2026-04-19T11:41:18.523Z</time></trkpt><trkpt lat="43.4782837" lon="11.9550731"><ele>741.0</ele><time>2026-04-19T11:41:19.515Z</time></trkpt><trkpt lat="43.4783107" lon="11.9549658"><ele>741.0</ele><time>2026-04-19T11:41:20.526Z</time></trkpt><trkpt lat="43.478323" lon="11.9548533"><ele>741.0</ele><time>2026-04-19T11:41:21.518Z</time></trkpt><trkpt lat="43.4783329" lon="11.9547566"><ele>739.8333333333334</ele><time>2026-04-19T11:41:22.524Z</time></trkpt><trkpt lat="43.4783358" lon="11.9546008"><ele>738.6666666666666</ele><time>2026-04-19T11:41:24.513Z</time></trkpt><trkpt lat="43.4783681" lon="11.9544989"><ele>737.5</ele><time>2026-04-19T11:41:26.535Z</time></trkpt><trkpt lat="43.4784063" lon="11.9544127"><ele>736.3333333333333</ele><time>2026-04-19T11:41:28.529Z</time></trkpt><trkpt lat="43.4784014" lon="11.9542571"><ele>735.1666666666666</ele><time>2026-04-19T11:41:30.522Z</time></trkpt><trkpt lat="43.4783952" lon="11.954164"><ele>734.0</ele><time>2026-04-19T11:41:31.521Z</time></trkpt><trkpt lat="43.4783934" lon="11.9540607"><ele>733.2</ele><time>2026-04-19T11:41:32.541Z</time></trkpt><trkpt lat="43.4784095" lon="11.9539573"><ele>732.4000000000001</ele><time>2026-04-19T11:41:33.516Z</time></trkpt><trkpt lat="43.4784238" lon="11.9537899"><ele>731.6</ele><time>2026-04-19T11:41:35.545Z</time></trkpt><trkpt lat="43.4783449" lon="11.9536512"><ele>730.8</ele><time>2026-04-19T11:41:37.537Z</time></trkpt><trkpt lat="43.4783101" lon="11.9535696"><ele>730.0</ele><time>2026-04-19T11:41:38.516Z</time></trkpt><trkpt lat="43.4782819" lon="11.9534769"><ele>730.0</ele><time>2026-04-19T11:41:39.541Z</time></trkpt><trkpt lat="43.4782127" lon="11.9533942"><ele>730.0</ele><time>2026-04-19T11:41:41.521Z</time></trkpt><trkpt lat="43.4781496" lon="11.9532677"><ele>730.0</ele><time>2026-04-19T11:41:43.541Z</time></trkpt><trkpt lat="43.4781456" lon="11.9531725"><ele>730.0</ele><time>2026-04-19T11:41:44.545Z</time></trkpt><trkpt lat="43.4781461" lon="11.9530788"><ele>730.0</ele><time>2026-04-19T11:41:45.52Z</time></trkpt><trkpt lat="43.4781498" lon="11.9529817"><ele>730.0</ele><time>2026-04-19T11:41:46.531Z</time></trkpt><trkpt lat="43.4781623" lon="11.952885"><ele>728.8333333333334</ele><time>2026-04-19T11:41:47.513Z</time></trkpt><trkpt lat="43.478215" lon="11.9527745"><ele>727.6666666666667</ele><time>2026-04-19T11:41:49.531Z</time></trkpt><trkpt lat="43.4782742" lon="11.9527364"><ele>726.5</ele><time>2026-04-19T11:41:50.538Z</time></trkpt><trkpt lat="43.4783295" lon="11.9526868"><ele>725.3333333333334</ele><time>2026-04-19T11:41:51.509Z</time></trkpt><trkpt lat="43.4783756" lon="11.9526201"><ele>724.1666666666666</ele><time>2026-04-19T11:41:52.516Z</time></trkpt><trkpt lat="43.4784313" lon="11.9525437"><ele>723.0</ele><time>2026-04-19T11:41:53.53Z</time></trkpt><trkpt lat="43.4784787" lon="11.9523826"><ele>719.5999999999999</ele><time>2026-04-19T11:41:55.518Z</time></trkpt><trkpt lat="43.4784457" lon="11.952213"><ele>716.1999999999999</ele><time>2026-04-19T11:41:57.525Z</time></trkpt><trkpt lat="43.4784179" lon="11.9521246"><ele>712.8</ele><time>2026-04-19T11:41:58.522Z</time></trkpt><trkpt lat="43.4784533" lon="11.9519517"><ele>709.4</ele><time>2026-04-19T11:42:00.517Z</time></trkpt><trkpt lat="43.4784968" lon="11.9518113"><ele>706.0</ele><time>2026-04-19T11:42:02.533Z</time></trkpt><trkpt lat="43.4784515" lon="11.9516506"><ele>702.8</ele><time>2026-04-19T11:42:04.51Z</time></trkpt><trkpt lat="43.4784217" lon="11.9515664"><ele>699.5999999999999</ele><time>2026-04-19T11:42:05.516Z</time></trkpt><trkpt lat="43.4784021" lon="11.9513919"><ele>696.4</ele><time>2026-04-19T11:42:07.515Z</time></trkpt><trkpt lat="43.4784075" lon="11.9512573"><ele>693.2</ele><time>2026-04-19T11:42:09.537Z</time></trkpt><trkpt lat="43.4784413" lon="11.9511202"><ele>690.0</ele><time>2026-04-19T11:42:11.536Z</time></trkpt><trkpt lat="43.4785257" lon="11.9510233"><ele>686.8</ele><time>2026-04-19T11:42:13.53Z</time></trkpt><trkpt lat="43.4785768" lon="11.9508696"><ele>683.6</ele><time>2026-04-19T11:42:15.529Z</time></trkpt><trkpt lat="43.4786126" lon="11.950714"><ele>680.4000000000001</ele><time>2026-04-19T11:42:17.518Z</time></trkpt><trkpt lat="43.4786205" lon="11.9505491"><ele>677.2</ele><time>2026-04-19T11:42:19.517Z</time></trkpt><trkpt lat="43.4786349" lon="11.9504609"><ele>674.0</ele><time>2026-04-19T11:42:20.534Z</time></trkpt><trkpt lat="43.478612" lon="11.9503019"><ele>674.0</ele><time>2026-04-19T11:42:22.53Z</time></trkpt><trkpt lat="43.4786074" lon="11.9502145"><ele>674.0</ele><time>2026-04-19T11:42:23.529Z</time></trkpt><trkpt lat="43.4785943" lon="11.9501201"><ele>674.0</ele><time>2026-04-19T11:42:24.512Z</time></trkpt><trkpt lat="43.4785456" lon="11.9499737"><ele>674.0</ele><time>2026-04-19T11:42:26.517Z</time></trkpt><trkpt lat="43.4785545" lon="11.9498806"><ele>674.0</ele><time>2026-04-19T11:42:27.533Z</time></trkpt><trkpt lat="43.4785652" lon="11.9497947"><ele>674.0</ele><time>2026-04-19T11:42:28.523Z</time></trkpt><trkpt lat="43.4785153" lon="11.9496361"><ele>672.1428571428572</ele><time>2026-04-19T11:42:30.518Z</time></trkpt><trkpt lat="43.4784665" lon="11.9495695"><ele>670.2857142857143</ele><time>2026-04-19T11:42:31.531Z</time></trkpt><trkpt lat="43.478443" lon="11.9494856"><ele>668.4285714285714</ele><time>2026-04-19T11:42:32.531Z</time></trkpt><trkpt lat="43.4784249" lon="11.9493937"><ele>666.5714285714287</ele><time>2026-04-19T11:42:33.524Z</time></trkpt><trkpt lat="43.4784334" lon="11.9493004"><ele>664.7142857142858</ele><time>2026-04-19T11:42:34.517Z</time></trkpt><trkpt lat="43.4784914" lon="11.9492236"><ele>662.8571428571429</ele><time>2026-04-19T11:42:35.527Z</time></trkpt><trkpt lat="43.4785518" lon="11.9491601"><ele>661.0</ele><time>2026-04-19T11:42:36.531Z</time></trkpt><trkpt lat="43.4786065" lon="11.9490379"><ele>659.5</ele><time>2026-04-19T11:42:38.51Z</time></trkpt><trkpt lat="43.4785277" lon="11.9489347"><ele>658.0</ele><time>2026-04-19T11:42:40.525Z</time></trkpt><trkpt lat="43.4784703" lon="11.9488792"><ele>656.5</ele><time>2026-04-19T11:42:41.53Z</time></trkpt><trkpt lat="43.4784187" lon="11.9488038"><ele>655.0</ele><time>2026-04-19T11:42:42.532Z</time></trkpt><trkpt lat="43.4783772" lon="11.9487164"><ele>653.5</ele><time>2026-04-19T11:42:43.534Z</time></trkpt><trkpt lat="43.4783539" lon="11.9486227"><ele>652.0</ele><time>2026-04-19T11:42:44.541Z</time></trkpt><trkpt lat="43.4783361" lon="11.948473"><ele>652.0</ele><time>2026-04-19T11:42:46.529Z</time></trkpt><trkpt lat="43.4783075" lon="11.9483777"><ele>652.0</ele><time>2026-04-19T11:42:48.512Z</time></trkpt><trkpt lat="43.4782767" lon="11.9482866"><ele>652.0</ele><time>2026-04-19T11:42:50.515Z</time></trkpt><trkpt lat="43.4783229" lon="11.9481913"><ele>652.0</ele><time>2026-04-19T11:42:52.533Z</time></trkpt><trkpt lat="43.478374" lon="11.9480689"><ele>652.0</ele><time>2026-04-19T11:42:54.531Z</time></trkpt><trkpt lat="43.4783462" lon="11.9479505"><ele>652.0</ele><time>2026-04-19T11:42:56.516Z</time></trkpt><trkpt lat="43.4782752" lon="11.9479048"><ele>651.0</ele><time>2026-04-19T11:42:58.531Z</time></trkpt><trkpt lat="43.4782159" lon="11.9478372"><ele>650.0</ele><time>2026-04-19T11:43:00.522Z</time></trkpt><trkpt lat="43.4781789" lon="11.9477399"><ele>649.0</ele><time>2026-04-19T11:43:02.523Z</time></trkpt><trkpt lat="43.4781888" lon="11.9476079"><ele>648.0</ele><time>2026-04-19T11:43:04.531Z</time></trkpt><trkpt lat="43.4782151" lon="11.9474648"><ele>647.0</ele><time>2026-04-19T11:43:06.538Z</time></trkpt><trkpt lat="43.4782105" lon="11.9473283"><ele>646.0</ele><time>2026-04-19T11:43:08.517Z</time></trkpt><trkpt lat="43.4781327" lon="11.9472264"><ele>645.0</ele><time>2026-04-19T11:43:10.513Z</time></trkpt><trkpt lat="43.4780531" lon="11.9471347"><ele>644.0</ele><time>2026-04-19T11:43:12.524Z</time></trkpt><trkpt lat="43.4779904" lon="11.9470636"><ele>643.0</ele><time>2026-04-19T11:43:14.538Z</time></trkpt><trkpt lat="43.4779356" lon="11.9470075"><ele>642.0</ele><time>2026-04-19T11:43:16.532Z</time></trkpt><trkpt lat="43.4778696" lon="11.9469091"><ele>639.8000000000001</ele><time>2026-04-19T11:43:19.519Z</time></trkpt><trkpt lat="43.4778314" lon="11.9467967"><ele>637.6</ele><time>2026-04-19T11:43:21.529Z</time></trkpt><trkpt lat="43.477834" lon="11.9466531"><ele>635.4000000000001</ele><time>2026-04-19T11:43:23.536Z</time></trkpt><trkpt lat="43.4778933" lon="11.9465382"><ele>633.2</ele><time>2026-04-19T11:43:25.527Z</time></trkpt><trkpt lat="43.4779606" lon="11.9464251"><ele>631.0</ele><time>2026-04-19T11:43:27.529Z</time></trkpt><trkpt lat="43.4780264" lon="11.9463145"><ele>631.0</ele><time>2026-04-19T11:43:29.539Z</time></trkpt><trkpt lat="43.4780896" lon="11.9462107"><ele>631.0</ele><time>2026-04-19T11:43:31.519Z</time></trkpt><trkpt lat="43.4781488" lon="11.9461091"><ele>631.0</ele><time>2026-04-19T11:43:33.536Z</time></trkpt><trkpt lat="43.4782033" lon="11.9460096"><ele>631.0</ele><time>2026-04-19T11:43:35.529Z</time></trkpt><trkpt lat="43.4782475" lon="11.9459183"><ele>631.0</ele><time>2026-04-19T11:43:37.545Z</time></trkpt><trkpt lat="43.4782932" lon="11.9458321"><ele>631.0</ele><time>2026-04-19T11:43:39.526Z</time></trkpt><trkpt lat="43.4783369" lon="11.9457557"><ele>629.8333333333334</ele><time>2026-04-19T11:43:41.537Z</time></trkpt><trkpt lat="43.4783764" lon="11.9456787"><ele>628.6666666666667</ele><time>2026-04-19T11:43:43.537Z</time></trkpt><trkpt lat="43.4784194" lon="11.9455972"><ele>627.5</ele><time>2026-04-19T11:43:45.539Z</time></trkpt><trkpt lat="43.478462" lon="11.9455196"><ele>626.3333333333334</ele><time>2026-04-19T11:43:47.55Z</time></trkpt><trkpt lat="43.478502" lon="11.9454367"><ele>625.1666666666666</ele><time>2026-04-19T11:43:49.508Z</time></trkpt><trkpt lat="43.4785591" lon="11.9453489"><ele>624.0</ele><time>2026-04-19T11:43:51.542Z</time></trkpt><trkpt lat="43.478616" lon="11.9452505"><ele>624.0</ele><time>2026-04-19T11:43:53.519Z</time></trkpt><trkpt lat="43.4786684" lon="11.9451593"><ele>624.0</ele><time>2026-04-19T11:43:55.518Z</time></trkpt><trkpt lat="43.4787165" lon="11.945057"><ele>624.0</ele><time>2026-04-19T11:43:57.522Z</time></trkpt><trkpt lat="43.4787462" lon="11.9449486"><ele>624.0</ele><time>2026-04-19T11:43:59.516Z</time></trkpt><trkpt lat="43.4787755" lon="11.9448515"><ele>624.0</ele><time>2026-04-19T11:44:01.543Z</time></trkpt><trkpt lat="43.4788111" lon="11.9447732"><ele>624.0</ele><time>2026-04-19T11:44:03.532Z</time></trkpt><trkpt lat="43.4788537" lon="11.9447046"><ele>625.6666666666666</ele><time>2026-04-19T11:44:05.542Z</time></trkpt><trkpt lat="43.478924" lon="11.9446154"><ele>627.3333333333334</ele><time>2026-04-19T11:44:08.525Z</time></trkpt><trkpt lat="43.4789761" lon="11.9445584"><ele>629.0</ele><time>2026-04-19T11:44:10.532Z</time></trkpt><trkpt lat="43.4790252" lon="11.9445019"><ele>630.6666666666667</ele><time>2026-04-19T11:44:12.516Z</time></trkpt><trkpt lat="43.4790913" lon="11.9444177"><ele>632.3333333333334</ele><time>2026-04-19T11:44:15.529Z</time></trkpt><trkpt lat="43.4791422" lon="11.9443461"><ele>634.0</ele><time>2026-04-19T11:44:17.56Z</time></trkpt><trkpt lat="43.479169" lon="11.9442555"><ele>633.1666666666667</ele><time>2026-04-19T11:44:19.601Z</time></trkpt><trkpt lat="43.4791931" lon="11.9441685"><ele>632.3333333333334</ele><time>2026-04-19T11:44:21.515Z</time></trkpt><trkpt lat="43.4792456" lon="11.9441125"><ele>631.5</ele><time>2026-04-19T11:44:23.538Z</time></trkpt><trkpt lat="43.4792871" lon="11.9440029"><ele>630.6666666666666</ele><time>2026-04-19T11:44:26.531Z</time></trkpt><trkpt lat="43.479306" lon="11.9439156"><ele>629.8333333333333</ele><time>2026-04-19T11:44:29.54Z</time></trkpt><trkpt lat="43.4793455" lon="11.9438126"><ele>629.0</ele><time>2026-04-19T11:44:33.544Z</time></trkpt><trkpt lat="43.4794025" lon="11.9437116"><ele>629.0</ele><time>2026-04-19T11:44:36.525Z</time></trkpt><trkpt lat="43.4794614" lon="11.9436135"><ele>629.0</ele><time>2026-04-19T11:44:39.532Z</time></trkpt><trkpt lat="43.4795147" lon="11.9435561"><ele>629.0</ele><time>2026-04-19T11:44:42.524Z</time></trkpt><trkpt lat="43.4795824" lon="11.9434869"><ele>629.0</ele><time>2026-04-19T11:44:44.513Z</time></trkpt><trkpt lat="43.4796378" lon="11.9434315"><ele>629.0</ele><time>2026-04-19T11:44:46.53Z</time></trkpt><trkpt lat="43.4796429" lon="11.9433033"><ele>629.0</ele><time>2026-04-19T11:44:49.521Z</time></trkpt><trkpt lat="43.4796282" lon="11.9431952"><ele>631.0</ele><time>2026-04-19T11:44:54.525Z</time></trkpt><trkpt lat="43.4796501" lon="11.943093"><ele>633.0</ele><time>2026-04-19T11:44:58.549Z</time></trkpt><trkpt lat="43.4796896" lon="11.9429814"><ele>635.0</ele><time>2026-04-19T11:45:02.543Z</time></trkpt><trkpt lat="43.4797193" lon="11.9429002"><ele>637.0</ele><time>2026-04-19T11:45:05.534Z</time></trkpt><trkpt lat="43.4797611" lon="11.9428096"><ele>639.0</ele><time>2026-04-19T11:45:08.532Z</time></trkpt><trkpt lat="43.4797999" lon="11.9427406"><ele>641.0</ele><time>2026-04-19T11:45:11.549Z</time></trkpt><trkpt lat="43.4798485" lon="11.9426695"><ele>643.0</ele><time>2026-04-19T11:45:14.551Z</time></trkpt><trkpt lat="43.4798883" lon="11.9425987"><ele>642.3333333333334</ele><time>2026-04-19T11:45:17.525Z</time></trkpt><trkpt lat="43.4799417" lon="11.9425313"><ele>641.6666666666667</ele><time>2026-04-19T11:45:21.554Z</time></trkpt><trkpt lat="43.4799868" lon="11.9424635"><ele>641.0</ele><time>2026-04-19T11:45:24.525Z</time></trkpt><trkpt lat="43.4800576" lon="11.9423879"><ele>640.3333333333334</ele><time>2026-04-19T11:45:28.519Z</time></trkpt><trkpt lat="43.4801301" lon="11.9423378"><ele>639.6666666666666</ele><time>2026-04-19T11:45:31.536Z</time></trkpt><trkpt lat="43.4802128" lon="11.9423184"><ele>639.0</ele><time>2026-04-19T11:45:34.548Z</time></trkpt><trkpt lat="43.4802972" lon="11.9423333"><ele>639.0</ele><time>2026-04-19T11:45:37.561Z</time></trkpt><trkpt lat="43.4803728" lon="11.9423331"><ele>639.0</ele><time>2026-04-19T11:45:40.545Z</time></trkpt><trkpt lat="43.4804691" lon="11.9423348"><ele>639.0</ele><time>2026-04-19T11:45:43.539Z</time></trkpt><trkpt lat="43.4805391" lon="11.9423202"><ele>639.0</ele><time>2026-04-19T11:45:45.555Z</time></trkpt><trkpt lat="43.4806096" lon="11.9423026"><ele>639.0</ele><time>2026-04-19T11:45:47.546Z</time></trkpt><trkpt lat="43.4807064" lon="11.9423152"><ele>639.0</ele><time>2026-04-19T11:45:50.521Z</time></trkpt><trkpt lat="43.4808024" lon="11.9423173"><ele>638.8</ele><time>2026-04-19T11:45:52.531Z</time></trkpt><trkpt lat="43.4809141" lon="11.9422564"><ele>638.5999999999999</ele><time>2026-04-19T11:45:54.537Z</time></trkpt><trkpt lat="43.4810148" lon="11.942185"><ele>638.4</ele><time>2026-04-19T11:45:56.53Z</time></trkpt><trkpt lat="43.481089" lon="11.9420841"><ele>638.1999999999999</ele><time>2026-04-19T11:45:58.518Z</time></trkpt><trkpt lat="43.4811015" lon="11.9419859"><ele>638.0</ele><time>2026-04-19T11:46:00.524Z</time></trkpt><trkpt lat="43.4811322" lon="11.9418646"><ele>638.0</ele><time>2026-04-19T11:46:03.53Z</time></trkpt><trkpt lat="43.4811567" lon="11.9417783"><ele>638.0</ele><time>2026-04-19T11:46:05.539Z</time></trkpt><trkpt lat="43.4811817" lon="11.9416967"><ele>638.0</ele><time>2026-04-19T11:46:07.539Z</time></trkpt><trkpt lat="43.4811652" lon="11.9415859"><ele>638.0</ele><time>2026-04-19T11:46:10.525Z</time></trkpt><trkpt lat="43.4811354" lon="11.9414824"><ele>638.0</ele><time>2026-04-19T11:46:13.553Z</time></trkpt><trkpt lat="43.4811146" lon="11.9413611"><ele>638.0</ele><time>2026-04-19T11:46:16.538Z</time></trkpt><trkpt lat="43.4811006" lon="11.9412728"><ele>637.1428571428572</ele><time>2026-04-19T11:46:18.554Z</time></trkpt><trkpt lat="43.4810867" lon="11.9411866"><ele>636.2857142857142</ele><time>2026-04-19T11:46:20.553Z</time></trkpt><trkpt lat="43.4810746" lon="11.9410593"><ele>635.4285714285714</ele><time>2026-04-19T11:46:23.543Z</time></trkpt><trkpt lat="43.4810689" lon="11.9409411"><ele>634.5714285714287</ele><time>2026-04-19T11:46:26.546Z</time></trkpt><trkpt lat="43.4810684" lon="11.9408465"><ele>633.7142857142858</ele><time>2026-04-19T11:46:29.54Z</time></trkpt><trkpt lat="43.4810598" lon="11.9407553"><ele>632.8571428571429</ele><time>2026-04-19T11:46:32.549Z</time></trkpt><trkpt lat="43.4810454" lon="11.9406701"><ele>632.0</ele><time>2026-04-19T11:46:35.541Z</time></trkpt><trkpt lat="43.4810736" lon="11.9405759"><ele>632.0000000000001</ele><time>2026-04-19T11:46:39.609Z</time></trkpt><trkpt lat="43.481151" lon="11.940586"><ele>632.0</ele><time>2026-04-19T11:46:42.536Z</time></trkpt><trkpt lat="43.4812171" lon="11.9406045"><ele>632.0</ele><time>2026-04-19T11:46:45.545Z</time></trkpt><trkpt lat="43.4812855" lon="11.940594"><ele>632.0</ele><time>2026-04-19T11:46:48.546Z</time></trkpt><trkpt lat="43.4813467" lon="11.9405491"><ele>632.0</ele><time>2026-04-19T11:46:51.536Z</time></trkpt><trkpt lat="43.4813995" lon="11.9404981"><ele>632.0000000000001</ele><time>2026-04-19T11:46:54.525Z</time></trkpt><trkpt lat="43.4814538" lon="11.9404496"><ele>632.0</ele><time>2026-04-19T11:46:57.51Z</time></trkpt><trkpt lat="43.4815195" lon="11.9403765"><ele>633.0</ele><time>2026-04-19T11:47:01.52Z</time></trkpt><trkpt lat="43.4815759" lon="11.9403282"><ele>634.0</ele><time>2026-04-19T11:47:04.523Z</time></trkpt><trkpt lat="43.4816236" lon="11.9402545"><ele>635.0</ele><time>2026-04-19T11:47:07.539Z</time></trkpt><trkpt lat="43.4816358" lon="11.9401588"><ele>636.0</ele><time>2026-04-19T11:47:10.546Z</time></trkpt><trkpt lat="43.4816542" lon="11.9400445"><ele>637.0</ele><time>2026-04-19T11:47:14.523Z</time></trkpt><trkpt lat="43.4816986" lon="11.9399374"><ele>638.0</ele><time>2026-04-19T11:47:17.527Z</time></trkpt><trkpt lat="43.4817423" lon="11.9398399"><ele>638.6666666666666</ele><time>2026-04-19T11:47:20.514Z</time></trkpt><trkpt lat="43.4817728" lon="11.93973"><ele>639.3333333333333</ele><time>2026-04-19T11:47:23.526Z</time></trkpt><trkpt lat="43.4817965" lon="11.9396177"><ele>640.0</ele><time>2026-04-19T11:47:26.531Z</time></trkpt><trkpt lat="43.4818028" lon="11.9395023"><ele>640.6666666666666</ele><time>2026-04-19T11:47:29.516Z</time></trkpt><trkpt lat="43.4818047" lon="11.9393891"><ele>641.3333333333334</ele><time>2026-04-19T11:47:32.53Z</time></trkpt><trkpt lat="43.4818086" lon="11.9392787"><ele>642.0</ele><time>2026-04-19T11:47:35.535Z</time></trkpt><trkpt lat="43.4818068" lon="11.9391738"><ele>642.2857142857142</ele><time>2026-04-19T11:47:38.529Z</time></trkpt><trkpt lat="43.4818257" lon="11.9390776"><ele>642.5714285714286</ele><time>2026-04-19T11:47:41.517Z</time></trkpt><trkpt lat="43.4818733" lon="11.9390027"><ele>642.8571428571429</ele><time>2026-04-19T11:47:44.524Z</time></trkpt><trkpt lat="43.4819227" lon="11.9389418"><ele>643.1428571428571</ele><time>2026-04-19T11:47:47.522Z</time></trkpt><trkpt lat="43.4819797" lon="11.9388831"><ele>643.4285714285714</ele><time>2026-04-19T11:47:50.519Z</time></trkpt><trkpt lat="43.4820433" lon="11.9388392"><ele>643.7142857142857</ele><time>2026-04-19T11:47:53.529Z</time></trkpt><trkpt lat="43.4821007" lon="11.9387738"><ele>644.0</ele><time>2026-04-19T11:47:56.535Z</time></trkpt><trkpt lat="43.4821578" lon="11.9387231"><ele>644.0</ele><time>2026-04-19T11:47:59.522Z</time></trkpt><trkpt lat="43.4821452" lon="11.9386155"><ele>644.0</ele><time>2026-04-19T11:48:04.538Z</time></trkpt><trkpt lat="43.4822077" lon="11.9386602"><ele>644.0</ele><time>2026-04-19T11:48:14.533Z</time></trkpt><trkpt lat="43.4822827" lon="11.9386683"><ele>644.0</ele><time>2026-04-19T11:48:17.519Z</time></trkpt><trkpt lat="43.4823589" lon="11.938651"><ele>644.0</ele><time>2026-04-19T11:48:19.525Z</time></trkpt><trkpt lat="43.4824534" lon="11.9386368"><ele>644.0</ele><time>2026-04-19T11:48:21.549Z</time></trkpt><trkpt lat="43.4825748" lon="11.938608"><ele>644.0</ele><time>2026-04-19T11:48:23.525Z</time></trkpt><trkpt lat="43.482674" lon="11.938508"><ele>644.0</ele><time>2026-04-19T11:48:25.517Z</time></trkpt><trkpt lat="43.4827107" lon="11.9384312"><ele>644.0</ele><time>2026-04-19T11:48:26.533Z</time></trkpt><trkpt lat="43.4827535" lon="11.9383664"><ele>644.0</ele><time>2026-04-19T11:48:27.538Z</time></trkpt><trkpt lat="43.4828571" lon="11.9382481"><ele>644.0</ele><time>2026-04-19T11:48:29.528Z</time></trkpt><trkpt lat="43.4829124" lon="11.9381892"><ele>642.8333333333333</ele><time>2026-04-19T11:48:30.522Z</time></trkpt><trkpt lat="43.4829717" lon="11.9381402"><ele>641.6666666666666</ele><time>2026-04-19T11:48:31.539Z</time></trkpt><trkpt lat="43.4830272" lon="11.9380931"><ele>640.5</ele><time>2026-04-19T11:48:32.534Z</time></trkpt><trkpt lat="43.4830942" lon="11.9380376"><ele>639.3333333333334</ele><time>2026-04-19T11:48:34.511Z</time></trkpt><trkpt lat="43.4831844" lon="11.9379597"><ele>638.1666666666667</ele><time>2026-04-19T11:48:36.526Z</time></trkpt><trkpt lat="43.4832451" lon="11.9378986"><ele>637.0</ele><time>2026-04-19T11:48:37.513Z</time></trkpt><trkpt lat="43.4833071" lon="11.9378525"><ele>637.0</ele><time>2026-04-19T11:48:38.54Z</time></trkpt><trkpt lat="43.4833613" lon="11.9377897"><ele>637.0</ele><time>2026-04-19T11:48:39.527Z</time></trkpt><trkpt lat="43.4834435" lon="11.9376681"><ele>637.0</ele><time>2026-04-19T11:48:41.52Z</time></trkpt><trkpt lat="43.4834734" lon="11.937513"><ele>637.0</ele><time>2026-04-19T11:48:43.509Z</time></trkpt><trkpt lat="43.4835245" lon="11.9373814"><ele>637.0</ele><time>2026-04-19T11:48:45.507Z</time></trkpt><trkpt lat="43.4835919" lon="11.9372638"><ele>637.0</ele><time>2026-04-19T11:48:47.521Z</time></trkpt><trkpt lat="43.4836202" lon="11.937117"><ele>637.0</ele><time>2026-04-19T11:48:49.536Z</time></trkpt><trkpt lat="43.4836542" lon="11.9369545"><ele>637.0</ele><time>2026-04-19T11:48:51.502Z</time></trkpt><trkpt lat="43.483687" lon="11.936876"><ele>637.0</ele><time>2026-04-19T11:48:52.525Z</time></trkpt><trkpt lat="43.4837504" lon="11.9367499"><ele>637.0</ele><time>2026-04-19T11:48:54.508Z</time></trkpt><trkpt lat="43.4837685" lon="11.9366575"><ele>634.5</ele><time>2026-04-19T11:48:55.516Z</time></trkpt><trkpt lat="43.4837642" lon="11.9365457"><ele>632.0</ele><time>2026-04-19T11:48:56.523Z</time></trkpt><trkpt lat="43.4837763" lon="11.9364401"><ele>629.5</ele><time>2026-04-19T11:48:57.505Z</time></trkpt><trkpt lat="43.4837954" lon="11.9363516"><ele>627.0</ele><time>2026-04-19T11:48:58.534Z</time></trkpt><trkpt lat="43.4838453" lon="11.9362196"><ele>624.5</ele><time>2026-04-19T11:49:00.527Z</time></trkpt><trkpt lat="43.4838501" lon="11.9361157"><ele>622.0</ele><time>2026-04-19T11:49:01.537Z</time></trkpt><trkpt lat="43.4838296" lon="11.9360243"><ele>622.0</ele><time>2026-04-19T11:49:02.517Z</time></trkpt><trkpt lat="43.4837962" lon="11.9359336"><ele>622.0</ele><time>2026-04-19T11:49:03.51Z</time></trkpt><trkpt lat="43.4837669" lon="11.9358547"><ele>622.0</ele><time>2026-04-19T11:49:04.498Z</time></trkpt><trkpt lat="43.4837187" lon="11.935702"><ele>622.0</ele><time>2026-04-19T11:49:06.508Z</time></trkpt><trkpt lat="43.4836934" lon="11.9356214"><ele>622.0</ele><time>2026-04-19T11:49:07.531Z</time></trkpt><trkpt lat="43.4836761" lon="11.9355343"><ele>622.0</ele><time>2026-04-19T11:49:08.538Z</time></trkpt><trkpt lat="43.4836574" lon="11.9354489"><ele>620.4</ele><time>2026-04-19T11:49:09.502Z</time></trkpt><trkpt lat="43.4836523" lon="11.9353009"><ele>618.8000000000001</ele><time>2026-04-19T11:49:11.526Z</time></trkpt><trkpt lat="43.4837085" lon="11.9352147"><ele>617.2</ele><time>2026-04-19T11:49:13.527Z</time></trkpt><trkpt lat="43.4838363" lon="11.9351834"><ele>615.6</ele><time>2026-04-19T11:49:15.508Z</time></trkpt><trkpt lat="43.4839046" lon="11.9351632"><ele>614.0</ele><time>2026-04-19T11:49:16.535Z</time></trkpt><trkpt lat="43.4839765" lon="11.9351457"><ele>613.8571428571428</ele><time>2026-04-19T11:49:17.504Z</time></trkpt><trkpt lat="43.4840486" lon="11.9351292"><ele>613.7142857142857</ele><time>2026-04-19T11:49:18.521Z</time></trkpt><trkpt lat="43.4841261" lon="11.9351099"><ele>613.5714285714286</ele><time>2026-04-19T11:49:19.517Z</time></trkpt><trkpt lat="43.4842" lon="11.9350768"><ele>613.4285714285713</ele><time>2026-04-19T11:49:20.531Z</time></trkpt><trkpt lat="43.4842665" lon="11.9350329"><ele>613.2857142857142</ele><time>2026-04-19T11:49:21.54Z</time></trkpt><trkpt lat="43.484328" lon="11.9349797"><ele>613.1428571428571</ele><time>2026-04-19T11:49:22.531Z</time></trkpt><trkpt lat="43.4843885" lon="11.9349264"><ele>613.0</ele><time>2026-04-19T11:49:23.533Z</time></trkpt><trkpt lat="43.4844425" lon="11.934873"><ele>611.6</ele><time>2026-04-19T11:49:24.532Z</time></trkpt><trkpt lat="43.4844946" lon="11.9348195"><ele>610.1999999999999</ele><time>2026-04-19T11:49:25.534Z</time></trkpt><trkpt lat="43.4845853" lon="11.9347214"><ele>608.8</ele><time>2026-04-19T11:49:27.532Z</time></trkpt><trkpt lat="43.4846694" lon="11.9346277"><ele>607.4</ele><time>2026-04-19T11:49:29.511Z</time></trkpt><trkpt lat="43.4847365" lon="11.9345328"><ele>606.0</ele><time>2026-04-19T11:49:31.52Z</time></trkpt><trkpt lat="43.4847959" lon="11.9344336"><ele>606.0</ele><time>2026-04-19T11:49:33.537Z</time></trkpt><trkpt lat="43.4848668" lon="11.9343426"><ele>606.0</ele><time>2026-04-19T11:49:35.512Z</time></trkpt><trkpt lat="43.4849345" lon="11.9342568"><ele>606.0</ele><time>2026-04-19T11:49:37.537Z</time></trkpt><trkpt lat="43.4849976" lon="11.9341779"><ele>606.0</ele><time>2026-04-19T11:49:39.529Z</time></trkpt><trkpt lat="43.485057" lon="11.9341062"><ele>606.0</ele><time>2026-04-19T11:49:41.539Z</time></trkpt><trkpt lat="43.4851249" lon="11.9340278"><ele>606.0</ele><time>2026-04-19T11:49:43.525Z</time></trkpt><trkpt lat="43.485196" lon="11.933962"><ele>606.2</ele><time>2026-04-19T11:49:45.516Z</time></trkpt><trkpt lat="43.4852862" lon="11.9339401"><ele>606.4000000000001</ele><time>2026-04-19T11:49:47.519Z</time></trkpt><trkpt lat="43.4853942" lon="11.9339077"><ele>606.6</ele><time>2026-04-19T11:49:49.519Z</time></trkpt><trkpt lat="43.4855029" lon="11.9338781"><ele>606.8000000000001</ele><time>2026-04-19T11:49:51.506Z</time></trkpt><trkpt lat="43.4856133" lon="11.9338485"><ele>607.0</ele><time>2026-04-19T11:49:53.521Z</time></trkpt><trkpt lat="43.4857276" lon="11.9338328"><ele>607.0</ele><time>2026-04-19T11:49:55.539Z</time></trkpt><trkpt lat="43.4858435" lon="11.9338334"><ele>607.0</ele><time>2026-04-19T11:49:57.529Z</time></trkpt><trkpt lat="43.4859584" lon="11.9338647"><ele>607.0</ele><time>2026-04-19T11:49:59.518Z</time></trkpt><trkpt lat="43.4860727" lon="11.9339005"><ele>607.0</ele><time>2026-04-19T11:50:01.526Z</time></trkpt><trkpt lat="43.4861866" lon="11.93394"><ele>605.75</ele><time>2026-04-19T11:50:03.515Z</time></trkpt><trkpt lat="43.4862995" lon="11.9339801"><ele>604.5</ele><time>2026-04-19T11:50:05.509Z</time></trkpt><trkpt lat="43.4864112" lon="11.9340215"><ele>603.25</ele><time>2026-04-19T11:50:07.53Z</time></trkpt><trkpt lat="43.486527" lon="11.9340567"><ele>602.0</ele><time>2026-04-19T11:50:09.523Z</time></trkpt><trkpt lat="43.4866413" lon="11.93411"><ele>602.0</ele><time>2026-04-19T11:50:11.52Z</time></trkpt><trkpt lat="43.4867619" lon="11.9341516"><ele>602.0</ele><time>2026-04-19T11:50:13.516Z</time></trkpt><trkpt lat="43.4868241" lon="11.9341715"><ele>602.0</ele><time>2026-04-19T11:50:14.498Z</time></trkpt><trkpt lat="43.4868852" lon="11.9341937"><ele>602.0</ele><time>2026-04-19T11:50:15.512Z</time></trkpt><trkpt lat="43.486947" lon="11.9342146"><ele>602.0</ele><time>2026-04-19T11:50:16.526Z</time></trkpt><trkpt lat="43.4870115" lon="11.9342301"><ele>602.0</ele><time>2026-04-19T11:50:17.506Z</time></trkpt><trkpt lat="43.4871336" lon="11.9342667"><ele>603.75</ele><time>2026-04-19T11:50:19.513Z</time></trkpt><trkpt lat="43.4872507" lon="11.9343179"><ele>605.5</ele><time>2026-04-19T11:50:21.52Z</time></trkpt><trkpt lat="43.4873702" lon="11.9343612"><ele>607.25</ele><time>2026-04-19T11:50:23.518Z</time></trkpt><trkpt lat="43.4874857" lon="11.9344159"><ele>609.0</ele><time>2026-04-19T11:50:25.51Z</time></trkpt><trkpt lat="43.4875931" lon="11.9344717"><ele>609.0</ele><time>2026-04-19T11:50:27.527Z</time></trkpt><trkpt lat="43.4876942" lon="11.9345328"><ele>609.0</ele><time>2026-04-19T11:50:29.515Z</time></trkpt><trkpt lat="43.4877884" lon="11.934598"><ele>609.0</ele><time>2026-04-19T11:50:31.505Z</time></trkpt><trkpt lat="43.4878792" lon="11.9346643"><ele>609.0</ele><time>2026-04-19T11:50:33.505Z</time></trkpt><trkpt lat="43.4879607" lon="11.9347406"><ele>609.0</ele><time>2026-04-19T11:50:35.532Z</time></trkpt><trkpt lat="43.4880463" lon="11.9348099"><ele>609.3333333333334</ele><time>2026-04-19T11:50:37.512Z</time></trkpt><trkpt lat="43.4881275" lon="11.9348794"><ele>609.6666666666666</ele><time>2026-04-19T11:50:39.53Z</time></trkpt><trkpt lat="43.4882048" lon="11.9349352"><ele>610.0</ele><time>2026-04-19T11:50:41.535Z</time></trkpt><trkpt lat="43.4882817" lon="11.9349752"><ele>610.3333333333333</ele><time>2026-04-19T11:50:43.524Z</time></trkpt><trkpt lat="43.4883539" lon="11.9350085"><ele>610.6666666666666</ele><time>2026-04-19T11:50:45.52Z</time></trkpt><trkpt lat="43.4884208" lon="11.9350352"><ele>611.0</ele><time>2026-04-19T11:50:47.502Z</time></trkpt><trkpt lat="43.4885015" lon="11.9350679"><ele>611.0000000000001</ele><time>2026-04-19T11:50:50.529Z</time></trkpt><trkpt lat="43.4885731" lon="11.9350816"><ele>611.0</ele><time>2026-04-19T11:50:54.532Z</time></trkpt><trkpt lat="43.4885113" lon="11.9350563"><ele>611.0</ele><time>2026-04-19T11:51:03.522Z</time></trkpt><trkpt lat="43.4884463" lon="11.9350283"><ele>611.0</ele><time>2026-04-19T11:51:05.502Z</time></trkpt><trkpt lat="43.4883809" lon="11.9350019"><ele>611.0</ele><time>2026-04-19T11:51:07.507Z</time></trkpt><trkpt lat="43.4883066" lon="11.9349631"><ele>611.0000000000001</ele><time>2026-04-19T11:51:09.509Z</time></trkpt><trkpt lat="43.4882217" lon="11.9349164"><ele>611.0</ele><time>2026-04-19T11:51:11.516Z</time></trkpt><trkpt lat="43.488134" lon="11.9348727"><ele>610.6</ele><time>2026-04-19T11:51:13.515Z</time></trkpt><trkpt lat="43.4880518" lon="11.9348028"><ele>610.2</ele><time>2026-04-19T11:51:15.513Z</time></trkpt><trkpt lat="43.487971" lon="11.9347177"><ele>609.8</ele><time>2026-04-19T11:51:17.515Z</time></trkpt><trkpt lat="43.4878887" lon="11.9346464"><ele>609.4</ele><time>2026-04-19T11:51:19.521Z</time></trkpt><trkpt lat="43.4878074" lon="11.9345825"><ele>609.0</ele><time>2026-04-19T11:51:21.501Z</time></trkpt><trkpt lat="43.487729" lon="11.9345219"><ele>609.0</ele><time>2026-04-19T11:51:23.512Z</time></trkpt><trkpt lat="43.48765" lon="11.9344685"><ele>609.0</ele><time>2026-04-19T11:51:25.52Z</time></trkpt><trkpt lat="43.4875695" lon="11.9344252"><ele>609.0</ele><time>2026-04-19T11:51:27.518Z</time></trkpt><trkpt lat="43.487491" lon="11.9343768"><ele>609.0</ele><time>2026-04-19T11:51:29.518Z</time></trkpt><trkpt lat="43.4874103" lon="11.9343369"><ele>609.0</ele><time>2026-04-19T11:51:31.51Z</time></trkpt><trkpt lat="43.4873354" lon="11.9343029"><ele>609.0</ele><time>2026-04-19T11:51:33.517Z</time></trkpt><trkpt lat="43.487274" lon="11.9342817"><ele>609.0</ele><time>2026-04-19T11:51:36.509Z</time></trkpt><trkpt lat="43.4873412" lon="11.9343342"><ele>609.0</ele><time>2026-04-19T11:51:47.526Z</time></trkpt><trkpt lat="43.4874111" lon="11.9343699"><ele>609.0</ele><time>2026-04-19T11:51:49.522Z</time></trkpt><trkpt lat="43.4874848" lon="11.9344042"><ele>609.0</ele><time>2026-04-19T11:51:51.557Z</time></trkpt><trkpt lat="43.487558" lon="11.934436"><ele>609.0</ele><time>2026-04-19T11:51:53.524Z</time></trkpt><trkpt lat="43.4876286" lon="11.9344781"><ele>609.0</ele><time>2026-04-19T11:51:55.532Z</time></trkpt><trkpt lat="43.4876971" lon="11.9345328"><ele>609.0</ele><time>2026-04-19T11:51:57.537Z</time></trkpt><trkpt lat="43.4877727" lon="11.9345852"><ele>609.0</ele><time>2026-04-19T11:51:59.542Z</time></trkpt><trkpt lat="43.4878464" lon="11.934645"><ele>609.0</ele><time>2026-04-19T11:52:01.53Z</time></trkpt><trkpt lat="43.4879199" lon="11.9347072"><ele>609.0</ele><time>2026-04-19T11:52:03.553Z</time></trkpt><trkpt lat="43.4879883" lon="11.9347727"><ele>609.0</ele><time>2026-04-19T11:52:05.542Z</time></trkpt><trkpt lat="43.4880599" lon="11.934835"><ele>609.0</ele><time>2026-04-19T11:52:07.531Z</time></trkpt><trkpt lat="43.4881462" lon="11.9349022"><ele>609.3333333333334</ele><time>2026-04-19T11:52:09.542Z</time></trkpt><trkpt lat="43.4882306" lon="11.9349502"><ele>609.6666666666666</ele><time>2026-04-19T11:52:11.532Z</time></trkpt><trkpt lat="43.4883074" lon="11.9349826"><ele>610.0</ele><time>2026-04-19T11:52:13.531Z</time></trkpt><trkpt lat="43.4883829" lon="11.9350067"><ele>610.3333333333333</ele><time>2026-04-19T11:52:15.548Z</time></trkpt><trkpt lat="43.4884567" lon="11.9350365"><ele>610.6666666666666</ele><time>2026-04-19T11:52:17.523Z</time></trkpt><trkpt lat="43.4885253" lon="11.9350665"><ele>611.0</ele><time>2026-04-19T11:52:19.526Z</time></trkpt><trkpt lat="43.4886017" lon="11.9351075"><ele>611.0</ele><time>2026-04-19T11:52:21.519Z</time></trkpt><trkpt lat="43.4886887" lon="11.9351352"><ele>611.0</ele><time>2026-04-19T11:52:23.517Z</time></trkpt><trkpt lat="43.4887817" lon="11.9351476"><ele>611.0</ele><time>2026-04-19T11:52:25.53Z</time></trkpt><trkpt lat="43.4888843" lon="11.9351581"><ele>611.0</ele><time>2026-04-19T11:52:27.53Z</time></trkpt><trkpt lat="43.4889883" lon="11.9351566"><ele>611.0</ele><time>2026-04-19T11:52:29.543Z</time></trkpt><trkpt lat="43.4890882" lon="11.9351342"><ele>611.6</ele><time>2026-04-19T11:52:31.534Z</time></trkpt><trkpt lat="43.4891852" lon="11.9350975"><ele>612.2</ele><time>2026-04-19T11:52:33.515Z</time></trkpt><trkpt lat="43.489282" lon="11.9350582"><ele>612.8</ele><time>2026-04-19T11:52:35.508Z</time></trkpt><trkpt lat="43.489373" lon="11.93501"><ele>613.4</ele><time>2026-04-19T11:52:37.534Z</time></trkpt><trkpt lat="43.4894757" lon="11.9350173"><ele>614.0</ele><time>2026-04-19T11:52:39.524Z</time></trkpt><trkpt lat="43.4895613" lon="11.9350969"><ele>612.4</ele><time>2026-04-19T11:52:41.532Z</time></trkpt><trkpt lat="43.4896345" lon="11.9351981"><ele>610.8</ele><time>2026-04-19T11:52:43.549Z</time></trkpt><trkpt lat="43.4896993" lon="11.9353145"><ele>609.2</ele><time>2026-04-19T11:52:45.514Z</time></trkpt><trkpt lat="43.4897718" lon="11.935421"><ele>607.6</ele><time>2026-04-19T11:52:47.531Z</time></trkpt><trkpt lat="43.4898672" lon="11.935473"><ele>606.0</ele><time>2026-04-19T11:52:49.536Z</time></trkpt><trkpt lat="43.489971" lon="11.9354615"><ele>606.0</ele><time>2026-04-19T11:52:51.528Z</time></trkpt><trkpt lat="43.4900688" lon="11.935422"><ele>606.0</ele><time>2026-04-19T11:52:53.53Z</time></trkpt><trkpt lat="43.4901621" lon="11.935388"><ele>606.0</ele><time>2026-04-19T11:52:55.541Z</time></trkpt><trkpt lat="43.4902571" lon="11.9353587"><ele>606.0</ele><time>2026-04-19T11:52:57.536Z</time></trkpt><trkpt lat="43.4903525" lon="11.9353419"><ele>606.0</ele><time>2026-04-19T11:52:59.546Z</time></trkpt><trkpt lat="43.4904464" lon="11.9353685"><ele>605.7142857142858</ele><time>2026-04-19T11:53:01.528Z</time></trkpt><trkpt lat="43.4905287" lon="11.9354157"><ele>605.4285714285714</ele><time>2026-04-19T11:53:03.536Z</time></trkpt><trkpt lat="43.4905954" lon="11.9354495"><ele>605.1428571428571</ele><time>2026-04-19T11:53:05.514Z</time></trkpt><trkpt lat="43.4906538" lon="11.9354882"><ele>604.8571428571429</ele><time>2026-04-19T11:53:07.542Z</time></trkpt><trkpt lat="43.4907145" lon="11.9355282"><ele>604.5714285714286</ele><time>2026-04-19T11:53:09.537Z</time></trkpt><trkpt lat="43.4907733" lon="11.9355797"><ele>604.2857142857143</ele><time>2026-04-19T11:53:11.546Z</time></trkpt><trkpt lat="43.4908311" lon="11.9356367"><ele>604.0</ele><time>2026-04-19T11:53:13.542Z</time></trkpt><trkpt lat="43.490885" lon="11.935685"><ele>604.0000000000001</ele><time>2026-04-19T11:53:15.538Z</time></trkpt><trkpt lat="43.4909385" lon="11.9357329"><ele>604.0</ele><time>2026-04-19T11:53:17.528Z</time></trkpt><trkpt lat="43.490999" lon="11.9357959"><ele>604.0</ele><time>2026-04-19T11:53:19.537Z</time></trkpt><trkpt lat="43.4910501" lon="11.9358535"><ele>604.0</ele><time>2026-04-19T11:53:21.542Z</time></trkpt><trkpt lat="43.4911071" lon="11.9358944"><ele>604.0</ele><time>2026-04-19T11:53:23.521Z</time></trkpt><trkpt lat="43.4911849" lon="11.9358855"><ele>604.0000000000001</ele><time>2026-04-19T11:53:26.529Z</time></trkpt><trkpt lat="43.4912627" lon="11.9358684"><ele>604.0</ele><time>2026-04-19T11:53:29.535Z</time></trkpt><trkpt lat="43.4913501" lon="11.9358277"><ele>605.0</ele><time>2026-04-19T11:53:32.546Z</time></trkpt><trkpt lat="43.4914337" lon="11.9357862"><ele>606.0</ele><time>2026-04-19T11:53:35.541Z</time></trkpt><trkpt lat="43.4915072" lon="11.9357475"><ele>607.0</ele><time>2026-04-19T11:53:38.52Z</time></trkpt><trkpt lat="43.4915808" lon="11.9357649"><ele>608.0</ele><time>2026-04-19T11:53:41.534Z</time></trkpt><trkpt lat="43.4916512" lon="11.935774"><ele>609.0</ele><time>2026-04-19T11:53:44.528Z</time></trkpt><trkpt lat="43.491716" lon="11.9357881"><ele>610.0</ele><time>2026-04-19T11:53:48.536Z</time></trkpt><trkpt lat="43.4917934" lon="11.9358386"><ele>610.0</ele><time>2026-04-19T11:53:52.544Z</time></trkpt><trkpt lat="43.4918751" lon="11.9358552"><ele>610.0</ele><time>2026-04-19T11:53:57.55Z</time></trkpt><trkpt lat="43.4919432" lon="11.9358665"><ele>610.0</ele><time>2026-04-19T11:54:01.542Z</time></trkpt><trkpt lat="43.4920232" lon="11.9358652"><ele>610.0</ele><time>2026-04-19T11:54:06.533Z</time></trkpt><trkpt lat="43.4920936" lon="11.935903"><ele>610.0</ele><time>2026-04-19T11:54:11.516Z</time></trkpt><trkpt lat="43.492161" lon="11.93591"><ele>610.0</ele><time>2026-04-19T11:54:16.529Z</time></trkpt><trkpt lat="43.4922365" lon="11.935946"><ele>612.0</ele><time>2026-04-19T11:54:22.525Z</time></trkpt><trkpt lat="43.4922977" lon="11.9359865"><ele>614.0</ele><time>2026-04-19T11:54:26.525Z</time></trkpt><trkpt lat="43.492372" lon="11.9360187"><ele>616.0</ele><time>2026-04-19T11:54:32.514Z</time></trkpt><trkpt lat="43.4924453" lon="11.9360009"><ele>618.0</ele><time>2026-04-19T11:54:38.527Z</time></trkpt><trkpt lat="43.4925248" lon="11.9360182"><ele>620.0</ele><time>2026-04-19T11:54:42.54Z</time></trkpt><trkpt lat="43.4925976" lon="11.9360327"><ele>622.0</ele><time>2026-04-19T11:54:46.532Z</time></trkpt><trkpt lat="43.4926719" lon="11.9360764"><ele>622.0</ele><time>2026-04-19T11:54:50.531Z</time></trkpt><trkpt lat="43.4927475" lon="11.9360962"><ele>622.0</ele><time>2026-04-19T11:54:54.53Z</time></trkpt><trkpt lat="43.4928174" lon="11.9361025"><ele>622.0</ele><time>2026-04-19T11:54:58.531Z</time></trkpt><trkpt lat="43.4928822" lon="11.9361147"><ele>622.0</ele><time>2026-04-19T11:55:02.515Z</time></trkpt><trkpt lat="43.4929558" lon="11.9361322"><ele>622.0</ele><time>2026-04-19T11:55:06.547Z</time></trkpt><trkpt lat="43.4930265" lon="11.936162"><ele>622.0</ele><time>2026-04-19T11:55:11.53Z</time></trkpt><trkpt lat="43.4930898" lon="11.9361683"><ele>622.0</ele><time>2026-04-19T11:55:15.543Z</time></trkpt><trkpt lat="43.4931686" lon="11.9361934"><ele>623.0</ele><time>2026-04-19T11:55:20.528Z</time></trkpt><trkpt lat="43.493233" lon="11.9362013"><ele>624.0</ele><time>2026-04-19T11:55:24.529Z</time></trkpt><trkpt lat="43.4933132" lon="11.9362181"><ele>625.0</ele><time>2026-04-19T11:55:29.547Z</time></trkpt><trkpt lat="43.4933799" lon="11.9362369"><ele>626.0</ele><time>2026-04-19T11:55:34.538Z</time></trkpt><trkpt lat="43.4934532" lon="11.9362539"><ele>627.0</ele><time>2026-04-19T11:55:38.525Z</time></trkpt><trkpt lat="43.4935232" lon="11.9362969"><ele>628.0</ele><time>2026-04-19T11:55:43.544Z</time></trkpt><trkpt lat="43.4935933" lon="11.9363193"><ele>629.0</ele><time>2026-04-19T11:55:48.541Z</time></trkpt><trkpt lat="43.4936583" lon="11.9362906"><ele>629.0</ele><time>2026-04-19T11:55:53.548Z</time></trkpt><trkpt lat="43.4937279" lon="11.9363099"><ele>629.0</ele><time>2026-04-19T11:55:58.525Z</time></trkpt><trkpt lat="43.4938023" lon="11.936301"><ele>629.0</ele><time>2026-04-19T11:56:04.526Z</time></trkpt><trkpt lat="43.4938669" lon="11.9362748"><ele>629.0</ele><time>2026-04-19T11:56:10.53Z</time></trkpt><trkpt lat="43.4939407" lon="11.9362785"><ele>629.0</ele><time>2026-04-19T11:56:17.532Z</time></trkpt><trkpt lat="43.494013" lon="11.9362783"><ele>629.0</ele><time>2026-04-19T11:56:23.543Z</time></trkpt><trkpt lat="43.4940786" lon="11.9362636"><ele>629.0</ele><time>2026-04-19T11:56:27.529Z</time></trkpt><trkpt lat="43.4941386" lon="11.9363094"><ele>630.7142857142857</ele><time>2026-04-19T11:56:31.523Z</time></trkpt><trkpt lat="43.4941683" lon="11.9363968"><ele>632.4285714285714</ele><time>2026-04-19T11:56:35.55Z</time></trkpt><trkpt lat="43.4941968" lon="11.9364794"><ele>634.1428571428571</ele><time>2026-04-19T11:56:39.538Z</time></trkpt><trkpt lat="43.4942487" lon="11.936555"><ele>635.8571428571429</ele><time>2026-04-19T11:56:43.531Z</time></trkpt><trkpt lat="43.4943077" lon="11.9365902"><ele>637.5714285714286</ele><time>2026-04-19T11:56:46.544Z</time></trkpt><trkpt lat="43.4943826" lon="11.9366148"><ele>639.2857142857143</ele><time>2026-04-19T11:56:49.545Z</time></trkpt><trkpt lat="43.4944659" lon="11.9366115"><ele>641.0</ele><time>2026-04-19T11:56:52.531Z</time></trkpt><trkpt lat="43.4945395" lon="11.9366372"><ele>641.0</ele><time>2026-04-19T11:56:55.537Z</time></trkpt><trkpt lat="43.4946005" lon="11.9366765"><ele>641.0</ele><time>2026-04-19T11:56:58.537Z</time></trkpt><trkpt lat="43.4946692" lon="11.9367177"><ele>641.0</ele><time>2026-04-19T11:57:01.526Z</time></trkpt><trkpt lat="43.4947354" lon="11.9367205"><ele>641.0</ele><time>2026-04-19T11:57:04.552Z</time></trkpt><trkpt lat="43.4948102" lon="11.9367026"><ele>641.0</ele><time>2026-04-19T11:57:07.53Z</time></trkpt><trkpt lat="43.4948786" lon="11.9366865"><ele>641.0</ele><time>2026-04-19T11:57:10.525Z</time></trkpt><trkpt lat="43.494957" lon="11.9366651"><ele>641.0</ele><time>2026-04-19T11:57:14.526Z</time></trkpt><trkpt lat="43.4950287" lon="11.9366555"><ele>642.1428571428571</ele><time>2026-04-19T11:57:18.531Z</time></trkpt><trkpt lat="43.4950894" lon="11.9366151"><ele>643.2857142857142</ele><time>2026-04-19T11:57:22.524Z</time></trkpt><trkpt lat="43.4951444" lon="11.9365474"><ele>644.4285714285713</ele><time>2026-04-19T11:57:26.526Z</time></trkpt><trkpt lat="43.4951708" lon="11.9364677"><ele>645.5714285714286</ele><time>2026-04-19T11:57:29.537Z</time></trkpt><trkpt lat="43.495214" lon="11.9363942"><ele>646.7142857142857</ele><time>2026-04-19T11:57:32.519Z</time></trkpt><trkpt lat="43.4952711" lon="11.9363188"><ele>647.8571428571428</ele><time>2026-04-19T11:57:37.546Z</time></trkpt><trkpt lat="43.4953228" lon="11.936243"><ele>649.0</ele><time>2026-04-19T11:57:41.538Z</time></trkpt><trkpt lat="43.4953654" lon="11.9361742"><ele>648.9999999999999</ele><time>2026-04-19T11:57:45.542Z</time></trkpt><trkpt lat="43.4954204" lon="11.9360991"><ele>649.0</ele><time>2026-04-19T11:57:49.536Z</time></trkpt><trkpt lat="43.495485" lon="11.9360551"><ele>649.0</ele><time>2026-04-19T11:57:53.528Z</time></trkpt><trkpt lat="43.4955514" lon="11.9360311"><ele>649.0</ele><time>2026-04-19T11:57:57.549Z</time></trkpt><trkpt lat="43.4956159" lon="11.9360004"><ele>649.0</ele><time>2026-04-19T11:58:01.52Z</time></trkpt><trkpt lat="43.4956804" lon="11.9359776"><ele>648.9999999999999</ele><time>2026-04-19T11:58:06.538Z</time></trkpt><trkpt lat="43.4957376" lon="11.9359401"><ele>649.0</ele><time>2026-04-19T11:58:10.528Z</time></trkpt><trkpt lat="43.4958108" lon="11.9359332"><ele>651.3333333333334</ele><time>2026-04-19T11:58:14.552Z</time></trkpt><trkpt lat="43.4958755" lon="11.9359614"><ele>653.6666666666667</ele><time>2026-04-19T11:58:17.516Z</time></trkpt><trkpt lat="43.495952" lon="11.935972"><ele>656.0</ele><time>2026-04-19T11:58:20.533Z</time></trkpt><trkpt lat="43.4960353" lon="11.9359703"><ele>658.3333333333334</ele><time>2026-04-19T11:58:23.534Z</time></trkpt><trkpt lat="43.4961132" lon="11.9359998"><ele>660.6666666666666</ele><time>2026-04-19T11:58:27.551Z</time></trkpt><trkpt lat="43.4961758" lon="11.9360371"><ele>663.0</ele><time>2026-04-19T11:58:31.528Z</time></trkpt><trkpt lat="43.4962481" lon="11.9360611"><ele>661.5</ele><time>2026-04-19T11:58:36.545Z</time></trkpt><trkpt lat="43.496318" lon="11.9361019"><ele>660.0</ele><time>2026-04-19T11:58:40.55Z</time></trkpt><trkpt lat="43.4963969" lon="11.9361167"><ele>658.5</ele><time>2026-04-19T11:58:44.55Z</time></trkpt><trkpt lat="43.4964405" lon="11.9361816"><ele>657.0</ele><time>2026-04-19T11:58:49.538Z</time></trkpt><trkpt lat="43.4965117" lon="11.9362332"><ele>655.5</ele><time>2026-04-19T11:58:53.565Z</time></trkpt><trkpt lat="43.4965736" lon="11.9362845"><ele>654.0</ele><time>2026-04-19T11:58:59.53Z</time></trkpt><trkpt lat="43.4966401" lon="11.9363591"><ele>654.0</ele><time>2026-04-19T11:59:04.53Z</time></trkpt><trkpt lat="43.4966901" lon="11.9364323"><ele>654.0</ele><time>2026-04-19T11:59:07.532Z</time></trkpt><trkpt lat="43.4967516" lon="11.9364814"><ele>654.0</ele><time>2026-04-19T11:59:09.544Z</time></trkpt><trkpt lat="43.4968256" lon="11.9365265"><ele>654.0</ele><time>2026-04-19T11:59:11.56Z</time></trkpt><trkpt lat="43.4968782" lon="11.9366253"><ele>654.0</ele><time>2026-04-19T11:59:13.533Z</time></trkpt><trkpt lat="43.4969148" lon="11.936725"><ele>654.0</ele><time>2026-04-19T11:59:15.54Z</time></trkpt><trkpt lat="43.4969647" lon="11.9367915"><ele>652.2</ele><time>2026-04-19T11:59:17.543Z</time></trkpt><trkpt lat="43.4970448" lon="11.9368706"><ele>650.4000000000001</ele><time>2026-04-19T11:59:19.566Z</time></trkpt><trkpt lat="43.4971003" lon="11.9369316"><ele>648.6</ele><time>2026-04-19T11:59:20.531Z</time></trkpt><trkpt lat="43.4971589" lon="11.9369777"><ele>646.8</ele><time>2026-04-19T11:59:21.515Z</time></trkpt><trkpt lat="43.4972718" lon="11.9370119"><ele>645.0</ele><time>2026-04-19T11:59:23.516Z</time></trkpt><trkpt lat="43.497394" lon="11.9370233"><ele>644.1666666666666</ele><time>2026-04-19T11:59:25.538Z</time></trkpt><trkpt lat="43.4974889" lon="11.9371007"><ele>643.3333333333334</ele><time>2026-04-19T11:59:27.525Z</time></trkpt><trkpt lat="43.4975584" lon="11.9371824"><ele>642.5</ele><time>2026-04-19T11:59:29.54Z</time></trkpt><trkpt lat="43.4976128" lon="11.9372649"><ele>641.6666666666667</ele><time>2026-04-19T11:59:31.541Z</time></trkpt><trkpt lat="43.4976534" lon="11.9373335"><ele>640.8333333333334</ele><time>2026-04-19T11:59:33.538Z</time></trkpt><trkpt lat="43.4976881" lon="11.9374169"><ele>640.0</ele><time>2026-04-19T11:59:36.517Z</time></trkpt><trkpt lat="43.4977322" lon="11.9375055"><ele>640.0</ele><time>2026-04-19T11:59:39.535Z</time></trkpt><trkpt lat="43.4977893" lon="11.9375567"><ele>640.0</ele><time>2026-04-19T11:59:42.536Z</time></trkpt><trkpt lat="43.4978611" lon="11.9375994"><ele>640.0</ele><time>2026-04-19T11:59:45.518Z</time></trkpt><trkpt lat="43.4979495" lon="11.937634"><ele>640.0</ele><time>2026-04-19T11:59:48.522Z</time></trkpt><trkpt lat="43.4980123" lon="11.9376465"><ele>640.0</ele><time>2026-04-19T11:59:50.536Z</time></trkpt><trkpt lat="43.4980881" lon="11.9376733"><ele>640.0</ele><time>2026-04-19T11:59:53.526Z</time></trkpt><trkpt lat="43.4981603" lon="11.9376884"><ele>640.0</ele><time>2026-04-19T11:59:56.519Z</time></trkpt><trkpt lat="43.4982306" lon="11.9376621"><ele>640.0</ele><time>2026-04-19T11:59:58.532Z</time></trkpt><trkpt lat="43.4983101" lon="11.9376056"><ele>640.0</ele><time>2026-04-19T12:00:00.542Z</time></trkpt><trkpt lat="43.4984069" lon="11.9376141"><ele>640.0</ele><time>2026-04-19T12:00:02.54Z</time></trkpt><trkpt lat="43.4984938" lon="11.9376919"><ele>640.0</ele><time>2026-04-19T12:00:04.531Z</time></trkpt><trkpt lat="43.4986032" lon="11.9377021"><ele>640.0</ele><time>2026-04-19T12:00:06.532Z</time></trkpt><trkpt lat="43.4987156" lon="11.9376674"><ele>640.0</ele><time>2026-04-19T12:00:08.551Z</time></trkpt><trkpt lat="43.4988294" lon="11.9376534"><ele>640.0</ele><time>2026-04-19T12:00:10.521Z</time></trkpt><trkpt lat="43.4989398" lon="11.9377211"><ele>640.0</ele><time>2026-04-19T12:00:12.531Z</time></trkpt><trkpt lat="43.4990172" lon="11.9378034"><ele>640.0</ele><time>2026-04-19T12:00:14.519Z</time></trkpt><trkpt lat="43.4990915" lon="11.9377822"><ele>640.0</ele><time>2026-04-19T12:00:16.538Z</time></trkpt><trkpt lat="43.4991562" lon="11.9377162"><ele>640.0</ele><time>2026-04-19T12:00:19.517Z</time></trkpt><trkpt lat="43.4992288" lon="11.9376589"><ele>640.0</ele><time>2026-04-19T12:00:23.541Z</time></trkpt><trkpt lat="43.4992895" lon="11.9376225"><ele>640.0</ele><time>2026-04-19T12:00:26.518Z</time></trkpt><trkpt lat="43.4993464" lon="11.9375834"><ele>640.0</ele><time>2026-04-19T12:00:29.537Z</time></trkpt><trkpt lat="43.4994158" lon="11.9375315"><ele>640.0</ele><time>2026-04-19T12:00:33.531Z</time></trkpt><trkpt lat="43.4994769" lon="11.9374922"><ele>640.0</ele><time>2026-04-19T12:00:36.525Z</time></trkpt><trkpt lat="43.4995501" lon="11.9374752"><ele>640.0</ele><time>2026-04-19T12:00:39.538Z</time></trkpt><trkpt lat="43.4996226" lon="11.9374593"><ele>640.0</ele><time>2026-04-19T12:00:43.522Z</time></trkpt><trkpt lat="43.4996856" lon="11.9374466"><ele>640.0</ele><time>2026-04-19T12:00:47.556Z</time></trkpt><trkpt lat="43.4995967" lon="11.9374659"><ele>640.0</ele><time>2026-04-19T12:00:53.519Z</time></trkpt><trkpt lat="43.4995193" lon="11.937479"><ele>640.0</ele><time>2026-04-19T12:00:55.529Z</time></trkpt><trkpt lat="43.4994403" lon="11.9375022"><ele>640.0</ele><time>2026-04-19T12:00:57.55Z</time></trkpt><trkpt lat="43.499355" lon="11.9374707"><ele>640.0</ele><time>2026-04-19T12:01:00.55Z</time></trkpt><trkpt lat="43.4993106" lon="11.9373884"><ele>640.0</ele><time>2026-04-19T12:01:02.525Z</time></trkpt><trkpt lat="43.4992951" lon="11.9372996"><ele>640.0</ele><time>2026-04-19T12:01:04.532Z</time></trkpt><trkpt lat="43.4993035" lon="11.9372068"><ele>640.0</ele><time>2026-04-19T12:01:06.535Z</time></trkpt><trkpt lat="43.4993162" lon="11.9370972"><ele>640.0</ele><time>2026-04-19T12:01:08.531Z</time></trkpt><trkpt lat="43.4993262" lon="11.9369793"><ele>640.0</ele><time>2026-04-19T12:01:10.562Z</time></trkpt><trkpt lat="43.4993376" lon="11.9368773"><ele>640.0</ele><time>2026-04-19T12:01:12.526Z</time></trkpt><trkpt lat="43.4993119" lon="11.936788"><ele>640.0</ele><time>2026-04-19T12:01:15.533Z</time></trkpt><trkpt lat="43.4993023" lon="11.9366982"><ele>640.0</ele><time>2026-04-19T12:01:17.54Z</time></trkpt><trkpt lat="43.4993415" lon="11.9365944"><ele>640.0</ele><time>2026-04-19T12:01:20.532Z</time></trkpt><trkpt lat="43.499395" lon="11.9365109"><ele>640.0</ele><time>2026-04-19T12:01:23.536Z</time></trkpt><trkpt lat="43.4994387" lon="11.9364221"><ele>640.0</ele><time>2026-04-19T12:01:27.553Z</time></trkpt><trkpt lat="43.499414" lon="11.9363361"><ele>640.0</ele><time>2026-04-19T12:01:29.539Z</time></trkpt><trkpt lat="43.4994196" lon="11.9362136"><ele>638.8333333333334</ele><time>2026-04-19T12:01:32.536Z</time></trkpt><trkpt lat="43.4994321" lon="11.9361236"><ele>637.6666666666667</ele><time>2026-04-19T12:01:34.517Z</time></trkpt><trkpt lat="43.4994307" lon="11.9360181"><ele>636.5</ele><time>2026-04-19T12:01:37.535Z</time></trkpt><trkpt lat="43.4994156" lon="11.9359027"><ele>635.3333333333334</ele><time>2026-04-19T12:01:40.539Z</time></trkpt><trkpt lat="43.4994086" lon="11.935779"><ele>634.1666666666666</ele><time>2026-04-19T12:01:43.547Z</time></trkpt><trkpt lat="43.4993873" lon="11.9356814"><ele>633.0</ele><time>2026-04-19T12:01:45.512Z</time></trkpt><trkpt lat="43.4993659" lon="11.935546"><ele>632.1999999999999</ele><time>2026-04-19T12:01:47.529Z</time></trkpt><trkpt lat="43.4993638" lon="11.9354214"><ele>631.4</ele><time>2026-04-19T12:01:49.536Z</time></trkpt><trkpt lat="43.4994024" lon="11.9353238"><ele>630.5999999999999</ele><time>2026-04-19T12:01:51.528Z</time></trkpt><trkpt lat="43.4994608" lon="11.9352109"><ele>629.8</ele><time>2026-04-19T12:01:53.517Z</time></trkpt><trkpt lat="43.4995172" lon="11.9351521"><ele>629.0</ele><time>2026-04-19T12:01:54.525Z</time></trkpt><trkpt lat="43.499617" lon="11.9350923"><ele>627.6666666666666</ele><time>2026-04-19T12:01:56.54Z</time></trkpt><trkpt lat="43.4997001" lon="11.9350616"><ele>626.3333333333333</ele><time>2026-04-19T12:01:58.555Z</time></trkpt><trkpt lat="43.4997781" lon="11.9350158"><ele>625.0</ele><time>2026-04-19T12:02:00.536Z</time></trkpt><trkpt lat="43.4998703" lon="11.9349584"><ele>623.6666666666666</ele><time>2026-04-19T12:02:02.534Z</time></trkpt><trkpt lat="43.4999491" lon="11.9349181"><ele>622.3333333333334</ele><time>2026-04-19T12:02:04.547Z</time></trkpt><trkpt lat="43.500014" lon="11.9348886"><ele>621.0</ele><time>2026-04-19T12:02:06.536Z</time></trkpt><trkpt lat="43.500101" lon="11.9348431"><ele>621.0</ele><time>2026-04-19T12:02:08.516Z</time></trkpt><trkpt lat="43.5001921" lon="11.9348129"><ele>621.0</ele><time>2026-04-19T12:02:10.528Z</time></trkpt><trkpt lat="43.5002764" lon="11.9347855"><ele>621.0</ele><time>2026-04-19T12:02:13.533Z</time></trkpt><trkpt lat="43.5003616" lon="11.9347732"><ele>621.0</ele><time>2026-04-19T12:02:16.555Z</time></trkpt><trkpt lat="43.5003692" lon="11.9346761"><ele>621.0</ele><time>2026-04-19T12:02:19.556Z</time></trkpt><trkpt lat="43.500323" lon="11.9345649"><ele>621.0</ele><time>2026-04-19T12:02:21.52Z</time></trkpt><trkpt lat="43.5002482" lon="11.9344591"><ele>621.0</ele><time>2026-04-19T12:02:23.538Z</time></trkpt><trkpt lat="43.5001766" lon="11.934366"><ele>621.0</ele><time>2026-04-19T12:02:25.531Z</time></trkpt><trkpt lat="43.5001321" lon="11.9342945"><ele>621.0</ele><time>2026-04-19T12:02:27.542Z</time></trkpt><trkpt lat="43.5000708" lon="11.9342174"><ele>621.0</ele><time>2026-04-19T12:02:29.528Z</time></trkpt><trkpt lat="43.5000221" lon="11.9341238"><ele>621.0</ele><time>2026-04-19T12:02:31.531Z</time></trkpt><trkpt lat="43.4999565" lon="11.9340544"><ele>621.0</ele><time>2026-04-19T12:02:33.524Z</time></trkpt><trkpt lat="43.4998836" lon="11.9340206"><ele>617.1666666666666</ele><time>2026-04-19T12:02:35.543Z</time></trkpt><trkpt lat="43.4998173" lon="11.9340041"><ele>613.3333333333334</ele><time>2026-04-19T12:02:37.516Z</time></trkpt><trkpt lat="43.4997281" lon="11.9339698"><ele>609.5</ele><time>2026-04-19T12:02:39.513Z</time></trkpt><trkpt lat="43.4996622" lon="11.933947"><ele>605.6666666666667</ele><time>2026-04-19T12:02:41.516Z</time></trkpt><trkpt lat="43.4996836" lon="11.9338524"><ele>601.8333333333334</ele><time>2026-04-19T12:02:46.525Z</time></trkpt><trkpt lat="43.4997544" lon="11.9337908"><ele>598.0</ele><time>2026-04-19T12:02:48.532Z</time></trkpt><trkpt lat="43.4998163" lon="11.9337399"><ele>598.0</ele><time>2026-04-19T12:02:50.511Z</time></trkpt><trkpt lat="43.4998956" lon="11.9336943"><ele>598.0</ele><time>2026-04-19T12:02:52.531Z</time></trkpt><trkpt lat="43.5000073" lon="11.9336655"><ele>598.0</ele><time>2026-04-19T12:02:54.531Z</time></trkpt><trkpt lat="43.500092" lon="11.9336327"><ele>598.0</ele><time>2026-04-19T12:02:56.52Z</time></trkpt><trkpt lat="43.5001503" lon="11.9335948"><ele>598.0</ele><time>2026-04-19T12:02:58.535Z</time></trkpt><trkpt lat="43.5002153" lon="11.9335662"><ele>598.0</ele><time>2026-04-19T12:03:00.544Z</time></trkpt><trkpt lat="43.5002999" lon="11.933573"><ele>598.0</ele><time>2026-04-19T12:03:02.521Z</time></trkpt><trkpt lat="43.5003753" lon="11.9336081"><ele>598.0</ele><time>2026-04-19T12:03:04.531Z</time></trkpt><trkpt lat="43.500445" lon="11.9336521"><ele>598.0</ele><time>2026-04-19T12:03:06.523Z</time></trkpt><trkpt lat="43.5005129" lon="11.9336766"><ele>598.0</ele><time>2026-04-19T12:03:08.529Z</time></trkpt><trkpt lat="43.5005235" lon="11.9335753"><ele>598.0</ele><time>2026-04-19T12:03:13.533Z</time></trkpt><trkpt lat="43.500474" lon="11.9334638"><ele>598.0</ele><time>2026-04-19T12:03:17.521Z</time></trkpt><trkpt lat="43.5004235" lon="11.9333504"><ele>595.0</ele><time>2026-04-19T12:03:19.54Z</time></trkpt><trkpt lat="43.5003588" lon="11.933221"><ele>592.0</ele><time>2026-04-19T12:03:21.527Z</time></trkpt><trkpt lat="43.5002796" lon="11.9331089"><ele>589.0</ele><time>2026-04-19T12:03:23.529Z</time></trkpt><trkpt lat="43.5002241" lon="11.9330617"><ele>586.0</ele><time>2026-04-19T12:03:24.515Z</time></trkpt><trkpt lat="43.5001679" lon="11.9330085"><ele>583.0</ele><time>2026-04-19T12:03:25.513Z</time></trkpt><trkpt lat="43.5001106" lon="11.9329505"><ele>580.0</ele><time>2026-04-19T12:03:26.529Z</time></trkpt><trkpt lat="43.5000263" lon="11.932864"><ele>580.0</ele><time>2026-04-19T12:03:28.529Z</time></trkpt><trkpt lat="43.4999384" lon="11.9327941"><ele>580.0</ele><time>2026-04-19T12:03:30.522Z</time></trkpt><trkpt lat="43.4998559" lon="11.9327195"><ele>580.0</ele><time>2026-04-19T12:03:32.54Z</time></trkpt><trkpt lat="43.4997918" lon="11.9326363"><ele>580.0</ele><time>2026-04-19T12:03:34.53Z</time></trkpt><trkpt lat="43.4997532" lon="11.9325514"><ele>580.0</ele><time>2026-04-19T12:03:36.527Z</time></trkpt><trkpt lat="43.4996876" lon="11.9325039"><ele>580.0</ele><time>2026-04-19T12:03:38.521Z</time></trkpt><trkpt lat="43.4996236" lon="11.9324468"><ele>577.0</ele><time>2026-04-19T12:03:40.517Z</time></trkpt><trkpt lat="43.4995896" lon="11.93235"><ele>574.0</ele><time>2026-04-19T12:03:43.519Z</time></trkpt><trkpt lat="43.4996039" lon="11.9322563"><ele>571.0</ele><time>2026-04-19T12:03:45.525Z</time></trkpt><trkpt lat="43.4996121" lon="11.9321527"><ele>568.0</ele><time>2026-04-19T12:03:47.513Z</time></trkpt><trkpt lat="43.49962" lon="11.9320413"><ele>565.0</ele><time>2026-04-19T12:03:49.521Z</time></trkpt><trkpt lat="43.4996346" lon="11.9319376"><ele>562.0</ele><time>2026-04-19T12:03:51.516Z</time></trkpt><trkpt lat="43.4996679" lon="11.9318428"><ele>562.0</ele><time>2026-04-19T12:03:53.53Z</time></trkpt><trkpt lat="43.4997495" lon="11.9317781"><ele>562.0</ele><time>2026-04-19T12:03:55.534Z</time></trkpt><trkpt lat="43.4998358" lon="11.9317291"><ele>562.0</ele><time>2026-04-19T12:03:57.516Z</time></trkpt><trkpt lat="43.4998967" lon="11.9316773"><ele>562.0</ele><time>2026-04-19T12:03:59.523Z</time></trkpt><trkpt lat="43.4999718" lon="11.9316479"><ele>562.0</ele><time>2026-04-19T12:04:01.529Z</time></trkpt><trkpt lat="43.5000519" lon="11.9316341"><ele>562.0</ele><time>2026-04-19T12:04:03.521Z</time></trkpt><trkpt lat="43.5001267" lon="11.9316145"><ele>558.8000000000001</ele><time>2026-04-19T12:04:05.513Z</time></trkpt><trkpt lat="43.5002158" lon="11.9315837"><ele>555.6</ele><time>2026-04-19T12:04:07.527Z</time></trkpt><trkpt lat="43.5002883" lon="11.9315516"><ele>552.4000000000001</ele><time>2026-04-19T12:04:09.525Z</time></trkpt><trkpt lat="43.5002762" lon="11.9314131"><ele>549.2</ele><time>2026-04-19T12:04:11.543Z</time></trkpt><trkpt lat="43.5002416" lon="11.9312972"><ele>546.0</ele><time>2026-04-19T12:04:13.523Z</time></trkpt><trkpt lat="43.5002081" lon="11.9311769"><ele>546.0</ele><time>2026-04-19T12:04:16.531Z</time></trkpt><trkpt lat="43.5001624" lon="11.9310584"><ele>546.0</ele><time>2026-04-19T12:04:18.522Z</time></trkpt><trkpt lat="43.5001261" lon="11.9309562"><ele>546.0</ele><time>2026-04-19T12:04:20.508Z</time></trkpt><trkpt lat="43.5000722" lon="11.9308973"><ele>546.0</ele><time>2026-04-19T12:04:22.536Z</time></trkpt><trkpt lat="43.5000012" lon="11.930855"><ele>546.0</ele><time>2026-04-19T12:04:24.519Z</time></trkpt><trkpt lat="43.4999659" lon="11.9307602"><ele>546.0</ele><time>2026-04-19T12:04:26.512Z</time></trkpt><trkpt lat="43.4999413" lon="11.9306358"><ele>543.0</ele><time>2026-04-19T12:04:29.534Z</time></trkpt><trkpt lat="43.4999193" lon="11.9305422"><ele>540.0</ele><time>2026-04-19T12:04:31.546Z</time></trkpt><trkpt lat="43.4998961" lon="11.9304399"><ele>537.0</ele><time>2026-04-19T12:04:33.525Z</time></trkpt><trkpt lat="43.4998372" lon="11.930334"><ele>534.0</ele><time>2026-04-19T12:04:35.513Z</time></trkpt><trkpt lat="43.4998097" lon="11.9302461"><ele>531.0</ele><time>2026-04-19T12:04:37.509Z</time></trkpt><trkpt lat="43.4997589" lon="11.930161"><ele>528.0</ele><time>2026-04-19T12:04:39.516Z</time></trkpt><trkpt lat="43.4997071" lon="11.9300999"><ele>525.3333333333334</ele><time>2026-04-19T12:04:41.528Z</time></trkpt><trkpt lat="43.4996657" lon="11.9299851"><ele>522.6666666666666</ele><time>2026-04-19T12:04:43.524Z</time></trkpt><trkpt lat="43.4996657" lon="11.9298881"><ele>520.0</ele><time>2026-04-19T12:04:46.507Z</time></trkpt><trkpt lat="43.4996261" lon="11.9297737"><ele>517.3333333333333</ele><time>2026-04-19T12:04:50.525Z</time></trkpt><trkpt lat="43.4996046" lon="11.9296808"><ele>514.6666666666666</ele><time>2026-04-19T12:04:52.529Z</time></trkpt><trkpt lat="43.4996029" lon="11.929585"><ele>512.0</ele><time>2026-04-19T12:04:54.548Z</time></trkpt><trkpt lat="43.4995787" lon="11.9295015"><ele>510.66666666666663</ele><time>2026-04-19T12:04:56.528Z</time></trkpt><trkpt lat="43.4995427" lon="11.9294197"><ele>509.3333333333333</ele><time>2026-04-19T12:04:58.532Z</time></trkpt><trkpt lat="43.4995234" lon="11.9293223"><ele>508.0</ele><time>2026-04-19T12:05:00.532Z</time></trkpt><trkpt lat="43.4995291" lon="11.9292237"><ele>506.66666666666663</ele><time>2026-04-19T12:05:02.509Z</time></trkpt><trkpt lat="43.4995111" lon="11.9291273"><ele>505.3333333333333</ele><time>2026-04-19T12:05:04.537Z</time></trkpt><trkpt lat="43.4994728" lon="11.9290226"><ele>504.0</ele><time>2026-04-19T12:05:06.537Z</time></trkpt><trkpt lat="43.4994461" lon="11.9288666"><ele>502.3333333333333</ele><time>2026-04-19T12:05:14.526Z</time></trkpt><trkpt lat="43.4994519" lon="11.9287653"><ele>500.66666666666663</ele><time>2026-04-19T12:05:17.53Z</time></trkpt><trkpt lat="43.4994288" lon="11.9286638"><ele>499.0</ele><time>2026-04-19T12:05:19.539Z</time></trkpt><trkpt lat="43.4994151" lon="11.9285512"><ele>497.3333333333333</ele><time>2026-04-19T12:05:22.527Z</time></trkpt><trkpt lat="43.4994043" lon="11.9284324"><ele>495.66666666666663</ele><time>2026-04-19T12:06:04.51Z</time></trkpt><trkpt lat="43.4993762" lon="11.9283265"><ele>494.0</ele><time>2026-04-19T12:06:07.506Z</time></trkpt><trkpt lat="43.4993631" lon="11.9282085"><ele>492.79999999999995</ele><time>2026-04-19T12:06:09.545Z</time></trkpt><trkpt lat="43.4993466" lon="11.9281005"><ele>491.59999999999997</ele><time>2026-04-19T12:06:11.524Z</time></trkpt><trkpt lat="43.4993406" lon="11.9279796"><ele>490.4</ele><time>2026-04-19T12:06:13.537Z</time></trkpt><trkpt lat="43.4993203" lon="11.9278466"><ele>489.2</ele><time>2026-04-19T12:06:15.544Z</time></trkpt><trkpt lat="43.4992871" lon="11.9277231"><ele>488.0</ele><time>2026-04-19T12:06:17.514Z</time></trkpt><trkpt lat="43.4992177" lon="11.927625"><ele>486.25</ele><time>2026-04-19T12:06:19.51Z</time></trkpt><trkpt lat="43.4991873" lon="11.9274672"><ele>484.5</ele><time>2026-04-19T12:06:21.514Z</time></trkpt><trkpt lat="43.4991405" lon="11.927316"><ele>482.75</ele><time>2026-04-19T12:06:23.515Z</time></trkpt><trkpt lat="43.4990819" lon="11.9271991"><ele>481.0</ele><time>2026-04-19T12:06:25.525Z</time></trkpt><trkpt lat="43.4990265" lon="11.9270626"><ele>481.0</ele><time>2026-04-19T12:06:27.525Z</time></trkpt><trkpt lat="43.4989765" lon="11.9269075"><ele>481.0</ele><time>2026-04-19T12:06:29.526Z</time></trkpt><trkpt lat="43.4989283" lon="11.9267805"><ele>481.0</ele><time>2026-04-19T12:06:31.528Z</time></trkpt><trkpt lat="43.4988657" lon="11.9266469"><ele>481.0</ele><time>2026-04-19T12:06:33.523Z</time></trkpt><trkpt lat="43.4988049" lon="11.9265413"><ele>481.0</ele><time>2026-04-19T12:06:35.546Z</time></trkpt><trkpt lat="43.4988003" lon="11.9264528"><ele>479.6666666666667</ele><time>2026-04-19T12:06:36.527Z</time></trkpt><trkpt lat="43.4987994" lon="11.9263654"><ele>478.33333333333337</ele><time>2026-04-19T12:06:37.525Z</time></trkpt><trkpt lat="43.4987779" lon="11.9262507"><ele>477.0</ele><time>2026-04-19T12:06:39.536Z</time></trkpt><trkpt lat="43.4987722" lon="11.9260977"><ele>475.66666666666663</ele><time>2026-04-19T12:06:41.535Z</time></trkpt><trkpt lat="43.4988001" lon="11.9259758"><ele>474.3333333333333</ele><time>2026-04-19T12:06:43.519Z</time></trkpt><trkpt lat="43.4987938" lon="11.9258659"><ele>473.0</ele><time>2026-04-19T12:06:45.549Z</time></trkpt><trkpt lat="43.4987398" lon="11.9257875"><ele>469.3333333333333</ele><time>2026-04-19T12:06:47.538Z</time></trkpt><trkpt lat="43.4987202" lon="11.9256884"><ele>465.66666666666663</ele><time>2026-04-19T12:06:49.548Z</time></trkpt><trkpt lat="43.4987068" lon="11.9255994"><ele>462.0</ele><time>2026-04-19T12:06:51.54Z</time></trkpt><trkpt lat="43.4986629" lon="11.9254836"><ele>458.33333333333337</ele><time>2026-04-19T12:06:53.521Z</time></trkpt><trkpt lat="43.4986165" lon="11.9253917"><ele>454.6666666666667</ele><time>2026-04-19T12:06:55.521Z</time></trkpt><trkpt lat="43.4985468" lon="11.9253044"><ele>451.0</ele><time>2026-04-19T12:06:57.535Z</time></trkpt><trkpt lat="43.4984978" lon="11.9252041"><ele>451.00000000000006</ele><time>2026-04-19T12:06:59.52Z</time></trkpt><trkpt lat="43.4985391" lon="11.9250943"><ele>451.0</ele><time>2026-04-19T12:07:01.529Z</time></trkpt><trkpt lat="43.4985909" lon="11.9250336"><ele>451.0</ele><time>2026-04-19T12:07:03.522Z</time></trkpt><trkpt lat="43.4985307" lon="11.9249952"><ele>451.0</ele><time>2026-04-19T12:07:05.515Z</time></trkpt><trkpt lat="43.4984364" lon="11.9250066"><ele>451.00000000000006</ele><time>2026-04-19T12:07:07.517Z</time></trkpt><trkpt lat="43.4984113" lon="11.9249149"><ele>451.0</ele><time>2026-04-19T12:07:09.507Z</time></trkpt><trkpt lat="43.4983938" lon="11.9247622"><ele>449.8</ele><time>2026-04-19T12:07:11.519Z</time></trkpt><trkpt lat="43.4983773" lon="11.924607"><ele>448.6</ele><time>2026-04-19T12:07:13.516Z</time></trkpt><trkpt lat="43.4983767" lon="11.9244668"><ele>447.4</ele><time>2026-04-19T12:07:15.516Z</time></trkpt><trkpt lat="43.4983553" lon="11.924296"><ele>446.2</ele><time>2026-04-19T12:07:17.52Z</time></trkpt><trkpt lat="43.4983968" lon="11.92419"><ele>445.0</ele><time>2026-04-19T12:07:19.508Z</time></trkpt><trkpt lat="43.4984712" lon="11.9241804"><ele>442.2</ele><time>2026-04-19T12:07:21.517Z</time></trkpt><trkpt lat="43.4984332" lon="11.9240762"><ele>439.4</ele><time>2026-04-19T12:07:24.527Z</time></trkpt><trkpt lat="43.4983622" lon="11.9240022"><ele>436.6</ele><time>2026-04-19T12:07:26.508Z</time></trkpt><trkpt lat="43.4983051" lon="11.9238907"><ele>433.8</ele><time>2026-04-19T12:07:28.516Z</time></trkpt><trkpt lat="43.4982586" lon="11.9237843"><ele>431.0</ele><time>2026-04-19T12:07:30.521Z</time></trkpt><trkpt lat="43.4981753" lon="11.9237085"><ele>430.99999999999994</ele><time>2026-04-19T12:07:32.531Z</time></trkpt><trkpt lat="43.4981563" lon="11.9236101"><ele>431.0</ele><time>2026-04-19T12:07:35.527Z</time></trkpt><trkpt lat="43.4982165" lon="11.9235056"><ele>431.0</ele><time>2026-04-19T12:07:37.527Z</time></trkpt><trkpt lat="43.4982412" lon="11.9233681"><ele>431.0</ele><time>2026-04-19T12:07:39.534Z</time></trkpt><trkpt lat="43.4982013" lon="11.923285"><ele>430.99999999999994</ele><time>2026-04-19T12:07:40.524Z</time></trkpt><trkpt lat="43.4981522" lon="11.9231707"><ele>431.0</ele><time>2026-04-19T12:07:42.519Z</time></trkpt><trkpt lat="43.4981204" lon="11.9230692"><ele>427.20000000000005</ele><time>2026-04-19T12:07:44.536Z</time></trkpt><trkpt lat="43.4981329" lon="11.9229774"><ele>423.40000000000003</ele><time>2026-04-19T12:07:45.535Z</time></trkpt><trkpt lat="43.4981423" lon="11.922862"><ele>419.6</ele><time>2026-04-19T12:07:46.528Z</time></trkpt><trkpt lat="43.4981208" lon="11.9227184"><ele>415.8</ele><time>2026-04-19T12:07:48.531Z</time></trkpt><trkpt lat="43.4981405" lon="11.922592"><ele>412.0</ele><time>2026-04-19T12:07:50.515Z</time></trkpt><trkpt lat="43.4980777" lon="11.9223419"><ele>409.33333333333337</ele><time>2026-04-19T12:07:52.518Z</time></trkpt><trkpt lat="43.4980381" lon="11.9222616"><ele>406.6666666666667</ele><time>2026-04-19T12:07:53.519Z</time></trkpt><trkpt lat="43.4980055" lon="11.9221866"><ele>404.0</ele><time>2026-04-19T12:07:54.518Z</time></trkpt><trkpt lat="43.4979904" lon="11.9221008"><ele>401.33333333333337</ele><time>2026-04-19T12:07:55.52Z</time></trkpt><trkpt lat="43.4979613" lon="11.9219695"><ele>398.6666666666667</ele><time>2026-04-19T12:07:57.521Z</time></trkpt><trkpt lat="43.4979741" lon="11.9218686"><ele>396.0</ele><time>2026-04-19T12:07:59.527Z</time></trkpt><trkpt lat="43.49804" lon="11.9217782"><ele>392.6</ele><time>2026-04-19T12:08:01.533Z</time></trkpt><trkpt lat="43.4981026" lon="11.921651"><ele>389.20000000000005</ele><time>2026-04-19T12:08:03.52Z</time></trkpt><trkpt lat="43.4981286" lon="11.9215448"><ele>385.79999999999995</ele><time>2026-04-19T12:08:05.521Z</time></trkpt><trkpt lat="43.4980958" lon="11.9214379"><ele>382.4</ele><time>2026-04-19T12:08:07.516Z</time></trkpt><trkpt lat="43.4981855" lon="11.9213434"><ele>379.0</ele><time>2026-04-19T12:08:09.533Z</time></trkpt><trkpt lat="43.4981431" lon="11.9212204"><ele>379.0</ele><time>2026-04-19T12:08:11.514Z</time></trkpt><trkpt lat="43.4981474" lon="11.9211034"><ele>379.0</ele><time>2026-04-19T12:08:13.529Z</time></trkpt><trkpt lat="43.4981876" lon="11.9210305"><ele>379.0</ele><time>2026-04-19T12:08:14.523Z</time></trkpt><trkpt lat="43.4982211" lon="11.9209482"><ele>379.0</ele><time>2026-04-19T12:08:15.527Z</time></trkpt><trkpt lat="43.4982618" lon="11.920869"><ele>379.0</ele><time>2026-04-19T12:08:16.513Z</time></trkpt><trkpt lat="43.4982942" lon="11.9207233"><ele>379.0</ele><time>2026-04-19T12:08:18.519Z</time></trkpt><trkpt lat="43.4982595" lon="11.9206445"><ele>376.8333333333333</ele><time>2026-04-19T12:08:19.522Z</time></trkpt><trkpt lat="43.4982407" lon="11.9205505"><ele>374.66666666666663</ele><time>2026-04-19T12:08:20.519Z</time></trkpt><trkpt lat="43.4982313" lon="11.9204531"><ele>372.5</ele><time>2026-04-19T12:08:21.53Z</time></trkpt><trkpt lat="43.4982244" lon="11.9202983"><ele>370.3333333333333</ele><time>2026-04-19T12:08:23.518Z</time></trkpt><trkpt lat="43.4982175" lon="11.9201324"><ele>368.1666666666667</ele><time>2026-04-19T12:08:25.517Z</time></trkpt><trkpt lat="43.4982204" lon="11.9200332"><ele>366.0</ele><time>2026-04-19T12:08:26.525Z</time></trkpt><trkpt lat="43.4982242" lon="11.9199274"><ele>364.0</ele><time>2026-04-19T12:08:27.515Z</time></trkpt><trkpt lat="43.4982254" lon="11.9198241"><ele>362.0</ele><time>2026-04-19T12:08:28.53Z</time></trkpt><trkpt lat="43.4982537" lon="11.9197284"><ele>360.0</ele><time>2026-04-19T12:08:29.516Z</time></trkpt><trkpt lat="43.4982616" lon="11.9196049"><ele>358.0</ele><time>2026-04-19T12:08:30.532Z</time></trkpt><trkpt lat="43.4982705" lon="11.9194909"><ele>356.0</ele><time>2026-04-19T12:08:31.538Z</time></trkpt><trkpt lat="43.4982741" lon="11.9193733"><ele>354.0</ele><time>2026-04-19T12:08:32.527Z</time></trkpt><trkpt lat="43.4982993" lon="11.9192871"><ele>353.3333333333333</ele><time>2026-04-19T12:08:33.525Z</time></trkpt><trkpt lat="43.4983241" lon="11.9192046"><ele>352.6666666666667</ele><time>2026-04-19T12:08:34.526Z</time></trkpt><trkpt lat="43.4983642" lon="11.9190579"><ele>352.0</ele><time>2026-04-19T12:08:36.53Z</time></trkpt><trkpt lat="43.4984029" lon="11.9189349"><ele>351.33333333333337</ele><time>2026-04-19T12:08:38.526Z</time></trkpt><trkpt lat="43.4984402" lon="11.9188609"><ele>350.6666666666667</ele><time>2026-04-19T12:08:40.543Z</time></trkpt><trkpt lat="43.4984756" lon="11.9187649"><ele>350.0</ele><time>2026-04-19T12:08:43.523Z</time></trkpt><trkpt lat="43.498485" lon="11.9186454"><ele>350.0</ele><time>2026-04-19T12:08:46.532Z</time></trkpt><trkpt lat="43.4984972" lon="11.918541"><ele>350.0</ele><time>2026-04-19T12:08:49.538Z</time></trkpt><trkpt lat="43.4985218" lon="11.9184209"><ele>350.0</ele><time>2026-04-19T12:08:52.545Z</time></trkpt><trkpt lat="43.4985407" lon="11.9183183"><ele>350.0</ele><time>2026-04-19T12:08:55.539Z</time></trkpt><trkpt lat="43.4985534" lon="11.9182057"><ele>350.0</ele><time>2026-04-19T12:08:58.52Z</time></trkpt><trkpt lat="43.498551" lon="11.9180857"><ele>350.0</ele><time>2026-04-19T12:09:01.546Z</time></trkpt><trkpt lat="43.4985369" lon="11.9179657"><ele>350.33333333333337</ele><time>2026-04-19T12:09:04.529Z</time></trkpt><trkpt lat="43.4985318" lon="11.9178409"><ele>350.6666666666667</ele><time>2026-04-19T12:09:07.529Z</time></trkpt><trkpt lat="43.4985332" lon="11.9177148"><ele>351.0</ele><time>2026-04-19T12:09:10.53Z</time></trkpt><trkpt lat="43.4985363" lon="11.9176263"><ele>351.3333333333333</ele><time>2026-04-19T12:09:12.543Z</time></trkpt><trkpt lat="43.4985421" lon="11.9175028"><ele>351.66666666666663</ele><time>2026-04-19T12:09:15.533Z</time></trkpt><trkpt lat="43.4985459" lon="11.9174061"><ele>352.0</ele><time>2026-04-19T12:09:17.533Z</time></trkpt><trkpt lat="43.4985329" lon="11.9172833"><ele>352.6</ele><time>2026-04-19T12:09:19.535Z</time></trkpt><trkpt lat="43.4985" lon="11.9171667"><ele>353.20000000000005</ele><time>2026-04-19T12:09:21.542Z</time></trkpt><trkpt lat="43.4984427" lon="11.9170775"><ele>353.8</ele><time>2026-04-19T12:09:23.525Z</time></trkpt><trkpt lat="43.4983773" lon="11.9169842"><ele>354.4</ele><time>2026-04-19T12:09:25.532Z</time></trkpt><trkpt lat="43.4983244" lon="11.9169247"><ele>355.0</ele><time>2026-04-19T12:09:26.533Z</time></trkpt><trkpt lat="43.4982098" lon="11.9168698"><ele>355.0</ele><time>2026-04-19T12:09:28.549Z</time></trkpt><trkpt lat="43.4981196" lon="11.9168255"><ele>355.0</ele><time>2026-04-19T12:09:30.541Z</time></trkpt><trkpt lat="43.4980573" lon="11.9167808"><ele>355.0</ele><time>2026-04-19T12:09:32.533Z</time></trkpt><trkpt lat="43.498019" lon="11.9166795"><ele>355.0</ele><time>2026-04-19T12:09:35.535Z</time></trkpt><trkpt lat="43.4980244" lon="11.9165802"><ele>355.0</ele><time>2026-04-19T12:09:37.526Z</time></trkpt><trkpt lat="43.498023" lon="11.916429"><ele>355.0</ele><time>2026-04-19T12:09:39.544Z</time></trkpt><trkpt lat="43.498017" lon="11.9162672"><ele>353.5</ele><time>2026-04-19T12:09:41.525Z</time></trkpt><trkpt lat="43.4980287" lon="11.9161238"><ele>352.0</ele><time>2026-04-19T12:09:43.542Z</time></trkpt><trkpt lat="43.4980278" lon="11.9159506"><ele>350.5</ele><time>2026-04-19T12:09:45.514Z</time></trkpt><trkpt lat="43.497993" lon="11.9157956"><ele>349.0</ele><time>2026-04-19T12:09:47.54Z</time></trkpt><trkpt lat="43.4979008" lon="11.9156978"><ele>345.5</ele><time>2026-04-19T12:09:49.538Z</time></trkpt><trkpt lat="43.4978368" lon="11.9156839"><ele>342.0</ele><time>2026-04-19T12:09:50.535Z</time></trkpt><trkpt lat="43.49777" lon="11.9156806"><ele>338.5</ele><time>2026-04-19T12:09:51.524Z</time></trkpt><trkpt lat="43.4976743" lon="11.9156305"><ele>335.0</ele><time>2026-04-19T12:09:53.551Z</time></trkpt><trkpt lat="43.49762" lon="11.9154993"><ele>331.5</ele><time>2026-04-19T12:09:55.537Z</time></trkpt><trkpt lat="43.4976071" lon="11.9154059"><ele>328.0</ele><time>2026-04-19T12:09:56.534Z</time></trkpt><trkpt lat="43.4975854" lon="11.9153207"><ele>328.0</ele><time>2026-04-19T12:09:57.531Z</time></trkpt><trkpt lat="43.4975468" lon="11.91525"><ele>328.0</ele><time>2026-04-19T12:09:58.535Z</time></trkpt><trkpt lat="43.4974606" lon="11.9151655"><ele>328.0</ele><time>2026-04-19T12:10:00.548Z</time></trkpt><trkpt lat="43.4973963" lon="11.9151869"><ele>328.0</ele><time>2026-04-19T12:10:01.538Z</time></trkpt><trkpt lat="43.4973343" lon="11.9152251"><ele>328.0</ele><time>2026-04-19T12:10:02.526Z</time></trkpt><trkpt lat="43.4972623" lon="11.9152892"><ele>328.0</ele><time>2026-04-19T12:10:03.519Z</time></trkpt><trkpt lat="43.4971872" lon="11.9153609"><ele>328.0</ele><time>2026-04-19T12:10:04.549Z</time></trkpt><trkpt lat="43.4971105" lon="11.9154355"><ele>328.0</ele><time>2026-04-19T12:10:05.539Z</time></trkpt><trkpt lat="43.4970245" lon="11.9155083"><ele>328.0</ele><time>2026-04-19T12:10:06.525Z</time></trkpt><trkpt lat="43.4969405" lon="11.915569"><ele>328.0</ele><time>2026-04-19T12:10:07.515Z</time></trkpt><trkpt lat="43.4968701" lon="11.9156157"><ele>328.0</ele><time>2026-04-19T12:10:08.538Z</time></trkpt><trkpt lat="43.4967739" lon="11.9156683"><ele>325.99999999999994</ele><time>2026-04-19T12:10:10.527Z</time></trkpt><trkpt lat="43.4967065" lon="11.9156419"><ele>324.0</ele><time>2026-04-19T12:10:12.513Z</time></trkpt><trkpt lat="43.4966964" lon="11.9155399"><ele>322.0</ele><time>2026-04-19T12:10:14.518Z</time></trkpt><trkpt lat="43.4967289" lon="11.9154199"><ele>320.0</ele><time>2026-04-19T12:10:16.521Z</time></trkpt><trkpt lat="43.4967543" lon="11.9153396"><ele>318.0</ele><time>2026-04-19T12:10:17.523Z</time></trkpt><trkpt lat="43.4967781" lon="11.9152541"><ele>315.99999999999994</ele><time>2026-04-19T12:10:18.535Z</time></trkpt><trkpt lat="43.4967982" lon="11.9151669"><ele>314.0</ele><time>2026-04-19T12:10:19.541Z</time></trkpt><trkpt lat="43.4968255" lon="11.915073"><ele>313.5</ele><time>2026-04-19T12:10:20.541Z</time></trkpt><trkpt lat="43.4968534" lon="11.9149674"><ele>313.0</ele><time>2026-04-19T12:10:21.532Z</time></trkpt><trkpt lat="43.4968843" lon="11.9148598"><ele>312.5</ele><time>2026-04-19T12:10:22.538Z</time></trkpt><trkpt lat="43.4969181" lon="11.9147452"><ele>312.0</ele><time>2026-04-19T12:10:23.556Z</time></trkpt><trkpt lat="43.4969509" lon="11.9146291"><ele>311.5</ele><time>2026-04-19T12:10:24.551Z</time></trkpt><trkpt lat="43.4969855" lon="11.91451"><ele>311.0</ele><time>2026-04-19T12:10:25.536Z</time></trkpt><trkpt lat="43.497023" lon="11.9143932"><ele>311.0</ele><time>2026-04-19T12:10:26.536Z</time></trkpt><trkpt lat="43.4970569" lon="11.9142939"><ele>311.0</ele><time>2026-04-19T12:10:27.528Z</time></trkpt><trkpt lat="43.4970838" lon="11.9142133"><ele>311.0</ele><time>2026-04-19T12:10:28.54Z</time></trkpt><trkpt lat="43.4970948" lon="11.9140917"><ele>311.0</ele><time>2026-04-19T12:10:30.53Z</time></trkpt><trkpt lat="43.4970394" lon="11.9140117"><ele>311.0</ele><time>2026-04-19T12:10:32.532Z</time></trkpt><trkpt lat="43.4969483" lon="11.9139791"><ele>311.0</ele><time>2026-04-19T12:10:34.52Z</time></trkpt><trkpt lat="43.4968486" lon="11.9139534"><ele>310.25</ele><time>2026-04-19T12:10:36.551Z</time></trkpt><trkpt lat="43.4967358" lon="11.9139147"><ele>309.5</ele><time>2026-04-19T12:10:38.537Z</time></trkpt><trkpt lat="43.4966246" lon="11.9138767"><ele>308.75</ele><time>2026-04-19T12:10:40.535Z</time></trkpt><trkpt lat="43.4965447" lon="11.9137592"><ele>308.0</ele><time>2026-04-19T12:10:42.549Z</time></trkpt><trkpt lat="43.4965393" lon="11.9135981"><ele>308.0</ele><time>2026-04-19T12:10:44.525Z</time></trkpt><trkpt lat="43.4965655" lon="11.9134376"><ele>308.0</ele><time>2026-04-19T12:10:46.518Z</time></trkpt><trkpt lat="43.4965933" lon="11.9132762"><ele>308.0</ele><time>2026-04-19T12:10:48.512Z</time></trkpt><trkpt lat="43.496621" lon="11.9131152"><ele>308.0</ele><time>2026-04-19T12:10:50.525Z</time></trkpt><trkpt lat="43.4966476" lon="11.9129494"><ele>307.6</ele><time>2026-04-19T12:10:52.529Z</time></trkpt><trkpt lat="43.4966749" lon="11.912793"><ele>307.20000000000005</ele><time>2026-04-19T12:10:54.522Z</time></trkpt><trkpt lat="43.4966882" lon="11.9127081"><ele>306.8</ele><time>2026-04-19T12:10:55.517Z</time></trkpt><trkpt lat="43.4967158" lon="11.9125398"><ele>306.40000000000003</ele><time>2026-04-19T12:10:57.529Z</time></trkpt><trkpt lat="43.4967446" lon="11.9123549"><ele>306.0</ele><time>2026-04-19T12:10:59.533Z</time></trkpt><trkpt lat="43.4967577" lon="11.9122573"><ele>306.0</ele><time>2026-04-19T12:11:00.518Z</time></trkpt><trkpt lat="43.4967711" lon="11.912157"><ele>306.0</ele><time>2026-04-19T12:11:01.52Z</time></trkpt><trkpt lat="43.4967833" lon="11.9120557"><ele>306.0</ele><time>2026-04-19T12:11:02.523Z</time></trkpt><trkpt lat="43.4967991" lon="11.9119515"><ele>306.0</ele><time>2026-04-19T12:11:03.52Z</time></trkpt><trkpt lat="43.496819" lon="11.9118445"><ele>306.0</ele><time>2026-04-19T12:11:04.524Z</time></trkpt><trkpt lat="43.4968412" lon="11.9117391"><ele>306.0</ele><time>2026-04-19T12:11:05.53Z</time></trkpt><trkpt lat="43.4968626" lon="11.9116335"><ele>304.6666666666667</ele><time>2026-04-19T12:11:06.53Z</time></trkpt><trkpt lat="43.4968841" lon="11.9115258"><ele>303.3333333333333</ele><time>2026-04-19T12:11:07.544Z</time></trkpt><trkpt lat="43.4969038" lon="11.9114168"><ele>302.0</ele><time>2026-04-19T12:11:08.543Z</time></trkpt><trkpt lat="43.4969227" lon="11.9113048"><ele>300.66666666666663</ele><time>2026-04-19T12:11:09.542Z</time></trkpt><trkpt lat="43.496945" lon="11.9111957"><ele>299.3333333333333</ele><time>2026-04-19T12:11:10.542Z</time></trkpt><trkpt lat="43.4969641" lon="11.9110814"><ele>298.0</ele><time>2026-04-19T12:11:11.522Z</time></trkpt><trkpt lat="43.4969724" lon="11.9109661"><ele>296.8333333333333</ele><time>2026-04-19T12:11:12.524Z</time></trkpt><trkpt lat="43.4969737" lon="11.9108599"><ele>295.66666666666663</ele><time>2026-04-19T12:11:13.524Z</time></trkpt><trkpt lat="43.4969842" lon="11.9107558"><ele>294.5</ele><time>2026-04-19T12:11:14.518Z</time></trkpt><trkpt lat="43.4969946" lon="11.9106437"><ele>293.3333333333333</ele><time>2026-04-19T12:11:15.522Z</time></trkpt><trkpt lat="43.4970076" lon="11.9105321"><ele>292.1666666666667</ele><time>2026-04-19T12:11:16.514Z</time></trkpt><trkpt lat="43.4970218" lon="11.9104219"><ele>291.0</ele><time>2026-04-19T12:11:17.53Z</time></trkpt><trkpt lat="43.4970344" lon="11.9103142"><ele>291.0</ele><time>2026-04-19T12:11:18.522Z</time></trkpt><trkpt lat="43.4970457" lon="11.9102142"><ele>291.0</ele><time>2026-04-19T12:11:19.529Z</time></trkpt><trkpt lat="43.4970519" lon="11.9101126"><ele>291.0</ele><time>2026-04-19T12:11:20.532Z</time></trkpt><trkpt lat="43.4970431" lon="11.9100021"><ele>291.0</ele><time>2026-04-19T12:11:21.53Z</time></trkpt><trkpt lat="43.4970107" lon="11.9099079"><ele>291.0</ele><time>2026-04-19T12:11:22.534Z</time></trkpt><trkpt lat="43.4969691" lon="11.9098188"><ele>291.0</ele><time>2026-04-19T12:11:23.539Z</time></trkpt><trkpt lat="43.4969207" lon="11.9097373"><ele>290.6666666666667</ele><time>2026-04-19T12:11:24.542Z</time></trkpt><trkpt lat="43.4968717" lon="11.9096567"><ele>290.3333333333333</ele><time>2026-04-19T12:11:25.542Z</time></trkpt><trkpt lat="43.4968249" lon="11.909575"><ele>290.0</ele><time>2026-04-19T12:11:26.534Z</time></trkpt><trkpt lat="43.4967762" lon="11.9094951"><ele>289.66666666666663</ele><time>2026-04-19T12:11:27.531Z</time></trkpt><trkpt lat="43.4967268" lon="11.9094161"><ele>289.3333333333333</ele><time>2026-04-19T12:11:28.546Z</time></trkpt><trkpt lat="43.4966792" lon="11.9093371"><ele>289.0</ele><time>2026-04-19T12:11:29.527Z</time></trkpt><trkpt lat="43.4966323" lon="11.9092574"><ele>288.5</ele><time>2026-04-19T12:11:30.541Z</time></trkpt><trkpt lat="43.4965898" lon="11.9091722"><ele>288.0</ele><time>2026-04-19T12:11:31.552Z</time></trkpt><trkpt lat="43.4965509" lon="11.9090861"><ele>287.5</ele><time>2026-04-19T12:11:32.541Z</time></trkpt><trkpt lat="43.496513" lon="11.909001"><ele>287.0</ele><time>2026-04-19T12:11:33.531Z</time></trkpt><trkpt lat="43.4964781" lon="11.9089075"><ele>286.5</ele><time>2026-04-19T12:11:34.53Z</time></trkpt><trkpt lat="43.4964477" lon="11.9088102"><ele>286.0</ele><time>2026-04-19T12:11:35.54Z</time></trkpt><trkpt lat="43.4964163" lon="11.908714"><ele>285.99999999999994</ele><time>2026-04-19T12:11:36.528Z</time></trkpt><trkpt lat="43.4963855" lon="11.9086204"><ele>286.0</ele><time>2026-04-19T12:11:37.523Z</time></trkpt><trkpt lat="43.4963575" lon="11.9085255"><ele>286.0</ele><time>2026-04-19T12:11:38.526Z</time></trkpt><trkpt lat="43.4963412" lon="11.908427"><ele>286.0</ele><time>2026-04-19T12:11:39.517Z</time></trkpt><trkpt lat="43.4963329" lon="11.9083254"><ele>286.0</ele><time>2026-04-19T12:11:40.518Z</time></trkpt><trkpt lat="43.4963268" lon="11.9082268"><ele>285.99999999999994</ele><time>2026-04-19T12:11:41.528Z</time></trkpt><trkpt lat="43.4963239" lon="11.9081278"><ele>286.0</ele><time>2026-04-19T12:11:42.535Z</time></trkpt><trkpt lat="43.4963236" lon="11.9080274"><ele>285.57142857142856</ele><time>2026-04-19T12:11:43.531Z</time></trkpt><trkpt lat="43.4963225" lon="11.9079308"><ele>285.1428571428571</ele><time>2026-04-19T12:11:44.538Z</time></trkpt><trkpt lat="43.4963197" lon="11.9078342"><ele>284.7142857142857</ele><time>2026-04-19T12:11:45.543Z</time></trkpt><trkpt lat="43.4963124" lon="11.9077389"><ele>284.2857142857143</ele><time>2026-04-19T12:11:46.54Z</time></trkpt><trkpt lat="43.4963032" lon="11.9076448"><ele>283.8571428571429</ele><time>2026-04-19T12:11:47.536Z</time></trkpt><trkpt lat="43.4962928" lon="11.9075536"><ele>283.42857142857144</ele><time>2026-04-19T12:11:48.532Z</time></trkpt><trkpt lat="43.4962803" lon="11.9074632"><ele>283.0</ele><time>2026-04-19T12:11:49.534Z</time></trkpt><trkpt lat="43.496268" lon="11.9073732"><ele>282.7142857142857</ele><time>2026-04-19T12:11:50.533Z</time></trkpt><trkpt lat="43.4962553" lon="11.9072832"><ele>282.42857142857144</ele><time>2026-04-19T12:11:51.538Z</time></trkpt><trkpt lat="43.4962414" lon="11.9071907"><ele>282.14285714285717</ele><time>2026-04-19T12:11:52.535Z</time></trkpt><trkpt lat="43.4962259" lon="11.9070973"><ele>281.8571428571429</ele><time>2026-04-19T12:11:53.535Z</time></trkpt><trkpt lat="43.4962081" lon="11.9070026"><ele>281.57142857142856</ele><time>2026-04-19T12:11:54.536Z</time></trkpt><trkpt lat="43.4961914" lon="11.9069077"><ele>281.28571428571433</ele><time>2026-04-19T12:11:55.548Z</time></trkpt><trkpt lat="43.4961725" lon="11.9068129"><ele>281.0</ele><time>2026-04-19T12:11:56.532Z</time></trkpt><trkpt lat="43.4961534" lon="11.9067172"><ele>280.8571428571429</ele><time>2026-04-19T12:11:57.522Z</time></trkpt><trkpt lat="43.4961329" lon="11.9066211"><ele>280.7142857142857</ele><time>2026-04-19T12:11:58.532Z</time></trkpt><trkpt lat="43.4961124" lon="11.9065246"><ele>280.57142857142856</ele><time>2026-04-19T12:11:59.525Z</time></trkpt><trkpt lat="43.4960917" lon="11.9064248"><ele>280.42857142857144</ele><time>2026-04-19T12:12:00.519Z</time></trkpt><trkpt lat="43.4960716" lon="11.9063264"><ele>280.2857142857143</ele><time>2026-04-19T12:12:01.542Z</time></trkpt><trkpt lat="43.4960515" lon="11.9062269"><ele>280.14285714285717</ele><time>2026-04-19T12:12:02.519Z</time></trkpt><trkpt lat="43.49603" lon="11.9061294"><ele>280.0</ele><time>2026-04-19T12:12:03.534Z</time></trkpt><trkpt lat="43.4960115" lon="11.9060333"><ele>280.0</ele><time>2026-04-19T12:12:04.532Z</time></trkpt><trkpt lat="43.4959947" lon="11.9059368"><ele>280.0</ele><time>2026-04-19T12:12:05.535Z</time></trkpt><trkpt lat="43.495977" lon="11.9058412"><ele>280.0</ele><time>2026-04-19T12:12:06.533Z</time></trkpt><trkpt lat="43.4959584" lon="11.9057464"><ele>280.0</ele><time>2026-04-19T12:12:07.54Z</time></trkpt><trkpt lat="43.4959393" lon="11.9056505"><ele>280.0</ele><time>2026-04-19T12:12:08.529Z</time></trkpt><trkpt lat="43.49592" lon="11.905554"><ele>280.0</ele><time>2026-04-19T12:12:09.528Z</time></trkpt><trkpt lat="43.4959025" lon="11.9054565"><ele>280.0</ele><time>2026-04-19T12:12:10.532Z</time></trkpt><trkpt lat="43.4958841" lon="11.9053594"><ele>280.0</ele><time>2026-04-19T12:12:11.54Z</time></trkpt><trkpt lat="43.4958653" lon="11.9052612"><ele>280.0</ele><time>2026-04-19T12:12:12.543Z</time></trkpt><trkpt lat="43.495846" lon="11.9051634"><ele>280.0</ele><time>2026-04-19T12:12:13.543Z</time></trkpt><trkpt lat="43.4958261" lon="11.9050648"><ele>280.0</ele><time>2026-04-19T12:12:14.545Z</time></trkpt><trkpt lat="43.4958064" lon="11.9049652"><ele>280.0</ele><time>2026-04-19T12:12:15.531Z</time></trkpt><trkpt lat="43.4957877" lon="11.9048636"><ele>280.0</ele><time>2026-04-19T12:12:16.544Z</time></trkpt><trkpt lat="43.4957696" lon="11.9047598"><ele>279.5</ele><time>2026-04-19T12:12:17.531Z</time></trkpt><trkpt lat="43.495751" lon="11.9046569"><ele>279.0</ele><time>2026-04-19T12:12:18.527Z</time></trkpt><trkpt lat="43.4957325" lon="11.9045534"><ele>278.5</ele><time>2026-04-19T12:12:19.529Z</time></trkpt><trkpt lat="43.4957152" lon="11.9044505"><ele>278.0</ele><time>2026-04-19T12:12:20.532Z</time></trkpt><trkpt lat="43.4956977" lon="11.9043483"><ele>277.5</ele><time>2026-04-19T12:12:21.529Z</time></trkpt><trkpt lat="43.4956835" lon="11.9042455"><ele>277.0</ele><time>2026-04-19T12:12:22.525Z</time></trkpt><trkpt lat="43.4956695" lon="11.9041433"><ele>276.7142857142857</ele><time>2026-04-19T12:12:23.526Z</time></trkpt><trkpt lat="43.4956535" lon="11.9040419"><ele>276.4285714285714</ele><time>2026-04-19T12:12:24.519Z</time></trkpt><trkpt lat="43.4956402" lon="11.9039399"><ele>276.1428571428571</ele><time>2026-04-19T12:12:25.538Z</time></trkpt><trkpt lat="43.4956303" lon="11.9038377"><ele>275.85714285714283</ele><time>2026-04-19T12:12:26.546Z</time></trkpt><trkpt lat="43.4956177" lon="11.9037372"><ele>275.57142857142856</ele><time>2026-04-19T12:12:27.546Z</time></trkpt><trkpt lat="43.495604" lon="11.9036384"><ele>275.2857142857143</ele><time>2026-04-19T12:12:28.534Z</time></trkpt><trkpt lat="43.4955895" lon="11.9035404"><ele>275.0</ele><time>2026-04-19T12:12:29.536Z</time></trkpt><trkpt lat="43.4955739" lon="11.9034438"><ele>275.0</ele><time>2026-04-19T12:12:30.543Z</time></trkpt><trkpt lat="43.4955577" lon="11.903348"><ele>275.0</ele><time>2026-04-19T12:12:31.535Z</time></trkpt><trkpt lat="43.4955405" lon="11.9032532"><ele>275.0</ele><time>2026-04-19T12:12:32.523Z</time></trkpt><trkpt lat="43.4955234" lon="11.9031584"><ele>275.0</ele><time>2026-04-19T12:12:33.532Z</time></trkpt><trkpt lat="43.4955075" lon="11.9030654"><ele>275.0</ele><time>2026-04-19T12:12:34.54Z</time></trkpt><trkpt lat="43.4954909" lon="11.902974"><ele>275.0</ele><time>2026-04-19T12:12:35.53Z</time></trkpt><trkpt lat="43.4954732" lon="11.9028834"><ele>275.0</ele><time>2026-04-19T12:12:36.537Z</time></trkpt><trkpt lat="43.4954554" lon="11.902793"><ele>275.0</ele><time>2026-04-19T12:12:37.541Z</time></trkpt><trkpt lat="43.4954375" lon="11.9027027"><ele>275.0</ele><time>2026-04-19T12:12:38.534Z</time></trkpt><trkpt lat="43.4954204" lon="11.9026131"><ele>275.0</ele><time>2026-04-19T12:12:39.536Z</time></trkpt><trkpt lat="43.4954028" lon="11.9025231"><ele>275.0</ele><time>2026-04-19T12:12:40.524Z</time></trkpt><trkpt lat="43.495386" lon="11.9024387"><ele>275.0</ele><time>2026-04-19T12:12:41.536Z</time></trkpt><trkpt lat="43.4953682" lon="11.90235"><ele>275.0</ele><time>2026-04-19T12:12:42.53Z</time></trkpt><trkpt lat="43.4953481" lon="11.9022628"><ele>275.0</ele><time>2026-04-19T12:12:43.528Z</time></trkpt><trkpt lat="43.495328" lon="11.9021717"><ele>274.57142857142856</ele><time>2026-04-19T12:12:44.537Z</time></trkpt><trkpt lat="43.4953111" lon="11.9020819"><ele>274.1428571428571</ele><time>2026-04-19T12:12:45.52Z</time></trkpt><trkpt lat="43.4952939" lon="11.9019926"><ele>273.71428571428567</ele><time>2026-04-19T12:12:46.545Z</time></trkpt><trkpt lat="43.4952761" lon="11.9019021"><ele>273.2857142857143</ele><time>2026-04-19T12:12:47.519Z</time></trkpt><trkpt lat="43.4952592" lon="11.9018122"><ele>272.85714285714283</ele><time>2026-04-19T12:12:48.537Z</time></trkpt><trkpt lat="43.4952438" lon="11.9017249"><ele>272.4285714285714</ele><time>2026-04-19T12:12:49.527Z</time></trkpt><trkpt lat="43.4952277" lon="11.9016298"><ele>272.0</ele><time>2026-04-19T12:12:50.539Z</time></trkpt><trkpt lat="43.4952128" lon="11.9015394"><ele>272.0</ele><time>2026-04-19T12:12:51.533Z</time></trkpt><trkpt lat="43.4951978" lon="11.9014511"><ele>272.0</ele><time>2026-04-19T12:12:52.541Z</time></trkpt><trkpt lat="43.4951871" lon="11.9013611"><ele>272.0</ele><time>2026-04-19T12:12:53.527Z</time></trkpt><trkpt lat="43.4951722" lon="11.9012718"><ele>272.0</ele><time>2026-04-19T12:12:54.514Z</time></trkpt><trkpt lat="43.495139" lon="11.9011039"><ele>272.0</ele><time>2026-04-19T12:12:56.547Z</time></trkpt><trkpt lat="43.4951076" lon="11.9009374"><ele>272.0</ele><time>2026-04-19T12:12:58.541Z</time></trkpt><trkpt lat="43.4950742" lon="11.9007732"><ele>271.85714285714283</ele><time>2026-04-19T12:13:00.531Z</time></trkpt><trkpt lat="43.4950555" lon="11.9006896"><ele>271.7142857142857</ele><time>2026-04-19T12:13:01.533Z</time></trkpt><trkpt lat="43.4950373" lon="11.9006048"><ele>271.57142857142856</ele><time>2026-04-19T12:13:02.525Z</time></trkpt><trkpt lat="43.4950194" lon="11.9005188"><ele>271.42857142857144</ele><time>2026-04-19T12:13:03.527Z</time></trkpt><trkpt lat="43.495001" lon="11.9004345"><ele>271.2857142857143</ele><time>2026-04-19T12:13:04.517Z</time></trkpt><trkpt lat="43.494981" lon="11.9003487"><ele>271.1428571428571</ele><time>2026-04-19T12:13:05.539Z</time></trkpt><trkpt lat="43.4949608" lon="11.9002642"><ele>271.0</ele><time>2026-04-19T12:13:06.533Z</time></trkpt><trkpt lat="43.4949421" lon="11.9001775"><ele>271.0</ele><time>2026-04-19T12:13:07.535Z</time></trkpt><trkpt lat="43.4949244" lon="11.9000917"><ele>271.0</ele><time>2026-04-19T12:13:08.533Z</time></trkpt><trkpt lat="43.4949075" lon="11.9000047"><ele>271.0</ele><time>2026-04-19T12:13:09.54Z</time></trkpt><trkpt lat="43.4948907" lon="11.8999168"><ele>271.0</ele><time>2026-04-19T12:13:10.526Z</time></trkpt><trkpt lat="43.4948751" lon="11.8998294"><ele>271.0</ele><time>2026-04-19T12:13:11.537Z</time></trkpt><trkpt lat="43.4948613" lon="11.8997398"><ele>271.0</ele><time>2026-04-19T12:13:12.522Z</time></trkpt><trkpt lat="43.4948471" lon="11.8996524"><ele>271.0</ele><time>2026-04-19T12:13:13.541Z</time></trkpt><trkpt lat="43.4948338" lon="11.8995639"><ele>270.8333333333333</ele><time>2026-04-19T12:13:14.548Z</time></trkpt><trkpt lat="43.4948203" lon="11.8994763"><ele>270.66666666666663</ele><time>2026-04-19T12:13:15.523Z</time></trkpt><trkpt lat="43.4948065" lon="11.899389"><ele>270.5</ele><time>2026-04-19T12:13:16.531Z</time></trkpt><trkpt lat="43.4947918" lon="11.8993026"><ele>270.3333333333333</ele><time>2026-04-19T12:13:17.543Z</time></trkpt><trkpt lat="43.4947775" lon="11.8992169"><ele>270.1666666666667</ele><time>2026-04-19T12:13:18.532Z</time></trkpt><trkpt lat="43.4947639" lon="11.8991311"><ele>270.0</ele><time>2026-04-19T12:13:19.534Z</time></trkpt><trkpt lat="43.4947374" lon="11.8989585"><ele>269.8</ele><time>2026-04-19T12:13:21.538Z</time></trkpt><trkpt lat="43.4947126" lon="11.8987932"><ele>269.6</ele><time>2026-04-19T12:13:23.543Z</time></trkpt><trkpt lat="43.4946848" lon="11.8986243"><ele>269.4</ele><time>2026-04-19T12:13:25.53Z</time></trkpt><trkpt lat="43.4946699" lon="11.898537"><ele>269.2</ele><time>2026-04-19T12:13:26.541Z</time></trkpt><trkpt lat="43.4946554" lon="11.8984488"><ele>269.0</ele><time>2026-04-19T12:13:27.538Z</time></trkpt><trkpt lat="43.4946293" lon="11.898279"><ele>269.0</ele><time>2026-04-19T12:13:29.532Z</time></trkpt><trkpt lat="43.4946035" lon="11.8981164"><ele>269.0</ele><time>2026-04-19T12:13:31.527Z</time></trkpt><trkpt lat="43.4945754" lon="11.8979492"><ele>269.0</ele><time>2026-04-19T12:13:33.538Z</time></trkpt><trkpt lat="43.4945481" lon="11.8977837"><ele>269.0</ele><time>2026-04-19T12:13:35.537Z</time></trkpt><trkpt lat="43.4945205" lon="11.8976155"><ele>268.4</ele><time>2026-04-19T12:13:37.535Z</time></trkpt><trkpt lat="43.4945046" lon="11.8975314"><ele>267.79999999999995</ele><time>2026-04-19T12:13:38.533Z</time></trkpt><trkpt lat="43.4944732" lon="11.8973662"><ele>267.20000000000005</ele><time>2026-04-19T12:13:40.521Z</time></trkpt><trkpt lat="43.4944446" lon="11.8972004"><ele>266.6</ele><time>2026-04-19T12:13:42.517Z</time></trkpt><trkpt lat="43.494417" lon="11.8970369"><ele>266.0</ele><time>2026-04-19T12:13:44.544Z</time></trkpt><trkpt lat="43.4943865" lon="11.8968721"><ele>265.75</ele><time>2026-04-19T12:13:46.53Z</time></trkpt><trkpt lat="43.4943582" lon="11.8967064"><ele>265.5</ele><time>2026-04-19T12:13:48.531Z</time></trkpt><trkpt lat="43.4943279" lon="11.8965408"><ele>265.25</ele><time>2026-04-19T12:13:50.534Z</time></trkpt><trkpt lat="43.4942976" lon="11.8963722"><ele>265.0</ele><time>2026-04-19T12:13:52.537Z</time></trkpt><trkpt lat="43.4942661" lon="11.8962044"><ele>265.0</ele><time>2026-04-19T12:13:54.518Z</time></trkpt><trkpt lat="43.4942365" lon="11.8960355"><ele>265.0</ele><time>2026-04-19T12:13:56.533Z</time></trkpt><trkpt lat="43.4942224" lon="11.8959503"><ele>265.0</ele><time>2026-04-19T12:13:57.54Z</time></trkpt><trkpt lat="43.4942068" lon="11.8958656"><ele>265.0</ele><time>2026-04-19T12:13:58.524Z</time></trkpt><trkpt lat="43.494179" lon="11.8956978"><ele>265.0</ele><time>2026-04-19T12:14:00.522Z</time></trkpt><trkpt lat="43.4941529" lon="11.8955302"><ele>265.1428571428571</ele><time>2026-04-19T12:14:02.528Z</time></trkpt><trkpt lat="43.4941401" lon="11.8954448"><ele>265.2857142857143</ele><time>2026-04-19T12:14:03.548Z</time></trkpt><trkpt lat="43.494111" lon="11.8952759"><ele>265.42857142857144</ele><time>2026-04-19T12:14:05.536Z</time></trkpt><trkpt lat="43.4940971" lon="11.8951909"><ele>265.57142857142856</ele><time>2026-04-19T12:14:06.526Z</time></trkpt><trkpt lat="43.4940825" lon="11.895106"><ele>265.7142857142857</ele><time>2026-04-19T12:14:07.536Z</time></trkpt><trkpt lat="43.494067" lon="11.8950217"><ele>265.85714285714283</ele><time>2026-04-19T12:14:08.536Z</time></trkpt><trkpt lat="43.4940516" lon="11.8949371"><ele>266.0</ele><time>2026-04-19T12:14:09.536Z</time></trkpt><trkpt lat="43.4940241" lon="11.8947697"><ele>265.6</ele><time>2026-04-19T12:14:11.538Z</time></trkpt><trkpt lat="43.4939936" lon="11.8946031"><ele>265.20000000000005</ele><time>2026-04-19T12:14:13.546Z</time></trkpt><trkpt lat="43.4939629" lon="11.894436"><ele>264.79999999999995</ele><time>2026-04-19T12:14:15.527Z</time></trkpt><trkpt lat="43.4939322" lon="11.8942688"><ele>264.4</ele><time>2026-04-19T12:14:17.543Z</time></trkpt><trkpt lat="43.4939168" lon="11.8941846"><ele>264.0</ele><time>2026-04-19T12:14:18.54Z</time></trkpt><trkpt lat="43.4939013" lon="11.8941004"><ele>263.85714285714283</ele><time>2026-04-19T12:14:19.538Z</time></trkpt><trkpt lat="43.4938868" lon="11.8940157"><ele>263.7142857142857</ele><time>2026-04-19T12:14:20.544Z</time></trkpt><trkpt lat="43.4938724" lon="11.8939311"><ele>263.57142857142856</ele><time>2026-04-19T12:14:21.53Z</time></trkpt><trkpt lat="43.4938565" lon="11.8938469"><ele>263.42857142857144</ele><time>2026-04-19T12:14:22.529Z</time></trkpt><trkpt lat="43.4938238" lon="11.8936789"><ele>263.2857142857143</ele><time>2026-04-19T12:14:24.529Z</time></trkpt><trkpt lat="43.4938084" lon="11.8935942"><ele>263.1428571428571</ele><time>2026-04-19T12:14:25.541Z</time></trkpt><trkpt lat="43.4937917" lon="11.8935105"><ele>263.0</ele><time>2026-04-19T12:14:26.518Z</time></trkpt><trkpt lat="43.4937592" lon="11.8933431"><ele>263.0</ele><time>2026-04-19T12:14:28.55Z</time></trkpt><trkpt lat="43.4937424" lon="11.893257"><ele>263.0</ele><time>2026-04-19T12:14:29.529Z</time></trkpt><trkpt lat="43.4937271" lon="11.8931705"><ele>263.0</ele><time>2026-04-19T12:14:30.537Z</time></trkpt><trkpt lat="43.493712" lon="11.893082"><ele>263.0</ele><time>2026-04-19T12:14:31.537Z</time></trkpt><trkpt lat="43.4936833" lon="11.892914"><ele>263.0</ele><time>2026-04-19T12:14:33.534Z</time></trkpt><trkpt lat="43.4936706" lon="11.8928281"><ele>263.0</ele><time>2026-04-19T12:14:34.537Z</time></trkpt><trkpt lat="43.4936464" lon="11.8926555"><ele>262.6</ele><time>2026-04-19T12:14:36.53Z</time></trkpt><trkpt lat="43.4936319" lon="11.892571"><ele>262.20000000000005</ele><time>2026-04-19T12:14:37.545Z</time></trkpt><trkpt lat="43.4936034" lon="11.8924057"><ele>261.8</ele><time>2026-04-19T12:14:39.523Z</time></trkpt><trkpt lat="43.4935752" lon="11.892241"><ele>261.40000000000003</ele><time>2026-04-19T12:14:41.53Z</time></trkpt><trkpt lat="43.493548" lon="11.8920779"><ele>261.0</ele><time>2026-04-19T12:14:43.519Z</time></trkpt><trkpt lat="43.4935228" lon="11.891913"><ele>261.0</ele><time>2026-04-19T12:14:45.534Z</time></trkpt><trkpt lat="43.4934967" lon="11.8917494"><ele>261.0</ele><time>2026-04-19T12:14:47.533Z</time></trkpt><trkpt lat="43.4934683" lon="11.8915872"><ele>261.0</ele><time>2026-04-19T12:14:49.53Z</time></trkpt><trkpt lat="43.49344" lon="11.8914277"><ele>261.0</ele><time>2026-04-19T12:14:51.548Z</time></trkpt><trkpt lat="43.4934122" lon="11.8912722"><ele>261.0</ele><time>2026-04-19T12:14:53.529Z</time></trkpt><trkpt lat="43.4933827" lon="11.8911162"><ele>261.0</ele><time>2026-04-19T12:14:55.537Z</time></trkpt><trkpt lat="43.4933563" lon="11.8909594"><ele>261.0</ele><time>2026-04-19T12:14:57.539Z</time></trkpt><trkpt lat="43.4933276" lon="11.8908041"><ele>261.0</ele><time>2026-04-19T12:14:59.54Z</time></trkpt><trkpt lat="43.4933014" lon="11.8906483"><ele>261.25</ele><time>2026-04-19T12:15:01.542Z</time></trkpt><trkpt lat="43.4932773" lon="11.8904919"><ele>261.5</ele><time>2026-04-19T12:15:03.546Z</time></trkpt><trkpt lat="43.4932491" lon="11.8903363"><ele>261.75</ele><time>2026-04-19T12:15:05.539Z</time></trkpt><trkpt lat="43.4932224" lon="11.8901782"><ele>262.0</ele><time>2026-04-19T12:15:07.529Z</time></trkpt><trkpt lat="43.4931959" lon="11.8900196"><ele>261.5</ele><time>2026-04-19T12:15:09.52Z</time></trkpt><trkpt lat="43.4931694" lon="11.889864"><ele>261.0</ele><time>2026-04-19T12:15:11.538Z</time></trkpt><trkpt lat="43.4931428" lon="11.8897106"><ele>260.5</ele><time>2026-04-19T12:15:13.537Z</time></trkpt><trkpt lat="43.4931183" lon="11.8895581"><ele>260.0</ele><time>2026-04-19T12:15:15.528Z</time></trkpt><trkpt lat="43.4930925" lon="11.8894058"><ele>259.75</ele><time>2026-04-19T12:15:17.522Z</time></trkpt><trkpt lat="43.4930666" lon="11.889253"><ele>259.5</ele><time>2026-04-19T12:15:19.53Z</time></trkpt><trkpt lat="43.4930354" lon="11.8890993"><ele>259.25</ele><time>2026-04-19T12:15:21.514Z</time></trkpt><trkpt lat="43.493004" lon="11.8889444"><ele>259.0</ele><time>2026-04-19T12:15:23.532Z</time></trkpt><trkpt lat="43.4929904" lon="11.8887835"><ele>259.0</ele><time>2026-04-19T12:15:25.552Z</time></trkpt><trkpt lat="43.4929677" lon="11.8886246"><ele>259.0</ele><time>2026-04-19T12:15:27.547Z</time></trkpt><trkpt lat="43.4929432" lon="11.8884671"><ele>259.0</ele><time>2026-04-19T12:15:29.536Z</time></trkpt><trkpt lat="43.4929177" lon="11.8883122"><ele>259.0</ele><time>2026-04-19T12:15:31.529Z</time></trkpt><trkpt lat="43.4928934" lon="11.8881566"><ele>259.0</ele><time>2026-04-19T12:15:33.527Z</time></trkpt><trkpt lat="43.4928663" lon="11.8880022"><ele>259.0</ele><time>2026-04-19T12:15:35.532Z</time></trkpt><trkpt lat="43.4928412" lon="11.8878462"><ele>259.0</ele><time>2026-04-19T12:15:37.53Z</time></trkpt><trkpt lat="43.4928155" lon="11.8876906"><ele>259.0</ele><time>2026-04-19T12:15:39.533Z</time></trkpt><trkpt lat="43.4927894" lon="11.8875352"><ele>259.0</ele><time>2026-04-19T12:15:41.542Z</time></trkpt><trkpt lat="43.4927677" lon="11.8873837"><ele>259.0</ele><time>2026-04-19T12:15:43.521Z</time></trkpt><trkpt lat="43.4927544" lon="11.8872366"><ele>259.0</ele><time>2026-04-19T12:15:45.541Z</time></trkpt><trkpt lat="43.4927657" lon="11.8870976"><ele>259.0</ele><time>2026-04-19T12:15:47.529Z</time></trkpt><trkpt lat="43.4928305" lon="11.8869963"><ele>259.0</ele><time>2026-04-19T12:15:49.528Z</time></trkpt><trkpt lat="43.4929293" lon="11.8869499"><ele>258.8</ele><time>2026-04-19T12:15:51.535Z</time></trkpt><trkpt lat="43.4930368" lon="11.8869433"><ele>258.59999999999997</ele><time>2026-04-19T12:15:53.535Z</time></trkpt><trkpt lat="43.4931459" lon="11.8869429"><ele>258.4</ele><time>2026-04-19T12:15:55.533Z</time></trkpt><trkpt lat="43.4932554" lon="11.8869502"><ele>258.2</ele><time>2026-04-19T12:15:57.53Z</time></trkpt><trkpt lat="43.4933678" lon="11.8869562"><ele>258.0</ele><time>2026-04-19T12:15:59.53Z</time></trkpt><trkpt lat="43.4934798" lon="11.8869652"><ele>258.0</ele><time>2026-04-19T12:16:01.534Z</time></trkpt><trkpt lat="43.4935901" lon="11.8869748"><ele>258.0</ele><time>2026-04-19T12:16:03.525Z</time></trkpt><trkpt lat="43.4937006" lon="11.8869855"><ele>258.0</ele><time>2026-04-19T12:16:05.53Z</time></trkpt><trkpt lat="43.4938112" lon="11.8869997"><ele>258.0</ele><time>2026-04-19T12:16:07.529Z</time></trkpt><trkpt lat="43.4939306" lon="11.8870163"><ele>258.0</ele><time>2026-04-19T12:16:09.533Z</time></trkpt><trkpt lat="43.4940488" lon="11.8870275"><ele>258.0</ele><time>2026-04-19T12:16:11.538Z</time></trkpt><trkpt lat="43.4941667" lon="11.887043"><ele>258.0</ele><time>2026-04-19T12:16:13.551Z</time></trkpt><trkpt lat="43.4942838" lon="11.8870533"><ele>258.0</ele><time>2026-04-19T12:16:15.531Z</time></trkpt><trkpt lat="43.4943974" lon="11.8870611"><ele>258.0</ele><time>2026-04-19T12:16:17.521Z</time></trkpt><trkpt lat="43.4945104" lon="11.887065"><ele>258.0</ele><time>2026-04-19T12:16:19.528Z</time></trkpt><trkpt lat="43.4946304" lon="11.8870927"><ele>258.0</ele><time>2026-04-19T12:16:21.533Z</time></trkpt><trkpt lat="43.4947406" lon="11.8871001"><ele>258.0</ele><time>2026-04-19T12:16:23.532Z</time></trkpt><trkpt lat="43.4948517" lon="11.8871095"><ele>257.8</ele><time>2026-04-19T12:16:25.533Z</time></trkpt><trkpt lat="43.4949588" lon="11.8871156"><ele>257.6</ele><time>2026-04-19T12:16:27.515Z</time></trkpt><trkpt lat="43.4950666" lon="11.8871183"><ele>257.4</ele><time>2026-04-19T12:16:29.546Z</time></trkpt><trkpt lat="43.4951771" lon="11.8871187"><ele>257.2</ele><time>2026-04-19T12:16:31.532Z</time></trkpt><trkpt lat="43.4952902" lon="11.8871247"><ele>257.0</ele><time>2026-04-19T12:16:33.517Z</time></trkpt><trkpt lat="43.495404" lon="11.8871342"><ele>257.0</ele><time>2026-04-19T12:16:35.514Z</time></trkpt><trkpt lat="43.4955186" lon="11.8871414"><ele>257.0</ele><time>2026-04-19T12:16:37.515Z</time></trkpt><trkpt lat="43.4956332" lon="11.8871499"><ele>257.0</ele><time>2026-04-19T12:16:39.528Z</time></trkpt><trkpt lat="43.495746" lon="11.8871581"><ele>257.0</ele><time>2026-04-19T12:16:41.537Z</time></trkpt><trkpt lat="43.495858" lon="11.8871675"><ele>257.0</ele><time>2026-04-19T12:16:43.544Z</time></trkpt><trkpt lat="43.4959715" lon="11.8871747"><ele>257.0</ele><time>2026-04-19T12:16:45.535Z</time></trkpt><trkpt lat="43.4960855" lon="11.887182"><ele>257.0</ele><time>2026-04-19T12:16:47.537Z</time></trkpt><trkpt lat="43.4962005" lon="11.8871916"><ele>257.0</ele><time>2026-04-19T12:16:49.542Z</time></trkpt><trkpt lat="43.4963168" lon="11.8871966"><ele>257.0</ele><time>2026-04-19T12:16:51.521Z</time></trkpt><trkpt lat="43.4964322" lon="11.8872042"><ele>257.0</ele><time>2026-04-19T12:16:53.527Z</time></trkpt><trkpt lat="43.4965486" lon="11.8872107"><ele>257.0</ele><time>2026-04-19T12:16:55.533Z</time></trkpt><trkpt lat="43.496665" lon="11.8872178"><ele>257.0</ele><time>2026-04-19T12:16:57.541Z</time></trkpt><trkpt lat="43.4967818" lon="11.8872243"><ele>257.0</ele><time>2026-04-19T12:16:59.539Z</time></trkpt><trkpt lat="43.4968976" lon="11.8872326"><ele>257.0</ele><time>2026-04-19T12:17:01.528Z</time></trkpt><trkpt lat="43.4970139" lon="11.8872396"><ele>257.0</ele><time>2026-04-19T12:17:03.533Z</time></trkpt><trkpt lat="43.4971291" lon="11.8872478"><ele>257.0</ele><time>2026-04-19T12:17:05.54Z</time></trkpt><trkpt lat="43.4972423" lon="11.8872514"><ele>256.75</ele><time>2026-04-19T12:17:07.526Z</time></trkpt><trkpt lat="43.4973552" lon="11.8872577"><ele>256.5</ele><time>2026-04-19T12:17:09.548Z</time></trkpt><trkpt lat="43.4974695" lon="11.8872668"><ele>256.25</ele><time>2026-04-19T12:17:11.518Z</time></trkpt><trkpt lat="43.4975855" lon="11.8872737"><ele>256.0</ele><time>2026-04-19T12:17:13.533Z</time></trkpt><trkpt lat="43.4977022" lon="11.8872799"><ele>256.0</ele><time>2026-04-19T12:17:15.528Z</time></trkpt><trkpt lat="43.4978196" lon="11.8872893"><ele>256.0</ele><time>2026-04-19T12:17:17.54Z</time></trkpt><trkpt lat="43.4979349" lon="11.8872993"><ele>256.0</ele><time>2026-04-19T12:17:19.532Z</time></trkpt><trkpt lat="43.4980491" lon="11.887306"><ele>256.0</ele><time>2026-04-19T12:17:21.543Z</time></trkpt><trkpt lat="43.4981612" lon="11.8873136"><ele>256.40000000000003</ele><time>2026-04-19T12:17:23.515Z</time></trkpt><trkpt lat="43.4982702" lon="11.887322"><ele>256.8</ele><time>2026-04-19T12:17:25.517Z</time></trkpt><trkpt lat="43.4983763" lon="11.8873342"><ele>257.20000000000005</ele><time>2026-04-19T12:17:27.538Z</time></trkpt><trkpt lat="43.4984849" lon="11.8873511"><ele>257.6</ele><time>2026-04-19T12:17:29.531Z</time></trkpt><trkpt lat="43.4985922" lon="11.8873629"><ele>258.0</ele><time>2026-04-19T12:17:31.541Z</time></trkpt><trkpt lat="43.4986994" lon="11.8873718"><ele>258.0</ele><time>2026-04-19T12:17:33.538Z</time></trkpt><trkpt lat="43.4988079" lon="11.8873826"><ele>258.0</ele><time>2026-04-19T12:17:35.534Z</time></trkpt><trkpt lat="43.4989191" lon="11.8873974"><ele>258.0</ele><time>2026-04-19T12:17:37.542Z</time></trkpt><trkpt lat="43.4990308" lon="11.8874051"><ele>258.0</ele><time>2026-04-19T12:17:39.53Z</time></trkpt><trkpt lat="43.4991424" lon="11.8874141"><ele>258.0</ele><time>2026-04-19T12:17:41.532Z</time></trkpt><trkpt lat="43.4992532" lon="11.8874167"><ele>258.0</ele><time>2026-04-19T12:17:43.53Z</time></trkpt><trkpt lat="43.4993664" lon="11.8874252"><ele>258.0</ele><time>2026-04-19T12:17:45.538Z</time></trkpt><trkpt lat="43.4994797" lon="11.8874327"><ele>258.0</ele><time>2026-04-19T12:17:47.538Z</time></trkpt><trkpt lat="43.4995937" lon="11.8874396"><ele>258.0</ele><time>2026-04-19T12:17:49.528Z</time></trkpt><trkpt lat="43.4997088" lon="11.8874522"><ele>257.8</ele><time>2026-04-19T12:17:51.538Z</time></trkpt><trkpt lat="43.4998235" lon="11.8874626"><ele>257.6</ele><time>2026-04-19T12:17:53.533Z</time></trkpt><trkpt lat="43.4999368" lon="11.8874696"><ele>257.4</ele><time>2026-04-19T12:17:55.549Z</time></trkpt><trkpt lat="43.5000483" lon="11.8874757"><ele>257.2</ele><time>2026-04-19T12:17:57.52Z</time></trkpt><trkpt lat="43.5001571" lon="11.8874843"><ele>257.0</ele><time>2026-04-19T12:17:59.524Z</time></trkpt><trkpt lat="43.5002675" lon="11.8874944"><ele>257.0</ele><time>2026-04-19T12:18:01.54Z</time></trkpt><trkpt lat="43.5003767" lon="11.8875009"><ele>257.0</ele><time>2026-04-19T12:18:03.544Z</time></trkpt><trkpt lat="43.5004856" lon="11.8875098"><ele>257.0</ele><time>2026-04-19T12:18:05.533Z</time></trkpt><trkpt lat="43.5005947" lon="11.8875113"><ele>257.0</ele><time>2026-04-19T12:18:07.544Z</time></trkpt><trkpt lat="43.5007036" lon="11.8875182"><ele>257.0</ele><time>2026-04-19T12:18:09.531Z</time></trkpt><trkpt lat="43.5008115" lon="11.8875266"><ele>256.8</ele><time>2026-04-19T12:18:11.54Z</time></trkpt><trkpt lat="43.500923" lon="11.8875319"><ele>256.6</ele><time>2026-04-19T12:18:13.548Z</time></trkpt><trkpt lat="43.5010327" lon="11.8875414"><ele>256.40000000000003</ele><time>2026-04-19T12:18:15.534Z</time></trkpt><trkpt lat="43.5011403" lon="11.8875502"><ele>256.2</ele><time>2026-04-19T12:18:17.537Z</time></trkpt><trkpt lat="43.5012469" lon="11.88756"><ele>256.0</ele><time>2026-04-19T12:18:19.533Z</time></trkpt><trkpt lat="43.5013532" lon="11.8875674"><ele>256.40000000000003</ele><time>2026-04-19T12:18:21.545Z</time></trkpt><trkpt lat="43.5014586" lon="11.8875734"><ele>256.8</ele><time>2026-04-19T12:18:23.534Z</time></trkpt><trkpt lat="43.5015632" lon="11.8875826"><ele>257.20000000000005</ele><time>2026-04-19T12:18:25.527Z</time></trkpt><trkpt lat="43.501668" lon="11.8875901"><ele>257.6</ele><time>2026-04-19T12:18:27.539Z</time></trkpt><trkpt lat="43.5017728" lon="11.8875946"><ele>258.0</ele><time>2026-04-19T12:18:29.526Z</time></trkpt><trkpt lat="43.5018763" lon="11.8875994"><ele>258.0</ele><time>2026-04-19T12:18:31.532Z</time></trkpt><trkpt lat="43.501981" lon="11.8876033"><ele>258.0</ele><time>2026-04-19T12:18:33.51Z</time></trkpt><trkpt lat="43.5020859" lon="11.8876087"><ele>258.0</ele><time>2026-04-19T12:18:35.53Z</time></trkpt><trkpt lat="43.5021914" lon="11.8876136"><ele>258.0</ele><time>2026-04-19T12:18:37.551Z</time></trkpt><trkpt lat="43.5022961" lon="11.8876199"><ele>258.0</ele><time>2026-04-19T12:18:39.539Z</time></trkpt><trkpt lat="43.5024008" lon="11.8876259"><ele>258.2</ele><time>2026-04-19T12:18:41.52Z</time></trkpt><trkpt lat="43.5025067" lon="11.8876308"><ele>258.4</ele><time>2026-04-19T12:18:43.52Z</time></trkpt><trkpt lat="43.5026121" lon="11.8876385"><ele>258.59999999999997</ele><time>2026-04-19T12:18:45.527Z</time></trkpt><trkpt lat="43.5027185" lon="11.8876485"><ele>258.8</ele><time>2026-04-19T12:18:47.527Z</time></trkpt><trkpt lat="43.5028283" lon="11.8876574"><ele>259.0</ele><time>2026-04-19T12:18:49.544Z</time></trkpt><trkpt lat="43.5029393" lon="11.8876657"><ele>259.0</ele><time>2026-04-19T12:18:51.538Z</time></trkpt><trkpt lat="43.5030474" lon="11.8876698"><ele>259.0</ele><time>2026-04-19T12:18:53.529Z</time></trkpt><trkpt lat="43.5031583" lon="11.8876778"><ele>259.0</ele><time>2026-04-19T12:18:55.523Z</time></trkpt><trkpt lat="43.5032697" lon="11.8876872"><ele>259.0</ele><time>2026-04-19T12:18:57.532Z</time></trkpt><trkpt lat="43.5033775" lon="11.8876915"><ele>259.0</ele><time>2026-04-19T12:18:59.534Z</time></trkpt><trkpt lat="43.5034839" lon="11.8876974"><ele>259.0</ele><time>2026-04-19T12:19:01.526Z</time></trkpt><trkpt lat="43.5035919" lon="11.8877034"><ele>259.0</ele><time>2026-04-19T12:19:03.517Z</time></trkpt><trkpt lat="43.5037001" lon="11.887708"><ele>259.0</ele><time>2026-04-19T12:19:05.54Z</time></trkpt><trkpt lat="43.5038065" lon="11.8877157"><ele>259.0</ele><time>2026-04-19T12:19:07.537Z</time></trkpt><trkpt lat="43.5039141" lon="11.8877228"><ele>259.0</ele><time>2026-04-19T12:19:09.53Z</time></trkpt><trkpt lat="43.5040202" lon="11.8877299"><ele>259.0</ele><time>2026-04-19T12:19:11.534Z</time></trkpt><trkpt lat="43.5041276" lon="11.8877376"><ele>259.0</ele><time>2026-04-19T12:19:13.548Z</time></trkpt><trkpt lat="43.504233" lon="11.8877434"><ele>259.0</ele><time>2026-04-19T12:19:15.545Z</time></trkpt><trkpt lat="43.5043387" lon="11.8877482"><ele>259.0</ele><time>2026-04-19T12:19:17.528Z</time></trkpt><trkpt lat="43.5044444" lon="11.8877555"><ele>259.0</ele><time>2026-04-19T12:19:19.545Z</time></trkpt><trkpt lat="43.5045489" lon="11.8877635"><ele>259.2</ele><time>2026-04-19T12:19:21.515Z</time></trkpt><trkpt lat="43.5046541" lon="11.8877718"><ele>259.4</ele><time>2026-04-19T12:19:23.527Z</time></trkpt><trkpt lat="43.5047582" lon="11.8877826"><ele>259.6</ele><time>2026-04-19T12:19:25.545Z</time></trkpt><trkpt lat="43.5048589" lon="11.8877984"><ele>259.8</ele><time>2026-04-19T12:19:27.534Z</time></trkpt><trkpt lat="43.5049669" lon="11.8877962"><ele>260.0</ele><time>2026-04-19T12:19:29.534Z</time></trkpt><trkpt lat="43.5050713" lon="11.8877987"><ele>260.0</ele><time>2026-04-19T12:19:31.518Z</time></trkpt><trkpt lat="43.505173" lon="11.8878051"><ele>260.0</ele><time>2026-04-19T12:19:33.53Z</time></trkpt><trkpt lat="43.5052776" lon="11.8878132"><ele>260.0</ele><time>2026-04-19T12:19:35.535Z</time></trkpt><trkpt lat="43.5053828" lon="11.8878209"><ele>260.0</ele><time>2026-04-19T12:19:37.544Z</time></trkpt><trkpt lat="43.5054908" lon="11.8878242"><ele>260.0</ele><time>2026-04-19T12:19:39.53Z</time></trkpt><trkpt lat="43.5055981" lon="11.8878311"><ele>260.4</ele><time>2026-04-19T12:19:41.535Z</time></trkpt><trkpt lat="43.5057069" lon="11.8878375"><ele>260.8</ele><time>2026-04-19T12:19:43.535Z</time></trkpt><trkpt lat="43.505814" lon="11.8878464"><ele>261.2</ele><time>2026-04-19T12:19:45.54Z</time></trkpt><trkpt lat="43.5059196" lon="11.8878549"><ele>261.6</ele><time>2026-04-19T12:19:47.544Z</time></trkpt><trkpt lat="43.506024" lon="11.8878626"><ele>262.0</ele><time>2026-04-19T12:19:49.535Z</time></trkpt><trkpt lat="43.5061291" lon="11.8878719"><ele>262.0</ele><time>2026-04-19T12:19:51.534Z</time></trkpt><trkpt lat="43.5062355" lon="11.8878765"><ele>262.0</ele><time>2026-04-19T12:19:53.539Z</time></trkpt><trkpt lat="43.5063408" lon="11.8878811"><ele>262.0</ele><time>2026-04-19T12:19:55.518Z</time></trkpt><trkpt lat="43.5064483" lon="11.8878873"><ele>262.0</ele><time>2026-04-19T12:19:57.538Z</time></trkpt><trkpt lat="43.5065555" lon="11.8878951"><ele>262.0</ele><time>2026-04-19T12:19:59.534Z</time></trkpt><trkpt lat="43.5066633" lon="11.8879014"><ele>262.4</ele><time>2026-04-19T12:20:01.53Z</time></trkpt><trkpt lat="43.5067682" lon="11.8879067"><ele>262.79999999999995</ele><time>2026-04-19T12:20:03.528Z</time></trkpt><trkpt lat="43.5068728" lon="11.8879127"><ele>263.2</ele><time>2026-04-19T12:20:05.517Z</time></trkpt><trkpt lat="43.5069754" lon="11.8879165"><ele>263.59999999999997</ele><time>2026-04-19T12:20:07.529Z</time></trkpt><trkpt lat="43.5070771" lon="11.8879262"><ele>264.0</ele><time>2026-04-19T12:20:09.525Z</time></trkpt><trkpt lat="43.507178" lon="11.8879333"><ele>264.0</ele><time>2026-04-19T12:20:11.547Z</time></trkpt><trkpt lat="43.5072813" lon="11.8879416"><ele>264.0</ele><time>2026-04-19T12:20:13.521Z</time></trkpt><trkpt lat="43.5073831" lon="11.8879477"><ele>264.0</ele><time>2026-04-19T12:20:15.525Z</time></trkpt><trkpt lat="43.5074838" lon="11.8879538"><ele>264.0</ele><time>2026-04-19T12:20:17.543Z</time></trkpt><trkpt lat="43.5075838" lon="11.8879608"><ele>264.0</ele><time>2026-04-19T12:20:19.541Z</time></trkpt><trkpt lat="43.5076854" lon="11.8879667"><ele>264.0</ele><time>2026-04-19T12:20:21.544Z</time></trkpt><trkpt lat="43.5077828" lon="11.8879744"><ele>264.0</ele><time>2026-04-19T12:20:23.532Z</time></trkpt><trkpt lat="43.5078817" lon="11.8879842"><ele>264.0</ele><time>2026-04-19T12:20:25.541Z</time></trkpt><trkpt lat="43.5079833" lon="11.8879905"><ele>264.0</ele><time>2026-04-19T12:20:27.518Z</time></trkpt><trkpt lat="43.5080808" lon="11.8879969"><ele>264.0</ele><time>2026-04-19T12:20:29.538Z</time></trkpt><trkpt lat="43.5081762" lon="11.8879997"><ele>264.2</ele><time>2026-04-19T12:20:31.518Z</time></trkpt><trkpt lat="43.5082823" lon="11.8880075"><ele>264.4</ele><time>2026-04-19T12:20:33.527Z</time></trkpt><trkpt lat="43.5083859" lon="11.8880108"><ele>264.6</ele><time>2026-04-19T12:20:35.541Z</time></trkpt><trkpt lat="43.5084881" lon="11.8880176"><ele>264.8</ele><time>2026-04-19T12:20:37.534Z</time></trkpt><trkpt lat="43.5085921" lon="11.8880275"><ele>265.0</ele><time>2026-04-19T12:20:39.537Z</time></trkpt><trkpt lat="43.5086952" lon="11.8880408"><ele>265.0</ele><time>2026-04-19T12:20:41.537Z</time></trkpt><trkpt lat="43.5088013" lon="11.8880494"><ele>265.0</ele><time>2026-04-19T12:20:43.547Z</time></trkpt><trkpt lat="43.5089117" lon="11.888057"><ele>265.0</ele><time>2026-04-19T12:20:45.536Z</time></trkpt><trkpt lat="43.5090253" lon="11.8880668"><ele>265.0</ele><time>2026-04-19T12:20:47.538Z</time></trkpt><trkpt lat="43.5091364" lon="11.8880782"><ele>265.0</ele><time>2026-04-19T12:20:49.541Z</time></trkpt><trkpt lat="43.5092444" lon="11.8880871"><ele>265.0</ele><time>2026-04-19T12:20:51.53Z</time></trkpt><trkpt lat="43.5093536" lon="11.8880987"><ele>265.0</ele><time>2026-04-19T12:20:53.535Z</time></trkpt><trkpt lat="43.5094616" lon="11.8881066"><ele>265.0</ele><time>2026-04-19T12:20:55.545Z</time></trkpt><trkpt lat="43.5095736" lon="11.8881177"><ele>265.0</ele><time>2026-04-19T12:20:57.527Z</time></trkpt><trkpt lat="43.5096857" lon="11.8881264"><ele>265.0</ele><time>2026-04-19T12:20:59.529Z</time></trkpt><trkpt lat="43.5097977" lon="11.8881355"><ele>264.25</ele><time>2026-04-19T12:21:01.548Z</time></trkpt><trkpt lat="43.5099104" lon="11.8881427"><ele>263.5</ele><time>2026-04-19T12:21:03.536Z</time></trkpt><trkpt lat="43.5100216" lon="11.8881515"><ele>262.75</ele><time>2026-04-19T12:21:05.537Z</time></trkpt><trkpt lat="43.5101322" lon="11.8881571"><ele>262.0</ele><time>2026-04-19T12:21:07.544Z</time></trkpt><trkpt lat="43.5102481" lon="11.8881606"><ele>262.0</ele><time>2026-04-19T12:21:09.535Z</time></trkpt><trkpt lat="43.5103661" lon="11.8881727"><ele>262.0</ele><time>2026-04-19T12:21:11.561Z</time></trkpt><trkpt lat="43.510485" lon="11.888183"><ele>262.0</ele><time>2026-04-19T12:21:13.528Z</time></trkpt><trkpt lat="43.5106049" lon="11.8881939"><ele>262.0</ele><time>2026-04-19T12:21:15.529Z</time></trkpt><trkpt lat="43.5107257" lon="11.8882047"><ele>262.25</ele><time>2026-04-19T12:21:17.517Z</time></trkpt><trkpt lat="43.510844" lon="11.8882155"><ele>262.5</ele><time>2026-04-19T12:21:19.543Z</time></trkpt><trkpt lat="43.5109606" lon="11.8882278"><ele>262.75</ele><time>2026-04-19T12:21:21.52Z</time></trkpt><trkpt lat="43.5110801" lon="11.8882356"><ele>263.0</ele><time>2026-04-19T12:21:23.544Z</time></trkpt><trkpt lat="43.5111997" lon="11.8882436"><ele>263.25</ele><time>2026-04-19T12:21:25.522Z</time></trkpt><trkpt lat="43.511322" lon="11.8882477"><ele>263.5</ele><time>2026-04-19T12:21:27.526Z</time></trkpt><trkpt lat="43.5114435" lon="11.8882549"><ele>263.75</ele><time>2026-04-19T12:21:29.524Z</time></trkpt><trkpt lat="43.5115636" lon="11.8882631"><ele>264.0</ele><time>2026-04-19T12:21:31.52Z</time></trkpt><trkpt lat="43.5116844" lon="11.8882707"><ele>264.0</ele><time>2026-04-19T12:21:33.53Z</time></trkpt><trkpt lat="43.5118043" lon="11.8882807"><ele>264.0</ele><time>2026-04-19T12:21:35.531Z</time></trkpt><trkpt lat="43.5119238" lon="11.8882892"><ele>264.0</ele><time>2026-04-19T12:21:37.54Z</time></trkpt><trkpt lat="43.5120424" lon="11.8883005"><ele>264.0</ele><time>2026-04-19T12:21:39.538Z</time></trkpt><trkpt lat="43.5121604" lon="11.8883097"><ele>264.0</ele><time>2026-04-19T12:21:41.533Z</time></trkpt><trkpt lat="43.5122736" lon="11.8883196"><ele>264.0</ele><time>2026-04-19T12:21:43.543Z</time></trkpt><trkpt lat="43.5123857" lon="11.888328"><ele>264.0</ele><time>2026-04-19T12:21:45.532Z</time></trkpt><trkpt lat="43.5124954" lon="11.8883377"><ele>264.0</ele><time>2026-04-19T12:21:47.537Z</time></trkpt><trkpt lat="43.5126027" lon="11.8883456"><ele>264.0</ele><time>2026-04-19T12:21:49.521Z</time></trkpt><trkpt lat="43.512709" lon="11.8883577"><ele>264.0</ele><time>2026-04-19T12:21:51.552Z</time></trkpt><trkpt lat="43.5128129" lon="11.8883637"><ele>264.0</ele><time>2026-04-19T12:21:53.536Z</time></trkpt><trkpt lat="43.5129215" lon="11.8883652"><ele>264.0</ele><time>2026-04-19T12:21:55.527Z</time></trkpt><trkpt lat="43.5130321" lon="11.8883679"><ele>264.0</ele><time>2026-04-19T12:21:57.527Z</time></trkpt><trkpt lat="43.5131494" lon="11.8883775"><ele>264.0</ele><time>2026-04-19T12:21:59.546Z</time></trkpt><trkpt lat="43.5132657" lon="11.8883882"><ele>263.5</ele><time>2026-04-19T12:22:01.522Z</time></trkpt><trkpt lat="43.5133806" lon="11.8883982"><ele>263.0</ele><time>2026-04-19T12:22:03.536Z</time></trkpt><trkpt lat="43.513495" lon="11.8884102"><ele>262.5</ele><time>2026-04-19T12:22:05.518Z</time></trkpt><trkpt lat="43.5136052" lon="11.8884161"><ele>262.0</ele><time>2026-04-19T12:22:07.526Z</time></trkpt><trkpt lat="43.5137166" lon="11.8884227"><ele>263.0</ele><time>2026-04-19T12:22:09.528Z</time></trkpt><trkpt lat="43.5138285" lon="11.8884287"><ele>264.0</ele><time>2026-04-19T12:22:11.515Z</time></trkpt><trkpt lat="43.5139375" lon="11.8884333"><ele>265.0</ele><time>2026-04-19T12:22:13.532Z</time></trkpt><trkpt lat="43.5140449" lon="11.8884397"><ele>266.0</ele><time>2026-04-19T12:22:15.549Z</time></trkpt><trkpt lat="43.5141492" lon="11.8884469"><ele>267.0</ele><time>2026-04-19T12:22:17.515Z</time></trkpt><trkpt lat="43.5142525" lon="11.8884483"><ele>267.0</ele><time>2026-04-19T12:22:19.527Z</time></trkpt><trkpt lat="43.5143582" lon="11.8884565"><ele>267.0</ele><time>2026-04-19T12:22:21.537Z</time></trkpt><trkpt lat="43.5144676" lon="11.8884667"><ele>267.0</ele><time>2026-04-19T12:22:23.515Z</time></trkpt><trkpt lat="43.5145759" lon="11.8884813"><ele>267.0</ele><time>2026-04-19T12:22:25.538Z</time></trkpt><trkpt lat="43.5146844" lon="11.8884928"><ele>267.0</ele><time>2026-04-19T12:22:27.546Z</time></trkpt><trkpt lat="43.514796" lon="11.8884985"><ele>267.4</ele><time>2026-04-19T12:22:29.558Z</time></trkpt><trkpt lat="43.5149088" lon="11.8885066"><ele>267.79999999999995</ele><time>2026-04-19T12:22:31.52Z</time></trkpt><trkpt lat="43.5150206" lon="11.8885159"><ele>268.2</ele><time>2026-04-19T12:22:33.532Z</time></trkpt><trkpt lat="43.5151298" lon="11.8885281"><ele>268.59999999999997</ele><time>2026-04-19T12:22:35.534Z</time></trkpt><trkpt lat="43.5152343" lon="11.8885365"><ele>269.0</ele><time>2026-04-19T12:22:37.546Z</time></trkpt><trkpt lat="43.5153444" lon="11.8885461"><ele>269.0</ele><time>2026-04-19T12:22:39.544Z</time></trkpt><trkpt lat="43.515449" lon="11.8885544"><ele>269.0</ele><time>2026-04-19T12:22:41.54Z</time></trkpt><trkpt lat="43.5155496" lon="11.8885631"><ele>269.0</ele><time>2026-04-19T12:22:43.528Z</time></trkpt><trkpt lat="43.5156491" lon="11.8885632"><ele>269.0</ele><time>2026-04-19T12:22:45.55Z</time></trkpt><trkpt lat="43.5157458" lon="11.8885727"><ele>269.0</ele><time>2026-04-19T12:22:47.527Z</time></trkpt><trkpt lat="43.5158437" lon="11.8885732"><ele>269.0</ele><time>2026-04-19T12:22:49.522Z</time></trkpt><trkpt lat="43.5159419" lon="11.8885758"><ele>269.0</ele><time>2026-04-19T12:22:51.54Z</time></trkpt><trkpt lat="43.5160415" lon="11.8885789"><ele>269.0</ele><time>2026-04-19T12:22:53.537Z</time></trkpt><trkpt lat="43.5161413" lon="11.8885876"><ele>269.0</ele><time>2026-04-19T12:22:55.522Z</time></trkpt><trkpt lat="43.5162507" lon="11.8885938"><ele>269.0</ele><time>2026-04-19T12:22:57.525Z</time></trkpt><trkpt lat="43.5163528" lon="11.8885979"><ele>269.0</ele><time>2026-04-19T12:22:59.532Z</time></trkpt><trkpt lat="43.5164492" lon="11.8885977"><ele>269.0</ele><time>2026-04-19T12:23:01.525Z</time></trkpt><trkpt lat="43.5165444" lon="11.8886069"><ele>269.0</ele><time>2026-04-19T12:23:03.532Z</time></trkpt><trkpt lat="43.5166453" lon="11.8886217"><ele>269.0</ele><time>2026-04-19T12:23:05.533Z</time></trkpt><trkpt lat="43.5167451" lon="11.8886311"><ele>269.0</ele><time>2026-04-19T12:23:07.541Z</time></trkpt><trkpt lat="43.5168429" lon="11.8886434"><ele>269.0</ele><time>2026-04-19T12:23:09.516Z</time></trkpt><trkpt lat="43.51694" lon="11.888663"><ele>269.0</ele><time>2026-04-19T12:23:11.542Z</time></trkpt><trkpt lat="43.5170398" lon="11.8886893"><ele>269.0</ele><time>2026-04-19T12:23:13.547Z</time></trkpt><trkpt lat="43.5171391" lon="11.8887354"><ele>269.0</ele><time>2026-04-19T12:23:15.545Z</time></trkpt><trkpt lat="43.5172419" lon="11.888786"><ele>269.0</ele><time>2026-04-19T12:23:17.53Z</time></trkpt><trkpt lat="43.517343" lon="11.8888359"><ele>268.4</ele><time>2026-04-19T12:23:19.529Z</time></trkpt><trkpt lat="43.5174424" lon="11.8888844"><ele>267.79999999999995</ele><time>2026-04-19T12:23:21.534Z</time></trkpt><trkpt lat="43.5175479" lon="11.8889461"><ele>267.20000000000005</ele><time>2026-04-19T12:23:23.534Z</time></trkpt><trkpt lat="43.5176483" lon="11.8890029"><ele>266.6</ele><time>2026-04-19T12:23:25.535Z</time></trkpt><trkpt lat="43.5177504" lon="11.8890646"><ele>266.0</ele><time>2026-04-19T12:23:27.532Z</time></trkpt><trkpt lat="43.5178528" lon="11.8891221"><ele>265.8</ele><time>2026-04-19T12:23:29.521Z</time></trkpt><trkpt lat="43.5179555" lon="11.8891805"><ele>265.6</ele><time>2026-04-19T12:23:31.54Z</time></trkpt><trkpt lat="43.5180571" lon="11.8892378"><ele>265.4</ele><time>2026-04-19T12:23:33.534Z</time></trkpt><trkpt lat="43.5181596" lon="11.8892941"><ele>265.2</ele><time>2026-04-19T12:23:35.566Z</time></trkpt><trkpt lat="43.5182624" lon="11.8893515"><ele>265.0</ele><time>2026-04-19T12:23:37.525Z</time></trkpt><trkpt lat="43.5183634" lon="11.8894087"><ele>265.0</ele><time>2026-04-19T12:23:39.526Z</time></trkpt><trkpt lat="43.5184639" lon="11.8894641"><ele>265.0</ele><time>2026-04-19T12:23:41.557Z</time></trkpt><trkpt lat="43.518564" lon="11.889524"><ele>265.0</ele><time>2026-04-19T12:23:43.545Z</time></trkpt><trkpt lat="43.5186646" lon="11.8895824"><ele>265.0</ele><time>2026-04-19T12:23:45.557Z</time></trkpt><trkpt lat="43.5187668" lon="11.8896336"><ele>265.0</ele><time>2026-04-19T12:23:47.537Z</time></trkpt><trkpt lat="43.5188676" lon="11.8896817"><ele>265.0</ele><time>2026-04-19T12:23:49.547Z</time></trkpt><trkpt lat="43.518968" lon="11.8897313"><ele>265.0</ele><time>2026-04-19T12:23:51.537Z</time></trkpt><trkpt lat="43.51907" lon="11.8897838"><ele>265.0</ele><time>2026-04-19T12:23:53.525Z</time></trkpt><trkpt lat="43.519171" lon="11.8898352"><ele>265.0</ele><time>2026-04-19T12:23:55.53Z</time></trkpt><trkpt lat="43.5192712" lon="11.8898874"><ele>265.0</ele><time>2026-04-19T12:23:57.537Z</time></trkpt><trkpt lat="43.5193709" lon="11.8899422"><ele>265.0</ele><time>2026-04-19T12:23:59.516Z</time></trkpt><trkpt lat="43.5194716" lon="11.8899958"><ele>265.0</ele><time>2026-04-19T12:24:01.528Z</time></trkpt><trkpt lat="43.5195749" lon="11.8900524"><ele>265.0</ele><time>2026-04-19T12:24:03.548Z</time></trkpt><trkpt lat="43.5196773" lon="11.8901059"><ele>265.0</ele><time>2026-04-19T12:24:05.527Z</time></trkpt><trkpt lat="43.5197777" lon="11.8901575"><ele>265.0</ele><time>2026-04-19T12:24:07.537Z</time></trkpt><trkpt lat="43.519871" lon="11.8902017"><ele>265.6</ele><time>2026-04-19T12:24:09.525Z</time></trkpt><trkpt lat="43.5199742" lon="11.8902509"><ele>266.2</ele><time>2026-04-19T12:24:11.54Z</time></trkpt><trkpt lat="43.5200796" lon="11.8903007"><ele>266.8</ele><time>2026-04-19T12:24:13.536Z</time></trkpt><trkpt lat="43.5201826" lon="11.8903541"><ele>267.4</ele><time>2026-04-19T12:24:15.529Z</time></trkpt><trkpt lat="43.5202801" lon="11.8904026"><ele>268.0</ele><time>2026-04-19T12:24:17.543Z</time></trkpt><trkpt lat="43.5203793" lon="11.8904559"><ele>267.0</ele><time>2026-04-19T12:24:19.54Z</time></trkpt><trkpt lat="43.5204851" lon="11.8905153"><ele>266.0</ele><time>2026-04-19T12:24:21.53Z</time></trkpt><trkpt lat="43.5205934" lon="11.890574"><ele>265.0</ele><time>2026-04-19T12:24:23.54Z</time></trkpt><trkpt lat="43.5207023" lon="11.8906397"><ele>264.0</ele><time>2026-04-19T12:24:25.533Z</time></trkpt><trkpt lat="43.5208063" lon="11.8907032"><ele>264.0</ele><time>2026-04-19T12:24:27.529Z</time></trkpt><trkpt lat="43.5209155" lon="11.8907686"><ele>264.0</ele><time>2026-04-19T12:24:29.529Z</time></trkpt><trkpt lat="43.5210223" lon="11.8908276"><ele>264.0</ele><time>2026-04-19T12:24:31.532Z</time></trkpt><trkpt lat="43.5211307" lon="11.8908886"><ele>264.0</ele><time>2026-04-19T12:24:33.528Z</time></trkpt><trkpt lat="43.5212407" lon="11.8909537"><ele>264.25</ele><time>2026-04-19T12:24:35.515Z</time></trkpt><trkpt lat="43.5213501" lon="11.8910162"><ele>264.5</ele><time>2026-04-19T12:24:37.524Z</time></trkpt><trkpt lat="43.5214608" lon="11.8910773"><ele>264.75</ele><time>2026-04-19T12:24:39.54Z</time></trkpt><trkpt lat="43.5215709" lon="11.8911375"><ele>265.0</ele><time>2026-04-19T12:24:41.538Z</time></trkpt><trkpt lat="43.5216805" lon="11.891199"><ele>265.0</ele><time>2026-04-19T12:24:43.527Z</time></trkpt><trkpt lat="43.5217894" lon="11.8912609"><ele>265.0</ele><time>2026-04-19T12:24:45.52Z</time></trkpt><trkpt lat="43.5218996" lon="11.8913199"><ele>265.0</ele><time>2026-04-19T12:24:47.538Z</time></trkpt><trkpt lat="43.5220084" lon="11.8913808"><ele>265.0</ele><time>2026-04-19T12:24:49.548Z</time></trkpt><trkpt lat="43.522117" lon="11.8914364"><ele>264.25</ele><time>2026-04-19T12:24:51.533Z</time></trkpt><trkpt lat="43.5222255" lon="11.8914949"><ele>263.5</ele><time>2026-04-19T12:24:53.54Z</time></trkpt><trkpt lat="43.5223316" lon="11.8915532"><ele>262.75</ele><time>2026-04-19T12:24:55.531Z</time></trkpt><trkpt lat="43.5224385" lon="11.8916111"><ele>262.0</ele><time>2026-04-19T12:24:57.536Z</time></trkpt><trkpt lat="43.5225443" lon="11.8916689"><ele>262.0</ele><time>2026-04-19T12:24:59.533Z</time></trkpt><trkpt lat="43.5226493" lon="11.8917282"><ele>262.0</ele><time>2026-04-19T12:25:01.56Z</time></trkpt><trkpt lat="43.5227551" lon="11.8917882"><ele>262.0</ele><time>2026-04-19T12:25:03.524Z</time></trkpt><trkpt lat="43.5228639" lon="11.8918509"><ele>262.0</ele><time>2026-04-19T12:25:05.532Z</time></trkpt><trkpt lat="43.5229727" lon="11.8919179"><ele>262.25</ele><time>2026-04-19T12:25:07.53Z</time></trkpt><trkpt lat="43.5230797" lon="11.8919872"><ele>262.5</ele><time>2026-04-19T12:25:09.539Z</time></trkpt><trkpt lat="43.5231838" lon="11.8920566"><ele>262.75</ele><time>2026-04-19T12:25:11.544Z</time></trkpt><trkpt lat="43.5232855" lon="11.8921259"><ele>263.0</ele><time>2026-04-19T12:25:13.537Z</time></trkpt><trkpt lat="43.5233866" lon="11.8921916"><ele>263.0</ele><time>2026-04-19T12:25:15.518Z</time></trkpt><trkpt lat="43.5234837" lon="11.892256"><ele>263.0</ele><time>2026-04-19T12:25:17.517Z</time></trkpt><trkpt lat="43.5235789" lon="11.8923218"><ele>263.0</ele><time>2026-04-19T12:25:19.531Z</time></trkpt><trkpt lat="43.5236776" lon="11.8923873"><ele>263.0</ele><time>2026-04-19T12:25:21.541Z</time></trkpt><trkpt lat="43.5237801" lon="11.8924537"><ele>263.0</ele><time>2026-04-19T12:25:23.523Z</time></trkpt><trkpt lat="43.5238838" lon="11.8925201"><ele>263.0</ele><time>2026-04-19T12:25:25.534Z</time></trkpt><trkpt lat="43.5239827" lon="11.8925804"><ele>263.0</ele><time>2026-04-19T12:25:27.546Z</time></trkpt><trkpt lat="43.5240857" lon="11.8926487"><ele>263.0</ele><time>2026-04-19T12:25:29.535Z</time></trkpt><trkpt lat="43.5241889" lon="11.8927142"><ele>263.0</ele><time>2026-04-19T12:25:31.552Z</time></trkpt><trkpt lat="43.5242917" lon="11.8927801"><ele>263.0</ele><time>2026-04-19T12:25:33.528Z</time></trkpt><trkpt lat="43.524395" lon="11.8928404"><ele>263.0</ele><time>2026-04-19T12:25:35.542Z</time></trkpt><trkpt lat="43.5244972" lon="11.8928999"><ele>263.0</ele><time>2026-04-19T12:25:37.534Z</time></trkpt><trkpt lat="43.5245975" lon="11.8929523"><ele>263.0</ele><time>2026-04-19T12:25:39.526Z</time></trkpt><trkpt lat="43.5246989" lon="11.8930045"><ele>263.0</ele><time>2026-04-19T12:25:41.54Z</time></trkpt><trkpt lat="43.5247994" lon="11.8930613"><ele>263.0</ele><time>2026-04-19T12:25:43.531Z</time></trkpt><trkpt lat="43.5249001" lon="11.8931157"><ele>263.0</ele><time>2026-04-19T12:25:45.532Z</time></trkpt><trkpt lat="43.5250054" lon="11.8931717"><ele>263.0</ele><time>2026-04-19T12:25:47.533Z</time></trkpt><trkpt lat="43.5251056" lon="11.8932252"><ele>263.0</ele><time>2026-04-19T12:25:49.52Z</time></trkpt><trkpt lat="43.5252064" lon="11.8932728"><ele>263.0</ele><time>2026-04-19T12:25:51.546Z</time></trkpt><trkpt lat="43.5253076" lon="11.8933191"><ele>263.0</ele><time>2026-04-19T12:25:53.54Z</time></trkpt><trkpt lat="43.5254099" lon="11.8933611"><ele>263.0</ele><time>2026-04-19T12:25:55.55Z</time></trkpt><trkpt lat="43.5255115" lon="11.893398"><ele>263.0</ele><time>2026-04-19T12:25:57.541Z</time></trkpt><trkpt lat="43.5256147" lon="11.8934369"><ele>263.0</ele><time>2026-04-19T12:25:59.524Z</time></trkpt><trkpt lat="43.5257201" lon="11.8934744"><ele>263.0</ele><time>2026-04-19T12:26:01.54Z</time></trkpt><trkpt lat="43.5258257" lon="11.893512"><ele>263.0</ele><time>2026-04-19T12:26:03.54Z</time></trkpt><trkpt lat="43.525931" lon="11.8935524"><ele>264.4</ele><time>2026-04-19T12:26:05.538Z</time></trkpt><trkpt lat="43.5260342" lon="11.8935881"><ele>265.8</ele><time>2026-04-19T12:26:07.522Z</time></trkpt><trkpt lat="43.5261383" lon="11.893623"><ele>267.2</ele><time>2026-04-19T12:26:09.526Z</time></trkpt><trkpt lat="43.5262401" lon="11.8936588"><ele>268.6</ele><time>2026-04-19T12:26:11.533Z</time></trkpt><trkpt lat="43.5263424" lon="11.8936911"><ele>270.0</ele><time>2026-04-19T12:26:13.53Z</time></trkpt><trkpt lat="43.5264443" lon="11.8937207"><ele>270.6</ele><time>2026-04-19T12:26:15.525Z</time></trkpt><trkpt lat="43.5265428" lon="11.8937554"><ele>271.2</ele><time>2026-04-19T12:26:17.534Z</time></trkpt><trkpt lat="43.5266326" lon="11.8937866"><ele>271.8</ele><time>2026-04-19T12:26:19.526Z</time></trkpt><trkpt lat="43.5267181" lon="11.8938511"><ele>272.4</ele><time>2026-04-19T12:26:21.521Z</time></trkpt><trkpt lat="43.5268024" lon="11.8939328"><ele>273.0</ele><time>2026-04-19T12:26:23.542Z</time></trkpt><trkpt lat="43.5268858" lon="11.8940155"><ele>273.0</ele><time>2026-04-19T12:26:25.528Z</time></trkpt><trkpt lat="43.5269714" lon="11.8941088"><ele>273.0</ele><time>2026-04-19T12:26:27.536Z</time></trkpt><trkpt lat="43.5270546" lon="11.8942099"><ele>273.0</ele><time>2026-04-19T12:26:29.535Z</time></trkpt><trkpt lat="43.5271333" lon="11.8943212"><ele>273.0</ele><time>2026-04-19T12:26:31.531Z</time></trkpt><trkpt lat="43.5272135" lon="11.8944365"><ele>273.0</ele><time>2026-04-19T12:26:33.528Z</time></trkpt><trkpt lat="43.5272922" lon="11.8945436"><ele>272.75</ele><time>2026-04-19T12:26:35.546Z</time></trkpt><trkpt lat="43.5273765" lon="11.8946431"><ele>272.5</ele><time>2026-04-19T12:26:37.528Z</time></trkpt><trkpt lat="43.5274678" lon="11.8947367"><ele>272.25</ele><time>2026-04-19T12:26:39.52Z</time></trkpt><trkpt lat="43.5275654" lon="11.8948213"><ele>272.0</ele><time>2026-04-19T12:26:41.514Z</time></trkpt><trkpt lat="43.5276663" lon="11.8948894"><ele>272.0</ele><time>2026-04-19T12:26:43.53Z</time></trkpt><trkpt lat="43.5277654" lon="11.8949538"><ele>272.0</ele><time>2026-04-19T12:26:45.539Z</time></trkpt><trkpt lat="43.5278693" lon="11.8950014"><ele>272.0</ele><time>2026-04-19T12:26:47.545Z</time></trkpt><trkpt lat="43.5279757" lon="11.8950446"><ele>272.0</ele><time>2026-04-19T12:26:49.537Z</time></trkpt><trkpt lat="43.52808" lon="11.8950822"><ele>272.0</ele><time>2026-04-19T12:26:51.524Z</time></trkpt><trkpt lat="43.5281846" lon="11.8951159"><ele>272.0</ele><time>2026-04-19T12:26:53.521Z</time></trkpt><trkpt lat="43.5282874" lon="11.8951454"><ele>272.0</ele><time>2026-04-19T12:26:55.521Z</time></trkpt><trkpt lat="43.5283872" lon="11.895174"><ele>272.0</ele><time>2026-04-19T12:26:57.524Z</time></trkpt><trkpt lat="43.5284861" lon="11.8951949"><ele>272.0</ele><time>2026-04-19T12:26:59.542Z</time></trkpt><trkpt lat="43.5285788" lon="11.8951986"><ele>272.0</ele><time>2026-04-19T12:27:01.542Z</time></trkpt><trkpt lat="43.5286777" lon="11.8951875"><ele>271.0</ele><time>2026-04-19T12:27:03.541Z</time></trkpt><trkpt lat="43.5287762" lon="11.8951695"><ele>270.0</ele><time>2026-04-19T12:27:05.539Z</time></trkpt><trkpt lat="43.5288723" lon="11.8951525"><ele>269.0</ele><time>2026-04-19T12:27:07.54Z</time></trkpt><trkpt lat="43.5289707" lon="11.8951399"><ele>268.0</ele><time>2026-04-19T12:27:09.525Z</time></trkpt><trkpt lat="43.5290677" lon="11.8951185"><ele>267.0</ele><time>2026-04-19T12:27:11.539Z</time></trkpt><trkpt lat="43.5291672" lon="11.8950959"><ele>267.0</ele><time>2026-04-19T12:27:13.554Z</time></trkpt><trkpt lat="43.5292672" lon="11.8950788"><ele>267.0</ele><time>2026-04-19T12:27:15.529Z</time></trkpt><trkpt lat="43.5293665" lon="11.89507"><ele>267.0</ele><time>2026-04-19T12:27:17.519Z</time></trkpt><trkpt lat="43.5294692" lon="11.8950849"><ele>267.0</ele><time>2026-04-19T12:27:19.518Z</time></trkpt><trkpt lat="43.5295672" lon="11.8951217"><ele>267.0</ele><time>2026-04-19T12:27:21.523Z</time></trkpt><trkpt lat="43.5296556" lon="11.8951764"><ele>267.0</ele><time>2026-04-19T12:27:23.536Z</time></trkpt><trkpt lat="43.5297352" lon="11.8952287"><ele>267.0</ele><time>2026-04-19T12:27:25.539Z</time></trkpt><trkpt lat="43.5298133" lon="11.8952794"><ele>267.0</ele><time>2026-04-19T12:27:27.54Z</time></trkpt><trkpt lat="43.5299013" lon="11.8953342"><ele>267.0</ele><time>2026-04-19T12:27:29.536Z</time></trkpt><trkpt lat="43.529991" lon="11.8953886"><ele>267.0</ele><time>2026-04-19T12:27:31.529Z</time></trkpt><trkpt lat="43.5300765" lon="11.8954446"><ele>267.0</ele><time>2026-04-19T12:27:33.539Z</time></trkpt><trkpt lat="43.530165" lon="11.8955061"><ele>267.0</ele><time>2026-04-19T12:27:35.522Z</time></trkpt><trkpt lat="43.5302521" lon="11.8955662"><ele>267.0</ele><time>2026-04-19T12:27:37.531Z</time></trkpt><trkpt lat="43.5303375" lon="11.8956311"><ele>267.0</ele><time>2026-04-19T12:27:39.55Z</time></trkpt><trkpt lat="43.5304236" lon="11.8956925"><ele>267.0</ele><time>2026-04-19T12:27:41.536Z</time></trkpt><trkpt lat="43.5305065" lon="11.8957538"><ele>267.2</ele><time>2026-04-19T12:27:43.542Z</time></trkpt><trkpt lat="43.5305945" lon="11.8958088"><ele>267.4</ele><time>2026-04-19T12:27:45.545Z</time></trkpt><trkpt lat="43.5306721" lon="11.8958821"><ele>267.6</ele><time>2026-04-19T12:27:47.534Z</time></trkpt><trkpt lat="43.5307438" lon="11.895956"><ele>267.8</ele><time>2026-04-19T12:27:49.534Z</time></trkpt><trkpt lat="43.5308227" lon="11.8960382"><ele>268.0</ele><time>2026-04-19T12:27:51.554Z</time></trkpt><trkpt lat="43.5308986" lon="11.8961247"><ele>268.0</ele><time>2026-04-19T12:27:53.529Z</time></trkpt><trkpt lat="43.5309716" lon="11.8962083"><ele>268.0</ele><time>2026-04-19T12:27:55.526Z</time></trkpt><trkpt lat="43.5310494" lon="11.8963142"><ele>268.0</ele><time>2026-04-19T12:27:57.543Z</time></trkpt><trkpt lat="43.5311209" lon="11.8964074"><ele>268.0</ele><time>2026-04-19T12:27:59.53Z</time></trkpt><trkpt lat="43.5312005" lon="11.8964942"><ele>268.0</ele><time>2026-04-19T12:28:01.532Z</time></trkpt><trkpt lat="43.5312846" lon="11.896574"><ele>268.0</ele><time>2026-04-19T12:28:03.535Z</time></trkpt><trkpt lat="43.5313684" lon="11.8966487"><ele>268.0</ele><time>2026-04-19T12:28:05.544Z</time></trkpt><trkpt lat="43.5314567" lon="11.8967292"><ele>268.0</ele><time>2026-04-19T12:28:07.533Z</time></trkpt><trkpt lat="43.5315449" lon="11.896808"><ele>268.0</ele><time>2026-04-19T12:28:09.517Z</time></trkpt><trkpt lat="43.531635" lon="11.8968868"><ele>268.0</ele><time>2026-04-19T12:28:11.549Z</time></trkpt><trkpt lat="43.5317276" lon="11.8969601"><ele>268.2</ele><time>2026-04-19T12:28:13.532Z</time></trkpt><trkpt lat="43.5318255" lon="11.8970221"><ele>268.4</ele><time>2026-04-19T12:28:15.555Z</time></trkpt><trkpt lat="43.5319291" lon="11.8970745"><ele>268.59999999999997</ele><time>2026-04-19T12:28:17.516Z</time></trkpt><trkpt lat="43.5320319" lon="11.897121"><ele>268.8</ele><time>2026-04-19T12:28:19.548Z</time></trkpt><trkpt lat="43.5321394" lon="11.8971674"><ele>269.0</ele><time>2026-04-19T12:28:21.536Z</time></trkpt><trkpt lat="43.5322455" lon="11.8972195"><ele>269.2</ele><time>2026-04-19T12:28:23.534Z</time></trkpt><trkpt lat="43.5323451" lon="11.8972585"><ele>269.4</ele><time>2026-04-19T12:28:25.548Z</time></trkpt><trkpt lat="43.5324488" lon="11.8973022"><ele>269.6</ele><time>2026-04-19T12:28:27.537Z</time></trkpt><trkpt lat="43.5325587" lon="11.8973398"><ele>269.8</ele><time>2026-04-19T12:28:29.526Z</time></trkpt><trkpt lat="43.5326645" lon="11.8973762"><ele>270.0</ele><time>2026-04-19T12:28:31.541Z</time></trkpt><trkpt lat="43.5327745" lon="11.8974162"><ele>270.0</ele><time>2026-04-19T12:28:33.516Z</time></trkpt><trkpt lat="43.532883" lon="11.8974554"><ele>270.0</ele><time>2026-04-19T12:28:35.548Z</time></trkpt><trkpt lat="43.5329934" lon="11.8974879"><ele>270.0</ele><time>2026-04-19T12:28:37.538Z</time></trkpt><trkpt lat="43.5331018" lon="11.8975266"><ele>270.0</ele><time>2026-04-19T12:28:39.519Z</time></trkpt><trkpt lat="43.5332132" lon="11.8975547"><ele>270.2</ele><time>2026-04-19T12:28:41.513Z</time></trkpt><trkpt lat="43.5333215" lon="11.897575"><ele>270.4</ele><time>2026-04-19T12:28:43.55Z</time></trkpt><trkpt lat="43.5334152" lon="11.8975911"><ele>270.6</ele><time>2026-04-19T12:28:45.529Z</time></trkpt><trkpt lat="43.5335222" lon="11.8976183"><ele>270.8</ele><time>2026-04-19T12:28:47.539Z</time></trkpt><trkpt lat="43.5336287" lon="11.8976482"><ele>271.0</ele><time>2026-04-19T12:28:49.547Z</time></trkpt><trkpt lat="43.5337296" lon="11.8976342"><ele>271.0</ele><time>2026-04-19T12:28:51.517Z</time></trkpt><trkpt lat="43.5337933" lon="11.8975448"><ele>271.0</ele><time>2026-04-19T12:28:53.536Z</time></trkpt><trkpt lat="43.5338387" lon="11.8974428"><ele>271.0</ele><time>2026-04-19T12:28:55.517Z</time></trkpt><trkpt lat="43.5338816" lon="11.8973458"><ele>271.0</ele><time>2026-04-19T12:28:57.54Z</time></trkpt><trkpt lat="43.5339251" lon="11.8972453"><ele>271.0</ele><time>2026-04-19T12:28:59.528Z</time></trkpt><trkpt lat="43.533963" lon="11.8971401"><ele>271.0</ele><time>2026-04-19T12:29:01.521Z</time></trkpt><trkpt lat="43.534001" lon="11.8970384"><ele>271.0</ele><time>2026-04-19T12:29:03.515Z</time></trkpt><trkpt lat="43.5340434" lon="11.896962"><ele>271.0</ele><time>2026-04-19T12:29:05.523Z</time></trkpt><trkpt lat="43.5340429" lon="11.8968409"><ele>271.0</ele><time>2026-04-19T12:29:09.533Z</time></trkpt><trkpt lat="43.5339824" lon="11.8967797"><ele>271.0</ele><time>2026-04-19T12:29:11.535Z</time></trkpt><trkpt lat="43.5339223" lon="11.8967238"><ele>271.0</ele><time>2026-04-19T12:29:13.557Z</time></trkpt><trkpt lat="43.5338785" lon="11.8966509"><ele>271.0</ele><time>2026-04-19T12:29:15.529Z</time></trkpt><trkpt lat="43.533933" lon="11.8965471"><ele>271.0</ele><time>2026-04-19T12:29:18.523Z</time></trkpt><trkpt lat="43.5339881" lon="11.8964657"><ele>271.0</ele><time>2026-04-19T12:29:20.516Z</time></trkpt><trkpt lat="43.5340386" lon="11.8963784"><ele>271.0</ele><time>2026-04-19T12:29:22.538Z</time></trkpt><trkpt lat="43.5340933" lon="11.8963014"><ele>271.0</ele><time>2026-04-19T12:29:24.53Z</time></trkpt><trkpt lat="43.5341355" lon="11.8962293"><ele>271.0</ele><time>2026-04-19T12:29:26.531Z</time></trkpt><trkpt lat="43.5341872" lon="11.8961617"><ele>271.0</ele><time>2026-04-19T12:29:28.558Z</time></trkpt><trkpt lat="43.5342305" lon="11.8960784"><ele>271.0</ele><time>2026-04-19T12:29:30.538Z</time></trkpt><trkpt lat="43.5342808" lon="11.8959981"><ele>271.0</ele><time>2026-04-19T12:29:32.52Z</time></trkpt><trkpt lat="43.5343402" lon="11.8959256"><ele>271.0</ele><time>2026-04-19T12:29:34.536Z</time></trkpt><trkpt lat="43.5343983" lon="11.8958483"><ele>271.0</ele><time>2026-04-19T12:29:36.538Z</time></trkpt><trkpt lat="43.5344602" lon="11.8957721"><ele>271.0</ele><time>2026-04-19T12:29:38.526Z</time></trkpt><trkpt lat="43.5345275" lon="11.8956927"><ele>271.0</ele><time>2026-04-19T12:29:40.537Z</time></trkpt><trkpt lat="43.5345884" lon="11.8956138"><ele>271.16666666666663</ele><time>2026-04-19T12:29:42.533Z</time></trkpt><trkpt lat="43.5346475" lon="11.8955341"><ele>271.3333333333333</ele><time>2026-04-19T12:29:44.55Z</time></trkpt><trkpt lat="43.5347055" lon="11.8954457"><ele>271.5</ele><time>2026-04-19T12:29:46.517Z</time></trkpt><trkpt lat="43.5347555" lon="11.8953565"><ele>271.6666666666667</ele><time>2026-04-19T12:29:48.533Z</time></trkpt><trkpt lat="43.5348078" lon="11.8952706"><ele>271.83333333333337</ele><time>2026-04-19T12:29:50.532Z</time></trkpt><trkpt lat="43.5348543" lon="11.8951896"><ele>272.0</ele><time>2026-04-19T12:29:52.542Z</time></trkpt><trkpt lat="43.5348991" lon="11.8951152"><ele>273.0</ele><time>2026-04-19T12:29:54.52Z</time></trkpt><trkpt lat="43.5349463" lon="11.8950372"><ele>274.0</ele><time>2026-04-19T12:29:56.524Z</time></trkpt><trkpt lat="43.5349949" lon="11.8949488"><ele>275.0</ele><time>2026-04-19T12:29:58.612Z</time></trkpt><trkpt lat="43.5350146" lon="11.8948203"><ele>276.0</ele><time>2026-04-19T12:30:01.532Z</time></trkpt><trkpt lat="43.5349554" lon="11.8947409"><ele>277.0</ele><time>2026-04-19T12:30:03.529Z</time></trkpt><trkpt lat="43.5348963" lon="11.8946889"><ele>278.0</ele><time>2026-04-19T12:30:05.52Z</time></trkpt><trkpt lat="43.5348818" lon="11.8945673"><ele>278.0</ele><time>2026-04-19T12:30:08.531Z</time></trkpt><trkpt lat="43.5349054" lon="11.8944856"><ele>278.0</ele><time>2026-04-19T12:30:10.529Z</time></trkpt><trkpt lat="43.5349409" lon="11.8944137"><ele>278.0</ele><time>2026-04-19T12:30:12.526Z</time></trkpt><trkpt lat="43.5349738" lon="11.8943024"><ele>278.0</ele><time>2026-04-19T12:30:15.522Z</time></trkpt><trkpt lat="43.5349987" lon="11.8941951"><ele>278.0</ele><time>2026-04-19T12:30:18.54Z</time></trkpt><trkpt lat="43.5350137" lon="11.8940833"><ele>278.0</ele><time>2026-04-19T12:30:21.526Z</time></trkpt><trkpt lat="43.5350177" lon="11.8939821"><ele>279.0</ele><time>2026-04-19T12:30:24.515Z</time></trkpt><trkpt lat="43.5350049" lon="11.8938851"><ele>280.0</ele><time>2026-04-19T12:30:27.552Z</time></trkpt><trkpt lat="43.5349735" lon="11.8937917"><ele>281.0</ele><time>2026-04-19T12:30:30.547Z</time></trkpt><trkpt lat="43.534981" lon="11.8936968"><ele>282.0</ele><time>2026-04-19T12:30:33.517Z</time></trkpt><trkpt lat="43.5350293" lon="11.8936134"><ele>283.0</ele><time>2026-04-19T12:30:36.525Z</time></trkpt><trkpt lat="43.5350713" lon="11.8935262"><ele>284.0</ele><time>2026-04-19T12:30:39.539Z</time></trkpt><trkpt lat="43.5351335" lon="11.893462"><ele>285.0</ele><time>2026-04-19T12:30:42.52Z</time></trkpt><trkpt lat="43.5352094" lon="11.893433"><ele>285.0</ele><time>2026-04-19T12:30:45.522Z</time></trkpt><trkpt lat="43.535296" lon="11.8934418"><ele>285.0</ele><time>2026-04-19T12:30:48.547Z</time></trkpt><trkpt lat="43.5353841" lon="11.893455"><ele>285.0</ele><time>2026-04-19T12:30:51.526Z</time></trkpt><trkpt lat="43.5354752" lon="11.8934621"><ele>285.0</ele><time>2026-04-19T12:30:54.541Z</time></trkpt><trkpt lat="43.5355384" lon="11.893468"><ele>285.0</ele><time>2026-04-19T12:30:56.548Z</time></trkpt><trkpt lat="43.5356259" lon="11.89343"><ele>285.0</ele><time>2026-04-19T12:30:59.517Z</time></trkpt><trkpt lat="43.535605" lon="11.8933336"><ele>286.85714285714283</ele><time>2026-04-19T12:31:02.516Z</time></trkpt><trkpt lat="43.5355309" lon="11.8933195"><ele>288.7142857142857</ele><time>2026-04-19T12:31:05.526Z</time></trkpt><trkpt lat="43.535454" lon="11.8932969"><ele>290.57142857142856</ele><time>2026-04-19T12:31:08.529Z</time></trkpt><trkpt lat="43.535386" lon="11.893262"><ele>292.42857142857144</ele><time>2026-04-19T12:31:11.531Z</time></trkpt><trkpt lat="43.5353181" lon="11.8932096"><ele>294.2857142857143</ele><time>2026-04-19T12:31:14.53Z</time></trkpt><trkpt lat="43.5352669" lon="11.8931387"><ele>296.1428571428571</ele><time>2026-04-19T12:31:17.545Z</time></trkpt><trkpt lat="43.5352487" lon="11.8930455"><ele>298.0</ele><time>2026-04-19T12:31:20.538Z</time></trkpt><trkpt lat="43.5353169" lon="11.8929704"><ele>298.0</ele><time>2026-04-19T12:31:23.527Z</time></trkpt><trkpt lat="43.5353865" lon="11.8929065"><ele>298.0</ele><time>2026-04-19T12:31:26.533Z</time></trkpt><trkpt lat="43.5354625" lon="11.8928675"><ele>298.0</ele><time>2026-04-19T12:31:29.535Z</time></trkpt><trkpt lat="43.5355327" lon="11.8928225"><ele>298.0</ele><time>2026-04-19T12:31:32.517Z</time></trkpt><trkpt lat="43.5356052" lon="11.8927636"><ele>298.0</ele><time>2026-04-19T12:31:35.518Z</time></trkpt><trkpt lat="43.5356801" lon="11.8926929"><ele>298.0</ele><time>2026-04-19T12:31:38.525Z</time></trkpt><trkpt lat="43.5357559" lon="11.8926289"><ele>300.66666666666663</ele><time>2026-04-19T12:31:41.542Z</time></trkpt><trkpt lat="43.5358352" lon="11.8925738"><ele>303.3333333333333</ele><time>2026-04-19T12:31:44.543Z</time></trkpt><trkpt lat="43.5359191" lon="11.8925391"><ele>306.0</ele><time>2026-04-19T12:31:47.506Z</time></trkpt><trkpt lat="43.5360053" lon="11.8925136"><ele>308.6666666666667</ele><time>2026-04-19T12:31:50.543Z</time></trkpt><trkpt lat="43.5360821" lon="11.8924476"><ele>311.33333333333337</ele><time>2026-04-19T12:31:53.515Z</time></trkpt><trkpt lat="43.5361454" lon="11.8923552"><ele>314.0</ele><time>2026-04-19T12:31:56.543Z</time></trkpt><trkpt lat="43.5362089" lon="11.8922613"><ele>313.6666666666667</ele><time>2026-04-19T12:31:59.545Z</time></trkpt><trkpt lat="43.5362818" lon="11.8921771"><ele>313.33333333333337</ele><time>2026-04-19T12:32:02.519Z</time></trkpt><trkpt lat="43.5363278" lon="11.8921175"><ele>313.0</ele><time>2026-04-19T12:32:04.523Z</time></trkpt><trkpt lat="43.5363954" lon="11.8920376"><ele>312.6666666666667</ele><time>2026-04-19T12:32:07.513Z</time></trkpt><trkpt lat="43.5364551" lon="11.8919495"><ele>312.3333333333333</ele><time>2026-04-19T12:32:10.518Z</time></trkpt><trkpt lat="43.5365085" lon="11.8918725"><ele>312.0</ele><time>2026-04-19T12:32:13.517Z</time></trkpt><trkpt lat="43.5365771" lon="11.8918209"><ele>312.0</ele><time>2026-04-19T12:32:16.54Z</time></trkpt><trkpt lat="43.5366375" lon="11.8917637"><ele>312.0</ele><time>2026-04-19T12:32:19.514Z</time></trkpt><trkpt lat="43.5367021" lon="11.8917197"><ele>312.0</ele><time>2026-04-19T12:32:22.545Z</time></trkpt><trkpt lat="43.5367642" lon="11.891668"><ele>312.0</ele><time>2026-04-19T12:32:25.538Z</time></trkpt><trkpt lat="43.5368286" lon="11.8916093"><ele>312.0</ele><time>2026-04-19T12:32:28.529Z</time></trkpt><trkpt lat="43.5368885" lon="11.8915351"><ele>312.0</ele><time>2026-04-19T12:32:31.544Z</time></trkpt><trkpt lat="43.5369427" lon="11.8914551"><ele>314.3333333333333</ele><time>2026-04-19T12:32:34.53Z</time></trkpt><trkpt lat="43.5369994" lon="11.8913676"><ele>316.6666666666667</ele><time>2026-04-19T12:32:37.536Z</time></trkpt><trkpt lat="43.5370528" lon="11.8912698"><ele>319.0</ele><time>2026-04-19T12:32:40.525Z</time></trkpt><trkpt lat="43.5371238" lon="11.8911947"><ele>321.33333333333337</ele><time>2026-04-19T12:32:43.531Z</time></trkpt><trkpt lat="43.5372041" lon="11.8911467"><ele>323.6666666666667</ele><time>2026-04-19T12:32:46.536Z</time></trkpt><trkpt lat="43.5372911" lon="11.8911007"><ele>326.0</ele><time>2026-04-19T12:32:49.538Z</time></trkpt><trkpt lat="43.5373692" lon="11.8910614"><ele>326.0</ele><time>2026-04-19T12:32:52.539Z</time></trkpt><trkpt lat="43.537452" lon="11.8910067"><ele>326.0</ele><time>2026-04-19T12:32:55.539Z</time></trkpt><trkpt lat="43.5375097" lon="11.8909687"><ele>326.0</ele><time>2026-04-19T12:32:57.518Z</time></trkpt><trkpt lat="43.5375943" lon="11.8909011"><ele>326.0</ele><time>2026-04-19T12:33:00.534Z</time></trkpt><trkpt lat="43.5376564" lon="11.8908367"><ele>326.0</ele><time>2026-04-19T12:33:02.545Z</time></trkpt><trkpt lat="43.5377116" lon="11.8907783"><ele>326.0</ele><time>2026-04-19T12:33:04.533Z</time></trkpt><trkpt lat="43.5377733" lon="11.8907096"><ele>327.33333333333337</ele><time>2026-04-19T12:33:06.544Z</time></trkpt><trkpt lat="43.5378404" lon="11.8906446"><ele>328.6666666666667</ele><time>2026-04-19T12:33:08.531Z</time></trkpt><trkpt lat="43.5379115" lon="11.8905733"><ele>330.0</ele><time>2026-04-19T12:33:10.523Z</time></trkpt><trkpt lat="43.5379815" lon="11.8905006"><ele>331.3333333333333</ele><time>2026-04-19T12:33:12.535Z</time></trkpt><trkpt lat="43.5380503" lon="11.8904298"><ele>332.66666666666663</ele><time>2026-04-19T12:33:14.534Z</time></trkpt><trkpt lat="43.5381213" lon="11.8903553"><ele>334.0</ele><time>2026-04-19T12:33:16.521Z</time></trkpt><trkpt lat="43.53819" lon="11.8902855"><ele>334.0</ele><time>2026-04-19T12:33:18.514Z</time></trkpt><trkpt lat="43.5382576" lon="11.8902159"><ele>334.0</ele><time>2026-04-19T12:33:20.528Z</time></trkpt><trkpt lat="43.5383284" lon="11.8901446"><ele>334.0</ele><time>2026-04-19T12:33:22.527Z</time></trkpt><trkpt lat="43.5383984" lon="11.8900685"><ele>334.0</ele><time>2026-04-19T12:33:24.514Z</time></trkpt><trkpt lat="43.5384696" lon="11.8899935"><ele>334.0</ele><time>2026-04-19T12:33:26.514Z</time></trkpt><trkpt lat="43.5385419" lon="11.8899239"><ele>334.0</ele><time>2026-04-19T12:33:28.517Z</time></trkpt><trkpt lat="43.5386168" lon="11.8898583"><ele>334.8333333333333</ele><time>2026-04-19T12:33:30.545Z</time></trkpt><trkpt lat="43.538685" lon="11.889787"><ele>335.66666666666663</ele><time>2026-04-19T12:33:32.53Z</time></trkpt><trkpt lat="43.538753" lon="11.8897133"><ele>336.5</ele><time>2026-04-19T12:33:34.524Z</time></trkpt><trkpt lat="43.5388225" lon="11.8896427"><ele>337.3333333333333</ele><time>2026-04-19T12:33:36.515Z</time></trkpt><trkpt lat="43.5388922" lon="11.8895757"><ele>338.1666666666667</ele><time>2026-04-19T12:33:38.514Z</time></trkpt><trkpt lat="43.5389567" lon="11.8895019"><ele>339.0</ele><time>2026-04-19T12:33:40.539Z</time></trkpt><trkpt lat="43.5390282" lon="11.8894358"><ele>339.0</ele><time>2026-04-19T12:33:42.529Z</time></trkpt><trkpt lat="43.5391011" lon="11.8893665"><ele>339.0</ele><time>2026-04-19T12:33:44.543Z</time></trkpt><trkpt lat="43.5391737" lon="11.8892918"><ele>339.0</ele><time>2026-04-19T12:33:46.55Z</time></trkpt><trkpt lat="43.539246" lon="11.8892233"><ele>339.0</ele><time>2026-04-19T12:33:48.523Z</time></trkpt><trkpt lat="43.5393251" lon="11.8891606"><ele>339.0</ele><time>2026-04-19T12:33:50.533Z</time></trkpt><trkpt lat="43.5394117" lon="11.8891349"><ele>339.0</ele><time>2026-04-19T12:33:52.523Z</time></trkpt><trkpt lat="43.5394989" lon="11.8891417"><ele>340.8333333333333</ele><time>2026-04-19T12:33:54.52Z</time></trkpt><trkpt lat="43.5395883" lon="11.8891495"><ele>342.6666666666667</ele><time>2026-04-19T12:33:56.517Z</time></trkpt><trkpt lat="43.5396782" lon="11.889153"><ele>344.5</ele><time>2026-04-19T12:33:58.529Z</time></trkpt><trkpt lat="43.5397645" lon="11.8891517"><ele>346.33333333333337</ele><time>2026-04-19T12:34:00.539Z</time></trkpt><trkpt lat="43.5398506" lon="11.8891567"><ele>348.1666666666667</ele><time>2026-04-19T12:34:02.544Z</time></trkpt><trkpt lat="43.5399395" lon="11.8891644"><ele>350.0</ele><time>2026-04-19T12:34:04.537Z</time></trkpt><trkpt lat="43.5400258" lon="11.8891683"><ele>350.0</ele><time>2026-04-19T12:34:06.516Z</time></trkpt><trkpt lat="43.5401088" lon="11.8891734"><ele>350.0</ele><time>2026-04-19T12:34:08.528Z</time></trkpt><trkpt lat="43.5401905" lon="11.8891798"><ele>350.0</ele><time>2026-04-19T12:34:10.537Z</time></trkpt><trkpt lat="43.5402729" lon="11.8891796"><ele>350.0</ele><time>2026-04-19T12:34:12.516Z</time></trkpt><trkpt lat="43.5403567" lon="11.8891856"><ele>350.0</ele><time>2026-04-19T12:34:14.529Z</time></trkpt><trkpt lat="43.5404418" lon="11.8891895"><ele>350.0</ele><time>2026-04-19T12:34:16.531Z</time></trkpt><trkpt lat="43.5405244" lon="11.889192"><ele>351.1666666666667</ele><time>2026-04-19T12:34:18.514Z</time></trkpt><trkpt lat="43.5406086" lon="11.8891925"><ele>352.33333333333337</ele><time>2026-04-19T12:34:20.516Z</time></trkpt><trkpt lat="43.5406902" lon="11.8891905"><ele>353.5</ele><time>2026-04-19T12:34:22.517Z</time></trkpt><trkpt lat="43.5407699" lon="11.8891847"><ele>354.6666666666667</ele><time>2026-04-19T12:34:24.523Z</time></trkpt><trkpt lat="43.5408498" lon="11.8891791"><ele>355.8333333333333</ele><time>2026-04-19T12:34:26.525Z</time></trkpt><trkpt lat="43.5409291" lon="11.8891673"><ele>357.0</ele><time>2026-04-19T12:34:28.513Z</time></trkpt><trkpt lat="43.5410094" lon="11.8891471"><ele>357.0</ele><time>2026-04-19T12:34:30.537Z</time></trkpt><trkpt lat="43.541092" lon="11.8891402"><ele>357.0</ele><time>2026-04-19T12:34:32.526Z</time></trkpt><trkpt lat="43.5411756" lon="11.8891361"><ele>357.0</ele><time>2026-04-19T12:34:34.525Z</time></trkpt><trkpt lat="43.5412586" lon="11.8891355"><ele>357.0</ele><time>2026-04-19T12:34:36.533Z</time></trkpt><trkpt lat="43.5413413" lon="11.8891358"><ele>357.0</ele><time>2026-04-19T12:34:38.518Z</time></trkpt><trkpt lat="43.5414236" lon="11.889139"><ele>357.0</ele><time>2026-04-19T12:34:40.54Z</time></trkpt><trkpt lat="43.5415065" lon="11.8891548"><ele>357.5</ele><time>2026-04-19T12:34:42.535Z</time></trkpt><trkpt lat="43.5415884" lon="11.8891795"><ele>358.0</ele><time>2026-04-19T12:34:44.523Z</time></trkpt><trkpt lat="43.5416695" lon="11.8892056"><ele>358.5</ele><time>2026-04-19T12:34:46.514Z</time></trkpt><trkpt lat="43.5417516" lon="11.8892331"><ele>359.0</ele><time>2026-04-19T12:34:48.514Z</time></trkpt><trkpt lat="43.5418337" lon="11.8892623"><ele>359.5</ele><time>2026-04-19T12:34:50.547Z</time></trkpt><trkpt lat="43.5419178" lon="11.8892795"><ele>360.0</ele><time>2026-04-19T12:34:52.523Z</time></trkpt><trkpt lat="43.5420032" lon="11.8892925"><ele>360.6666666666667</ele><time>2026-04-19T12:34:54.513Z</time></trkpt><trkpt lat="43.5420899" lon="11.8892929"><ele>361.3333333333333</ele><time>2026-04-19T12:34:56.532Z</time></trkpt><trkpt lat="43.5421777" lon="11.8892782"><ele>362.0</ele><time>2026-04-19T12:34:58.522Z</time></trkpt><trkpt lat="43.5422694" lon="11.8892512"><ele>362.66666666666663</ele><time>2026-04-19T12:35:00.529Z</time></trkpt><trkpt lat="43.5423546" lon="11.8892209"><ele>363.3333333333333</ele><time>2026-04-19T12:35:02.549Z</time></trkpt><trkpt lat="43.5424235" lon="11.8892058"><ele>364.0</ele><time>2026-04-19T12:35:04.545Z</time></trkpt><trkpt lat="43.5425033" lon="11.8891947"><ele>364.0</ele><time>2026-04-19T12:35:06.542Z</time></trkpt><trkpt lat="43.5425898" lon="11.8891898"><ele>364.0</ele><time>2026-04-19T12:35:08.543Z</time></trkpt><trkpt lat="43.5426797" lon="11.8891968"><ele>364.0</ele><time>2026-04-19T12:35:10.534Z</time></trkpt><trkpt lat="43.5427599" lon="11.8892099"><ele>364.0</ele><time>2026-04-19T12:35:12.54Z</time></trkpt><trkpt lat="43.5428429" lon="11.8892304"><ele>364.0</ele><time>2026-04-19T12:35:14.531Z</time></trkpt><trkpt lat="43.5429098" lon="11.8892247"><ele>364.0</ele><time>2026-04-19T12:35:16.536Z</time></trkpt><trkpt lat="43.5429322" lon="11.8891313"><ele>363.8333333333333</ele><time>2026-04-19T12:35:19.549Z</time></trkpt><trkpt lat="43.5428912" lon="11.8892176"><ele>363.66666666666663</ele><time>2026-04-19T12:39:10.61Z</time></trkpt><trkpt lat="43.5429526" lon="11.8892485"><ele>363.5</ele><time>2026-04-19T12:39:14.534Z</time></trkpt><trkpt lat="43.5430238" lon="11.8892612"><ele>363.3333333333333</ele><time>2026-04-19T12:39:16.526Z</time></trkpt><trkpt lat="43.5431124" lon="11.8892489"><ele>363.1666666666667</ele><time>2026-04-19T12:39:19.172Z</time></trkpt><trkpt lat="43.5432105" lon="11.8892166"><ele>363.0</ele><time>2026-04-19T12:39:21.614Z</time></trkpt><trkpt lat="43.5432924" lon="11.889195"><ele>363.0</ele><time>2026-04-19T12:39:23.536Z</time></trkpt><trkpt lat="43.5433629" lon="11.889148"><ele>363.0</ele><time>2026-04-19T12:39:25.589Z</time></trkpt><trkpt lat="43.5434287" lon="11.8890972"><ele>363.0</ele><time>2026-04-19T12:39:27.635Z</time></trkpt><trkpt lat="43.5434977" lon="11.8890509"><ele>363.0</ele><time>2026-04-19T12:39:29.532Z</time></trkpt><trkpt lat="43.5435691" lon="11.8889885"><ele>363.0</ele><time>2026-04-19T12:39:31.609Z</time></trkpt><trkpt lat="43.5436425" lon="11.8889263"><ele>363.0</ele><time>2026-04-19T12:39:33.635Z</time></trkpt><trkpt lat="43.5437044" lon="11.8888519"><ele>363.5</ele><time>2026-04-19T12:39:35.57Z</time></trkpt><trkpt lat="43.5437675" lon="11.8887757"><ele>364.0</ele><time>2026-04-19T12:39:37.523Z</time></trkpt><trkpt lat="43.5438356" lon="11.8886965"><ele>364.5</ele><time>2026-04-19T12:39:39.541Z</time></trkpt><trkpt lat="43.543908" lon="11.888621"><ele>365.0</ele><time>2026-04-19T12:39:41.528Z</time></trkpt><trkpt lat="43.543981" lon="11.8885454"><ele>365.5</ele><time>2026-04-19T12:39:43.548Z</time></trkpt><trkpt lat="43.5440517" lon="11.8884665"><ele>366.0</ele><time>2026-04-19T12:39:45.544Z</time></trkpt><trkpt lat="43.5441229" lon="11.8883911"><ele>366.0</ele><time>2026-04-19T12:39:47.545Z</time></trkpt><trkpt lat="43.5441936" lon="11.888314"><ele>366.0</ele><time>2026-04-19T12:39:49.528Z</time></trkpt><trkpt lat="43.5442644" lon="11.8882381"><ele>366.0</ele><time>2026-04-19T12:39:51.537Z</time></trkpt><trkpt lat="43.5443355" lon="11.8881665"><ele>366.0</ele><time>2026-04-19T12:39:53.528Z</time></trkpt><trkpt lat="43.5444052" lon="11.8880916"><ele>366.0</ele><time>2026-04-19T12:39:55.548Z</time></trkpt><trkpt lat="43.5444775" lon="11.8880239"><ele>366.0</ele><time>2026-04-19T12:39:57.546Z</time></trkpt><trkpt lat="43.5445509" lon="11.8879605"><ele>366.3333333333333</ele><time>2026-04-19T12:39:59.542Z</time></trkpt><trkpt lat="43.5446278" lon="11.8879071"><ele>366.6666666666667</ele><time>2026-04-19T12:40:01.549Z</time></trkpt><trkpt lat="43.5447015" lon="11.8878516"><ele>367.0</ele><time>2026-04-19T12:40:03.551Z</time></trkpt><trkpt lat="43.5447772" lon="11.8878035"><ele>367.33333333333337</ele><time>2026-04-19T12:40:05.543Z</time></trkpt><trkpt lat="43.5448519" lon="11.8877519"><ele>367.6666666666667</ele><time>2026-04-19T12:40:07.54Z</time></trkpt><trkpt lat="43.5449247" lon="11.8876989"><ele>368.0</ele><time>2026-04-19T12:40:09.541Z</time></trkpt><trkpt lat="43.5449981" lon="11.8876514"><ele>368.0</ele><time>2026-04-19T12:40:11.541Z</time></trkpt><trkpt lat="43.5450722" lon="11.8876015"><ele>368.0</ele><time>2026-04-19T12:40:13.548Z</time></trkpt><trkpt lat="43.5451518" lon="11.8875603"><ele>368.0</ele><time>2026-04-19T12:40:15.549Z</time></trkpt><trkpt lat="43.5452268" lon="11.8875172"><ele>368.0</ele><time>2026-04-19T12:40:17.542Z</time></trkpt><trkpt lat="43.545301" lon="11.8874845"><ele>368.0</ele><time>2026-04-19T12:40:19.542Z</time></trkpt><trkpt lat="43.5453774" lon="11.8874528"><ele>368.0</ele><time>2026-04-19T12:40:21.524Z</time></trkpt><trkpt lat="43.5454505" lon="11.8874259"><ele>369.5</ele><time>2026-04-19T12:40:23.542Z</time></trkpt><trkpt lat="43.545528" lon="11.8873954"><ele>371.0</ele><time>2026-04-19T12:40:25.515Z</time></trkpt><trkpt lat="43.5456052" lon="11.8873701"><ele>372.5</ele><time>2026-04-19T12:40:27.532Z</time></trkpt><trkpt lat="43.545692" lon="11.8873403"><ele>374.0</ele><time>2026-04-19T12:40:29.595Z</time></trkpt><trkpt lat="43.5457671" lon="11.8873045"><ele>375.5</ele><time>2026-04-19T12:40:31.615Z</time></trkpt><trkpt lat="43.5458434" lon="11.8872682"><ele>377.0</ele><time>2026-04-19T12:40:33.571Z</time></trkpt><trkpt lat="43.5459124" lon="11.8872091"><ele>377.0</ele><time>2026-04-19T12:40:35.522Z</time></trkpt><trkpt lat="43.5459899" lon="11.8871652"><ele>377.0</ele><time>2026-04-19T12:40:37.541Z</time></trkpt><trkpt lat="43.5460665" lon="11.8871207"><ele>377.0</ele><time>2026-04-19T12:40:39.523Z</time></trkpt><trkpt lat="43.5461491" lon="11.8870774"><ele>377.0</ele><time>2026-04-19T12:40:41.546Z</time></trkpt><trkpt lat="43.5462183" lon="11.8870477"><ele>377.0</ele><time>2026-04-19T12:40:43.521Z</time></trkpt><trkpt lat="43.5462951" lon="11.8870175"><ele>377.0</ele><time>2026-04-19T12:40:45.556Z</time></trkpt><trkpt lat="43.5463676" lon="11.8869964"><ele>377.6</ele><time>2026-04-19T12:40:47.602Z</time></trkpt><trkpt lat="43.5464699" lon="11.8869647"><ele>378.20000000000005</ele><time>2026-04-19T12:40:50.536Z</time></trkpt><trkpt lat="43.5465514" lon="11.8869198"><ele>378.8</ele><time>2026-04-19T12:40:52.533Z</time></trkpt><trkpt lat="43.5466398" lon="11.8868765"><ele>379.4</ele><time>2026-04-19T12:40:54.543Z</time></trkpt><trkpt lat="43.5467294" lon="11.8868242"><ele>380.0</ele><time>2026-04-19T12:40:56.535Z</time></trkpt><trkpt lat="43.546821" lon="11.886765"><ele>379.4</ele><time>2026-04-19T12:40:58.546Z</time></trkpt><trkpt lat="43.5469114" lon="11.8866976"><ele>378.8</ele><time>2026-04-19T12:41:00.534Z</time></trkpt><trkpt lat="43.5469987" lon="11.8866303"><ele>378.20000000000005</ele><time>2026-04-19T12:41:02.523Z</time></trkpt><trkpt lat="43.5470865" lon="11.8865653"><ele>377.6</ele><time>2026-04-19T12:41:04.532Z</time></trkpt><trkpt lat="43.5471748" lon="11.8865015"><ele>377.0</ele><time>2026-04-19T12:41:06.541Z</time></trkpt><trkpt lat="43.5472581" lon="11.886426"><ele>377.0</ele><time>2026-04-19T12:41:08.543Z</time></trkpt><trkpt lat="43.5473366" lon="11.8863532"><ele>377.0</ele><time>2026-04-19T12:41:10.542Z</time></trkpt><trkpt lat="43.5474136" lon="11.8862776"><ele>377.0</ele><time>2026-04-19T12:41:12.555Z</time></trkpt><trkpt lat="43.547487" lon="11.8862096"><ele>377.0</ele><time>2026-04-19T12:41:14.534Z</time></trkpt><trkpt lat="43.5475587" lon="11.8861712"><ele>377.0</ele><time>2026-04-19T12:41:16.517Z</time></trkpt><trkpt lat="43.5476264" lon="11.8861313"><ele>377.0</ele><time>2026-04-19T12:41:18.546Z</time></trkpt><trkpt lat="43.5476976" lon="11.8860786"><ele>376.99999999999994</ele><time>2026-04-19T12:41:20.53Z</time></trkpt><trkpt lat="43.5477643" lon="11.8860215"><ele>377.0</ele><time>2026-04-19T12:41:22.525Z</time></trkpt><trkpt lat="43.5478282" lon="11.8859502"><ele>377.0</ele><time>2026-04-19T12:41:24.54Z</time></trkpt><trkpt lat="43.5478866" lon="11.885881"><ele>377.0</ele><time>2026-04-19T12:41:26.537Z</time></trkpt><trkpt lat="43.5479373" lon="11.8858228"><ele>377.0</ele><time>2026-04-19T12:41:28.548Z</time></trkpt><trkpt lat="43.5479945" lon="11.8857648"><ele>376.99999999999994</ele><time>2026-04-19T12:41:30.538Z</time></trkpt><trkpt lat="43.5480471" lon="11.8857042"><ele>377.0</ele><time>2026-04-19T12:41:32.526Z</time></trkpt><trkpt lat="43.5480955" lon="11.8856433"><ele>378.85714285714283</ele><time>2026-04-19T12:41:34.527Z</time></trkpt><trkpt lat="43.5481399" lon="11.8855742"><ele>380.7142857142857</ele><time>2026-04-19T12:41:36.543Z</time></trkpt><trkpt lat="43.5481847" lon="11.8855107"><ele>382.57142857142856</ele><time>2026-04-19T12:41:38.535Z</time></trkpt><trkpt lat="43.5482277" lon="11.8854465"><ele>384.42857142857144</ele><time>2026-04-19T12:41:40.541Z</time></trkpt><trkpt lat="43.5482717" lon="11.8853809"><ele>386.2857142857143</ele><time>2026-04-19T12:41:42.543Z</time></trkpt><trkpt lat="43.5483122" lon="11.8853134"><ele>388.1428571428571</ele><time>2026-04-19T12:41:44.538Z</time></trkpt><trkpt lat="43.5483567" lon="11.8852493"><ele>390.0</ele><time>2026-04-19T12:41:46.532Z</time></trkpt><trkpt lat="43.548402" lon="11.8851819"><ele>390.6666666666667</ele><time>2026-04-19T12:41:48.548Z</time></trkpt><trkpt lat="43.548468" lon="11.8850908"><ele>391.33333333333337</ele><time>2026-04-19T12:41:51.529Z</time></trkpt><trkpt lat="43.5485254" lon="11.8849965"><ele>392.0</ele><time>2026-04-19T12:41:54.544Z</time></trkpt><trkpt lat="43.5485713" lon="11.8849287"><ele>392.6666666666667</ele><time>2026-04-19T12:41:56.535Z</time></trkpt><trkpt lat="43.5486231" lon="11.8848472"><ele>393.33333333333337</ele><time>2026-04-19T12:41:58.531Z</time></trkpt><trkpt lat="43.5486763" lon="11.8847671"><ele>394.0</ele><time>2026-04-19T12:42:00.541Z</time></trkpt><trkpt lat="43.5487222" lon="11.8846828"><ele>394.0</ele><time>2026-04-19T12:42:02.525Z</time></trkpt><trkpt lat="43.5487621" lon="11.8846014"><ele>394.0</ele><time>2026-04-19T12:42:04.536Z</time></trkpt><trkpt lat="43.5488137" lon="11.8845293"><ele>394.0</ele><time>2026-04-19T12:42:06.54Z</time></trkpt><trkpt lat="43.5488675" lon="11.8844527"><ele>394.0</ele><time>2026-04-19T12:42:08.52Z</time></trkpt><trkpt lat="43.5489149" lon="11.8843839"><ele>394.0</ele><time>2026-04-19T12:42:10.537Z</time></trkpt><trkpt lat="43.5489592" lon="11.8843132"><ele>394.0</ele><time>2026-04-19T12:42:12.525Z</time></trkpt><trkpt lat="43.5490083" lon="11.8842513"><ele>394.0</ele><time>2026-04-19T12:42:14.55Z</time></trkpt><trkpt lat="43.5490578" lon="11.8841804"><ele>395.14285714285717</ele><time>2026-04-19T12:42:16.545Z</time></trkpt><trkpt lat="43.5491" lon="11.8841058"><ele>396.28571428571433</ele><time>2026-04-19T12:42:18.526Z</time></trkpt><trkpt lat="43.5491465" lon="11.8840224"><ele>397.42857142857144</ele><time>2026-04-19T12:42:20.523Z</time></trkpt><trkpt lat="43.5491923" lon="11.883947"><ele>398.57142857142856</ele><time>2026-04-19T12:42:22.553Z</time></trkpt><trkpt lat="43.5492336" lon="11.8838642"><ele>399.7142857142857</ele><time>2026-04-19T12:42:24.548Z</time></trkpt><trkpt lat="43.5492603" lon="11.8837739"><ele>400.85714285714283</ele><time>2026-04-19T12:42:26.527Z</time></trkpt><trkpt lat="43.549285" lon="11.8836797"><ele>402.0</ele><time>2026-04-19T12:42:28.533Z</time></trkpt><trkpt lat="43.5493192" lon="11.8835828"><ele>402.0</ele><time>2026-04-19T12:42:31.53Z</time></trkpt><trkpt lat="43.5493472" lon="11.8834893"><ele>402.0</ele><time>2026-04-19T12:42:33.541Z</time></trkpt><trkpt lat="43.549387" lon="11.8833817"><ele>402.0</ele><time>2026-04-19T12:42:35.521Z</time></trkpt><trkpt lat="43.5494189" lon="11.8832897"><ele>402.0</ele><time>2026-04-19T12:42:37.537Z</time></trkpt><trkpt lat="43.5494558" lon="11.8831986"><ele>402.0</ele><time>2026-04-19T12:42:39.533Z</time></trkpt><trkpt lat="43.5494896" lon="11.8831202"><ele>402.0</ele><time>2026-04-19T12:42:41.542Z</time></trkpt><trkpt lat="43.5495253" lon="11.8830215"><ele>402.1666666666667</ele><time>2026-04-19T12:42:43.555Z</time></trkpt><trkpt lat="43.5495663" lon="11.8829202"><ele>402.33333333333337</ele><time>2026-04-19T12:42:45.55Z</time></trkpt><trkpt lat="43.5496155" lon="11.8828233"><ele>402.5</ele><time>2026-04-19T12:42:48.528Z</time></trkpt><trkpt lat="43.5496491" lon="11.8827357"><ele>402.6666666666667</ele><time>2026-04-19T12:42:50.525Z</time></trkpt><trkpt lat="43.5496805" lon="11.8826556"><ele>402.83333333333337</ele><time>2026-04-19T12:42:52.532Z</time></trkpt><trkpt lat="43.5497159" lon="11.8825788"><ele>403.0</ele><time>2026-04-19T12:42:54.545Z</time></trkpt><trkpt lat="43.549756" lon="11.8824704"><ele>404.6666666666667</ele><time>2026-04-19T12:42:57.553Z</time></trkpt><trkpt lat="43.5497987" lon="11.8823553"><ele>406.33333333333337</ele><time>2026-04-19T12:43:00.519Z</time></trkpt><trkpt lat="43.5498357" lon="11.8822796"><ele>408.0</ele><time>2026-04-19T12:43:02.528Z</time></trkpt><trkpt lat="43.5499019" lon="11.8821927"><ele>409.66666666666663</ele><time>2026-04-19T12:43:05.536Z</time></trkpt><trkpt lat="43.5499694" lon="11.88212"><ele>411.3333333333333</ele><time>2026-04-19T12:43:08.53Z</time></trkpt><trkpt lat="43.5500222" lon="11.88206"><ele>413.0</ele><time>2026-04-19T12:43:10.528Z</time></trkpt><trkpt lat="43.5500912" lon="11.8819876"><ele>412.99999999999994</ele><time>2026-04-19T12:43:13.527Z</time></trkpt><trkpt lat="43.5501485" lon="11.8819249"><ele>413.0</ele><time>2026-04-19T12:43:16.542Z</time></trkpt><trkpt lat="43.5502117" lon="11.8818357"><ele>413.0</ele><time>2026-04-19T12:43:19.541Z</time></trkpt><trkpt lat="43.5502769" lon="11.8817693"><ele>413.0</ele><time>2026-04-19T12:43:22.525Z</time></trkpt><trkpt lat="43.5503491" lon="11.8817369"><ele>412.99999999999994</ele><time>2026-04-19T12:43:25.537Z</time></trkpt><trkpt lat="43.5504118" lon="11.8817454"><ele>413.0</ele><time>2026-04-19T12:43:27.533Z</time></trkpt><trkpt lat="43.5504794" lon="11.881751"><ele>415.14285714285717</ele><time>2026-04-19T12:43:29.526Z</time></trkpt><trkpt lat="43.5505615" lon="11.881732"><ele>417.2857142857143</ele><time>2026-04-19T12:43:32.526Z</time></trkpt><trkpt lat="43.5506011" lon="11.8816401"><ele>419.42857142857144</ele><time>2026-04-19T12:43:35.544Z</time></trkpt><trkpt lat="43.5506267" lon="11.8815491"><ele>421.57142857142856</ele><time>2026-04-19T12:43:38.544Z</time></trkpt><trkpt lat="43.550641" lon="11.8814553"><ele>423.7142857142857</ele><time>2026-04-19T12:43:41.529Z</time></trkpt><trkpt lat="43.5506638" lon="11.8813716"><ele>425.8571428571429</ele><time>2026-04-19T12:43:44.542Z</time></trkpt><trkpt lat="43.5507014" lon="11.8812755"><ele>428.0</ele><time>2026-04-19T12:43:48.521Z</time></trkpt><trkpt lat="43.5507499" lon="11.8811979"><ele>428.00000000000006</ele><time>2026-04-19T12:43:52.531Z</time></trkpt><trkpt lat="43.5507902" lon="11.8811169"><ele>428.0</ele><time>2026-04-19T12:43:56.539Z</time></trkpt><trkpt lat="43.5508179" lon="11.8810311"><ele>428.0</ele><time>2026-04-19T12:44:00.539Z</time></trkpt><trkpt lat="43.5508287" lon="11.8809361"><ele>428.0</ele><time>2026-04-19T12:44:04.538Z</time></trkpt><trkpt lat="43.5508325" lon="11.8808434"><ele>428.0</ele><time>2026-04-19T12:44:09.537Z</time></trkpt><trkpt lat="43.5508931" lon="11.8808196"><ele>428.00000000000006</ele><time>2026-04-19T12:44:13.537Z</time></trkpt><trkpt lat="43.5509682" lon="11.8807903"><ele>428.0</ele><time>2026-04-19T12:44:18.54Z</time></trkpt><trkpt lat="43.5510295" lon="11.8807668"><ele>430.14285714285717</ele><time>2026-04-19T12:44:22.55Z</time></trkpt><trkpt lat="43.5510992" lon="11.8807508"><ele>432.2857142857143</ele><time>2026-04-19T12:44:26.552Z</time></trkpt><trkpt lat="43.5511514" lon="11.8806805"><ele>434.42857142857144</ele><time>2026-04-19T12:44:30.549Z</time></trkpt><trkpt lat="43.5511785" lon="11.8805848"><ele>436.57142857142856</ele><time>2026-04-19T12:44:34.539Z</time></trkpt><trkpt lat="43.5512124" lon="11.8804882"><ele>438.7142857142857</ele><time>2026-04-19T12:44:38.527Z</time></trkpt><trkpt lat="43.5512499" lon="11.8804094"><ele>440.8571428571429</ele><time>2026-04-19T12:44:41.541Z</time></trkpt><trkpt lat="43.5512902" lon="11.8803378"><ele>443.0</ele><time>2026-04-19T12:44:44.525Z</time></trkpt><trkpt lat="43.5513314" lon="11.8802666"><ele>443.3333333333333</ele><time>2026-04-19T12:44:47.545Z</time></trkpt><trkpt lat="43.5513688" lon="11.8801937"><ele>443.66666666666663</ele><time>2026-04-19T12:44:50.548Z</time></trkpt><trkpt lat="43.5513875" lon="11.8801074"><ele>444.0</ele><time>2026-04-19T12:44:53.538Z</time></trkpt><trkpt lat="43.551401" lon="11.8800086"><ele>444.33333333333337</ele><time>2026-04-19T12:44:56.539Z</time></trkpt><trkpt lat="43.5514172" lon="11.8799058"><ele>444.6666666666667</ele><time>2026-04-19T12:44:59.518Z</time></trkpt><trkpt lat="43.5514656" lon="11.8797895"><ele>445.0</ele><time>2026-04-19T12:45:02.548Z</time></trkpt><trkpt lat="43.551511" lon="11.8797101"><ele>447.6</ele><time>2026-04-19T12:45:04.534Z</time></trkpt><trkpt lat="43.5515552" lon="11.8796326"><ele>450.2</ele><time>2026-04-19T12:45:06.52Z</time></trkpt><trkpt lat="43.5516104" lon="11.8795419"><ele>452.79999999999995</ele><time>2026-04-19T12:45:08.516Z</time></trkpt><trkpt lat="43.5516887" lon="11.8794782"><ele>455.4</ele><time>2026-04-19T12:45:10.533Z</time></trkpt><trkpt lat="43.5517778" lon="11.8794089"><ele>458.0</ele><time>2026-04-19T12:45:12.549Z</time></trkpt><trkpt lat="43.5518662" lon="11.8793359"><ele>457.59999999999997</ele><time>2026-04-19T12:45:14.536Z</time></trkpt><trkpt lat="43.5519489" lon="11.8792419"><ele>457.19999999999993</ele><time>2026-04-19T12:45:16.543Z</time></trkpt><trkpt lat="43.5520076" lon="11.8792071"><ele>456.8</ele><time>2026-04-19T12:45:17.528Z</time></trkpt><trkpt lat="43.5520722" lon="11.8791727"><ele>456.4</ele><time>2026-04-19T12:45:18.54Z</time></trkpt><trkpt lat="43.5521893" lon="11.8791185"><ele>456.0</ele><time>2026-04-19T12:45:20.538Z</time></trkpt><trkpt lat="43.5522838" lon="11.8790693"><ele>455.6666666666667</ele><time>2026-04-19T12:45:22.516Z</time></trkpt><trkpt lat="43.5523606" lon="11.8790036"><ele>455.33333333333337</ele><time>2026-04-19T12:45:24.541Z</time></trkpt><trkpt lat="43.5524323" lon="11.878933"><ele>455.0</ele><time>2026-04-19T12:45:27.545Z</time></trkpt><trkpt lat="43.5525054" lon="11.8788748"><ele>454.6666666666667</ele><time>2026-04-19T12:45:30.532Z</time></trkpt><trkpt lat="43.5525832" lon="11.8788235"><ele>454.33333333333337</ele><time>2026-04-19T12:45:33.546Z</time></trkpt><trkpt lat="43.5526572" lon="11.8787709"><ele>454.0</ele><time>2026-04-19T12:45:36.542Z</time></trkpt><trkpt lat="43.5527349" lon="11.8787459"><ele>454.0</ele><time>2026-04-19T12:45:39.533Z</time></trkpt><trkpt lat="43.5527975" lon="11.8787119"><ele>454.00000000000006</ele><time>2026-04-19T12:45:42.52Z</time></trkpt><trkpt lat="43.5528659" lon="11.8786693"><ele>454.0</ele><time>2026-04-19T12:45:45.534Z</time></trkpt><trkpt lat="43.5529314" lon="11.8786169"><ele>454.0</ele><time>2026-04-19T12:45:48.556Z</time></trkpt><trkpt lat="43.5529974" lon="11.8785629"><ele>454.00000000000006</ele><time>2026-04-19T12:45:51.536Z</time></trkpt><trkpt lat="43.553045" lon="11.8784946"><ele>454.0</ele><time>2026-04-19T12:45:54.558Z</time></trkpt><trkpt lat="43.5530994" lon="11.8784332"><ele>454.0</ele><time>2026-04-19T12:45:57.538Z</time></trkpt><trkpt lat="43.5531669" lon="11.8783636"><ele>455.42857142857144</ele><time>2026-04-19T12:46:01.549Z</time></trkpt><trkpt lat="43.5532319" lon="11.8783299"><ele>456.8571428571429</ele><time>2026-04-19T12:46:04.54Z</time></trkpt><trkpt lat="43.5532836" lon="11.8782654"><ele>458.28571428571433</ele><time>2026-04-19T12:46:07.544Z</time></trkpt><trkpt lat="43.5533338" lon="11.8781935"><ele>459.7142857142858</ele><time>2026-04-19T12:46:10.541Z</time></trkpt><trkpt lat="43.5534024" lon="11.8781733"><ele>461.14285714285717</ele><time>2026-04-19T12:46:14.554Z</time></trkpt><trkpt lat="43.5534755" lon="11.8781353"><ele>462.57142857142867</ele><time>2026-04-19T12:46:17.539Z</time></trkpt><trkpt lat="43.5535393" lon="11.8780897"><ele>464.00000000000006</ele><time>2026-04-19T12:46:20.538Z</time></trkpt><trkpt lat="43.5536005" lon="11.8780482"><ele>463.99999999999994</ele><time>2026-04-19T12:46:23.549Z</time></trkpt><trkpt lat="43.5536705" lon="11.8780094"><ele>464.0</ele><time>2026-04-19T12:46:26.545Z</time></trkpt><trkpt lat="43.5537437" lon="11.8779601"><ele>464.0</ele><time>2026-04-19T12:46:29.525Z</time></trkpt><trkpt lat="43.5538154" lon="11.8779079"><ele>464.0</ele><time>2026-04-19T12:46:32.539Z</time></trkpt><trkpt lat="43.5538966" lon="11.8778578"><ele>463.99999999999994</ele><time>2026-04-19T12:46:35.522Z</time></trkpt><trkpt lat="43.5539735" lon="11.8778003"><ele>464.0</ele><time>2026-04-19T12:46:38.546Z</time></trkpt><trkpt lat="43.5540309" lon="11.8777634"><ele>464.8333333333333</ele><time>2026-04-19T12:46:41.553Z</time></trkpt><trkpt lat="43.5541208" lon="11.8776996"><ele>465.66666666666663</ele><time>2026-04-19T12:46:45.545Z</time></trkpt><trkpt lat="43.5541688" lon="11.8776408"><ele>466.5</ele><time>2026-04-19T12:46:47.535Z</time></trkpt><trkpt lat="43.5542372" lon="11.8775675"><ele>467.33333333333337</ele><time>2026-04-19T12:46:50.549Z</time></trkpt><trkpt lat="43.5542879" lon="11.8775149"><ele>468.1666666666667</ele><time>2026-04-19T12:46:52.531Z</time></trkpt><trkpt lat="43.5543628" lon="11.8774592"><ele>469.0</ele><time>2026-04-19T12:46:55.55Z</time></trkpt><trkpt lat="43.5544381" lon="11.8774361"><ele>469.83333333333337</ele><time>2026-04-19T12:46:58.541Z</time></trkpt><trkpt lat="43.5545258" lon="11.8774062"><ele>470.6666666666667</ele><time>2026-04-19T12:47:01.518Z</time></trkpt><trkpt lat="43.5546096" lon="11.877365"><ele>471.5</ele><time>2026-04-19T12:47:04.545Z</time></trkpt><trkpt lat="43.5546899" lon="11.8773285"><ele>472.33333333333337</ele><time>2026-04-19T12:47:07.54Z</time></trkpt><trkpt lat="43.5547522" lon="11.8772849"><ele>473.1666666666667</ele><time>2026-04-19T12:47:10.538Z</time></trkpt><trkpt lat="43.5548199" lon="11.8772615"><ele>474.0</ele><time>2026-04-19T12:47:12.537Z</time></trkpt><trkpt lat="43.5549034" lon="11.8772327"><ele>474.5714285714285</ele><time>2026-04-19T12:47:15.539Z</time></trkpt><trkpt lat="43.5549815" lon="11.877217"><ele>475.1428571428571</ele><time>2026-04-19T12:47:18.549Z</time></trkpt><trkpt lat="43.5550392" lon="11.8771792"><ele>475.7142857142857</ele><time>2026-04-19T12:47:21.518Z</time></trkpt><trkpt lat="43.5550793" lon="11.8771004"><ele>476.2857142857143</ele><time>2026-04-19T12:47:24.544Z</time></trkpt><trkpt lat="43.5551011" lon="11.8769919"><ele>476.8571428571429</ele><time>2026-04-19T12:47:27.525Z</time></trkpt><trkpt lat="43.5551229" lon="11.8769065"><ele>477.4285714285715</ele><time>2026-04-19T12:47:29.55Z</time></trkpt><trkpt lat="43.5551598" lon="11.8768265"><ele>478.00000000000006</ele><time>2026-04-19T12:47:31.532Z</time></trkpt><trkpt lat="43.5552137" lon="11.8767597"><ele>478.00000000000006</ele><time>2026-04-19T12:47:33.549Z</time></trkpt><trkpt lat="43.5552574" lon="11.8766845"><ele>478.0</ele><time>2026-04-19T12:47:35.538Z</time></trkpt><trkpt lat="43.5553384" lon="11.8766056"><ele>478.0</ele><time>2026-04-19T12:47:38.53Z</time></trkpt><trkpt lat="43.555427" lon="11.8765194"><ele>478.0</ele><time>2026-04-19T12:47:40.539Z</time></trkpt><trkpt lat="43.5554761" lon="11.8764572"><ele>478.00000000000006</ele><time>2026-04-19T12:47:42.526Z</time></trkpt><trkpt lat="43.5555401" lon="11.8764189"><ele>478.0</ele><time>2026-04-19T12:47:46.535Z</time></trkpt><trkpt lat="43.5556281" lon="11.8763912"><ele>479.57142857142867</ele><time>2026-04-19T12:47:49.541Z</time></trkpt><trkpt lat="43.5556751" lon="11.8763199"><ele>481.14285714285717</ele><time>2026-04-19T12:47:51.537Z</time></trkpt><trkpt lat="43.5557005" lon="11.8762395"><ele>482.7142857142858</ele><time>2026-04-19T12:47:53.516Z</time></trkpt><trkpt lat="43.5557161" lon="11.8761273"><ele>484.28571428571433</ele><time>2026-04-19T12:47:56.555Z</time></trkpt><trkpt lat="43.5557066" lon="11.8760126"><ele>485.8571428571429</ele><time>2026-04-19T12:47:59.548Z</time></trkpt><trkpt lat="43.5557154" lon="11.8759156"><ele>487.42857142857144</ele><time>2026-04-19T12:48:02.53Z</time></trkpt><trkpt lat="43.5557423" lon="11.8758312"><ele>489.0</ele><time>2026-04-19T12:48:04.536Z</time></trkpt><trkpt lat="43.555786" lon="11.8757648"><ele>489.0</ele><time>2026-04-19T12:48:06.55Z</time></trkpt><trkpt lat="43.5558212" lon="11.8756921"><ele>489.0</ele><time>2026-04-19T12:48:08.516Z</time></trkpt><trkpt lat="43.5558422" lon="11.8755711"><ele>489.0</ele><time>2026-04-19T12:48:11.537Z</time></trkpt><trkpt lat="43.5558438" lon="11.8754502"><ele>489.0</ele><time>2026-04-19T12:48:14.543Z</time></trkpt><trkpt lat="43.5558244" lon="11.8753369"><ele>489.0</ele><time>2026-04-19T12:48:17.54Z</time></trkpt><trkpt lat="43.5558459" lon="11.8752295"><ele>489.0</ele><time>2026-04-19T12:48:20.557Z</time></trkpt><trkpt lat="43.5558574" lon="11.8751152"><ele>489.3333333333333</ele><time>2026-04-19T12:48:23.545Z</time></trkpt><trkpt lat="43.5558946" lon="11.8750024"><ele>489.66666666666663</ele><time>2026-04-19T12:48:27.538Z</time></trkpt><trkpt lat="43.5559394" lon="11.8749308"><ele>490.0</ele><time>2026-04-19T12:48:30.529Z</time></trkpt><trkpt lat="43.5560401" lon="11.8749047"><ele>490.3333333333333</ele><time>2026-04-19T12:48:33.449Z</time></trkpt><trkpt lat="43.556121" lon="11.8748863"><ele>490.66666666666663</ele><time>2026-04-19T12:48:35.554Z</time></trkpt><trkpt lat="43.5561868" lon="11.8748401"><ele>491.0</ele><time>2026-04-19T12:48:37.555Z</time></trkpt><trkpt lat="43.5562635" lon="11.8748155"><ele>491.49999999999994</ele><time>2026-04-19T12:48:39.59Z</time></trkpt><trkpt lat="43.5563412" lon="11.8748528"><ele>492.0</ele><time>2026-04-19T12:48:41.574Z</time></trkpt><trkpt lat="43.5564001" lon="11.8749442"><ele>492.5</ele><time>2026-04-19T12:48:43.534Z</time></trkpt><trkpt lat="43.5564297" lon="11.8750366"><ele>493.0</ele><time>2026-04-19T12:48:45.555Z</time></trkpt><trkpt lat="43.5564375" lon="11.8751286"><ele>493.49999999999994</ele><time>2026-04-19T12:48:48.543Z</time></trkpt><trkpt lat="43.5564269" lon="11.8752443"><ele>494.0</ele><time>2026-04-19T12:48:51.538Z</time></trkpt><trkpt lat="43.5564179" lon="11.875351"><ele>493.99999999999994</ele><time>2026-04-19T12:48:54.545Z</time></trkpt><trkpt lat="43.5564049" lon="11.8754567"><ele>494.0</ele><time>2026-04-19T12:48:57.593Z</time></trkpt><trkpt lat="43.5563977" lon="11.8755661"><ele>494.0</ele><time>2026-04-19T12:49:00.541Z</time></trkpt><trkpt lat="43.5563898" lon="11.8756716"><ele>494.0</ele><time>2026-04-19T12:49:03.578Z</time></trkpt><trkpt lat="43.5563759" lon="11.8757827"><ele>493.99999999999994</ele><time>2026-04-19T12:49:06.656Z</time></trkpt><trkpt lat="43.5563749" lon="11.875888"><ele>494.0</ele><time>2026-04-19T12:49:09.58Z</time></trkpt><trkpt lat="43.5564011" lon="11.8759949"><ele>495.66666666666663</ele><time>2026-04-19T12:49:13.538Z</time></trkpt><trkpt lat="43.5564276" lon="11.8760776"><ele>497.3333333333333</ele><time>2026-04-19T12:49:16.532Z</time></trkpt><trkpt lat="43.5564485" lon="11.8761801"><ele>499.0</ele><time>2026-04-19T12:49:19.525Z</time></trkpt><trkpt lat="43.556448" lon="11.8762758"><ele>500.66666666666663</ele><time>2026-04-19T12:49:24.535Z</time></trkpt><trkpt lat="43.5564737" lon="11.8764148"><ele>502.3333333333333</ele><time>2026-04-19T12:49:28.546Z</time></trkpt><trkpt lat="43.5564874" lon="11.8765316"><ele>504.0</ele><time>2026-04-19T12:49:31.529Z</time></trkpt><trkpt lat="43.5565128" lon="11.8766148"><ele>504.0</ele><time>2026-04-19T12:49:33.517Z</time></trkpt><trkpt lat="43.5565477" lon="11.8767195"><ele>504.0</ele><time>2026-04-19T12:49:36.54Z</time></trkpt><trkpt lat="43.556568" lon="11.8768254"><ele>504.0</ele><time>2026-04-19T12:49:39.544Z</time></trkpt><trkpt lat="43.5565874" lon="11.8769362"><ele>504.0</ele><time>2026-04-19T12:49:41.537Z</time></trkpt><trkpt lat="43.5566044" lon="11.8770226"><ele>504.0</ele><time>2026-04-19T12:49:43.541Z</time></trkpt><trkpt lat="43.556629" lon="11.8771058"><ele>504.0</ele><time>2026-04-19T12:49:45.534Z</time></trkpt><trkpt lat="43.5566782" lon="11.877233"><ele>503.2</ele><time>2026-04-19T12:49:47.518Z</time></trkpt><trkpt lat="43.556747" lon="11.8773286"><ele>502.4</ele><time>2026-04-19T12:49:49.539Z</time></trkpt><trkpt lat="43.5568241" lon="11.8774051"><ele>501.6</ele><time>2026-04-19T12:49:51.541Z</time></trkpt><trkpt lat="43.5569232" lon="11.8774944"><ele>500.8</ele><time>2026-04-19T12:49:53.537Z</time></trkpt><trkpt lat="43.5570237" lon="11.8775919"><ele>500.0</ele><time>2026-04-19T12:49:55.522Z</time></trkpt><trkpt lat="43.5570809" lon="11.8776463"><ele>499.99999999999994</ele><time>2026-04-19T12:49:56.538Z</time></trkpt><trkpt lat="43.5571457" lon="11.8777074"><ele>500.0</ele><time>2026-04-19T12:49:57.521Z</time></trkpt><trkpt lat="43.5572086" lon="11.8777699"><ele>500.0</ele><time>2026-04-19T12:49:58.518Z</time></trkpt><trkpt lat="43.5572627" lon="11.8778315"><ele>500.0</ele><time>2026-04-19T12:49:59.549Z</time></trkpt><trkpt lat="43.5573156" lon="11.8778861"><ele>499.99999999999994</ele><time>2026-04-19T12:50:00.55Z</time></trkpt><trkpt lat="43.5573683" lon="11.877937"><ele>500.0</ele><time>2026-04-19T12:50:01.538Z</time></trkpt><trkpt lat="43.5574676" lon="11.8779848"><ele>500.0</ele><time>2026-04-19T12:50:03.518Z</time></trkpt><trkpt lat="43.5575594" lon="11.8780324"><ele>500.0</ele><time>2026-04-19T12:50:05.549Z</time></trkpt><trkpt lat="43.5576711" lon="11.8780711"><ele>500.0</ele><time>2026-04-19T12:50:07.529Z</time></trkpt><trkpt lat="43.5577828" lon="11.878101"><ele>500.0</ele><time>2026-04-19T12:50:09.546Z</time></trkpt><trkpt lat="43.5578897" lon="11.8781297"><ele>500.0</ele><time>2026-04-19T12:50:11.548Z</time></trkpt><trkpt lat="43.5580049" lon="11.878166"><ele>499.6</ele><time>2026-04-19T12:50:13.537Z</time></trkpt><trkpt lat="43.5581227" lon="11.878211"><ele>499.2</ele><time>2026-04-19T12:50:15.545Z</time></trkpt><trkpt lat="43.5581859" lon="11.8782378"><ele>498.79999999999995</ele><time>2026-04-19T12:50:16.534Z</time></trkpt><trkpt lat="43.558293" lon="11.8782938"><ele>498.4</ele><time>2026-04-19T12:50:18.528Z</time></trkpt><trkpt lat="43.5584011" lon="11.8783719"><ele>498.0</ele><time>2026-04-19T12:50:20.535Z</time></trkpt><trkpt lat="43.5584568" lon="11.8784158"><ele>497.25</ele><time>2026-04-19T12:50:21.547Z</time></trkpt><trkpt lat="43.5585635" lon="11.8784925"><ele>496.5</ele><time>2026-04-19T12:50:23.527Z</time></trkpt><trkpt lat="43.5586762" lon="11.8785624"><ele>495.75</ele><time>2026-04-19T12:50:25.549Z</time></trkpt><trkpt lat="43.5587774" lon="11.8786486"><ele>495.0</ele><time>2026-04-19T12:50:27.52Z</time></trkpt><trkpt lat="43.558863" lon="11.8787604"><ele>495.0</ele><time>2026-04-19T12:50:29.521Z</time></trkpt><trkpt lat="43.5589291" lon="11.8788823"><ele>495.0</ele><time>2026-04-19T12:50:31.51Z</time></trkpt><trkpt lat="43.5589874" lon="11.8789971"><ele>495.0</ele><time>2026-04-19T12:50:33.538Z</time></trkpt><trkpt lat="43.5590444" lon="11.8791092"><ele>495.0</ele><time>2026-04-19T12:50:35.515Z</time></trkpt><trkpt lat="43.5590953" lon="11.8792018"><ele>495.0</ele><time>2026-04-19T12:50:37.526Z</time></trkpt><trkpt lat="43.559145" lon="11.8792553"><ele>495.0</ele><time>2026-04-19T12:50:39.524Z</time></trkpt><trkpt lat="43.5592214" lon="11.8792363"><ele>495.0</ele><time>2026-04-19T12:51:07.509Z</time></trkpt><trkpt lat="43.5592877" lon="11.8791881"><ele>495.0</ele><time>2026-04-19T12:51:09.508Z</time></trkpt><trkpt lat="43.559299" lon="11.8790793"><ele>495.0</ele><time>2026-04-19T12:51:11.557Z</time></trkpt><trkpt lat="43.5592556" lon="11.8789933"><ele>495.0</ele><time>2026-04-19T12:51:13.558Z</time></trkpt></trkseg></trk></gpx>